<?xml version='1.0' encoding='UTF-8'?><gpx version="1.1" creator="JPX - https://github.com/jenetics/jpx" xmlns="http://www.topografix.com/GPX/1/1"><trk><trkseg><trkpt lat="43.7639102" lon="11.2750819"><ele>50.0</ele><time>2026-04-26T09:47:32.993Z</time></trkpt><trkpt lat="43.7639265" lon="11.2748997"><ele>50.0</ele><time>2026-04-26T09:47:34.993Z</time></trkpt><trkpt lat="43.763924" lon="11.2747769"><ele>50.0</ele><time>2026-04-26T09:47:35.993Z</time></trkpt><trkpt lat="43.7639248" lon="11.2746339"><ele>50.0</ele><time>2026-04-26T09:47:36.993Z</time></trkpt><trkpt lat="43.7639271" lon="11.2744813"><ele>50.0</ele><time>2026-04-26T09:47:37.993Z</time></trkpt><trkpt lat="43.7639273" lon="11.2743182"><ele>50.5</ele><time>2026-04-26T09:47:38.993Z</time></trkpt><trkpt lat="43.763926" lon="11.2741575"><ele>51.0</ele><time>2026-04-26T09:47:39.993Z</time></trkpt><trkpt lat="43.7639252" lon="11.273996"><ele>51.5</ele><time>2026-04-26T09:47:40.993Z</time></trkpt><trkpt lat="43.7639298" lon="11.273833"><ele>52.0</ele><time>2026-04-26T09:47:41.994Z</time></trkpt><trkpt lat="43.7639302" lon="11.2736579"><ele>52.25</ele><time>2026-04-26T09:47:42.993Z</time></trkpt><trkpt lat="43.763925" lon="11.2734821"><ele>52.5</ele><time>2026-04-26T09:47:43.993Z</time></trkpt><trkpt lat="43.763924" lon="11.273308"><ele>52.75</ele><time>2026-04-26T09:47:44.993Z</time></trkpt><trkpt lat="43.763918" lon="11.2731381"><ele>53.0</ele><time>2026-04-26T09:47:45.993Z</time></trkpt><trkpt lat="43.7639153" lon="11.2729743"><ele>53.0</ele><time>2026-04-26T09:47:46.993Z</time></trkpt><trkpt lat="43.7639127" lon="11.2728159"><ele>53.0</ele><time>2026-04-26T09:47:47.993Z</time></trkpt><trkpt lat="43.763914" lon="11.272672"><ele>53.0</ele><time>2026-04-26T09:47:48.993Z</time></trkpt><trkpt lat="43.7639162" lon="11.2725457"><ele>53.0</ele><time>2026-04-26T09:47:49.993Z</time></trkpt><trkpt lat="43.7639125" lon="11.2724274"><ele>53.0</ele><time>2026-04-26T09:47:50.993Z</time></trkpt><trkpt lat="43.7639073" lon="11.2723297"><ele>53.16666666666667</ele><time>2026-04-26T09:47:51.993Z</time></trkpt><trkpt lat="43.763872" lon="11.2721918"><ele>53.333333333333336</ele><time>2026-04-26T09:47:53.994Z</time></trkpt><trkpt lat="43.7637716" lon="11.2721553"><ele>53.5</ele><time>2026-04-26T09:47:55.993Z</time></trkpt><trkpt lat="43.7636671" lon="11.2721546"><ele>53.66666666666667</ele><time>2026-04-26T09:47:57.993Z</time></trkpt><trkpt lat="43.7636027" lon="11.2721575"><ele>53.833333333333336</ele><time>2026-04-26T09:47:59.993Z</time></trkpt><trkpt lat="43.7635396" lon="11.2721801"><ele>54.0</ele><time>2026-04-26T09:48:01.993Z</time></trkpt><trkpt lat="43.763497" lon="11.2722978"><ele>54.0</ele><time>2026-04-26T09:48:03.993Z</time></trkpt><trkpt lat="43.7634864" lon="11.2723957"><ele>54.0</ele><time>2026-04-26T09:48:04.994Z</time></trkpt><trkpt lat="43.7634814" lon="11.272497"><ele>54.0</ele><time>2026-04-26T09:48:05.993Z</time></trkpt><trkpt lat="43.7634679" lon="11.2726004"><ele>54.0</ele><time>2026-04-26T09:48:06.993Z</time></trkpt><trkpt lat="43.7634551" lon="11.2727149"><ele>54.0</ele><time>2026-04-26T09:48:07.993Z</time></trkpt><trkpt lat="43.7634461" lon="11.2728393"><ele>54.0</ele><time>2026-04-26T09:48:08.993Z</time></trkpt><trkpt lat="43.7634276" lon="11.2729651"><ele>54.0</ele><time>2026-04-26T09:48:09.993Z</time></trkpt><trkpt lat="43.7634077" lon="11.2730956"><ele>54.00000000000001</ele><time>2026-04-26T09:48:10.994Z</time></trkpt><trkpt lat="43.7633911" lon="11.2732282"><ele>54.00000000000001</ele><time>2026-04-26T09:48:11.993Z</time></trkpt><trkpt lat="43.7633736" lon="11.2733606"><ele>54.0</ele><time>2026-04-26T09:48:12.993Z</time></trkpt><trkpt lat="43.763356" lon="11.2734938"><ele>54.0</ele><time>2026-04-26T09:48:13.993Z</time></trkpt><trkpt lat="43.7633412" lon="11.2736191"><ele>54.0</ele><time>2026-04-26T09:48:14.993Z</time></trkpt><trkpt lat="43.7633261" lon="11.2737325"><ele>54.0</ele><time>2026-04-26T09:48:15.993Z</time></trkpt><trkpt lat="43.7633122" lon="11.273836"><ele>54.0</ele><time>2026-04-26T09:48:16.994Z</time></trkpt><trkpt lat="43.7632971" lon="11.2739283"><ele>54.0</ele><time>2026-04-26T09:48:17.993Z</time></trkpt><trkpt lat="43.7632831" lon="11.2740157"><ele>54.0</ele><time>2026-04-26T09:48:18.993Z</time></trkpt><trkpt lat="43.7632232" lon="11.2741532"><ele>54.0</ele><time>2026-04-26T09:48:20.993Z</time></trkpt><trkpt lat="43.7631105" lon="11.2742156"><ele>54.0</ele><time>2026-04-26T09:48:22.993Z</time></trkpt><trkpt lat="43.7630408" lon="11.2742228"><ele>54.0</ele><time>2026-04-26T09:48:23.994Z</time></trkpt><trkpt lat="43.7629692" lon="11.2742148"><ele>54.0</ele><time>2026-04-26T09:48:24.993Z</time></trkpt><trkpt lat="43.7628911" lon="11.2742278"><ele>54.0</ele><time>2026-04-26T09:48:25.993Z</time></trkpt><trkpt lat="43.7628146" lon="11.2742307"><ele>54.0</ele><time>2026-04-26T09:48:26.993Z</time></trkpt><trkpt lat="43.7627411" lon="11.2742327"><ele>54.0</ele><time>2026-04-26T09:48:27.993Z</time></trkpt><trkpt lat="43.7626674" lon="11.2742316"><ele>54.0</ele><time>2026-04-26T09:48:28.993Z</time></trkpt><trkpt lat="43.7625897" lon="11.2742282"><ele>53.5</ele><time>2026-04-26T09:48:29.993Z</time></trkpt><trkpt lat="43.7625121" lon="11.2742276"><ele>53.0</ele><time>2026-04-26T09:48:30.993Z</time></trkpt><trkpt lat="43.762445" lon="11.2742299"><ele>52.5</ele><time>2026-04-26T09:48:31.993Z</time></trkpt><trkpt lat="43.7623348" lon="11.2742352"><ele>52.0</ele><time>2026-04-26T09:48:33.993Z</time></trkpt><trkpt lat="43.7622541" lon="11.2742381"><ele>51.5</ele><time>2026-04-26T09:48:35.993Z</time></trkpt><trkpt lat="43.7621834" lon="11.2743034"><ele>51.0</ele><time>2026-04-26T09:48:38.994Z</time></trkpt><trkpt lat="43.7621915" lon="11.2744323"><ele>51.0</ele><time>2026-04-26T09:48:40.993Z</time></trkpt><trkpt lat="43.7622076" lon="11.2745171"><ele>51.0</ele><time>2026-04-26T09:48:41.993Z</time></trkpt><trkpt lat="43.7622274" lon="11.2746137"><ele>51.0</ele><time>2026-04-26T09:48:42.993Z</time></trkpt><trkpt lat="43.7622448" lon="11.2747122"><ele>51.0</ele><time>2026-04-26T09:48:43.993Z</time></trkpt><trkpt lat="43.7622633" lon="11.2748129"><ele>51.0</ele><time>2026-04-26T09:48:44.993Z</time></trkpt><trkpt lat="43.7622872" lon="11.2749043"><ele>51.0</ele><time>2026-04-26T09:48:45.993Z</time></trkpt><trkpt lat="43.7623071" lon="11.2749954"><ele>51.0</ele><time>2026-04-26T09:48:46.993Z</time></trkpt><trkpt lat="43.7623279" lon="11.275093"><ele>51.166666666666664</ele><time>2026-04-26T09:48:47.993Z</time></trkpt><trkpt lat="43.7623522" lon="11.275193"><ele>51.33333333333333</ele><time>2026-04-26T09:48:48.993Z</time></trkpt><trkpt lat="43.7623775" lon="11.2753051"><ele>51.5</ele><time>2026-04-26T09:48:49.993Z</time></trkpt><trkpt lat="43.7624002" lon="11.2754256"><ele>51.666666666666664</ele><time>2026-04-26T09:48:50.993Z</time></trkpt><trkpt lat="43.762418" lon="11.2755496"><ele>51.83333333333333</ele><time>2026-04-26T09:48:51.993Z</time></trkpt><trkpt lat="43.7624313" lon="11.2756648"><ele>52.0</ele><time>2026-04-26T09:48:52.993Z</time></trkpt><trkpt lat="43.7624443" lon="11.2757767"><ele>52.0</ele><time>2026-04-26T09:48:53.993Z</time></trkpt><trkpt lat="43.7624561" lon="11.2758948"><ele>52.0</ele><time>2026-04-26T09:48:54.993Z</time></trkpt><trkpt lat="43.7624642" lon="11.2760183"><ele>52.0</ele><time>2026-04-26T09:48:55.993Z</time></trkpt><trkpt lat="43.7624827" lon="11.2761485"><ele>52.0</ele><time>2026-04-26T09:48:56.993Z</time></trkpt><trkpt lat="43.7624995" lon="11.276272"><ele>52.0</ele><time>2026-04-26T09:48:57.993Z</time></trkpt><trkpt lat="43.7625129" lon="11.2763998"><ele>51.99999999999999</ele><time>2026-04-26T09:48:58.993Z</time></trkpt><trkpt lat="43.7625239" lon="11.2765206"><ele>52.0</ele><time>2026-04-26T09:48:59.993Z</time></trkpt><trkpt lat="43.7625335" lon="11.2766194"><ele>52.0</ele><time>2026-04-26T09:49:00.993Z</time></trkpt><trkpt lat="43.7625438" lon="11.2767592"><ele>52.0</ele><time>2026-04-26T09:49:02.993Z</time></trkpt><trkpt lat="43.7625562" lon="11.2768496"><ele>51.99999999999999</ele><time>2026-04-26T09:49:05.993Z</time></trkpt><trkpt lat="43.7625567" lon="11.2769407"><ele>52.0</ele><time>2026-04-26T09:49:31.993Z</time></trkpt><trkpt lat="43.7625715" lon="11.2770443"><ele>52.0</ele><time>2026-04-26T09:49:32.993Z</time></trkpt><trkpt lat="43.7625763" lon="11.277167"><ele>52.0</ele><time>2026-04-26T09:49:33.993Z</time></trkpt><trkpt lat="43.7625754" lon="11.2772997"><ele>52.0</ele><time>2026-04-26T09:49:34.993Z</time></trkpt><trkpt lat="43.7625733" lon="11.2774535"><ele>52.0</ele><time>2026-04-26T09:49:35.993Z</time></trkpt><trkpt lat="43.7625722" lon="11.2776215"><ele>52.0</ele><time>2026-04-26T09:49:36.993Z</time></trkpt><trkpt lat="43.7625726" lon="11.2777873"><ele>51.75</ele><time>2026-04-26T09:49:37.993Z</time></trkpt><trkpt lat="43.7625722" lon="11.2779549"><ele>51.5</ele><time>2026-04-26T09:49:38.993Z</time></trkpt><trkpt lat="43.7625722" lon="11.2781111"><ele>51.25</ele><time>2026-04-26T09:49:39.993Z</time></trkpt><trkpt lat="43.76257" lon="11.2782736"><ele>51.0</ele><time>2026-04-26T09:49:40.993Z</time></trkpt><trkpt lat="43.7625666" lon="11.2784349"><ele>51.0</ele><time>2026-04-26T09:49:41.993Z</time></trkpt><trkpt lat="43.7625588" lon="11.2786016"><ele>51.0</ele><time>2026-04-26T09:49:42.994Z</time></trkpt><trkpt lat="43.7625434" lon="11.278773"><ele>51.0</ele><time>2026-04-26T09:49:43.994Z</time></trkpt><trkpt lat="43.7625257" lon="11.2789521"><ele>51.0</ele><time>2026-04-26T09:49:44.993Z</time></trkpt><trkpt lat="43.762509" lon="11.2791402"><ele>51.25</ele><time>2026-04-26T09:49:45.993Z</time></trkpt><trkpt lat="43.7624896" lon="11.2793353"><ele>51.5</ele><time>2026-04-26T09:49:46.994Z</time></trkpt><trkpt lat="43.7624748" lon="11.2795333"><ele>51.75</ele><time>2026-04-26T09:49:47.993Z</time></trkpt><trkpt lat="43.7624647" lon="11.2797349"><ele>52.0</ele><time>2026-04-26T09:49:48.993Z</time></trkpt><trkpt lat="43.7624602" lon="11.2799339"><ele>52.0</ele><time>2026-04-26T09:49:49.993Z</time></trkpt><trkpt lat="43.7624617" lon="11.2801302"><ele>52.0</ele><time>2026-04-26T09:49:50.993Z</time></trkpt><trkpt lat="43.7624651" lon="11.2803279"><ele>52.0</ele><time>2026-04-26T09:49:51.994Z</time></trkpt><trkpt lat="43.7624632" lon="11.2805241"><ele>52.0</ele><time>2026-04-26T09:49:52.993Z</time></trkpt><trkpt lat="43.7624554" lon="11.2807091"><ele>52.0</ele><time>2026-04-26T09:49:53.993Z</time></trkpt><trkpt lat="43.7624464" lon="11.2808855"><ele>52.0</ele><time>2026-04-26T09:49:54.993Z</time></trkpt><trkpt lat="43.7624382" lon="11.2810458"><ele>52.0</ele><time>2026-04-26T09:49:55.993Z</time></trkpt><trkpt lat="43.7624295" lon="11.2812106"><ele>52.0</ele><time>2026-04-26T09:49:56.993Z</time></trkpt><trkpt lat="43.7624308" lon="11.2813743"><ele>52.0</ele><time>2026-04-26T09:49:57.993Z</time></trkpt><trkpt lat="43.7624313" lon="11.2815303"><ele>52.0</ele><time>2026-04-26T09:49:58.993Z</time></trkpt><trkpt lat="43.7624294" lon="11.2816736"><ele>52.0</ele><time>2026-04-26T09:49:59.993Z</time></trkpt><trkpt lat="43.7624235" lon="11.2818077"><ele>52.0</ele><time>2026-04-26T09:50:00.993Z</time></trkpt><trkpt lat="43.7624182" lon="11.2819353"><ele>52.0</ele><time>2026-04-26T09:50:01.993Z</time></trkpt><trkpt lat="43.7624178" lon="11.2820497"><ele>52.0</ele><time>2026-04-26T09:50:02.993Z</time></trkpt><trkpt lat="43.7624157" lon="11.2821578"><ele>52.0</ele><time>2026-04-26T09:50:03.994Z</time></trkpt><trkpt lat="43.7624157" lon="11.282251"><ele>52.0</ele><time>2026-04-26T09:50:04.993Z</time></trkpt><trkpt lat="43.7624046" lon="11.2823984"><ele>52.0</ele><time>2026-04-26T09:50:06.993Z</time></trkpt><trkpt lat="43.7623706" lon="11.2825341"><ele>52.0</ele><time>2026-04-26T09:50:08.993Z</time></trkpt><trkpt lat="43.7623164" lon="11.2826776"><ele>52.33333333333333</ele><time>2026-04-26T09:50:10.993Z</time></trkpt><trkpt lat="43.7622883" lon="11.2827625"><ele>52.666666666666664</ele><time>2026-04-26T09:50:11.994Z</time></trkpt><trkpt lat="43.7622523" lon="11.28284"><ele>53.0</ele><time>2026-04-26T09:50:12.993Z</time></trkpt><trkpt lat="43.7621992" lon="11.2829052"><ele>53.33333333333333</ele><time>2026-04-26T09:50:13.993Z</time></trkpt><trkpt lat="43.7621329" lon="11.2829547"><ele>53.666666666666664</ele><time>2026-04-26T09:50:14.993Z</time></trkpt><trkpt lat="43.7620581" lon="11.2830033"><ele>54.0</ele><time>2026-04-26T09:50:15.993Z</time></trkpt><trkpt lat="43.7619835" lon="11.2830791"><ele>54.0</ele><time>2026-04-26T09:50:16.993Z</time></trkpt><trkpt lat="43.7619047" lon="11.2831498"><ele>54.00000000000001</ele><time>2026-04-26T09:50:17.993Z</time></trkpt><trkpt lat="43.7618222" lon="11.28322"><ele>54.00000000000001</ele><time>2026-04-26T09:50:18.993Z</time></trkpt><trkpt lat="43.7617399" lon="11.2832878"><ele>54.0</ele><time>2026-04-26T09:50:19.994Z</time></trkpt><trkpt lat="43.7616596" lon="11.2833702"><ele>54.0</ele><time>2026-04-26T09:50:20.993Z</time></trkpt><trkpt lat="43.7615779" lon="11.2834632"><ele>54.0</ele><time>2026-04-26T09:50:21.993Z</time></trkpt><trkpt lat="43.7614929" lon="11.2835452"><ele>54.00000000000001</ele><time>2026-04-26T09:50:22.993Z</time></trkpt><trkpt lat="43.7614119" lon="11.2836394"><ele>54.00000000000001</ele><time>2026-04-26T09:50:23.993Z</time></trkpt><trkpt lat="43.7613305" lon="11.2837205"><ele>54.0</ele><time>2026-04-26T09:50:24.993Z</time></trkpt><trkpt lat="43.7612515" lon="11.2837844"><ele>54.0</ele><time>2026-04-26T09:50:25.993Z</time></trkpt><trkpt lat="43.7611741" lon="11.2838473"><ele>54.0</ele><time>2026-04-26T09:50:26.993Z</time></trkpt><trkpt lat="43.7611138" lon="11.2838861"><ele>54.0</ele><time>2026-04-26T09:50:27.993Z</time></trkpt><trkpt lat="43.7610518" lon="11.2839347"><ele>54.0</ele><time>2026-04-26T09:50:28.993Z</time></trkpt><trkpt lat="43.7609988" lon="11.2839828"><ele>54.0</ele><time>2026-04-26T09:50:29.994Z</time></trkpt><trkpt lat="43.7609175" lon="11.2840671"><ele>54.0</ele><time>2026-04-26T09:50:31.993Z</time></trkpt><trkpt lat="43.7608484" lon="11.2842037"><ele>54.0</ele><time>2026-04-26T09:50:33.993Z</time></trkpt><trkpt lat="43.7608009" lon="11.2842718"><ele>53.833333333333336</ele><time>2026-04-26T09:50:34.993Z</time></trkpt><trkpt lat="43.7607431" lon="11.2843328"><ele>53.66666666666667</ele><time>2026-04-26T09:50:35.993Z</time></trkpt><trkpt lat="43.7606742" lon="11.284393"><ele>53.5</ele><time>2026-04-26T09:50:36.993Z</time></trkpt><trkpt lat="43.7606086" lon="11.2844621"><ele>53.333333333333336</ele><time>2026-04-26T09:50:37.993Z</time></trkpt><trkpt lat="43.7605428" lon="11.2845356"><ele>53.16666666666667</ele><time>2026-04-26T09:50:38.994Z</time></trkpt><trkpt lat="43.7604842" lon="11.2846001"><ele>53.0</ele><time>2026-04-26T09:50:39.993Z</time></trkpt><trkpt lat="43.7604269" lon="11.2846538"><ele>53.00000000000001</ele><time>2026-04-26T09:50:40.993Z</time></trkpt><trkpt lat="43.7603679" lon="11.2847055"><ele>53.0</ele><time>2026-04-26T09:50:41.994Z</time></trkpt><trkpt lat="43.7603086" lon="11.2847667"><ele>53.0</ele><time>2026-04-26T09:50:42.993Z</time></trkpt><trkpt lat="43.7602447" lon="11.2848291"><ele>53.0</ele><time>2026-04-26T09:50:43.993Z</time></trkpt><trkpt lat="43.7601771" lon="11.2848929"><ele>53.00000000000001</ele><time>2026-04-26T09:50:44.993Z</time></trkpt><trkpt lat="43.7601045" lon="11.2849626"><ele>53.0</ele><time>2026-04-26T09:50:45.993Z</time></trkpt><trkpt lat="43.7600253" lon="11.2850391"><ele>53.0</ele><time>2026-04-26T09:50:46.994Z</time></trkpt><trkpt lat="43.759938" lon="11.2851192"><ele>53.0</ele><time>2026-04-26T09:50:47.993Z</time></trkpt><trkpt lat="43.7598449" lon="11.2852079"><ele>53.0</ele><time>2026-04-26T09:50:48.993Z</time></trkpt><trkpt lat="43.7597412" lon="11.285305"><ele>53.0</ele><time>2026-04-26T09:50:49.993Z</time></trkpt><trkpt lat="43.7596371" lon="11.2854139"><ele>53.0</ele><time>2026-04-26T09:50:50.993Z</time></trkpt><trkpt lat="43.7595338" lon="11.285513"><ele>53.0</ele><time>2026-04-26T09:50:51.993Z</time></trkpt><trkpt lat="43.7594377" lon="11.2856032"><ele>53.0</ele><time>2026-04-26T09:50:52.993Z</time></trkpt><trkpt lat="43.7593453" lon="11.2856893"><ele>53.0</ele><time>2026-04-26T09:50:53.993Z</time></trkpt><trkpt lat="43.759256" lon="11.2857759"><ele>53.2</ele><time>2026-04-26T09:50:54.993Z</time></trkpt><trkpt lat="43.7591673" lon="11.2858627"><ele>53.4</ele><time>2026-04-26T09:50:55.993Z</time></trkpt><trkpt lat="43.7590843" lon="11.2859403"><ele>53.60000000000001</ele><time>2026-04-26T09:50:56.993Z</time></trkpt><trkpt lat="43.7590045" lon="11.2860174"><ele>53.800000000000004</ele><time>2026-04-26T09:50:57.993Z</time></trkpt><trkpt lat="43.7589207" lon="11.2860961"><ele>54.0</ele><time>2026-04-26T09:50:58.993Z</time></trkpt><trkpt lat="43.7588376" lon="11.2861807"><ele>54.0</ele><time>2026-04-26T09:50:59.993Z</time></trkpt><trkpt lat="43.7587514" lon="11.2862593"><ele>54.00000000000001</ele><time>2026-04-26T09:51:00.993Z</time></trkpt><trkpt lat="43.7586682" lon="11.2863419"><ele>54.00000000000001</ele><time>2026-04-26T09:51:01.993Z</time></trkpt><trkpt lat="43.7585823" lon="11.2864247"><ele>54.0</ele><time>2026-04-26T09:51:02.993Z</time></trkpt><trkpt lat="43.7584943" lon="11.2865107"><ele>54.0</ele><time>2026-04-26T09:51:03.993Z</time></trkpt><trkpt lat="43.7584077" lon="11.2865898"><ele>54.0</ele><time>2026-04-26T09:51:04.993Z</time></trkpt><trkpt lat="43.7583239" lon="11.2866717"><ele>54.00000000000001</ele><time>2026-04-26T09:51:05.994Z</time></trkpt><trkpt lat="43.7582391" lon="11.2867508"><ele>54.00000000000001</ele><time>2026-04-26T09:51:06.993Z</time></trkpt><trkpt lat="43.7581592" lon="11.286824"><ele>54.0</ele><time>2026-04-26T09:51:07.993Z</time></trkpt><trkpt lat="43.758083" lon="11.2869002"><ele>54.0</ele><time>2026-04-26T09:51:08.993Z</time></trkpt><trkpt lat="43.7580104" lon="11.2869581"><ele>54.0</ele><time>2026-04-26T09:51:09.993Z</time></trkpt><trkpt lat="43.7579366" lon="11.2870157"><ele>54.0</ele><time>2026-04-26T09:51:10.993Z</time></trkpt><trkpt lat="43.7578638" lon="11.2870751"><ele>54.0</ele><time>2026-04-26T09:51:11.993Z</time></trkpt><trkpt lat="43.7577899" lon="11.2871368"><ele>54.0</ele><time>2026-04-26T09:51:12.993Z</time></trkpt><trkpt lat="43.7577214" lon="11.2871979"><ele>54.0</ele><time>2026-04-26T09:51:13.994Z</time></trkpt><trkpt lat="43.7576543" lon="11.2872695"><ele>54.0</ele><time>2026-04-26T09:51:14.993Z</time></trkpt><trkpt lat="43.7575818" lon="11.2873372"><ele>53.800000000000004</ele><time>2026-04-26T09:51:15.993Z</time></trkpt><trkpt lat="43.7575062" lon="11.2874098"><ele>53.60000000000001</ele><time>2026-04-26T09:51:16.993Z</time></trkpt><trkpt lat="43.7574265" lon="11.2874864"><ele>53.4</ele><time>2026-04-26T09:51:17.993Z</time></trkpt><trkpt lat="43.7573411" lon="11.2875708"><ele>53.2</ele><time>2026-04-26T09:51:18.993Z</time></trkpt><trkpt lat="43.7572479" lon="11.2876464"><ele>53.0</ele><time>2026-04-26T09:51:19.993Z</time></trkpt><trkpt lat="43.7571578" lon="11.2877111"><ele>53.0</ele><time>2026-04-26T09:51:20.993Z</time></trkpt><trkpt lat="43.7570722" lon="11.2877748"><ele>53.0</ele><time>2026-04-26T09:51:21.993Z</time></trkpt><trkpt lat="43.7569897" lon="11.2878471"><ele>53.0</ele><time>2026-04-26T09:51:22.993Z</time></trkpt><trkpt lat="43.7569121" lon="11.2879112"><ele>53.0</ele><time>2026-04-26T09:51:23.993Z</time></trkpt><trkpt lat="43.7568423" lon="11.2879932"><ele>53.0</ele><time>2026-04-26T09:51:24.993Z</time></trkpt><trkpt lat="43.7567753" lon="11.2880568"><ele>53.0</ele><time>2026-04-26T09:51:25.993Z</time></trkpt><trkpt lat="43.7567212" lon="11.2881032"><ele>53.0</ele><time>2026-04-26T09:51:26.994Z</time></trkpt><trkpt lat="43.756659" lon="11.2882145"><ele>53.0</ele><time>2026-04-26T09:51:28.994Z</time></trkpt><trkpt lat="43.7566202" lon="11.2883643"><ele>53.0</ele><time>2026-04-26T09:51:30.993Z</time></trkpt><trkpt lat="43.7565835" lon="11.2885196"><ele>53.0</ele><time>2026-04-26T09:51:32.993Z</time></trkpt><trkpt lat="43.7565518" lon="11.2886676"><ele>53.0</ele><time>2026-04-26T09:51:34.993Z</time></trkpt><trkpt lat="43.7565227" lon="11.2887898"><ele>53.0</ele><time>2026-04-26T09:51:36.993Z</time></trkpt><trkpt lat="43.7564996" lon="11.2889076"><ele>53.0</ele><time>2026-04-26T09:51:38.993Z</time></trkpt><trkpt lat="43.7564772" lon="11.2890511"><ele>53.0</ele><time>2026-04-26T09:51:40.993Z</time></trkpt><trkpt lat="43.7564544" lon="11.2892074"><ele>53.0</ele><time>2026-04-26T09:51:42.993Z</time></trkpt><trkpt lat="43.7564207" lon="11.2893483"><ele>53.0</ele><time>2026-04-26T09:51:44.993Z</time></trkpt><trkpt lat="43.756411" lon="11.2895057"><ele>53.0</ele><time>2026-04-26T09:51:46.993Z</time></trkpt><trkpt lat="43.7564197" lon="11.2896642"><ele>53.0</ele><time>2026-04-26T09:51:48.994Z</time></trkpt><trkpt lat="43.7564198" lon="11.2898366"><ele>53.0</ele><time>2026-04-26T09:51:50.994Z</time></trkpt><trkpt lat="43.7564195" lon="11.2899253"><ele>53.0</ele><time>2026-04-26T09:51:51.993Z</time></trkpt><trkpt lat="43.7564238" lon="11.2900153"><ele>53.0</ele><time>2026-04-26T09:51:52.993Z</time></trkpt><trkpt lat="43.7564309" lon="11.2901062"><ele>53.0</ele><time>2026-04-26T09:51:53.993Z</time></trkpt><trkpt lat="43.7564373" lon="11.290197"><ele>53.0</ele><time>2026-04-26T09:51:54.993Z</time></trkpt><trkpt lat="43.7564568" lon="11.2903565"><ele>53.0</ele><time>2026-04-26T09:51:56.993Z</time></trkpt><trkpt lat="43.7564731" lon="11.2905002"><ele>53.0</ele><time>2026-04-26T09:51:58.993Z</time></trkpt><trkpt lat="43.7564766" lon="11.2906427"><ele>52.8</ele><time>2026-04-26T09:52:00.993Z</time></trkpt><trkpt lat="43.756463" lon="11.2907906"><ele>52.599999999999994</ele><time>2026-04-26T09:52:02.993Z</time></trkpt><trkpt lat="43.7564711" lon="11.2909367"><ele>52.400000000000006</ele><time>2026-04-26T09:52:04.993Z</time></trkpt><trkpt lat="43.7564815" lon="11.2910889"><ele>52.2</ele><time>2026-04-26T09:52:06.993Z</time></trkpt><trkpt lat="43.7564926" lon="11.2912175"><ele>52.0</ele><time>2026-04-26T09:52:08.993Z</time></trkpt><trkpt lat="43.7565009" lon="11.2913228"><ele>52.49999999999999</ele><time>2026-04-26T09:52:10.993Z</time></trkpt><trkpt lat="43.7565056" lon="11.2914526"><ele>53.0</ele><time>2026-04-26T09:52:13.993Z</time></trkpt><trkpt lat="43.7565099" lon="11.2915436"><ele>53.5</ele><time>2026-04-26T09:52:15.993Z</time></trkpt><trkpt lat="43.7565248" lon="11.2916345"><ele>54.0</ele><time>2026-04-26T09:52:17.994Z</time></trkpt><trkpt lat="43.756537" lon="11.2917472"><ele>54.49999999999999</ele><time>2026-04-26T09:52:20.993Z</time></trkpt><trkpt lat="43.7565545" lon="11.2918447"><ele>55.0</ele><time>2026-04-26T09:52:23.993Z</time></trkpt><trkpt lat="43.7565707" lon="11.291947"><ele>55.0</ele><time>2026-04-26T09:52:25.993Z</time></trkpt><trkpt lat="43.7565893" lon="11.2920658"><ele>55.0</ele><time>2026-04-26T09:52:27.993Z</time></trkpt><trkpt lat="43.7565975" lon="11.2922318"><ele>55.0</ele><time>2026-04-26T09:52:29.993Z</time></trkpt><trkpt lat="43.7566194" lon="11.2924037"><ele>55.0</ele><time>2026-04-26T09:52:31.993Z</time></trkpt><trkpt lat="43.7566302" lon="11.2924957"><ele>55.0</ele><time>2026-04-26T09:52:32.993Z</time></trkpt><trkpt lat="43.7566406" lon="11.2925916"><ele>54.99999999999999</ele><time>2026-04-26T09:52:33.994Z</time></trkpt><trkpt lat="43.7566512" lon="11.2926874"><ele>55.0</ele><time>2026-04-26T09:52:34.993Z</time></trkpt><trkpt lat="43.756665" lon="11.292783"><ele>55.0</ele><time>2026-04-26T09:52:35.994Z</time></trkpt><trkpt lat="43.7566744" lon="11.2928848"><ele>55.0</ele><time>2026-04-26T09:52:36.993Z</time></trkpt><trkpt lat="43.7566833" lon="11.2929778"><ele>54.99999999999999</ele><time>2026-04-26T09:52:37.993Z</time></trkpt><trkpt lat="43.7566881" lon="11.2930694"><ele>55.0</ele><time>2026-04-26T09:52:38.993Z</time></trkpt><trkpt lat="43.7567049" lon="11.2932357"><ele>54.99999999999999</ele><time>2026-04-26T09:52:40.994Z</time></trkpt><trkpt lat="43.7567183" lon="11.2934013"><ele>55.0</ele><time>2026-04-26T09:52:42.993Z</time></trkpt><trkpt lat="43.7567221" lon="11.2934894"><ele>55.0</ele><time>2026-04-26T09:52:43.993Z</time></trkpt><trkpt lat="43.7567212" lon="11.2935808"><ele>55.0</ele><time>2026-04-26T09:52:44.994Z</time></trkpt><trkpt lat="43.7567238" lon="11.2936729"><ele>55.0</ele><time>2026-04-26T09:52:45.993Z</time></trkpt><trkpt lat="43.7567291" lon="11.2937641"><ele>54.99999999999999</ele><time>2026-04-26T09:52:46.993Z</time></trkpt><trkpt lat="43.7567336" lon="11.2938536"><ele>55.0</ele><time>2026-04-26T09:52:47.993Z</time></trkpt><trkpt lat="43.7567378" lon="11.2939418"><ele>54.99999999999999</ele><time>2026-04-26T09:52:48.994Z</time></trkpt><trkpt lat="43.7567447" lon="11.2940333"><ele>55.0</ele><time>2026-04-26T09:52:49.993Z</time></trkpt><trkpt lat="43.7567576" lon="11.2941708"><ele>55.0</ele><time>2026-04-26T09:52:51.993Z</time></trkpt><trkpt lat="43.7567677" lon="11.2942611"><ele>55.0</ele><time>2026-04-26T09:52:54.994Z</time></trkpt><trkpt lat="43.7567804" lon="11.2943887"><ele>54.99999999999999</ele><time>2026-04-26T09:52:57.993Z</time></trkpt><trkpt lat="43.756793" lon="11.2945192"><ele>55.0</ele><time>2026-04-26T09:52:59.993Z</time></trkpt><trkpt lat="43.7568039" lon="11.2946841"><ele>55.75</ele><time>2026-04-26T09:53:01.993Z</time></trkpt><trkpt lat="43.7568117" lon="11.2948458"><ele>56.5</ele><time>2026-04-26T09:53:03.993Z</time></trkpt><trkpt lat="43.7568205" lon="11.2950071"><ele>57.25</ele><time>2026-04-26T09:53:05.993Z</time></trkpt><trkpt lat="43.7568308" lon="11.2951749"><ele>58.0</ele><time>2026-04-26T09:53:07.993Z</time></trkpt><trkpt lat="43.7568433" lon="11.2953477"><ele>58.0</ele><time>2026-04-26T09:53:09.994Z</time></trkpt><trkpt lat="43.7568662" lon="11.2955161"><ele>58.0</ele><time>2026-04-26T09:53:11.993Z</time></trkpt><trkpt lat="43.7568795" lon="11.2956792"><ele>58.0</ele><time>2026-04-26T09:53:13.993Z</time></trkpt><trkpt lat="43.7568915" lon="11.295836"><ele>58.0</ele><time>2026-04-26T09:53:15.993Z</time></trkpt><trkpt lat="43.7569011" lon="11.2959621"><ele>58.0</ele><time>2026-04-26T09:53:17.994Z</time></trkpt><trkpt lat="43.7569035" lon="11.2960624"><ele>58.33333333333333</ele><time>2026-04-26T09:53:20.993Z</time></trkpt><trkpt lat="43.7569395" lon="11.2961758"><ele>58.666666666666664</ele><time>2026-04-26T09:53:53.993Z</time></trkpt><trkpt lat="43.7569485" lon="11.2962919"><ele>59.0</ele><time>2026-04-26T09:53:55.993Z</time></trkpt><trkpt lat="43.7569473" lon="11.2963827"><ele>59.33333333333333</ele><time>2026-04-26T09:53:56.993Z</time></trkpt><trkpt lat="43.7569434" lon="11.2964789"><ele>59.666666666666664</ele><time>2026-04-26T09:53:57.993Z</time></trkpt><trkpt lat="43.7569409" lon="11.2966664"><ele>60.0</ele><time>2026-04-26T09:53:59.994Z</time></trkpt><trkpt lat="43.7569442" lon="11.2967748"><ele>60.0</ele><time>2026-04-26T09:54:00.993Z</time></trkpt><trkpt lat="43.7569536" lon="11.2968909"><ele>60.0</ele><time>2026-04-26T09:54:01.993Z</time></trkpt><trkpt lat="43.7569603" lon="11.2970066"><ele>60.0</ele><time>2026-04-26T09:54:02.993Z</time></trkpt><trkpt lat="43.7569654" lon="11.2971272"><ele>60.0</ele><time>2026-04-26T09:54:03.993Z</time></trkpt><trkpt lat="43.7569742" lon="11.2972508"><ele>60.0</ele><time>2026-04-26T09:54:04.993Z</time></trkpt><trkpt lat="43.7569831" lon="11.2973708"><ele>60.0</ele><time>2026-04-26T09:54:05.994Z</time></trkpt><trkpt lat="43.75699" lon="11.297495"><ele>59.8</ele><time>2026-04-26T09:54:06.993Z</time></trkpt><trkpt lat="43.7569938" lon="11.2976176"><ele>59.6</ele><time>2026-04-26T09:54:07.993Z</time></trkpt><trkpt lat="43.7569977" lon="11.2977335"><ele>59.400000000000006</ele><time>2026-04-26T09:54:08.993Z</time></trkpt><trkpt lat="43.7569977" lon="11.2978342"><ele>59.2</ele><time>2026-04-26T09:54:09.993Z</time></trkpt><trkpt lat="43.7569985" lon="11.297992"><ele>59.0</ele><time>2026-04-26T09:54:11.993Z</time></trkpt><trkpt lat="43.7569859" lon="11.2981187"><ele>58.833333333333336</ele><time>2026-04-26T09:54:13.993Z</time></trkpt><trkpt lat="43.7569776" lon="11.2982206"><ele>58.66666666666667</ele><time>2026-04-26T09:54:15.994Z</time></trkpt><trkpt lat="43.7569705" lon="11.2983154"><ele>58.5</ele><time>2026-04-26T09:54:18.993Z</time></trkpt><trkpt lat="43.7569601" lon="11.2984116"><ele>58.33333333333333</ele><time>2026-04-26T09:54:21.993Z</time></trkpt><trkpt lat="43.7569396" lon="11.2985281"><ele>58.166666666666664</ele><time>2026-04-26T09:54:23.993Z</time></trkpt><trkpt lat="43.7569149" lon="11.2986606"><ele>58.0</ele><time>2026-04-26T09:54:25.993Z</time></trkpt><trkpt lat="43.7568779" lon="11.2987868"><ele>58.4</ele><time>2026-04-26T09:54:27.993Z</time></trkpt><trkpt lat="43.7567983" lon="11.2988229"><ele>58.8</ele><time>2026-04-26T09:54:29.993Z</time></trkpt><trkpt lat="43.7566742" lon="11.2987521"><ele>59.2</ele><time>2026-04-26T09:54:31.993Z</time></trkpt><trkpt lat="43.7565925" lon="11.2987174"><ele>59.6</ele><time>2026-04-26T09:54:32.993Z</time></trkpt><trkpt lat="43.7565019" lon="11.2986784"><ele>60.0</ele><time>2026-04-26T09:54:33.993Z</time></trkpt><trkpt lat="43.7564059" lon="11.2986347"><ele>60.0</ele><time>2026-04-26T09:54:34.993Z</time></trkpt><trkpt lat="43.7563075" lon="11.2985892"><ele>60.0</ele><time>2026-04-26T09:54:35.993Z</time></trkpt><trkpt lat="43.7562234" lon="11.2985429"><ele>60.0</ele><time>2026-04-26T09:54:36.993Z</time></trkpt><trkpt lat="43.7561448" lon="11.2984918"><ele>60.0</ele><time>2026-04-26T09:54:37.993Z</time></trkpt><trkpt lat="43.7560654" lon="11.2984372"><ele>60.0</ele><time>2026-04-26T09:54:38.993Z</time></trkpt><trkpt lat="43.756016" lon="11.2983505"><ele>60.0</ele><time>2026-04-26T09:54:39.994Z</time></trkpt><trkpt lat="43.755975" lon="11.2982598"><ele>59.833333333333336</ele><time>2026-04-26T09:54:40.994Z</time></trkpt><trkpt lat="43.7559335" lon="11.2981654"><ele>59.66666666666667</ele><time>2026-04-26T09:54:41.993Z</time></trkpt><trkpt lat="43.755888" lon="11.2980793"><ele>59.5</ele><time>2026-04-26T09:54:42.993Z</time></trkpt><trkpt lat="43.7558333" lon="11.2980024"><ele>59.333333333333336</ele><time>2026-04-26T09:54:43.993Z</time></trkpt><trkpt lat="43.7557761" lon="11.297935"><ele>59.16666666666667</ele><time>2026-04-26T09:54:44.993Z</time></trkpt><trkpt lat="43.7557064" lon="11.2978888"><ele>59.0</ele><time>2026-04-26T09:54:45.993Z</time></trkpt><trkpt lat="43.7556411" lon="11.2978434"><ele>59.0</ele><time>2026-04-26T09:54:46.993Z</time></trkpt><trkpt lat="43.75557" lon="11.2978111"><ele>59.00000000000001</ele><time>2026-04-26T09:54:47.994Z</time></trkpt><trkpt lat="43.755504" lon="11.2978055"><ele>59.00000000000001</ele><time>2026-04-26T09:54:48.993Z</time></trkpt><trkpt lat="43.755409" lon="11.297887"><ele>59.0</ele><time>2026-04-26T09:54:50.993Z</time></trkpt><trkpt lat="43.7553725" lon="11.2980303"><ele>59.0</ele><time>2026-04-26T09:54:52.993Z</time></trkpt><trkpt lat="43.755338" lon="11.2981939"><ele>59.0</ele><time>2026-04-26T09:54:54.993Z</time></trkpt><trkpt lat="43.7553113" lon="11.2982817"><ele>59.0</ele><time>2026-04-26T09:54:55.993Z</time></trkpt><trkpt lat="43.7552697" lon="11.2983632"><ele>59.0</ele><time>2026-04-26T09:54:56.993Z</time></trkpt><trkpt lat="43.7552232" lon="11.2984331"><ele>59.0</ele><time>2026-04-26T09:54:57.993Z</time></trkpt><trkpt lat="43.7551684" lon="11.2984876"><ele>59.0</ele><time>2026-04-26T09:54:58.993Z</time></trkpt><trkpt lat="43.7551062" lon="11.2985238"><ele>59.0</ele><time>2026-04-26T09:54:59.993Z</time></trkpt><trkpt lat="43.7550427" lon="11.2985423"><ele>59.0</ele><time>2026-04-26T09:55:00.993Z</time></trkpt><trkpt lat="43.7549738" lon="11.2985442"><ele>59.0</ele><time>2026-04-26T09:55:01.994Z</time></trkpt><trkpt lat="43.7549038" lon="11.2985172"><ele>59.0</ele><time>2026-04-26T09:55:02.993Z</time></trkpt><trkpt lat="43.7548296" lon="11.2984897"><ele>59.0</ele><time>2026-04-26T09:55:03.993Z</time></trkpt><trkpt lat="43.7547631" lon="11.2984549"><ele>59.0</ele><time>2026-04-26T09:55:04.993Z</time></trkpt><trkpt lat="43.7547009" lon="11.2984156"><ele>59.0</ele><time>2026-04-26T09:55:05.993Z</time></trkpt><trkpt lat="43.7546322" lon="11.2983858"><ele>59.0</ele><time>2026-04-26T09:55:06.993Z</time></trkpt><trkpt lat="43.7545579" lon="11.2983475"><ele>59.0</ele><time>2026-04-26T09:55:07.993Z</time></trkpt><trkpt lat="43.7544736" lon="11.298315"><ele>59.0</ele><time>2026-04-26T09:55:08.993Z</time></trkpt><trkpt lat="43.7543852" lon="11.2982723"><ele>59.0</ele><time>2026-04-26T09:55:09.993Z</time></trkpt><trkpt lat="43.7542736" lon="11.298232"><ele>59.0</ele><time>2026-04-26T09:55:10.993Z</time></trkpt><trkpt lat="43.7541466" lon="11.2981706"><ele>59.0</ele><time>2026-04-26T09:55:11.993Z</time></trkpt><trkpt lat="43.75402" lon="11.2981059"><ele>58.25</ele><time>2026-04-26T09:55:12.994Z</time></trkpt><trkpt lat="43.7538887" lon="11.298045"><ele>57.5</ele><time>2026-04-26T09:55:13.994Z</time></trkpt><trkpt lat="43.7537696" lon="11.2979709"><ele>56.75</ele><time>2026-04-26T09:55:14.993Z</time></trkpt><trkpt lat="43.7536541" lon="11.2979018"><ele>56.0</ele><time>2026-04-26T09:55:15.994Z</time></trkpt><trkpt lat="43.7535431" lon="11.2978219"><ele>56.25</ele><time>2026-04-26T09:55:16.993Z</time></trkpt><trkpt lat="43.7534326" lon="11.2977467"><ele>56.5</ele><time>2026-04-26T09:55:17.993Z</time></trkpt><trkpt lat="43.7533252" lon="11.2976631"><ele>56.75</ele><time>2026-04-26T09:55:18.993Z</time></trkpt><trkpt lat="43.7532136" lon="11.2975736"><ele>57.0</ele><time>2026-04-26T09:55:19.993Z</time></trkpt><trkpt lat="43.7530998" lon="11.2974816"><ele>57.0</ele><time>2026-04-26T09:55:20.993Z</time></trkpt><trkpt lat="43.7529827" lon="11.2973915"><ele>57.0</ele><time>2026-04-26T09:55:21.993Z</time></trkpt><trkpt lat="43.7528667" lon="11.2972954"><ele>57.0</ele><time>2026-04-26T09:55:22.993Z</time></trkpt><trkpt lat="43.7527468" lon="11.2972009"><ele>57.0</ele><time>2026-04-26T09:55:23.993Z</time></trkpt><trkpt lat="43.752626" lon="11.2971005"><ele>57.25</ele><time>2026-04-26T09:55:24.993Z</time></trkpt><trkpt lat="43.7525031" lon="11.296987"><ele>57.5</ele><time>2026-04-26T09:55:25.993Z</time></trkpt><trkpt lat="43.7523866" lon="11.2968678"><ele>57.75</ele><time>2026-04-26T09:55:26.993Z</time></trkpt><trkpt lat="43.752273" lon="11.2967401"><ele>58.0</ele><time>2026-04-26T09:55:27.993Z</time></trkpt><trkpt lat="43.7521539" lon="11.2966201"><ele>58.0</ele><time>2026-04-26T09:55:28.993Z</time></trkpt><trkpt lat="43.7520343" lon="11.2965105"><ele>58.0</ele><time>2026-04-26T09:55:29.993Z</time></trkpt><trkpt lat="43.7519154" lon="11.2964108"><ele>58.0</ele><time>2026-04-26T09:55:30.993Z</time></trkpt><trkpt lat="43.751807" lon="11.2963159"><ele>58.0</ele><time>2026-04-26T09:55:31.993Z</time></trkpt><trkpt lat="43.7517009" lon="11.2962227"><ele>58.0</ele><time>2026-04-26T09:55:32.993Z</time></trkpt><trkpt lat="43.7515974" lon="11.2961348"><ele>58.0</ele><time>2026-04-26T09:55:33.993Z</time></trkpt><trkpt lat="43.7514966" lon="11.2960481"><ele>58.0</ele><time>2026-04-26T09:55:34.993Z</time></trkpt><trkpt lat="43.7514001" lon="11.2959594"><ele>58.0</ele><time>2026-04-26T09:55:35.993Z</time></trkpt><trkpt lat="43.7513052" lon="11.2958725"><ele>58.0</ele><time>2026-04-26T09:55:36.993Z</time></trkpt><trkpt lat="43.7512143" lon="11.2957807"><ele>58.0</ele><time>2026-04-26T09:55:37.993Z</time></trkpt><trkpt lat="43.7511187" lon="11.2956846"><ele>58.0</ele><time>2026-04-26T09:55:38.993Z</time></trkpt><trkpt lat="43.7510241" lon="11.2955839"><ele>58.0</ele><time>2026-04-26T09:55:39.993Z</time></trkpt><trkpt lat="43.7509337" lon="11.2954876"><ele>58.4</ele><time>2026-04-26T09:55:40.993Z</time></trkpt><trkpt lat="43.7508472" lon="11.2953937"><ele>58.8</ele><time>2026-04-26T09:55:41.993Z</time></trkpt><trkpt lat="43.7507654" lon="11.2953031"><ele>59.2</ele><time>2026-04-26T09:55:42.993Z</time></trkpt><trkpt lat="43.750685" lon="11.295228"><ele>59.6</ele><time>2026-04-26T09:55:43.993Z</time></trkpt><trkpt lat="43.7506089" lon="11.2951549"><ele>60.0</ele><time>2026-04-26T09:55:44.993Z</time></trkpt><trkpt lat="43.7505362" lon="11.2950926"><ele>60.0</ele><time>2026-04-26T09:55:45.994Z</time></trkpt><trkpt lat="43.7504632" lon="11.2950307"><ele>60.0</ele><time>2026-04-26T09:55:46.993Z</time></trkpt><trkpt lat="43.7504026" lon="11.2949854"><ele>60.0</ele><time>2026-04-26T09:55:47.993Z</time></trkpt><trkpt lat="43.7503412" lon="11.2949404"><ele>60.0</ele><time>2026-04-26T09:55:48.993Z</time></trkpt><trkpt lat="43.7502798" lon="11.2948979"><ele>60.0</ele><time>2026-04-26T09:55:49.994Z</time></trkpt><trkpt lat="43.7502222" lon="11.2948602"><ele>60.0</ele><time>2026-04-26T09:55:50.994Z</time></trkpt><trkpt lat="43.7501658" lon="11.2948116"><ele>60.0</ele><time>2026-04-26T09:55:51.993Z</time></trkpt><trkpt lat="43.750066" lon="11.2947248"><ele>59.833333333333336</ele><time>2026-04-26T09:55:53.993Z</time></trkpt><trkpt lat="43.7500016" lon="11.2946708"><ele>59.66666666666667</ele><time>2026-04-26T09:55:55.993Z</time></trkpt><trkpt lat="43.749933" lon="11.2946442"><ele>59.5</ele><time>2026-04-26T09:56:02.993Z</time></trkpt><trkpt lat="43.7498708" lon="11.2945968"><ele>59.333333333333336</ele><time>2026-04-26T09:56:05.993Z</time></trkpt><trkpt lat="43.7498173" lon="11.2945387"><ele>59.16666666666667</ele><time>2026-04-26T09:56:42.993Z</time></trkpt><trkpt lat="43.7497199" lon="11.2944591"><ele>59.0</ele><time>2026-04-26T09:56:44.994Z</time></trkpt><trkpt lat="43.7496535" lon="11.2944061"><ele>59.0</ele><time>2026-04-26T09:56:45.993Z</time></trkpt><trkpt lat="43.7495837" lon="11.2943468"><ele>59.00000000000001</ele><time>2026-04-26T09:56:46.993Z</time></trkpt><trkpt lat="43.7495051" lon="11.2942866"><ele>59.00000000000001</ele><time>2026-04-26T09:56:47.993Z</time></trkpt><trkpt lat="43.7494166" lon="11.2942363"><ele>59.0</ele><time>2026-04-26T09:56:48.993Z</time></trkpt><trkpt lat="43.7493158" lon="11.2942063"><ele>59.0</ele><time>2026-04-26T09:56:49.994Z</time></trkpt><trkpt lat="43.7491981" lon="11.2942053"><ele>60.0</ele><time>2026-04-26T09:56:50.993Z</time></trkpt><trkpt lat="43.7490721" lon="11.2942196"><ele>61.0</ele><time>2026-04-26T09:56:51.993Z</time></trkpt><trkpt lat="43.7489387" lon="11.2942414"><ele>62.0</ele><time>2026-04-26T09:56:52.993Z</time></trkpt><trkpt lat="43.7487953" lon="11.2942744"><ele>63.0</ele><time>2026-04-26T09:56:53.993Z</time></trkpt><trkpt lat="43.7486524" lon="11.2943127"><ele>66.0</ele><time>2026-04-26T09:56:54.993Z</time></trkpt><trkpt lat="43.748515" lon="11.2943598"><ele>69.0</ele><time>2026-04-26T09:56:55.993Z</time></trkpt><trkpt lat="43.7483807" lon="11.2944069"><ele>72.0</ele><time>2026-04-26T09:56:56.993Z</time></trkpt><trkpt lat="43.7482622" lon="11.2944479"><ele>75.0</ele><time>2026-04-26T09:56:57.993Z</time></trkpt><trkpt lat="43.7481328" lon="11.294492"><ele>75.0</ele><time>2026-04-26T09:56:58.993Z</time></trkpt><trkpt lat="43.7480204" lon="11.294518"><ele>75.0</ele><time>2026-04-26T09:56:59.994Z</time></trkpt><trkpt lat="43.7479033" lon="11.2945112"><ele>75.0</ele><time>2026-04-26T09:57:00.993Z</time></trkpt><trkpt lat="43.7477862" lon="11.294487"><ele>75.0</ele><time>2026-04-26T09:57:01.994Z</time></trkpt><trkpt lat="43.7476645" lon="11.2944299"><ele>78.66666666666667</ele><time>2026-04-26T09:57:02.993Z</time></trkpt><trkpt lat="43.747534" lon="11.2943326"><ele>82.33333333333334</ele><time>2026-04-26T09:57:03.993Z</time></trkpt><trkpt lat="43.747393" lon="11.2942175"><ele>86.0</ele><time>2026-04-26T09:57:04.993Z</time></trkpt><trkpt lat="43.7472549" lon="11.2941057"><ele>86.0</ele><time>2026-04-26T09:57:05.993Z</time></trkpt><trkpt lat="43.7471154" lon="11.2939927"><ele>86.0</ele><time>2026-04-26T09:57:06.993Z</time></trkpt><trkpt lat="43.746977" lon="11.2938753"><ele>86.0</ele><time>2026-04-26T09:57:07.994Z</time></trkpt><trkpt lat="43.7468388" lon="11.2937614"><ele>88.0</ele><time>2026-04-26T09:57:08.993Z</time></trkpt><trkpt lat="43.7466971" lon="11.2936512"><ele>90.0</ele><time>2026-04-26T09:57:09.993Z</time></trkpt><trkpt lat="43.7465594" lon="11.2935379"><ele>92.0</ele><time>2026-04-26T09:57:10.993Z</time></trkpt><trkpt lat="43.7464329" lon="11.2934305"><ele>92.0</ele><time>2026-04-26T09:57:11.992Z</time></trkpt><trkpt lat="43.7462995" lon="11.2933166"><ele>92.0</ele><time>2026-04-26T09:57:12.993Z</time></trkpt><trkpt lat="43.7461689" lon="11.2932072"><ele>92.0</ele><time>2026-04-26T09:57:13.993Z</time></trkpt><trkpt lat="43.7460355" lon="11.293096"><ele>94.33333333333334</ele><time>2026-04-26T09:57:14.993Z</time></trkpt><trkpt lat="43.7458986" lon="11.2929794"><ele>96.66666666666667</ele><time>2026-04-26T09:57:15.993Z</time></trkpt><trkpt lat="43.7457578" lon="11.292861"><ele>99.0</ele><time>2026-04-26T09:57:16.993Z</time></trkpt><trkpt lat="43.7456124" lon="11.2927377"><ele>99.0</ele><time>2026-04-26T09:57:17.993Z</time></trkpt><trkpt lat="43.7454687" lon="11.2926221"><ele>99.0</ele><time>2026-04-26T09:57:18.993Z</time></trkpt><trkpt lat="43.7453344" lon="11.2925123"><ele>99.0</ele><time>2026-04-26T09:57:19.993Z</time></trkpt><trkpt lat="43.7452026" lon="11.2924135"><ele>98.75</ele><time>2026-04-26T09:57:20.994Z</time></trkpt><trkpt lat="43.7450805" lon="11.2923157"><ele>98.5</ele><time>2026-04-26T09:57:21.993Z</time></trkpt><trkpt lat="43.7449658" lon="11.2922226"><ele>98.25</ele><time>2026-04-26T09:57:22.993Z</time></trkpt><trkpt lat="43.7448484" lon="11.2921298"><ele>98.0</ele><time>2026-04-26T09:57:23.993Z</time></trkpt><trkpt lat="43.7447323" lon="11.2920282"><ele>98.0</ele><time>2026-04-26T09:57:24.993Z</time></trkpt><trkpt lat="43.7446104" lon="11.2919322"><ele>98.0</ele><time>2026-04-26T09:57:25.993Z</time></trkpt><trkpt lat="43.744489" lon="11.2918397"><ele>98.0</ele><time>2026-04-26T09:57:26.993Z</time></trkpt><trkpt lat="43.7443641" lon="11.2917416"><ele>98.0</ele><time>2026-04-26T09:57:27.993Z</time></trkpt><trkpt lat="43.7442272" lon="11.2916318"><ele>96.66666666666666</ele><time>2026-04-26T09:57:28.994Z</time></trkpt><trkpt lat="43.7440825" lon="11.2915016"><ele>95.33333333333333</ele><time>2026-04-26T09:57:29.993Z</time></trkpt><trkpt lat="43.7439398" lon="11.2913593"><ele>94.0</ele><time>2026-04-26T09:57:30.993Z</time></trkpt><trkpt lat="43.7438008" lon="11.291191"><ele>94.0</ele><time>2026-04-26T09:57:31.993Z</time></trkpt><trkpt lat="43.743669" lon="11.2910094"><ele>94.0</ele><time>2026-04-26T09:57:32.993Z</time></trkpt><trkpt lat="43.7435473" lon="11.2908068"><ele>94.0</ele><time>2026-04-26T09:57:33.993Z</time></trkpt><trkpt lat="43.7434322" lon="11.2905925"><ele>90.0</ele><time>2026-04-26T09:57:34.993Z</time></trkpt><trkpt lat="43.7433265" lon="11.2903716"><ele>86.0</ele><time>2026-04-26T09:57:35.993Z</time></trkpt><trkpt lat="43.7432306" lon="11.2901529"><ele>82.0</ele><time>2026-04-26T09:57:36.993Z</time></trkpt><trkpt lat="43.7431477" lon="11.2899419"><ele>82.0</ele><time>2026-04-26T09:57:37.994Z</time></trkpt><trkpt lat="43.743067" lon="11.2897387"><ele>82.0</ele><time>2026-04-26T09:57:38.993Z</time></trkpt><trkpt lat="43.7429926" lon="11.2895445"><ele>82.0</ele><time>2026-04-26T09:57:39.993Z</time></trkpt><trkpt lat="43.7429283" lon="11.2893466"><ele>82.0</ele><time>2026-04-26T09:57:40.993Z</time></trkpt><trkpt lat="43.7428708" lon="11.2891586"><ele>82.0</ele><time>2026-04-26T09:57:41.993Z</time></trkpt><trkpt lat="43.7428223" lon="11.2889675"><ele>82.0</ele><time>2026-04-26T09:57:42.993Z</time></trkpt><trkpt lat="43.7427799" lon="11.2887804"><ele>82.0</ele><time>2026-04-26T09:57:43.993Z</time></trkpt><trkpt lat="43.7427475" lon="11.2886007"><ele>82.5</ele><time>2026-04-26T09:57:44.993Z</time></trkpt><trkpt lat="43.7427174" lon="11.288431"><ele>83.0</ele><time>2026-04-26T09:57:45.993Z</time></trkpt><trkpt lat="43.7426916" lon="11.2882699"><ele>83.5</ele><time>2026-04-26T09:57:46.994Z</time></trkpt><trkpt lat="43.7426661" lon="11.2881144"><ele>84.0</ele><time>2026-04-26T09:57:47.993Z</time></trkpt><trkpt lat="43.7426464" lon="11.2879774"><ele>82.83333333333333</ele><time>2026-04-26T09:57:48.994Z</time></trkpt><trkpt lat="43.7426325" lon="11.2878614"><ele>81.66666666666667</ele><time>2026-04-26T09:57:49.994Z</time></trkpt><trkpt lat="43.7426215" lon="11.2877517"><ele>80.5</ele><time>2026-04-26T09:57:50.993Z</time></trkpt><trkpt lat="43.7426167" lon="11.2876297"><ele>79.33333333333334</ele><time>2026-04-26T09:57:51.993Z</time></trkpt><trkpt lat="43.7426212" lon="11.2875108"><ele>78.16666666666667</ele><time>2026-04-26T09:57:52.993Z</time></trkpt><trkpt lat="43.7426203" lon="11.2874055"><ele>77.0</ele><time>2026-04-26T09:57:53.993Z</time></trkpt><trkpt lat="43.7426125" lon="11.2873157"><ele>77.0</ele><time>2026-04-26T09:57:54.993Z</time></trkpt><trkpt lat="43.7425428" lon="11.2872149"><ele>77.0</ele><time>2026-04-26T09:57:56.993Z</time></trkpt><trkpt lat="43.7424797" lon="11.287214"><ele>77.0</ele><time>2026-04-26T09:57:57.993Z</time></trkpt><trkpt lat="43.7424094" lon="11.2872403"><ele>77.0</ele><time>2026-04-26T09:57:58.993Z</time></trkpt><trkpt lat="43.7423299" lon="11.2872746"><ele>77.0</ele><time>2026-04-26T09:57:59.993Z</time></trkpt><trkpt lat="43.7422414" lon="11.2872985"><ele>77.0</ele><time>2026-04-26T09:58:00.993Z</time></trkpt><trkpt lat="43.742141" lon="11.287304"><ele>77.0</ele><time>2026-04-26T09:58:01.994Z</time></trkpt><trkpt lat="43.7420251" lon="11.2872944"><ele>77.0</ele><time>2026-04-26T09:58:02.993Z</time></trkpt><trkpt lat="43.7418982" lon="11.2872726"><ele>77.0</ele><time>2026-04-26T09:58:03.993Z</time></trkpt><trkpt lat="43.7417657" lon="11.2872425"><ele>77.0</ele><time>2026-04-26T09:58:04.993Z</time></trkpt><trkpt lat="43.7416281" lon="11.287213"><ele>77.0</ele><time>2026-04-26T09:58:05.993Z</time></trkpt><trkpt lat="43.7414911" lon="11.2871847"><ele>77.0</ele><time>2026-04-26T09:58:06.993Z</time></trkpt><trkpt lat="43.7413555" lon="11.2871582"><ele>77.0</ele><time>2026-04-26T09:58:07.993Z</time></trkpt><trkpt lat="43.7412265" lon="11.287133"><ele>77.0</ele><time>2026-04-26T09:58:08.994Z</time></trkpt><trkpt lat="43.7411094" lon="11.2871263"><ele>77.16666666666667</ele><time>2026-04-26T09:58:09.993Z</time></trkpt><trkpt lat="43.7410029" lon="11.2871284"><ele>77.33333333333334</ele><time>2026-04-26T09:58:10.993Z</time></trkpt><trkpt lat="43.7409082" lon="11.2871239"><ele>77.5</ele><time>2026-04-26T09:58:11.993Z</time></trkpt><trkpt lat="43.7408241" lon="11.2870973"><ele>77.66666666666667</ele><time>2026-04-26T09:58:12.994Z</time></trkpt><trkpt lat="43.7407484" lon="11.287077"><ele>77.83333333333333</ele><time>2026-04-26T09:58:13.993Z</time></trkpt><trkpt lat="43.7406765" lon="11.2870949"><ele>78.0</ele><time>2026-04-26T09:58:14.994Z</time></trkpt><trkpt lat="43.7406124" lon="11.2871521"><ele>78.0</ele><time>2026-04-26T09:58:15.993Z</time></trkpt><trkpt lat="43.7405497" lon="11.2872463"><ele>78.0</ele><time>2026-04-26T09:58:16.993Z</time></trkpt><trkpt lat="43.7404675" lon="11.2873417"><ele>78.0</ele><time>2026-04-26T09:58:17.994Z</time></trkpt><trkpt lat="43.7403649" lon="11.2874388"><ele>78.0</ele><time>2026-04-26T09:58:18.993Z</time></trkpt><trkpt lat="43.7402627" lon="11.2875385"><ele>78.0</ele><time>2026-04-26T09:58:19.993Z</time></trkpt><trkpt lat="43.7401619" lon="11.2876618"><ele>78.25</ele><time>2026-04-26T09:58:20.994Z</time></trkpt><trkpt lat="43.7400674" lon="11.2877911"><ele>78.5</ele><time>2026-04-26T09:58:21.993Z</time></trkpt><trkpt lat="43.7399767" lon="11.2879188"><ele>78.75</ele><time>2026-04-26T09:58:22.993Z</time></trkpt><trkpt lat="43.739897" lon="11.2880417"><ele>79.0</ele><time>2026-04-26T09:58:23.993Z</time></trkpt><trkpt lat="43.739818" lon="11.2881627"><ele>79.0</ele><time>2026-04-26T09:58:24.993Z</time></trkpt><trkpt lat="43.7397413" lon="11.2882926"><ele>79.0</ele><time>2026-04-26T09:58:25.993Z</time></trkpt><trkpt lat="43.7396699" lon="11.2884223"><ele>79.0</ele><time>2026-04-26T09:58:26.993Z</time></trkpt><trkpt lat="43.7395965" lon="11.2885588"><ele>79.0</ele><time>2026-04-26T09:58:27.993Z</time></trkpt><trkpt lat="43.7395247" lon="11.288696"><ele>79.0</ele><time>2026-04-26T09:58:28.993Z</time></trkpt><trkpt lat="43.7394542" lon="11.2888316"><ele>79.0</ele><time>2026-04-26T09:58:29.993Z</time></trkpt><trkpt lat="43.7393849" lon="11.2889656"><ele>79.0</ele><time>2026-04-26T09:58:30.993Z</time></trkpt><trkpt lat="43.7393194" lon="11.2890962"><ele>79.0</ele><time>2026-04-26T09:58:31.993Z</time></trkpt><trkpt lat="43.7392552" lon="11.2892219"><ele>79.6</ele><time>2026-04-26T09:58:32.993Z</time></trkpt><trkpt lat="43.7391964" lon="11.2893453"><ele>80.2</ele><time>2026-04-26T09:58:33.993Z</time></trkpt><trkpt lat="43.7391379" lon="11.2894669"><ele>80.8</ele><time>2026-04-26T09:58:34.993Z</time></trkpt><trkpt lat="43.7390795" lon="11.2895885"><ele>81.39999999999999</ele><time>2026-04-26T09:58:35.993Z</time></trkpt><trkpt lat="43.7390215" lon="11.2897038"><ele>82.0</ele><time>2026-04-26T09:58:36.993Z</time></trkpt><trkpt lat="43.738969" lon="11.2898136"><ele>81.99999999999999</ele><time>2026-04-26T09:58:37.993Z</time></trkpt><trkpt lat="43.7389196" lon="11.2899115"><ele>82.0</ele><time>2026-04-26T09:58:38.993Z</time></trkpt><trkpt lat="43.7388725" lon="11.2900079"><ele>82.0</ele><time>2026-04-26T09:58:39.993Z</time></trkpt><trkpt lat="43.7388337" lon="11.2900989"><ele>82.0</ele><time>2026-04-26T09:58:40.993Z</time></trkpt><trkpt lat="43.738795" lon="11.2901809"><ele>82.0</ele><time>2026-04-26T09:58:41.993Z</time></trkpt><trkpt lat="43.7387603" lon="11.2902602"><ele>81.99999999999999</ele><time>2026-04-26T09:58:42.994Z</time></trkpt><trkpt lat="43.7387283" lon="11.290338"><ele>82.0</ele><time>2026-04-26T09:58:43.993Z</time></trkpt><trkpt lat="43.7386645" lon="11.2904842"><ele>81.6</ele><time>2026-04-26T09:58:45.993Z</time></trkpt><trkpt lat="43.7386036" lon="11.2906322"><ele>81.19999999999999</ele><time>2026-04-26T09:58:47.993Z</time></trkpt><trkpt lat="43.7385767" lon="11.2907117"><ele>80.8</ele><time>2026-04-26T09:58:48.993Z</time></trkpt><trkpt lat="43.7385478" lon="11.2907937"><ele>80.4</ele><time>2026-04-26T09:58:49.993Z</time></trkpt><trkpt lat="43.7385162" lon="11.2909411"><ele>80.0</ele><time>2026-04-26T09:58:51.993Z</time></trkpt><trkpt lat="43.7384783" lon="11.2910875"><ele>80.4</ele><time>2026-04-26T09:58:53.993Z</time></trkpt><trkpt lat="43.7384479" lon="11.2912314"><ele>80.8</ele><time>2026-04-26T09:58:55.993Z</time></trkpt><trkpt lat="43.7384042" lon="11.2913844"><ele>81.19999999999999</ele><time>2026-04-26T09:58:57.993Z</time></trkpt><trkpt lat="43.738364" lon="11.2915459"><ele>81.6</ele><time>2026-04-26T09:58:59.993Z</time></trkpt><trkpt lat="43.7383456" lon="11.2916304"><ele>82.0</ele><time>2026-04-26T09:59:00.993Z</time></trkpt><trkpt lat="43.7383124" lon="11.2918001"><ele>82.0</ele><time>2026-04-26T09:59:02.993Z</time></trkpt><trkpt lat="43.7382936" lon="11.2918961"><ele>82.0</ele><time>2026-04-26T09:59:03.993Z</time></trkpt><trkpt lat="43.7382704" lon="11.2920042"><ele>82.0</ele><time>2026-04-26T09:59:04.993Z</time></trkpt><trkpt lat="43.738247" lon="11.2921079"><ele>82.0</ele><time>2026-04-26T09:59:05.993Z</time></trkpt><trkpt lat="43.7382252" lon="11.2922178"><ele>82.0</ele><time>2026-04-26T09:59:06.993Z</time></trkpt><trkpt lat="43.7382056" lon="11.2923281"><ele>82.0</ele><time>2026-04-26T09:59:07.993Z</time></trkpt><trkpt lat="43.738183" lon="11.2924435"><ele>81.66666666666666</ele><time>2026-04-26T09:59:08.994Z</time></trkpt><trkpt lat="43.7381589" lon="11.292557"><ele>81.33333333333333</ele><time>2026-04-26T09:59:09.993Z</time></trkpt><trkpt lat="43.738138" lon="11.2926675"><ele>81.0</ele><time>2026-04-26T09:59:10.993Z</time></trkpt><trkpt lat="43.7381152" lon="11.2927734"><ele>80.66666666666667</ele><time>2026-04-26T09:59:11.993Z</time></trkpt><trkpt lat="43.7380966" lon="11.2928638"><ele>80.33333333333334</ele><time>2026-04-26T09:59:12.993Z</time></trkpt><trkpt lat="43.7380753" lon="11.2929469"><ele>80.0</ele><time>2026-04-26T09:59:13.993Z</time></trkpt><trkpt lat="43.73803" lon="11.2930908"><ele>80.0</ele><time>2026-04-26T09:59:15.993Z</time></trkpt><trkpt lat="43.7379751" lon="11.2932189"><ele>80.0</ele><time>2026-04-26T09:59:17.993Z</time></trkpt><trkpt lat="43.7379513" lon="11.2933516"><ele>80.0</ele><time>2026-04-26T09:59:19.994Z</time></trkpt><trkpt lat="43.7379657" lon="11.2935066"><ele>80.0</ele><time>2026-04-26T09:59:21.993Z</time></trkpt><trkpt lat="43.7379607" lon="11.2935945"><ele>80.0</ele><time>2026-04-26T09:59:22.993Z</time></trkpt><trkpt lat="43.7379465" lon="11.293689"><ele>80.0</ele><time>2026-04-26T09:59:23.993Z</time></trkpt><trkpt lat="43.7379254" lon="11.2937956"><ele>80.0</ele><time>2026-04-26T09:59:24.994Z</time></trkpt><trkpt lat="43.7379035" lon="11.2939067"><ele>80.0</ele><time>2026-04-26T09:59:25.993Z</time></trkpt><trkpt lat="43.7378774" lon="11.29402"><ele>80.0</ele><time>2026-04-26T09:59:26.994Z</time></trkpt><trkpt lat="43.7378476" lon="11.2941238"><ele>80.0</ele><time>2026-04-26T09:59:27.993Z</time></trkpt><trkpt lat="43.7378202" lon="11.2942124"><ele>80.0</ele><time>2026-04-26T09:59:28.993Z</time></trkpt><trkpt lat="43.7377884" lon="11.2943039"><ele>79.83333333333334</ele><time>2026-04-26T09:59:29.993Z</time></trkpt><trkpt lat="43.7377541" lon="11.2943924"><ele>79.66666666666667</ele><time>2026-04-26T09:59:30.993Z</time></trkpt><trkpt lat="43.7377136" lon="11.2944913"><ele>79.5</ele><time>2026-04-26T09:59:31.993Z</time></trkpt><trkpt lat="43.7376678" lon="11.2945963"><ele>79.33333333333333</ele><time>2026-04-26T09:59:32.993Z</time></trkpt><trkpt lat="43.7376174" lon="11.2947059"><ele>79.16666666666666</ele><time>2026-04-26T09:59:33.994Z</time></trkpt><trkpt lat="43.7375609" lon="11.2948167"><ele>79.0</ele><time>2026-04-26T09:59:34.993Z</time></trkpt><trkpt lat="43.7374961" lon="11.2949211"><ele>79.0</ele><time>2026-04-26T09:59:35.994Z</time></trkpt><trkpt lat="43.7374303" lon="11.2950184"><ele>79.0</ele><time>2026-04-26T09:59:36.994Z</time></trkpt><trkpt lat="43.7373667" lon="11.2950992"><ele>79.0</ele><time>2026-04-26T09:59:37.993Z</time></trkpt><trkpt lat="43.7373018" lon="11.2951703"><ele>79.0</ele><time>2026-04-26T09:59:38.993Z</time></trkpt><trkpt lat="43.7372376" lon="11.2952354"><ele>79.0</ele><time>2026-04-26T09:59:39.994Z</time></trkpt><trkpt lat="43.7371672" lon="11.2952991"><ele>79.0</ele><time>2026-04-26T09:59:40.994Z</time></trkpt><trkpt lat="43.7371029" lon="11.29535"><ele>79.00000000000001</ele><time>2026-04-26T09:59:41.993Z</time></trkpt><trkpt lat="43.7370444" lon="11.2953999"><ele>79.0</ele><time>2026-04-26T09:59:42.994Z</time></trkpt><trkpt lat="43.7369853" lon="11.2954485"><ele>79.0</ele><time>2026-04-26T09:59:43.994Z</time></trkpt><trkpt lat="43.7369257" lon="11.295492"><ele>79.0</ele><time>2026-04-26T09:59:44.993Z</time></trkpt><trkpt lat="43.7368639" lon="11.295533"><ele>79.0</ele><time>2026-04-26T09:59:45.993Z</time></trkpt><trkpt lat="43.7367919" lon="11.2955774"><ele>79.00000000000001</ele><time>2026-04-26T09:59:46.993Z</time></trkpt><trkpt lat="43.7367158" lon="11.2956283"><ele>79.0</ele><time>2026-04-26T09:59:47.993Z</time></trkpt><trkpt lat="43.7366348" lon="11.2956844"><ele>80.0</ele><time>2026-04-26T09:59:48.993Z</time></trkpt><trkpt lat="43.7365548" lon="11.2957278"><ele>81.0</ele><time>2026-04-26T09:59:49.994Z</time></trkpt><trkpt lat="43.7364597" lon="11.2957858"><ele>82.0</ele><time>2026-04-26T09:59:50.994Z</time></trkpt><trkpt lat="43.7363739" lon="11.2958373"><ele>83.0</ele><time>2026-04-26T09:59:51.994Z</time></trkpt><trkpt lat="43.736293" lon="11.2959126"><ele>84.0</ele><time>2026-04-26T09:59:52.993Z</time></trkpt><trkpt lat="43.7361555" lon="11.2960333"><ele>84.0</ele><time>2026-04-26T09:59:53.993Z</time></trkpt><trkpt lat="43.736034" lon="11.2960947"><ele>84.0</ele><time>2026-04-26T09:59:54.993Z</time></trkpt><trkpt lat="43.7359209" lon="11.2961717"><ele>84.0</ele><time>2026-04-26T09:59:55.993Z</time></trkpt><trkpt lat="43.7358106" lon="11.2962321"><ele>84.0</ele><time>2026-04-26T09:59:56.993Z</time></trkpt><trkpt lat="43.7357056" lon="11.2962924"><ele>84.0</ele><time>2026-04-26T09:59:57.993Z</time></trkpt><trkpt lat="43.7356071" lon="11.2963492"><ele>84.0</ele><time>2026-04-26T09:59:58.993Z</time></trkpt><trkpt lat="43.7355218" lon="11.2963912"><ele>84.0</ele><time>2026-04-26T09:59:59.993Z</time></trkpt><trkpt lat="43.7354303" lon="11.2964431"><ele>84.0</ele><time>2026-04-26T10:00:00.993Z</time></trkpt><trkpt lat="43.7353634" lon="11.296469"><ele>84.0</ele><time>2026-04-26T10:00:01.993Z</time></trkpt><trkpt lat="43.7352836" lon="11.2964964"><ele>84.0</ele><time>2026-04-26T10:00:02.994Z</time></trkpt><trkpt lat="43.7352062" lon="11.2965278"><ele>84.28571428571429</ele><time>2026-04-26T10:00:03.993Z</time></trkpt><trkpt lat="43.7351322" lon="11.2965587"><ele>84.57142857142857</ele><time>2026-04-26T10:00:04.993Z</time></trkpt><trkpt lat="43.735058" lon="11.2965871"><ele>84.85714285714286</ele><time>2026-04-26T10:00:05.993Z</time></trkpt><trkpt lat="43.7349874" lon="11.2966116"><ele>85.14285714285714</ele><time>2026-04-26T10:00:06.994Z</time></trkpt><trkpt lat="43.7349172" lon="11.2966411"><ele>85.42857142857143</ele><time>2026-04-26T10:00:07.993Z</time></trkpt><trkpt lat="43.7348477" lon="11.2966702"><ele>85.71428571428572</ele><time>2026-04-26T10:00:08.993Z</time></trkpt><trkpt lat="43.7347765" lon="11.2966935"><ele>86.0</ele><time>2026-04-26T10:00:09.993Z</time></trkpt><trkpt lat="43.734706" lon="11.2967232"><ele>86.0</ele><time>2026-04-26T10:00:10.993Z</time></trkpt><trkpt lat="43.7346391" lon="11.2967584"><ele>86.0</ele><time>2026-04-26T10:00:11.993Z</time></trkpt><trkpt lat="43.7345722" lon="11.2967852"><ele>86.0</ele><time>2026-04-26T10:00:12.993Z</time></trkpt><trkpt lat="43.7345114" lon="11.2968107"><ele>86.0</ele><time>2026-04-26T10:00:13.993Z</time></trkpt><trkpt lat="43.7344085" lon="11.2968499"><ele>86.0</ele><time>2026-04-26T10:00:15.993Z</time></trkpt><trkpt lat="43.7343064" lon="11.2968868"><ele>86.0</ele><time>2026-04-26T10:00:17.993Z</time></trkpt><trkpt lat="43.7342153" lon="11.2969175"><ele>85.83333333333334</ele><time>2026-04-26T10:00:19.993Z</time></trkpt><trkpt lat="43.734142" lon="11.2969262"><ele>85.66666666666667</ele><time>2026-04-26T10:00:21.993Z</time></trkpt><trkpt lat="43.7340517" lon="11.2969497"><ele>85.5</ele><time>2026-04-26T10:00:23.993Z</time></trkpt><trkpt lat="43.7339891" lon="11.2969593"><ele>85.33333333333333</ele><time>2026-04-26T10:00:24.993Z</time></trkpt><trkpt lat="43.7339183" lon="11.2969661"><ele>85.16666666666666</ele><time>2026-04-26T10:00:25.993Z</time></trkpt><trkpt lat="43.7338372" lon="11.296968"><ele>85.0</ele><time>2026-04-26T10:00:26.993Z</time></trkpt><trkpt lat="43.7337485" lon="11.2969683"><ele>85.0</ele><time>2026-04-26T10:00:27.993Z</time></trkpt><trkpt lat="43.733651" lon="11.2969612"><ele>85.0</ele><time>2026-04-26T10:00:28.993Z</time></trkpt><trkpt lat="43.7335434" lon="11.2969445"><ele>85.0</ele><time>2026-04-26T10:00:29.993Z</time></trkpt><trkpt lat="43.7334223" lon="11.2969174"><ele>85.0</ele><time>2026-04-26T10:00:30.993Z</time></trkpt><trkpt lat="43.7332909" lon="11.2968827"><ele>85.25</ele><time>2026-04-26T10:00:31.994Z</time></trkpt><trkpt lat="43.7331652" lon="11.2968346"><ele>85.5</ele><time>2026-04-26T10:00:32.993Z</time></trkpt><trkpt lat="43.7330474" lon="11.296793"><ele>85.75</ele><time>2026-04-26T10:00:33.993Z</time></trkpt><trkpt lat="43.7329417" lon="11.2967642"><ele>86.0</ele><time>2026-04-26T10:00:34.993Z</time></trkpt><trkpt lat="43.7328397" lon="11.2967358"><ele>86.0</ele><time>2026-04-26T10:00:35.993Z</time></trkpt><trkpt lat="43.7327502" lon="11.2967042"><ele>86.0</ele><time>2026-04-26T10:00:36.993Z</time></trkpt><trkpt lat="43.7326568" lon="11.2966767"><ele>86.0</ele><time>2026-04-26T10:00:37.993Z</time></trkpt><trkpt lat="43.7325629" lon="11.2966369"><ele>86.0</ele><time>2026-04-26T10:00:38.993Z</time></trkpt><trkpt lat="43.7324594" lon="11.2966057"><ele>86.0</ele><time>2026-04-26T10:00:39.993Z</time></trkpt><trkpt lat="43.7323574" lon="11.2965752"><ele>86.19999999999999</ele><time>2026-04-26T10:00:40.993Z</time></trkpt><trkpt lat="43.7322586" lon="11.2965462"><ele>86.39999999999999</ele><time>2026-04-26T10:00:41.994Z</time></trkpt><trkpt lat="43.7321591" lon="11.2965185"><ele>86.6</ele><time>2026-04-26T10:00:42.993Z</time></trkpt><trkpt lat="43.7320625" lon="11.2964894"><ele>86.8</ele><time>2026-04-26T10:00:43.993Z</time></trkpt><trkpt lat="43.7319646" lon="11.2964639"><ele>87.0</ele><time>2026-04-26T10:00:44.993Z</time></trkpt><trkpt lat="43.731868" lon="11.2964403"><ele>86.8</ele><time>2026-04-26T10:00:45.994Z</time></trkpt><trkpt lat="43.7317751" lon="11.2964029"><ele>86.6</ele><time>2026-04-26T10:00:46.993Z</time></trkpt><trkpt lat="43.7316815" lon="11.2963687"><ele>86.39999999999999</ele><time>2026-04-26T10:00:47.994Z</time></trkpt><trkpt lat="43.7315922" lon="11.2963314"><ele>86.19999999999999</ele><time>2026-04-26T10:00:48.993Z</time></trkpt><trkpt lat="43.7315073" lon="11.2963089"><ele>86.0</ele><time>2026-04-26T10:00:49.993Z</time></trkpt><trkpt lat="43.7314189" lon="11.2962781"><ele>86.0</ele><time>2026-04-26T10:00:50.993Z</time></trkpt><trkpt lat="43.7313291" lon="11.2962524"><ele>86.0</ele><time>2026-04-26T10:00:51.993Z</time></trkpt><trkpt lat="43.7312383" lon="11.2962222"><ele>86.0</ele><time>2026-04-26T10:00:52.993Z</time></trkpt><trkpt lat="43.731147" lon="11.2961979"><ele>86.0</ele><time>2026-04-26T10:00:53.993Z</time></trkpt><trkpt lat="43.7310545" lon="11.296167"><ele>86.0</ele><time>2026-04-26T10:00:54.993Z</time></trkpt><trkpt lat="43.7309618" lon="11.2961415"><ele>86.4</ele><time>2026-04-26T10:00:55.993Z</time></trkpt><trkpt lat="43.7308632" lon="11.2961182"><ele>86.8</ele><time>2026-04-26T10:00:56.993Z</time></trkpt><trkpt lat="43.7307734" lon="11.2960837"><ele>87.2</ele><time>2026-04-26T10:00:57.993Z</time></trkpt><trkpt lat="43.7306858" lon="11.2960539"><ele>87.60000000000001</ele><time>2026-04-26T10:00:58.993Z</time></trkpt><trkpt lat="43.7305918" lon="11.2960307"><ele>88.0</ele><time>2026-04-26T10:00:59.993Z</time></trkpt><trkpt lat="43.7304956" lon="11.2960094"><ele>88.0</ele><time>2026-04-26T10:01:00.993Z</time></trkpt><trkpt lat="43.7303958" lon="11.2959787"><ele>88.0</ele><time>2026-04-26T10:01:01.993Z</time></trkpt><trkpt lat="43.7302913" lon="11.2959542"><ele>88.0</ele><time>2026-04-26T10:01:02.993Z</time></trkpt><trkpt lat="43.7301894" lon="11.2959187"><ele>88.0</ele><time>2026-04-26T10:01:03.993Z</time></trkpt><trkpt lat="43.7300862" lon="11.2959005"><ele>88.0</ele><time>2026-04-26T10:01:04.993Z</time></trkpt><trkpt lat="43.7299844" lon="11.2958627"><ele>88.4</ele><time>2026-04-26T10:01:05.993Z</time></trkpt><trkpt lat="43.7298866" lon="11.2958365"><ele>88.80000000000001</ele><time>2026-04-26T10:01:06.993Z</time></trkpt><trkpt lat="43.729787" lon="11.2958106"><ele>89.2</ele><time>2026-04-26T10:01:07.993Z</time></trkpt><trkpt lat="43.729689" lon="11.2957792"><ele>89.6</ele><time>2026-04-26T10:01:08.993Z</time></trkpt><trkpt lat="43.7295914" lon="11.295746"><ele>90.0</ele><time>2026-04-26T10:01:09.993Z</time></trkpt><trkpt lat="43.7294939" lon="11.2957176"><ele>90.0</ele><time>2026-04-26T10:01:10.993Z</time></trkpt><trkpt lat="43.7293959" lon="11.2956882"><ele>90.0</ele><time>2026-04-26T10:01:11.993Z</time></trkpt><trkpt lat="43.7292988" lon="11.2956586"><ele>90.0</ele><time>2026-04-26T10:01:12.993Z</time></trkpt><trkpt lat="43.7291975" lon="11.2956205"><ele>90.0</ele><time>2026-04-26T10:01:13.993Z</time></trkpt><trkpt lat="43.7290996" lon="11.2955883"><ele>90.0</ele><time>2026-04-26T10:01:14.993Z</time></trkpt><trkpt lat="43.7290013" lon="11.2955546"><ele>89.6</ele><time>2026-04-26T10:01:15.993Z</time></trkpt><trkpt lat="43.7289017" lon="11.2955261"><ele>89.2</ele><time>2026-04-26T10:01:16.993Z</time></trkpt><trkpt lat="43.7287997" lon="11.2955015"><ele>88.80000000000001</ele><time>2026-04-26T10:01:17.993Z</time></trkpt><trkpt lat="43.7287013" lon="11.2954643"><ele>88.4</ele><time>2026-04-26T10:01:18.993Z</time></trkpt><trkpt lat="43.7286032" lon="11.2954366"><ele>88.0</ele><time>2026-04-26T10:01:19.993Z</time></trkpt><trkpt lat="43.7285034" lon="11.2954044"><ele>88.0</ele><time>2026-04-26T10:01:20.994Z</time></trkpt><trkpt lat="43.7284109" lon="11.2953696"><ele>88.0</ele><time>2026-04-26T10:01:21.994Z</time></trkpt><trkpt lat="43.728322" lon="11.2953304"><ele>88.0</ele><time>2026-04-26T10:01:22.993Z</time></trkpt><trkpt lat="43.7282352" lon="11.2952878"><ele>88.0</ele><time>2026-04-26T10:01:23.993Z</time></trkpt><trkpt lat="43.7281447" lon="11.2952284"><ele>88.0</ele><time>2026-04-26T10:01:24.993Z</time></trkpt><trkpt lat="43.7280607" lon="11.2951499"><ele>88.0</ele><time>2026-04-26T10:01:25.993Z</time></trkpt><trkpt lat="43.7279735" lon="11.2950713"><ele>88.0</ele><time>2026-04-26T10:01:26.993Z</time></trkpt><trkpt lat="43.7278952" lon="11.2949708"><ele>88.0</ele><time>2026-04-26T10:01:27.993Z</time></trkpt><trkpt lat="43.7278188" lon="11.2948699"><ele>88.0</ele><time>2026-04-26T10:01:28.993Z</time></trkpt><trkpt lat="43.7277432" lon="11.2947702"><ele>88.0</ele><time>2026-04-26T10:01:29.994Z</time></trkpt><trkpt lat="43.7276772" lon="11.2946719"><ele>88.2</ele><time>2026-04-26T10:01:30.993Z</time></trkpt><trkpt lat="43.7276109" lon="11.2945735"><ele>88.4</ele><time>2026-04-26T10:01:31.993Z</time></trkpt><trkpt lat="43.7275464" lon="11.2944723"><ele>88.60000000000001</ele><time>2026-04-26T10:01:32.993Z</time></trkpt><trkpt lat="43.7274782" lon="11.2943668"><ele>88.80000000000001</ele><time>2026-04-26T10:01:33.993Z</time></trkpt><trkpt lat="43.727408" lon="11.2942604"><ele>89.0</ele><time>2026-04-26T10:01:34.994Z</time></trkpt><trkpt lat="43.7273391" lon="11.2941537"><ele>89.0</ele><time>2026-04-26T10:01:35.993Z</time></trkpt><trkpt lat="43.7272744" lon="11.2940502"><ele>89.0</ele><time>2026-04-26T10:01:36.993Z</time></trkpt><trkpt lat="43.7272076" lon="11.293948"><ele>89.0</ele><time>2026-04-26T10:01:37.993Z</time></trkpt><trkpt lat="43.7271443" lon="11.2938502"><ele>89.0</ele><time>2026-04-26T10:01:38.993Z</time></trkpt><trkpt lat="43.7270781" lon="11.2937518"><ele>89.0</ele><time>2026-04-26T10:01:39.994Z</time></trkpt><trkpt lat="43.727011" lon="11.2936467"><ele>89.0</ele><time>2026-04-26T10:01:40.993Z</time></trkpt><trkpt lat="43.7269384" lon="11.2935428"><ele>89.0</ele><time>2026-04-26T10:01:41.993Z</time></trkpt><trkpt lat="43.7268621" lon="11.2934474"><ele>89.0</ele><time>2026-04-26T10:01:42.993Z</time></trkpt><trkpt lat="43.7267837" lon="11.2933638"><ele>89.0</ele><time>2026-04-26T10:01:43.994Z</time></trkpt><trkpt lat="43.7267023" lon="11.2932965"><ele>89.0</ele><time>2026-04-26T10:01:44.993Z</time></trkpt><trkpt lat="43.7266201" lon="11.2932333"><ele>89.0</ele><time>2026-04-26T10:01:45.993Z</time></trkpt><trkpt lat="43.7265355" lon="11.2931701"><ele>89.0</ele><time>2026-04-26T10:01:46.993Z</time></trkpt><trkpt lat="43.7264503" lon="11.2931137"><ele>89.0</ele><time>2026-04-26T10:01:47.993Z</time></trkpt><trkpt lat="43.7263679" lon="11.2930695"><ele>89.0</ele><time>2026-04-26T10:01:48.994Z</time></trkpt><trkpt lat="43.7262897" lon="11.2930226"><ele>89.0</ele><time>2026-04-26T10:01:49.993Z</time></trkpt><trkpt lat="43.7262147" lon="11.292977"><ele>89.0</ele><time>2026-04-26T10:01:50.993Z</time></trkpt><trkpt lat="43.7261403" lon="11.2929326"><ele>89.16666666666667</ele><time>2026-04-26T10:01:51.993Z</time></trkpt><trkpt lat="43.7260653" lon="11.2928925"><ele>89.33333333333334</ele><time>2026-04-26T10:01:52.993Z</time></trkpt><trkpt lat="43.7259927" lon="11.2928539"><ele>89.5</ele><time>2026-04-26T10:01:53.993Z</time></trkpt><trkpt lat="43.7259213" lon="11.2928089"><ele>89.66666666666667</ele><time>2026-04-26T10:01:54.993Z</time></trkpt><trkpt lat="43.7258509" lon="11.2927702"><ele>89.83333333333333</ele><time>2026-04-26T10:01:55.993Z</time></trkpt><trkpt lat="43.725785" lon="11.2927422"><ele>90.0</ele><time>2026-04-26T10:01:56.993Z</time></trkpt><trkpt lat="43.7257166" lon="11.2927284"><ele>90.0</ele><time>2026-04-26T10:01:57.994Z</time></trkpt><trkpt lat="43.725649" lon="11.2927533"><ele>90.0</ele><time>2026-04-26T10:01:58.993Z</time></trkpt><trkpt lat="43.7255859" lon="11.2927935"><ele>90.0</ele><time>2026-04-26T10:01:59.993Z</time></trkpt><trkpt lat="43.7255263" lon="11.2928474"><ele>90.0</ele><time>2026-04-26T10:02:00.993Z</time></trkpt><trkpt lat="43.7254668" lon="11.2928981"><ele>90.0</ele><time>2026-04-26T10:02:01.993Z</time></trkpt><trkpt lat="43.7254134" lon="11.292948"><ele>90.0</ele><time>2026-04-26T10:02:02.993Z</time></trkpt><trkpt lat="43.7253057" lon="11.2930328"><ele>89.8</ele><time>2026-04-26T10:02:04.993Z</time></trkpt><trkpt lat="43.7251879" lon="11.2930649"><ele>89.6</ele><time>2026-04-26T10:02:06.994Z</time></trkpt><trkpt lat="43.7251236" lon="11.2930599"><ele>89.4</ele><time>2026-04-26T10:02:07.993Z</time></trkpt><trkpt lat="43.7250173" lon="11.2930418"><ele>89.2</ele><time>2026-04-26T10:02:09.993Z</time></trkpt><trkpt lat="43.7249007" lon="11.2930473"><ele>89.0</ele><time>2026-04-26T10:02:11.993Z</time></trkpt><trkpt lat="43.7247846" lon="11.2930437"><ele>88.99999999999999</ele><time>2026-04-26T10:02:13.993Z</time></trkpt><trkpt lat="43.724721" lon="11.2930445"><ele>89.0</ele><time>2026-04-26T10:02:14.993Z</time></trkpt><trkpt lat="43.7246578" lon="11.2930435"><ele>89.0</ele><time>2026-04-26T10:02:15.993Z</time></trkpt><trkpt lat="43.7245947" lon="11.2930335"><ele>89.0</ele><time>2026-04-26T10:02:16.993Z</time></trkpt><trkpt lat="43.7245275" lon="11.2930326"><ele>89.0</ele><time>2026-04-26T10:02:17.993Z</time></trkpt><trkpt lat="43.72445" lon="11.2930397"><ele>88.99999999999999</ele><time>2026-04-26T10:02:18.993Z</time></trkpt><trkpt lat="43.7243698" lon="11.2930466"><ele>89.0</ele><time>2026-04-26T10:02:19.993Z</time></trkpt><trkpt lat="43.7242909" lon="11.2930613"><ele>88.83333333333334</ele><time>2026-04-26T10:02:20.993Z</time></trkpt><trkpt lat="43.7242157" lon="11.2930954"><ele>88.66666666666667</ele><time>2026-04-26T10:02:21.993Z</time></trkpt><trkpt lat="43.7241462" lon="11.293152"><ele>88.5</ele><time>2026-04-26T10:02:22.993Z</time></trkpt><trkpt lat="43.7240815" lon="11.2932305"><ele>88.33333333333333</ele><time>2026-04-26T10:02:23.993Z</time></trkpt><trkpt lat="43.7240201" lon="11.2933213"><ele>88.16666666666666</ele><time>2026-04-26T10:02:24.993Z</time></trkpt><trkpt lat="43.7239567" lon="11.2934186"><ele>88.0</ele><time>2026-04-26T10:02:25.993Z</time></trkpt><trkpt lat="43.7238893" lon="11.2935261"><ele>88.0</ele><time>2026-04-26T10:02:26.993Z</time></trkpt><trkpt lat="43.7238215" lon="11.2936329"><ele>88.0</ele><time>2026-04-26T10:02:27.994Z</time></trkpt><trkpt lat="43.7237545" lon="11.2937374"><ele>88.0</ele><time>2026-04-26T10:02:28.993Z</time></trkpt><trkpt lat="43.7236921" lon="11.2938393"><ele>88.0</ele><time>2026-04-26T10:02:29.993Z</time></trkpt><trkpt lat="43.7236293" lon="11.2939383"><ele>88.0</ele><time>2026-04-26T10:02:30.993Z</time></trkpt><trkpt lat="43.7235646" lon="11.2940405"><ele>88.83333333333333</ele><time>2026-04-26T10:02:31.993Z</time></trkpt><trkpt lat="43.7235027" lon="11.2941388"><ele>89.66666666666666</ele><time>2026-04-26T10:02:32.993Z</time></trkpt><trkpt lat="43.7234445" lon="11.2942306"><ele>90.5</ele><time>2026-04-26T10:02:33.993Z</time></trkpt><trkpt lat="43.7233857" lon="11.29432"><ele>91.33333333333333</ele><time>2026-04-26T10:02:34.994Z</time></trkpt><trkpt lat="43.7233314" lon="11.2944094"><ele>92.16666666666667</ele><time>2026-04-26T10:02:35.993Z</time></trkpt><trkpt lat="43.7232768" lon="11.2944975"><ele>93.0</ele><time>2026-04-26T10:02:36.993Z</time></trkpt><trkpt lat="43.7232272" lon="11.2945939"><ele>93.0</ele><time>2026-04-26T10:02:37.993Z</time></trkpt><trkpt lat="43.7231833" lon="11.2946959"><ele>93.0</ele><time>2026-04-26T10:02:38.993Z</time></trkpt><trkpt lat="43.7231509" lon="11.2947974"><ele>93.0</ele><time>2026-04-26T10:02:39.993Z</time></trkpt><trkpt lat="43.7231242" lon="11.2949009"><ele>93.0</ele><time>2026-04-26T10:02:40.993Z</time></trkpt><trkpt lat="43.7231093" lon="11.2950169"><ele>93.0</ele><time>2026-04-26T10:02:41.993Z</time></trkpt><trkpt lat="43.723103" lon="11.2951439"><ele>93.0</ele><time>2026-04-26T10:02:42.993Z</time></trkpt><trkpt lat="43.7230999" lon="11.2952793"><ele>92.4</ele><time>2026-04-26T10:02:43.993Z</time></trkpt><trkpt lat="43.723097" lon="11.2954257"><ele>91.80000000000001</ele><time>2026-04-26T10:02:44.993Z</time></trkpt><trkpt lat="43.7231032" lon="11.295577"><ele>91.2</ele><time>2026-04-26T10:02:45.993Z</time></trkpt><trkpt lat="43.7230951" lon="11.2957406"><ele>90.6</ele><time>2026-04-26T10:02:46.993Z</time></trkpt><trkpt lat="43.7230896" lon="11.295895"><ele>90.0</ele><time>2026-04-26T10:02:47.993Z</time></trkpt><trkpt lat="43.7230835" lon="11.2960512"><ele>90.0</ele><time>2026-04-26T10:02:48.993Z</time></trkpt><trkpt lat="43.7230784" lon="11.2962085"><ele>90.0</ele><time>2026-04-26T10:02:49.993Z</time></trkpt><trkpt lat="43.7230776" lon="11.2963595"><ele>90.0</ele><time>2026-04-26T10:02:50.993Z</time></trkpt><trkpt lat="43.7230717" lon="11.2964948"><ele>90.0</ele><time>2026-04-26T10:02:51.993Z</time></trkpt><trkpt lat="43.7230674" lon="11.2966158"><ele>90.0</ele><time>2026-04-26T10:02:52.993Z</time></trkpt><trkpt lat="43.7230635" lon="11.2967296"><ele>90.16666666666667</ele><time>2026-04-26T10:02:53.993Z</time></trkpt><trkpt lat="43.7230618" lon="11.2968336"><ele>90.33333333333333</ele><time>2026-04-26T10:02:54.993Z</time></trkpt><trkpt lat="43.723055" lon="11.2969317"><ele>90.5</ele><time>2026-04-26T10:02:55.993Z</time></trkpt><trkpt lat="43.7230502" lon="11.297039"><ele>90.66666666666666</ele><time>2026-04-26T10:02:56.993Z</time></trkpt><trkpt lat="43.7230408" lon="11.2971482"><ele>90.83333333333333</ele><time>2026-04-26T10:02:57.993Z</time></trkpt><trkpt lat="43.7230098" lon="11.2972667"><ele>91.0</ele><time>2026-04-26T10:02:58.993Z</time></trkpt><trkpt lat="43.7229527" lon="11.2973842"><ele>91.19999999999999</ele><time>2026-04-26T10:02:59.993Z</time></trkpt><trkpt lat="43.7228855" lon="11.2975012"><ele>91.39999999999999</ele><time>2026-04-26T10:03:00.993Z</time></trkpt><trkpt lat="43.7228114" lon="11.2976077"><ele>91.6</ele><time>2026-04-26T10:03:01.993Z</time></trkpt><trkpt lat="43.7227269" lon="11.2976981"><ele>91.8</ele><time>2026-04-26T10:03:02.994Z</time></trkpt><trkpt lat="43.7226326" lon="11.2977673"><ele>92.0</ele><time>2026-04-26T10:03:03.993Z</time></trkpt><trkpt lat="43.7225247" lon="11.297811"><ele>92.0</ele><time>2026-04-26T10:03:04.993Z</time></trkpt><trkpt lat="43.7224172" lon="11.2978289"><ele>92.0</ele><time>2026-04-26T10:03:05.993Z</time></trkpt><trkpt lat="43.7223039" lon="11.2978224"><ele>92.0</ele><time>2026-04-26T10:03:06.993Z</time></trkpt><trkpt lat="43.7221901" lon="11.2977888"><ele>92.0</ele><time>2026-04-26T10:03:07.993Z</time></trkpt><trkpt lat="43.7220809" lon="11.2977383"><ele>92.0</ele><time>2026-04-26T10:03:08.993Z</time></trkpt><trkpt lat="43.7219701" lon="11.2976811"><ele>92.0</ele><time>2026-04-26T10:03:09.993Z</time></trkpt><trkpt lat="43.7218598" lon="11.2976205"><ele>92.0</ele><time>2026-04-26T10:03:10.993Z</time></trkpt><trkpt lat="43.7217461" lon="11.2975642"><ele>92.0</ele><time>2026-04-26T10:03:11.994Z</time></trkpt><trkpt lat="43.7216277" lon="11.2975078"><ele>91.75</ele><time>2026-04-26T10:03:12.993Z</time></trkpt><trkpt lat="43.7215067" lon="11.2974557"><ele>91.5</ele><time>2026-04-26T10:03:13.993Z</time></trkpt><trkpt lat="43.7213905" lon="11.2974091"><ele>91.25</ele><time>2026-04-26T10:03:14.993Z</time></trkpt><trkpt lat="43.7212766" lon="11.2973665"><ele>91.0</ele><time>2026-04-26T10:03:15.993Z</time></trkpt><trkpt lat="43.7211626" lon="11.2973285"><ele>91.25</ele><time>2026-04-26T10:03:16.993Z</time></trkpt><trkpt lat="43.7210427" lon="11.2972969"><ele>91.5</ele><time>2026-04-26T10:03:17.993Z</time></trkpt><trkpt lat="43.7209208" lon="11.2972656"><ele>91.75</ele><time>2026-04-26T10:03:18.993Z</time></trkpt><trkpt lat="43.7207978" lon="11.2972352"><ele>92.0</ele><time>2026-04-26T10:03:19.993Z</time></trkpt><trkpt lat="43.720675" lon="11.2971999"><ele>92.0</ele><time>2026-04-26T10:03:20.993Z</time></trkpt><trkpt lat="43.7205543" lon="11.2971675"><ele>92.0</ele><time>2026-04-26T10:03:21.993Z</time></trkpt><trkpt lat="43.7204309" lon="11.2971307"><ele>92.0</ele><time>2026-04-26T10:03:22.993Z</time></trkpt><trkpt lat="43.7203071" lon="11.2970937"><ele>92.0</ele><time>2026-04-26T10:03:23.993Z</time></trkpt><trkpt lat="43.7201848" lon="11.2970627"><ele>91.75</ele><time>2026-04-26T10:03:24.994Z</time></trkpt><trkpt lat="43.720061" lon="11.297038"><ele>91.5</ele><time>2026-04-26T10:03:25.993Z</time></trkpt><trkpt lat="43.7199343" lon="11.2970183"><ele>91.25</ele><time>2026-04-26T10:03:26.993Z</time></trkpt><trkpt lat="43.7198072" lon="11.2970086"><ele>91.0</ele><time>2026-04-26T10:03:27.993Z</time></trkpt><trkpt lat="43.7196855" lon="11.2970022"><ele>91.0</ele><time>2026-04-26T10:03:28.993Z</time></trkpt><trkpt lat="43.7195729" lon="11.2970029"><ele>91.0</ele><time>2026-04-26T10:03:29.993Z</time></trkpt><trkpt lat="43.7194607" lon="11.2970078"><ele>91.0</ele><time>2026-04-26T10:03:30.994Z</time></trkpt><trkpt lat="43.7193489" lon="11.2970153"><ele>91.0</ele><time>2026-04-26T10:03:31.994Z</time></trkpt><trkpt lat="43.7192434" lon="11.2970267"><ele>91.0</ele><time>2026-04-26T10:03:32.993Z</time></trkpt><trkpt lat="43.7191429" lon="11.2970556"><ele>91.19999999999999</ele><time>2026-04-26T10:03:33.993Z</time></trkpt><trkpt lat="43.7190555" lon="11.2970941"><ele>91.39999999999999</ele><time>2026-04-26T10:03:34.993Z</time></trkpt><trkpt lat="43.718972" lon="11.2971761"><ele>91.6</ele><time>2026-04-26T10:03:35.993Z</time></trkpt><trkpt lat="43.7188991" lon="11.2972918"><ele>91.8</ele><time>2026-04-26T10:03:36.993Z</time></trkpt><trkpt lat="43.7188432" lon="11.2974322"><ele>92.0</ele><time>2026-04-26T10:03:37.993Z</time></trkpt><trkpt lat="43.7187987" lon="11.2975908"><ele>92.0</ele><time>2026-04-26T10:03:38.993Z</time></trkpt><trkpt lat="43.7187548" lon="11.2977602"><ele>92.0</ele><time>2026-04-26T10:03:39.993Z</time></trkpt><trkpt lat="43.7187092" lon="11.2979347"><ele>92.0</ele><time>2026-04-26T10:03:40.993Z</time></trkpt><trkpt lat="43.718664" lon="11.2981106"><ele>92.0</ele><time>2026-04-26T10:03:41.994Z</time></trkpt><trkpt lat="43.7186174" lon="11.2982816"><ele>92.25</ele><time>2026-04-26T10:03:42.993Z</time></trkpt><trkpt lat="43.718569" lon="11.2984466"><ele>92.5</ele><time>2026-04-26T10:03:43.994Z</time></trkpt><trkpt lat="43.718515" lon="11.2985993"><ele>92.75</ele><time>2026-04-26T10:03:44.993Z</time></trkpt><trkpt lat="43.7184572" lon="11.2987342"><ele>93.0</ele><time>2026-04-26T10:03:45.993Z</time></trkpt><trkpt lat="43.7183896" lon="11.298844"><ele>93.60000000000001</ele><time>2026-04-26T10:03:46.993Z</time></trkpt><trkpt lat="43.7183067" lon="11.2989333"><ele>94.2</ele><time>2026-04-26T10:03:47.993Z</time></trkpt><trkpt lat="43.7182149" lon="11.298995"><ele>94.8</ele><time>2026-04-26T10:03:48.993Z</time></trkpt><trkpt lat="43.7181138" lon="11.2990288"><ele>95.4</ele><time>2026-04-26T10:03:49.993Z</time></trkpt><trkpt lat="43.7180104" lon="11.2990477"><ele>96.0</ele><time>2026-04-26T10:03:50.993Z</time></trkpt><trkpt lat="43.7179141" lon="11.2990694"><ele>96.0</ele><time>2026-04-26T10:03:51.993Z</time></trkpt><trkpt lat="43.7178214" lon="11.2991278"><ele>96.0</ele><time>2026-04-26T10:03:52.993Z</time></trkpt><trkpt lat="43.7177482" lon="11.2992101"><ele>96.0</ele><time>2026-04-26T10:03:53.993Z</time></trkpt><trkpt lat="43.7176907" lon="11.2992926"><ele>96.0</ele><time>2026-04-26T10:03:54.993Z</time></trkpt><trkpt lat="43.7176432" lon="11.2993719"><ele>96.0</ele><time>2026-04-26T10:03:55.993Z</time></trkpt><trkpt lat="43.7175909" lon="11.2994411"><ele>96.0</ele><time>2026-04-26T10:03:56.994Z</time></trkpt><trkpt lat="43.7175245" lon="11.299504"><ele>95.8</ele><time>2026-04-26T10:03:57.993Z</time></trkpt><trkpt lat="43.7174441" lon="11.2995362"><ele>95.6</ele><time>2026-04-26T10:03:58.993Z</time></trkpt><trkpt lat="43.7173588" lon="11.2995347"><ele>95.4</ele><time>2026-04-26T10:03:59.993Z</time></trkpt><trkpt lat="43.7172753" lon="11.2995049"><ele>95.2</ele><time>2026-04-26T10:04:00.993Z</time></trkpt><trkpt lat="43.7171903" lon="11.2994497"><ele>95.0</ele><time>2026-04-26T10:04:01.993Z</time></trkpt><trkpt lat="43.7171053" lon="11.2993729"><ele>95.0</ele><time>2026-04-26T10:04:02.993Z</time></trkpt><trkpt lat="43.7170181" lon="11.2992854"><ele>95.0</ele><time>2026-04-26T10:04:03.993Z</time></trkpt><trkpt lat="43.7169288" lon="11.299202"><ele>95.0</ele><time>2026-04-26T10:04:04.993Z</time></trkpt><trkpt lat="43.7168334" lon="11.2991243"><ele>95.0</ele><time>2026-04-26T10:04:05.993Z</time></trkpt><trkpt lat="43.7167265" lon="11.2990645"><ele>95.0</ele><time>2026-04-26T10:04:06.993Z</time></trkpt><trkpt lat="43.7166138" lon="11.2990173"><ele>95.25</ele><time>2026-04-26T10:04:07.993Z</time></trkpt><trkpt lat="43.716491" lon="11.2989874"><ele>95.5</ele><time>2026-04-26T10:04:08.993Z</time></trkpt><trkpt lat="43.7163627" lon="11.2989746"><ele>95.75</ele><time>2026-04-26T10:04:09.993Z</time></trkpt><trkpt lat="43.7162334" lon="11.298982"><ele>96.0</ele><time>2026-04-26T10:04:10.993Z</time></trkpt><trkpt lat="43.7161002" lon="11.2989994"><ele>97.25</ele><time>2026-04-26T10:04:11.994Z</time></trkpt><trkpt lat="43.7159641" lon="11.299025"><ele>98.5</ele><time>2026-04-26T10:04:12.993Z</time></trkpt><trkpt lat="43.715825" lon="11.299062"><ele>99.75</ele><time>2026-04-26T10:04:13.993Z</time></trkpt><trkpt lat="43.7156788" lon="11.2991108"><ele>101.0</ele><time>2026-04-26T10:04:14.993Z</time></trkpt><trkpt lat="43.7155354" lon="11.2991676"><ele>101.0</ele><time>2026-04-26T10:04:15.993Z</time></trkpt><trkpt lat="43.715389" lon="11.2992307"><ele>101.0</ele><time>2026-04-26T10:04:16.993Z</time></trkpt><trkpt lat="43.7152432" lon="11.2992963"><ele>101.0</ele><time>2026-04-26T10:04:17.993Z</time></trkpt><trkpt lat="43.7150968" lon="11.299361"><ele>101.0</ele><time>2026-04-26T10:04:18.993Z</time></trkpt><trkpt lat="43.7149551" lon="11.2994187"><ele>101.0</ele><time>2026-04-26T10:04:19.993Z</time></trkpt><trkpt lat="43.7148079" lon="11.2994775"><ele>101.0</ele><time>2026-04-26T10:04:20.993Z</time></trkpt><trkpt lat="43.7146614" lon="11.2995237"><ele>101.0</ele><time>2026-04-26T10:04:21.994Z</time></trkpt><trkpt lat="43.714515" lon="11.2995626"><ele>101.0</ele><time>2026-04-26T10:04:22.993Z</time></trkpt><trkpt lat="43.7143665" lon="11.2996006"><ele>101.0</ele><time>2026-04-26T10:04:23.993Z</time></trkpt><trkpt lat="43.7142157" lon="11.2996304"><ele>100.0</ele><time>2026-04-26T10:04:24.993Z</time></trkpt><trkpt lat="43.7140624" lon="11.2996598"><ele>99.0</ele><time>2026-04-26T10:04:25.993Z</time></trkpt><trkpt lat="43.713913" lon="11.2996873"><ele>98.0</ele><time>2026-04-26T10:04:26.993Z</time></trkpt><trkpt lat="43.7137609" lon="11.2997225"><ele>99.33333333333333</ele><time>2026-04-26T10:04:27.993Z</time></trkpt><trkpt lat="43.7136089" lon="11.2997699"><ele>100.66666666666666</ele><time>2026-04-26T10:04:28.993Z</time></trkpt><trkpt lat="43.7134586" lon="11.2998269"><ele>102.0</ele><time>2026-04-26T10:04:29.993Z</time></trkpt><trkpt lat="43.7133061" lon="11.2998934"><ele>102.0</ele><time>2026-04-26T10:04:30.993Z</time></trkpt><trkpt lat="43.7131554" lon="11.299963"><ele>102.0</ele><time>2026-04-26T10:04:31.993Z</time></trkpt><trkpt lat="43.7130028" lon="11.3000361"><ele>102.0</ele><time>2026-04-26T10:04:32.994Z</time></trkpt><trkpt lat="43.7128535" lon="11.300107"><ele>102.0</ele><time>2026-04-26T10:04:33.993Z</time></trkpt><trkpt lat="43.7126998" lon="11.3001704"><ele>102.0</ele><time>2026-04-26T10:04:34.993Z</time></trkpt><trkpt lat="43.7125415" lon="11.3002336"><ele>102.0</ele><time>2026-04-26T10:04:35.993Z</time></trkpt><trkpt lat="43.7123892" lon="11.3002832"><ele>102.0</ele><time>2026-04-26T10:04:36.994Z</time></trkpt><trkpt lat="43.7122307" lon="11.3003324"><ele>102.0</ele><time>2026-04-26T10:04:37.993Z</time></trkpt><trkpt lat="43.7120703" lon="11.3003759"><ele>102.0</ele><time>2026-04-26T10:04:38.993Z</time></trkpt><trkpt lat="43.7119057" lon="11.3004254"><ele>102.66666666666666</ele><time>2026-04-26T10:04:39.993Z</time></trkpt><trkpt lat="43.711742" lon="11.3004752"><ele>103.33333333333333</ele><time>2026-04-26T10:04:40.994Z</time></trkpt><trkpt lat="43.7115762" lon="11.3005301"><ele>104.0</ele><time>2026-04-26T10:04:41.993Z</time></trkpt><trkpt lat="43.7114086" lon="11.3005901"><ele>107.0</ele><time>2026-04-26T10:04:42.993Z</time></trkpt><trkpt lat="43.7112418" lon="11.3006578"><ele>110.0</ele><time>2026-04-26T10:04:43.993Z</time></trkpt><trkpt lat="43.7110888" lon="11.300719"><ele>113.0</ele><time>2026-04-26T10:04:44.993Z</time></trkpt><trkpt lat="43.7109478" lon="11.3007643"><ele>113.25</ele><time>2026-04-26T10:04:45.993Z</time></trkpt><trkpt lat="43.7108106" lon="11.3007753"><ele>113.5</ele><time>2026-04-26T10:04:46.993Z</time></trkpt><trkpt lat="43.71067" lon="11.3007441"><ele>113.75</ele><time>2026-04-26T10:04:47.994Z</time></trkpt><trkpt lat="43.7105361" lon="11.3006688"><ele>114.0</ele><time>2026-04-26T10:04:48.993Z</time></trkpt><trkpt lat="43.7104055" lon="11.3005703"><ele>111.75</ele><time>2026-04-26T10:04:49.993Z</time></trkpt><trkpt lat="43.7102758" lon="11.3004734"><ele>109.5</ele><time>2026-04-26T10:04:50.993Z</time></trkpt><trkpt lat="43.7101427" lon="11.3003956"><ele>107.25</ele><time>2026-04-26T10:04:51.994Z</time></trkpt><trkpt lat="43.710003" lon="11.3003523"><ele>105.0</ele><time>2026-04-26T10:04:52.994Z</time></trkpt><trkpt lat="43.7098526" lon="11.3003487"><ele>105.0</ele><time>2026-04-26T10:04:53.994Z</time></trkpt><trkpt lat="43.7096985" lon="11.3003727"><ele>105.0</ele><time>2026-04-26T10:04:54.993Z</time></trkpt><trkpt lat="43.7095451" lon="11.3003933"><ele>105.0</ele><time>2026-04-26T10:04:55.993Z</time></trkpt><trkpt lat="43.7093995" lon="11.3004012"><ele>104.5</ele><time>2026-04-26T10:04:56.993Z</time></trkpt><trkpt lat="43.7092633" lon="11.3004344"><ele>104.0</ele><time>2026-04-26T10:04:57.993Z</time></trkpt><trkpt lat="43.7091429" lon="11.3005"><ele>103.5</ele><time>2026-04-26T10:04:58.993Z</time></trkpt><trkpt lat="43.709042" lon="11.3006087"><ele>103.0</ele><time>2026-04-26T10:04:59.993Z</time></trkpt><trkpt lat="43.7089655" lon="11.3007534"><ele>105.0</ele><time>2026-04-26T10:05:00.994Z</time></trkpt><trkpt lat="43.7089119" lon="11.3009289"><ele>107.0</ele><time>2026-04-26T10:05:01.993Z</time></trkpt><trkpt lat="43.7088667" lon="11.3011206"><ele>109.0</ele><time>2026-04-26T10:05:02.993Z</time></trkpt><trkpt lat="43.7088124" lon="11.3013255"><ele>111.0</ele><time>2026-04-26T10:05:03.993Z</time></trkpt><trkpt lat="43.7087356" lon="11.3015335"><ele>109.33333333333334</ele><time>2026-04-26T10:05:04.993Z</time></trkpt><trkpt lat="43.7086393" lon="11.3017478"><ele>107.66666666666667</ele><time>2026-04-26T10:05:05.993Z</time></trkpt><trkpt lat="43.7085346" lon="11.3019642"><ele>106.0</ele><time>2026-04-26T10:05:06.993Z</time></trkpt><trkpt lat="43.7084315" lon="11.3021661"><ele>108.66666666666667</ele><time>2026-04-26T10:05:07.993Z</time></trkpt><trkpt lat="43.7083349" lon="11.3023629"><ele>111.33333333333334</ele><time>2026-04-26T10:05:08.993Z</time></trkpt><trkpt lat="43.7082445" lon="11.302551"><ele>114.0</ele><time>2026-04-26T10:05:09.993Z</time></trkpt><trkpt lat="43.7081588" lon="11.3027348"><ele>114.0</ele><time>2026-04-26T10:05:10.994Z</time></trkpt><trkpt lat="43.7080759" lon="11.3029034"><ele>114.0</ele><time>2026-04-26T10:05:11.993Z</time></trkpt><trkpt lat="43.7079944" lon="11.3030707"><ele>114.0</ele><time>2026-04-26T10:05:12.993Z</time></trkpt><trkpt lat="43.7079102" lon="11.3032406"><ele>114.0</ele><time>2026-04-26T10:05:13.993Z</time></trkpt><trkpt lat="43.7078205" lon="11.3034058"><ele>111.0</ele><time>2026-04-26T10:05:14.993Z</time></trkpt><trkpt lat="43.7077276" lon="11.3035678"><ele>108.0</ele><time>2026-04-26T10:05:15.993Z</time></trkpt><trkpt lat="43.7076256" lon="11.3037198"><ele>105.0</ele><time>2026-04-26T10:05:16.993Z</time></trkpt><trkpt lat="43.7075289" lon="11.3038797"><ele>106.0</ele><time>2026-04-26T10:05:17.993Z</time></trkpt><trkpt lat="43.7074386" lon="11.3040458"><ele>107.0</ele><time>2026-04-26T10:05:18.993Z</time></trkpt><trkpt lat="43.7073634" lon="11.3042189"><ele>108.0</ele><time>2026-04-26T10:05:19.994Z</time></trkpt><trkpt lat="43.7073023" lon="11.304404"><ele>109.0</ele><time>2026-04-26T10:05:20.993Z</time></trkpt><trkpt lat="43.7072498" lon="11.3045876"><ele>109.75</ele><time>2026-04-26T10:05:21.993Z</time></trkpt><trkpt lat="43.707206" lon="11.3047739"><ele>110.5</ele><time>2026-04-26T10:05:22.993Z</time></trkpt><trkpt lat="43.7071645" lon="11.3049573"><ele>111.25</ele><time>2026-04-26T10:05:23.994Z</time></trkpt><trkpt lat="43.7071279" lon="11.3051348"><ele>112.0</ele><time>2026-04-26T10:05:24.993Z</time></trkpt><trkpt lat="43.7070919" lon="11.3052987"><ele>112.0</ele><time>2026-04-26T10:05:25.993Z</time></trkpt><trkpt lat="43.7070383" lon="11.3054418"><ele>112.0</ele><time>2026-04-26T10:05:26.993Z</time></trkpt><trkpt lat="43.7069578" lon="11.3055619"><ele>112.0</ele><time>2026-04-26T10:05:27.993Z</time></trkpt><trkpt lat="43.7068573" lon="11.3056531"><ele>112.0</ele><time>2026-04-26T10:05:28.993Z</time></trkpt><trkpt lat="43.706747" lon="11.3057369"><ele>111.0</ele><time>2026-04-26T10:05:29.994Z</time></trkpt><trkpt lat="43.7066361" lon="11.3058186"><ele>110.0</ele><time>2026-04-26T10:05:30.993Z</time></trkpt><trkpt lat="43.70653" lon="11.3059092"><ele>109.0</ele><time>2026-04-26T10:05:31.993Z</time></trkpt><trkpt lat="43.706427" lon="11.3059995"><ele>108.0</ele><time>2026-04-26T10:05:32.993Z</time></trkpt><trkpt lat="43.7063257" lon="11.306099"><ele>108.0</ele><time>2026-04-26T10:05:33.993Z</time></trkpt><trkpt lat="43.7062223" lon="11.3062086"><ele>108.0</ele><time>2026-04-26T10:05:34.993Z</time></trkpt><trkpt lat="43.7061119" lon="11.3063235"><ele>108.0</ele><time>2026-04-26T10:05:35.993Z</time></trkpt><trkpt lat="43.7059993" lon="11.3064441"><ele>108.0</ele><time>2026-04-26T10:05:36.993Z</time></trkpt><trkpt lat="43.7058852" lon="11.3065698"><ele>108.25</ele><time>2026-04-26T10:05:37.993Z</time></trkpt><trkpt lat="43.7057677" lon="11.3066866"><ele>108.5</ele><time>2026-04-26T10:05:38.993Z</time></trkpt><trkpt lat="43.7056495" lon="11.3067995"><ele>108.75</ele><time>2026-04-26T10:05:39.994Z</time></trkpt><trkpt lat="43.7055283" lon="11.3069014"><ele>109.0</ele><time>2026-04-26T10:05:40.993Z</time></trkpt><trkpt lat="43.7054003" lon="11.3070007"><ele>109.0</ele><time>2026-04-26T10:05:41.993Z</time></trkpt><trkpt lat="43.7052674" lon="11.3070949"><ele>109.0</ele><time>2026-04-26T10:05:42.994Z</time></trkpt><trkpt lat="43.7051311" lon="11.307187"><ele>109.0</ele><time>2026-04-26T10:05:43.993Z</time></trkpt><trkpt lat="43.7049982" lon="11.3072721"><ele>109.0</ele><time>2026-04-26T10:05:44.993Z</time></trkpt><trkpt lat="43.7048694" lon="11.3073547"><ele>108.25</ele><time>2026-04-26T10:05:45.994Z</time></trkpt><trkpt lat="43.7047427" lon="11.3074192"><ele>107.5</ele><time>2026-04-26T10:05:46.994Z</time></trkpt><trkpt lat="43.7046163" lon="11.3074637"><ele>106.75</ele><time>2026-04-26T10:05:47.993Z</time></trkpt><trkpt lat="43.7044835" lon="11.3074833"><ele>106.0</ele><time>2026-04-26T10:05:48.993Z</time></trkpt><trkpt lat="43.7043468" lon="11.3074908"><ele>105.5</ele><time>2026-04-26T10:05:49.993Z</time></trkpt><trkpt lat="43.7042118" lon="11.3074859"><ele>105.0</ele><time>2026-04-26T10:05:50.993Z</time></trkpt><trkpt lat="43.704077" lon="11.3074832"><ele>104.5</ele><time>2026-04-26T10:05:51.993Z</time></trkpt><trkpt lat="43.7039436" lon="11.3074564"><ele>104.0</ele><time>2026-04-26T10:05:52.993Z</time></trkpt><trkpt lat="43.7038129" lon="11.3074276"><ele>104.0</ele><time>2026-04-26T10:05:53.993Z</time></trkpt><trkpt lat="43.7036928" lon="11.3073938"><ele>104.0</ele><time>2026-04-26T10:05:54.993Z</time></trkpt><trkpt lat="43.7035741" lon="11.3073719"><ele>104.0</ele><time>2026-04-26T10:05:55.993Z</time></trkpt><trkpt lat="43.7034581" lon="11.3073554"><ele>104.0</ele><time>2026-04-26T10:05:56.993Z</time></trkpt><trkpt lat="43.7033471" lon="11.3073452"><ele>104.0</ele><time>2026-04-26T10:05:57.993Z</time></trkpt><trkpt lat="43.703239" lon="11.3073448"><ele>104.0</ele><time>2026-04-26T10:05:58.994Z</time></trkpt><trkpt lat="43.7031236" lon="11.3073408"><ele>104.0</ele><time>2026-04-26T10:05:59.993Z</time></trkpt><trkpt lat="43.7030045" lon="11.3073409"><ele>104.0</ele><time>2026-04-26T10:06:00.993Z</time></trkpt><trkpt lat="43.7028838" lon="11.3073391"><ele>104.0</ele><time>2026-04-26T10:06:01.993Z</time></trkpt><trkpt lat="43.7027615" lon="11.3073333"><ele>104.0</ele><time>2026-04-26T10:06:02.993Z</time></trkpt><trkpt lat="43.7026398" lon="11.3073326"><ele>104.0</ele><time>2026-04-26T10:06:03.993Z</time></trkpt><trkpt lat="43.7025237" lon="11.3073346"><ele>104.0</ele><time>2026-04-26T10:06:04.993Z</time></trkpt><trkpt lat="43.7024095" lon="11.3073384"><ele>104.0</ele><time>2026-04-26T10:06:05.993Z</time></trkpt><trkpt lat="43.7023036" lon="11.3073414"><ele>104.0</ele><time>2026-04-26T10:06:06.993Z</time></trkpt><trkpt lat="43.7021985" lon="11.3073509"><ele>104.0</ele><time>2026-04-26T10:06:07.993Z</time></trkpt><trkpt lat="43.7021021" lon="11.3073703"><ele>104.0</ele><time>2026-04-26T10:06:08.993Z</time></trkpt><trkpt lat="43.702013" lon="11.307412"><ele>104.0</ele><time>2026-04-26T10:06:09.993Z</time></trkpt><trkpt lat="43.7019305" lon="11.3074853"><ele>104.0</ele><time>2026-04-26T10:06:10.993Z</time></trkpt><trkpt lat="43.7018604" lon="11.3075737"><ele>104.0</ele><time>2026-04-26T10:06:11.994Z</time></trkpt><trkpt lat="43.7017935" lon="11.3076703"><ele>104.0</ele><time>2026-04-26T10:06:12.993Z</time></trkpt><trkpt lat="43.7017276" lon="11.3077689"><ele>104.0</ele><time>2026-04-26T10:06:13.993Z</time></trkpt><trkpt lat="43.7016591" lon="11.3078709"><ele>104.0</ele><time>2026-04-26T10:06:14.993Z</time></trkpt><trkpt lat="43.7015881" lon="11.3079764"><ele>104.80000000000001</ele><time>2026-04-26T10:06:15.994Z</time></trkpt><trkpt lat="43.7015126" lon="11.3080784"><ele>105.60000000000001</ele><time>2026-04-26T10:06:16.993Z</time></trkpt><trkpt lat="43.7014342" lon="11.3081772"><ele>106.4</ele><time>2026-04-26T10:06:17.993Z</time></trkpt><trkpt lat="43.7013535" lon="11.3082725"><ele>107.2</ele><time>2026-04-26T10:06:18.993Z</time></trkpt><trkpt lat="43.7012673" lon="11.3083684"><ele>108.0</ele><time>2026-04-26T10:06:19.994Z</time></trkpt><trkpt lat="43.701178" lon="11.3084566"><ele>108.0</ele><time>2026-04-26T10:06:20.993Z</time></trkpt><trkpt lat="43.7010919" lon="11.3085487"><ele>108.00000000000001</ele><time>2026-04-26T10:06:21.993Z</time></trkpt><trkpt lat="43.7010172" lon="11.3086532"><ele>108.00000000000001</ele><time>2026-04-26T10:06:22.993Z</time></trkpt><trkpt lat="43.700949" lon="11.3087683"><ele>108.0</ele><time>2026-04-26T10:06:23.993Z</time></trkpt><trkpt lat="43.7008908" lon="11.3088739"><ele>108.0</ele><time>2026-04-26T10:06:24.993Z</time></trkpt><trkpt lat="43.7008384" lon="11.3089741"><ele>108.16666666666667</ele><time>2026-04-26T10:06:25.993Z</time></trkpt><trkpt lat="43.7007931" lon="11.3090597"><ele>108.33333333333334</ele><time>2026-04-26T10:06:26.993Z</time></trkpt><trkpt lat="43.7007533" lon="11.3091392"><ele>108.5</ele><time>2026-04-26T10:06:27.993Z</time></trkpt><trkpt lat="43.7007169" lon="11.3092136"><ele>108.66666666666667</ele><time>2026-04-26T10:06:28.993Z</time></trkpt><trkpt lat="43.700649" lon="11.3093601"><ele>108.83333333333334</ele><time>2026-04-26T10:06:30.993Z</time></trkpt><trkpt lat="43.7006193" lon="11.3094372"><ele>109.0</ele><time>2026-04-26T10:06:31.993Z</time></trkpt><trkpt lat="43.7005863" lon="11.3095195"><ele>109.0</ele><time>2026-04-26T10:06:32.993Z</time></trkpt><trkpt lat="43.7005547" lon="11.309599"><ele>109.0</ele><time>2026-04-26T10:06:33.993Z</time></trkpt><trkpt lat="43.7004916" lon="11.3097266"><ele>109.0</ele><time>2026-04-26T10:06:35.993Z</time></trkpt><trkpt lat="43.700412" lon="11.3097698"><ele>109.0</ele><time>2026-04-26T10:06:37.994Z</time></trkpt><trkpt lat="43.7002899" lon="11.3097754"><ele>109.0</ele><time>2026-04-26T10:06:39.993Z</time></trkpt><trkpt lat="43.7002241" lon="11.3097852"><ele>108.66666666666667</ele><time>2026-04-26T10:06:40.993Z</time></trkpt><trkpt lat="43.7001533" lon="11.3097894"><ele>108.33333333333334</ele><time>2026-04-26T10:06:41.994Z</time></trkpt><trkpt lat="43.7000877" lon="11.3097966"><ele>108.0</ele><time>2026-04-26T10:06:42.993Z</time></trkpt><trkpt lat="43.7000112" lon="11.3098124"><ele>107.66666666666666</ele><time>2026-04-26T10:06:43.993Z</time></trkpt><trkpt lat="43.699923" lon="11.3098273"><ele>107.33333333333333</ele><time>2026-04-26T10:06:44.993Z</time></trkpt><trkpt lat="43.6998275" lon="11.309825"><ele>107.0</ele><time>2026-04-26T10:06:45.993Z</time></trkpt><trkpt lat="43.69973" lon="11.3098201"><ele>107.0</ele><time>2026-04-26T10:06:46.993Z</time></trkpt><trkpt lat="43.6996346" lon="11.3098134"><ele>106.99999999999999</ele><time>2026-04-26T10:06:47.993Z</time></trkpt><trkpt lat="43.699526" lon="11.3097879"><ele>106.99999999999999</ele><time>2026-04-26T10:06:48.993Z</time></trkpt><trkpt lat="43.6994276" lon="11.3097403"><ele>107.0</ele><time>2026-04-26T10:06:49.993Z</time></trkpt><trkpt lat="43.6993277" lon="11.3096722"><ele>107.0</ele><time>2026-04-26T10:06:50.993Z</time></trkpt><trkpt lat="43.6992262" lon="11.3095882"><ele>106.75</ele><time>2026-04-26T10:06:51.993Z</time></trkpt><trkpt lat="43.6991185" lon="11.3094948"><ele>106.5</ele><time>2026-04-26T10:06:52.993Z</time></trkpt><trkpt lat="43.6990053" lon="11.3093966"><ele>106.25</ele><time>2026-04-26T10:06:53.993Z</time></trkpt><trkpt lat="43.6988866" lon="11.3092892"><ele>106.0</ele><time>2026-04-26T10:06:54.994Z</time></trkpt><trkpt lat="43.6987644" lon="11.3091779"><ele>106.0</ele><time>2026-04-26T10:06:55.993Z</time></trkpt><trkpt lat="43.698638" lon="11.3090584"><ele>106.0</ele><time>2026-04-26T10:06:56.993Z</time></trkpt><trkpt lat="43.6985118" lon="11.3089356"><ele>106.0</ele><time>2026-04-26T10:06:57.994Z</time></trkpt><trkpt lat="43.6983853" lon="11.3088145"><ele>106.0</ele><time>2026-04-26T10:06:58.993Z</time></trkpt><trkpt lat="43.6982643" lon="11.3086938"><ele>106.0</ele><time>2026-04-26T10:06:59.993Z</time></trkpt><trkpt lat="43.6981514" lon="11.3085723"><ele>106.0</ele><time>2026-04-26T10:07:00.994Z</time></trkpt><trkpt lat="43.6980429" lon="11.3084662"><ele>106.0</ele><time>2026-04-26T10:07:01.993Z</time></trkpt><trkpt lat="43.697934" lon="11.3083639"><ele>106.0</ele><time>2026-04-26T10:07:02.993Z</time></trkpt><trkpt lat="43.6978143" lon="11.3082715"><ele>106.0</ele><time>2026-04-26T10:07:03.993Z</time></trkpt><trkpt lat="43.6976897" lon="11.3081799"><ele>106.0</ele><time>2026-04-26T10:07:04.993Z</time></trkpt><trkpt lat="43.6975671" lon="11.308093"><ele>106.0</ele><time>2026-04-26T10:07:05.993Z</time></trkpt><trkpt lat="43.6974548" lon="11.3080174"><ele>106.75</ele><time>2026-04-26T10:07:06.993Z</time></trkpt><trkpt lat="43.6973496" lon="11.3079616"><ele>107.5</ele><time>2026-04-26T10:07:07.993Z</time></trkpt><trkpt lat="43.6972379" lon="11.3079272"><ele>108.25</ele><time>2026-04-26T10:07:08.993Z</time></trkpt><trkpt lat="43.6971149" lon="11.3079075"><ele>109.0</ele><time>2026-04-26T10:07:09.993Z</time></trkpt><trkpt lat="43.6969848" lon="11.3079068"><ele>108.5</ele><time>2026-04-26T10:07:10.993Z</time></trkpt><trkpt lat="43.6968464" lon="11.3079125"><ele>108.0</ele><time>2026-04-26T10:07:11.993Z</time></trkpt><trkpt lat="43.6966982" lon="11.3079229"><ele>107.5</ele><time>2026-04-26T10:07:12.993Z</time></trkpt><trkpt lat="43.6965517" lon="11.3079251"><ele>107.0</ele><time>2026-04-26T10:07:13.993Z</time></trkpt><trkpt lat="43.6964059" lon="11.3079102"><ele>107.0</ele><time>2026-04-26T10:07:14.994Z</time></trkpt><trkpt lat="43.6962583" lon="11.307893"><ele>107.0</ele><time>2026-04-26T10:07:15.993Z</time></trkpt><trkpt lat="43.6961102" lon="11.307867"><ele>107.0</ele><time>2026-04-26T10:07:16.994Z</time></trkpt><trkpt lat="43.6959666" lon="11.3078386"><ele>107.0</ele><time>2026-04-26T10:07:17.993Z</time></trkpt><trkpt lat="43.6958228" lon="11.3078036"><ele>107.75</ele><time>2026-04-26T10:07:18.993Z</time></trkpt><trkpt lat="43.6956826" lon="11.3077597"><ele>108.5</ele><time>2026-04-26T10:07:19.993Z</time></trkpt><trkpt lat="43.6955463" lon="11.3076936"><ele>109.25</ele><time>2026-04-26T10:07:20.993Z</time></trkpt><trkpt lat="43.6954111" lon="11.3076067"><ele>110.0</ele><time>2026-04-26T10:07:21.993Z</time></trkpt><trkpt lat="43.6952775" lon="11.3075053"><ele>109.5</ele><time>2026-04-26T10:07:22.993Z</time></trkpt><trkpt lat="43.6951465" lon="11.307392"><ele>109.0</ele><time>2026-04-26T10:07:23.993Z</time></trkpt><trkpt lat="43.6950194" lon="11.3072811"><ele>108.5</ele><time>2026-04-26T10:07:24.994Z</time></trkpt><trkpt lat="43.694897" lon="11.307178"><ele>108.0</ele><time>2026-04-26T10:07:25.993Z</time></trkpt><trkpt lat="43.6947673" lon="11.307092"><ele>108.0</ele><time>2026-04-26T10:07:26.993Z</time></trkpt><trkpt lat="43.6946368" lon="11.3070306"><ele>108.0</ele><time>2026-04-26T10:07:27.994Z</time></trkpt><trkpt lat="43.6945005" lon="11.3069963"><ele>108.0</ele><time>2026-04-26T10:07:28.993Z</time></trkpt><trkpt lat="43.6943678" lon="11.3069911"><ele>108.0</ele><time>2026-04-26T10:07:29.994Z</time></trkpt><trkpt lat="43.694231" lon="11.3070131"><ele>108.5</ele><time>2026-04-26T10:07:30.993Z</time></trkpt><trkpt lat="43.6940983" lon="11.3070692"><ele>109.0</ele><time>2026-04-26T10:07:31.993Z</time></trkpt><trkpt lat="43.6939631" lon="11.3071559"><ele>109.5</ele><time>2026-04-26T10:07:32.993Z</time></trkpt><trkpt lat="43.6938276" lon="11.3072601"><ele>110.0</ele><time>2026-04-26T10:07:33.994Z</time></trkpt><trkpt lat="43.6936893" lon="11.3073722"><ele>111.0</ele><time>2026-04-26T10:07:34.993Z</time></trkpt><trkpt lat="43.6935482" lon="11.307486"><ele>112.0</ele><time>2026-04-26T10:07:35.993Z</time></trkpt><trkpt lat="43.6934172" lon="11.3075955"><ele>113.0</ele><time>2026-04-26T10:07:36.994Z</time></trkpt><trkpt lat="43.6932895" lon="11.3077012"><ele>113.0</ele><time>2026-04-26T10:07:37.993Z</time></trkpt><trkpt lat="43.6931661" lon="11.3078011"><ele>113.0</ele><time>2026-04-26T10:07:38.994Z</time></trkpt><trkpt lat="43.6930469" lon="11.3078949"><ele>113.0</ele><time>2026-04-26T10:07:39.993Z</time></trkpt><trkpt lat="43.6929251" lon="11.30799"><ele>113.0</ele><time>2026-04-26T10:07:40.993Z</time></trkpt><trkpt lat="43.6928" lon="11.308079"><ele>113.5</ele><time>2026-04-26T10:07:41.993Z</time></trkpt><trkpt lat="43.6926696" lon="11.3081577"><ele>114.0</ele><time>2026-04-26T10:07:42.993Z</time></trkpt><trkpt lat="43.6925393" lon="11.3082258"><ele>114.5</ele><time>2026-04-26T10:07:43.994Z</time></trkpt><trkpt lat="43.6924134" lon="11.3082876"><ele>115.0</ele><time>2026-04-26T10:07:44.993Z</time></trkpt><trkpt lat="43.6922872" lon="11.3083497"><ele>115.0</ele><time>2026-04-26T10:07:45.993Z</time></trkpt><trkpt lat="43.692166" lon="11.3084121"><ele>115.0</ele><time>2026-04-26T10:07:46.993Z</time></trkpt><trkpt lat="43.6920567" lon="11.3084706"><ele>115.0</ele><time>2026-04-26T10:07:47.993Z</time></trkpt><trkpt lat="43.691956" lon="11.3085275"><ele>115.0</ele><time>2026-04-26T10:07:48.993Z</time></trkpt><trkpt lat="43.6918667" lon="11.3085857"><ele>114.83333333333334</ele><time>2026-04-26T10:07:49.993Z</time></trkpt><trkpt lat="43.6917867" lon="11.3086544"><ele>114.66666666666667</ele><time>2026-04-26T10:07:50.994Z</time></trkpt><trkpt lat="43.6917248" lon="11.308714"><ele>114.5</ele><time>2026-04-26T10:07:51.993Z</time></trkpt><trkpt lat="43.6916713" lon="11.3087816"><ele>114.33333333333334</ele><time>2026-04-26T10:07:52.994Z</time></trkpt><trkpt lat="43.6916198" lon="11.3088438"><ele>114.16666666666667</ele><time>2026-04-26T10:07:53.993Z</time></trkpt><trkpt lat="43.6915277" lon="11.308949"><ele>114.0</ele><time>2026-04-26T10:07:55.993Z</time></trkpt><trkpt lat="43.6914452" lon="11.3090191"><ele>114.0</ele><time>2026-04-26T10:07:57.993Z</time></trkpt><trkpt lat="43.691387" lon="11.3090768"><ele>114.0</ele><time>2026-04-26T10:08:00.993Z</time></trkpt><trkpt lat="43.6913579" lon="11.3091849"><ele>114.0</ele><time>2026-04-26T10:08:05.994Z</time></trkpt><trkpt lat="43.6913788" lon="11.3093065"><ele>114.0</ele><time>2026-04-26T10:08:07.993Z</time></trkpt><trkpt lat="43.6913984" lon="11.3094871"><ele>114.0</ele><time>2026-04-26T10:08:09.994Z</time></trkpt><trkpt lat="43.6914072" lon="11.3095814"><ele>114.0</ele><time>2026-04-26T10:08:10.993Z</time></trkpt><trkpt lat="43.6914133" lon="11.3096828"><ele>114.14285714285714</ele><time>2026-04-26T10:08:11.994Z</time></trkpt><trkpt lat="43.69141" lon="11.3097856"><ele>114.28571428571428</ele><time>2026-04-26T10:08:12.993Z</time></trkpt><trkpt lat="43.6914059" lon="11.3098791"><ele>114.42857142857142</ele><time>2026-04-26T10:08:13.994Z</time></trkpt><trkpt lat="43.6913892" lon="11.3099803"><ele>114.57142857142856</ele><time>2026-04-26T10:08:14.993Z</time></trkpt><trkpt lat="43.6913667" lon="11.3100873"><ele>114.71428571428571</ele><time>2026-04-26T10:08:15.993Z</time></trkpt><trkpt lat="43.6913415" lon="11.3101893"><ele>114.85714285714283</ele><time>2026-04-26T10:08:16.993Z</time></trkpt><trkpt lat="43.6913246" lon="11.3102874"><ele>114.99999999999999</ele><time>2026-04-26T10:08:17.994Z</time></trkpt><trkpt lat="43.6913178" lon="11.3103746"><ele>114.99999999999999</ele><time>2026-04-26T10:08:18.994Z</time></trkpt><trkpt lat="43.6913039" lon="11.3104633"><ele>115.0</ele><time>2026-04-26T10:08:19.993Z</time></trkpt><trkpt lat="43.691287" lon="11.3105536"><ele>114.99999999999999</ele><time>2026-04-26T10:08:20.994Z</time></trkpt><trkpt lat="43.6912594" lon="11.3106451"><ele>114.99999999999999</ele><time>2026-04-26T10:08:21.993Z</time></trkpt><trkpt lat="43.6912292" lon="11.3107283"><ele>115.0</ele><time>2026-04-26T10:08:22.993Z</time></trkpt><trkpt lat="43.69119" lon="11.3108005"><ele>114.99999999999999</ele><time>2026-04-26T10:08:23.993Z</time></trkpt><trkpt lat="43.6911448" lon="11.3108678"><ele>114.99999999999999</ele><time>2026-04-26T10:08:24.993Z</time></trkpt><trkpt lat="43.6910568" lon="11.3109911"><ele>116.16666666666667</ele><time>2026-04-26T10:08:26.993Z</time></trkpt><trkpt lat="43.6910106" lon="11.3110538"><ele>117.33333333333334</ele><time>2026-04-26T10:08:27.994Z</time></trkpt><trkpt lat="43.6909223" lon="11.3111701"><ele>118.5</ele><time>2026-04-26T10:08:29.993Z</time></trkpt><trkpt lat="43.6908688" lon="11.3112212"><ele>119.66666666666666</ele><time>2026-04-26T10:08:30.993Z</time></trkpt><trkpt lat="43.6908178" lon="11.3112771"><ele>120.83333333333333</ele><time>2026-04-26T10:08:31.993Z</time></trkpt><trkpt lat="43.6907722" lon="11.3113512"><ele>122.0</ele><time>2026-04-26T10:08:32.993Z</time></trkpt><trkpt lat="43.6907289" lon="11.3114264"><ele>121.99999999999999</ele><time>2026-04-26T10:08:33.994Z</time></trkpt><trkpt lat="43.6906842" lon="11.3115044"><ele>122.0</ele><time>2026-04-26T10:08:34.993Z</time></trkpt><trkpt lat="43.6906313" lon="11.3115803"><ele>122.0</ele><time>2026-04-26T10:08:35.994Z</time></trkpt><trkpt lat="43.6905787" lon="11.3116463"><ele>122.0</ele><time>2026-04-26T10:08:36.994Z</time></trkpt><trkpt lat="43.6905335" lon="11.3117076"><ele>121.99999999999999</ele><time>2026-04-26T10:08:37.993Z</time></trkpt><trkpt lat="43.6904631" lon="11.3118111"><ele>122.0</ele><time>2026-04-26T10:08:39.993Z</time></trkpt><trkpt lat="43.6903908" lon="11.3119359"><ele>122.0</ele><time>2026-04-26T10:08:41.993Z</time></trkpt><trkpt lat="43.6903234" lon="11.3120591"><ele>122.0</ele><time>2026-04-26T10:08:43.993Z</time></trkpt><trkpt lat="43.6902377" lon="11.3121584"><ele>122.0</ele><time>2026-04-26T10:08:45.993Z</time></trkpt><trkpt lat="43.6901529" lon="11.3122786"><ele>122.0</ele><time>2026-04-26T10:08:47.993Z</time></trkpt><trkpt lat="43.6900727" lon="11.3124008"><ele>122.8</ele><time>2026-04-26T10:08:49.993Z</time></trkpt><trkpt lat="43.6899972" lon="11.3124901"><ele>123.6</ele><time>2026-04-26T10:08:51.993Z</time></trkpt><trkpt lat="43.6898827" lon="11.3125662"><ele>124.39999999999999</ele><time>2026-04-26T10:08:53.993Z</time></trkpt><trkpt lat="43.6898215" lon="11.3126082"><ele>125.19999999999999</ele><time>2026-04-26T10:08:54.993Z</time></trkpt><trkpt lat="43.6897165" lon="11.3126813"><ele>126.0</ele><time>2026-04-26T10:08:56.993Z</time></trkpt><trkpt lat="43.6896267" lon="11.3127598"><ele>126.0</ele><time>2026-04-26T10:08:58.993Z</time></trkpt><trkpt lat="43.6895335" lon="11.3128439"><ele>126.0</ele><time>2026-04-26T10:09:00.993Z</time></trkpt><trkpt lat="43.689448" lon="11.3129485"><ele>126.0</ele><time>2026-04-26T10:09:02.993Z</time></trkpt><trkpt lat="43.6893657" lon="11.3130513"><ele>126.0</ele><time>2026-04-26T10:09:04.993Z</time></trkpt><trkpt lat="43.6893119" lon="11.3131218"><ele>126.0</ele><time>2026-04-26T10:09:05.993Z</time></trkpt><trkpt lat="43.6892638" lon="11.3131908"><ele>126.0</ele><time>2026-04-26T10:09:06.993Z</time></trkpt><trkpt lat="43.6892189" lon="11.3132526"><ele>126.0</ele><time>2026-04-26T10:09:07.993Z</time></trkpt><trkpt lat="43.6891556" lon="11.3133364"><ele>126.0</ele><time>2026-04-26T10:09:09.993Z</time></trkpt><trkpt lat="43.6890907" lon="11.3133883"><ele>126.0</ele><time>2026-04-26T10:09:11.993Z</time></trkpt><trkpt lat="43.6890281" lon="11.3134067"><ele>126.0</ele><time>2026-04-26T10:09:13.993Z</time></trkpt><trkpt lat="43.6889446" lon="11.3134353"><ele>126.0</ele><time>2026-04-26T10:09:15.993Z</time></trkpt><trkpt lat="43.6888403" lon="11.3134446"><ele>126.0</ele><time>2026-04-26T10:09:17.993Z</time></trkpt><trkpt lat="43.6887467" lon="11.3134511"><ele>126.0</ele><time>2026-04-26T10:09:19.993Z</time></trkpt><trkpt lat="43.6886668" lon="11.3134586"><ele>126.0</ele><time>2026-04-26T10:09:21.993Z</time></trkpt><trkpt lat="43.6885926" lon="11.3134716"><ele>126.0</ele><time>2026-04-26T10:09:23.993Z</time></trkpt><trkpt lat="43.6885151" lon="11.3134948"><ele>126.0</ele><time>2026-04-26T10:09:25.993Z</time></trkpt><trkpt lat="43.6884371" lon="11.3135366"><ele>126.0</ele><time>2026-04-26T10:09:27.994Z</time></trkpt><trkpt lat="43.6883418" lon="11.3135849"><ele>127.0</ele><time>2026-04-26T10:09:29.993Z</time></trkpt><trkpt lat="43.6882249" lon="11.313614"><ele>128.0</ele><time>2026-04-26T10:09:31.994Z</time></trkpt><trkpt lat="43.6881614" lon="11.3136094"><ele>129.0</ele><time>2026-04-26T10:09:32.993Z</time></trkpt><trkpt lat="43.688095" lon="11.3136035"><ele>130.0</ele><time>2026-04-26T10:09:33.993Z</time></trkpt><trkpt lat="43.6880249" lon="11.3136021"><ele>131.0</ele><time>2026-04-26T10:09:34.993Z</time></trkpt><trkpt lat="43.6879603" lon="11.313607"><ele>132.0</ele><time>2026-04-26T10:09:35.994Z</time></trkpt><trkpt lat="43.6878381" lon="11.313622"><ele>132.0</ele><time>2026-04-26T10:09:37.993Z</time></trkpt><trkpt lat="43.6877753" lon="11.3136344"><ele>132.0</ele><time>2026-04-26T10:09:38.993Z</time></trkpt><trkpt lat="43.6876897" lon="11.3136437"><ele>132.0</ele><time>2026-04-26T10:09:40.994Z</time></trkpt><trkpt lat="43.6875998" lon="11.3136731"><ele>132.0</ele><time>2026-04-26T10:09:42.994Z</time></trkpt><trkpt lat="43.6874963" lon="11.3137355"><ele>132.0</ele><time>2026-04-26T10:09:44.993Z</time></trkpt><trkpt lat="43.6874361" lon="11.3137678"><ele>132.0</ele><time>2026-04-26T10:09:45.993Z</time></trkpt><trkpt lat="43.6873225" lon="11.3138339"><ele>131.33333333333334</ele><time>2026-04-26T10:09:47.993Z</time></trkpt><trkpt lat="43.6872249" lon="11.3138648"><ele>130.66666666666666</ele><time>2026-04-26T10:09:49.994Z</time></trkpt><trkpt lat="43.687142" lon="11.3138958"><ele>130.0</ele><time>2026-04-26T10:09:51.993Z</time></trkpt><trkpt lat="43.6870614" lon="11.3139622"><ele>129.33333333333331</ele><time>2026-04-26T10:09:53.993Z</time></trkpt><trkpt lat="43.6870044" lon="11.3140296"><ele>128.66666666666666</ele><time>2026-04-26T10:09:55.993Z</time></trkpt><trkpt lat="43.6869365" lon="11.3140315"><ele>128.0</ele><time>2026-04-26T10:10:01.993Z</time></trkpt><trkpt lat="43.6868673" lon="11.3140002"><ele>127.99999999999999</ele><time>2026-04-26T10:10:06.993Z</time></trkpt><trkpt lat="43.6868057" lon="11.3139661"><ele>128.0</ele><time>2026-04-26T10:10:09.993Z</time></trkpt><trkpt lat="43.6867398" lon="11.3139262"><ele>128.0</ele><time>2026-04-26T10:10:12.994Z</time></trkpt><trkpt lat="43.686669" lon="11.3138728"><ele>128.0</ele><time>2026-04-26T10:10:15.993Z</time></trkpt><trkpt lat="43.6865942" lon="11.31382"><ele>127.99999999999999</ele><time>2026-04-26T10:10:35.993Z</time></trkpt><trkpt lat="43.686524" lon="11.3137697"><ele>128.0</ele><time>2026-04-26T10:10:37.993Z</time></trkpt><trkpt lat="43.6864399" lon="11.3137072"><ele>128.6</ele><time>2026-04-26T10:10:39.993Z</time></trkpt><trkpt lat="43.6863236" lon="11.3136697"><ele>129.20000000000002</ele><time>2026-04-26T10:10:41.993Z</time></trkpt><trkpt lat="43.6862163" lon="11.3136302"><ele>129.8</ele><time>2026-04-26T10:10:43.994Z</time></trkpt><trkpt lat="43.6861315" lon="11.3136176"><ele>130.4</ele><time>2026-04-26T10:10:45.993Z</time></trkpt><trkpt lat="43.6860532" lon="11.3136121"><ele>131.0</ele><time>2026-04-26T10:10:47.993Z</time></trkpt><trkpt lat="43.6859826" lon="11.313621"><ele>131.0</ele><time>2026-04-26T10:10:49.993Z</time></trkpt><trkpt lat="43.6858978" lon="11.3136287"><ele>131.0</ele><time>2026-04-26T10:10:51.993Z</time></trkpt><trkpt lat="43.6857915" lon="11.313644"><ele>131.0</ele><time>2026-04-26T10:10:53.993Z</time></trkpt><trkpt lat="43.6857276" lon="11.3136448"><ele>131.0</ele><time>2026-04-26T10:10:54.993Z</time></trkpt><trkpt lat="43.6856587" lon="11.3136404"><ele>131.0</ele><time>2026-04-26T10:10:55.993Z</time></trkpt><trkpt lat="43.6855886" lon="11.3136364"><ele>131.0</ele><time>2026-04-26T10:10:56.993Z</time></trkpt><trkpt lat="43.6854662" lon="11.3136236"><ele>131.0</ele><time>2026-04-26T10:10:58.993Z</time></trkpt><trkpt lat="43.6853513" lon="11.3136001"><ele>131.0</ele><time>2026-04-26T10:11:00.993Z</time></trkpt><trkpt lat="43.6852544" lon="11.3135875"><ele>131.0</ele><time>2026-04-26T10:11:02.993Z</time></trkpt><trkpt lat="43.685147" lon="11.3136047"><ele>131.0</ele><time>2026-04-26T10:11:04.993Z</time></trkpt><trkpt lat="43.685039" lon="11.3136098"><ele>131.0</ele><time>2026-04-26T10:11:06.993Z</time></trkpt><trkpt lat="43.6849265" lon="11.3136013"><ele>135.0</ele><time>2026-04-26T10:11:08.993Z</time></trkpt><trkpt lat="43.6841761" lon="11.3136878"><ele>135.0</ele><time>2026-04-26T10:15:11.987Z</time></trkpt><trkpt lat="43.6842603" lon="11.3136785"><ele>135.0</ele><time>2026-04-26T10:15:13.987Z</time></trkpt><trkpt lat="43.6843757" lon="11.313673"><ele>135.0</ele><time>2026-04-26T10:15:15.987Z</time></trkpt><trkpt lat="43.6845017" lon="11.3136637"><ele>135.0</ele><time>2026-04-26T10:15:17.987Z</time></trkpt><trkpt lat="43.68457" lon="11.3136553"><ele>135.0</ele><time>2026-04-26T10:15:18.987Z</time></trkpt><trkpt lat="43.6846406" lon="11.3136404"><ele>134.5</ele><time>2026-04-26T10:15:19.987Z</time></trkpt><trkpt lat="43.6847113" lon="11.3136212"><ele>134.0</ele><time>2026-04-26T10:15:20.987Z</time></trkpt><trkpt lat="43.6847736" lon="11.3136062"><ele>133.5</ele><time>2026-04-26T10:15:21.987Z</time></trkpt><trkpt lat="43.6848868" lon="11.3135901"><ele>133.0</ele><time>2026-04-26T10:15:23.987Z</time></trkpt><trkpt lat="43.6849782" lon="11.3135929"><ele>132.5</ele><time>2026-04-26T10:15:25.987Z</time></trkpt><trkpt lat="43.6850857" lon="11.3135922"><ele>132.0</ele><time>2026-04-26T10:15:27.987Z</time></trkpt><trkpt lat="43.6852019" lon="11.3135763"><ele>131.79999999999998</ele><time>2026-04-26T10:15:29.988Z</time></trkpt><trkpt lat="43.6853159" lon="11.313577"><ele>131.6</ele><time>2026-04-26T10:15:31.987Z</time></trkpt><trkpt lat="43.6854173" lon="11.3135991"><ele>131.39999999999998</ele><time>2026-04-26T10:15:33.988Z</time></trkpt><trkpt lat="43.6855071" lon="11.3136126"><ele>131.2</ele><time>2026-04-26T10:15:35.987Z</time></trkpt><trkpt lat="43.6856155" lon="11.3136234"><ele>131.0</ele><time>2026-04-26T10:15:37.987Z</time></trkpt><trkpt lat="43.6857082" lon="11.3136286"><ele>131.0</ele><time>2026-04-26T10:15:39.987Z</time></trkpt><trkpt lat="43.6857854" lon="11.3136306"><ele>131.0</ele><time>2026-04-26T10:15:41.987Z</time></trkpt><trkpt lat="43.6858623" lon="11.3136254"><ele>131.0</ele><time>2026-04-26T10:15:43.987Z</time></trkpt><trkpt lat="43.6859371" lon="11.3136147"><ele>131.0</ele><time>2026-04-26T10:15:45.987Z</time></trkpt><trkpt lat="43.6860358" lon="11.3136052"><ele>131.0</ele><time>2026-04-26T10:15:48.987Z</time></trkpt><trkpt lat="43.6861253" lon="11.3136087"><ele>131.0</ele><time>2026-04-26T10:15:50.987Z</time></trkpt><trkpt lat="43.6862449" lon="11.3136415"><ele>131.6</ele><time>2026-04-26T10:15:52.987Z</time></trkpt><trkpt lat="43.6863494" lon="11.3136745"><ele>132.2</ele><time>2026-04-26T10:15:54.987Z</time></trkpt><trkpt lat="43.6864521" lon="11.313724"><ele>132.8</ele><time>2026-04-26T10:15:56.987Z</time></trkpt><trkpt lat="43.6865472" lon="11.3137842"><ele>133.4</ele><time>2026-04-26T10:15:58.988Z</time></trkpt><trkpt lat="43.6866197" lon="11.3138369"><ele>134.0</ele><time>2026-04-26T10:16:00.987Z</time></trkpt><trkpt lat="43.6866789" lon="11.3138804"><ele>134.42857142857144</ele><time>2026-04-26T10:16:02.987Z</time></trkpt><trkpt lat="43.6867409" lon="11.3139186"><ele>134.85714285714286</ele><time>2026-04-26T10:16:05.987Z</time></trkpt><trkpt lat="43.6868118" lon="11.3139618"><ele>135.28571428571428</ele><time>2026-04-26T10:16:18.987Z</time></trkpt><trkpt lat="43.6868829" lon="11.3139945"><ele>135.71428571428572</ele><time>2026-04-26T10:16:22.987Z</time></trkpt><trkpt lat="43.6869436" lon="11.3140241"><ele>136.14285714285714</ele><time>2026-04-26T10:16:26.988Z</time></trkpt><trkpt lat="43.6870087" lon="11.3140209"><ele>136.57142857142858</ele><time>2026-04-26T10:16:30.987Z</time></trkpt><trkpt lat="43.6870758" lon="11.3139353"><ele>137.0</ele><time>2026-04-26T10:16:42.987Z</time></trkpt><trkpt lat="43.6871459" lon="11.313892"><ele>137.00000000000003</ele><time>2026-04-26T10:16:44.987Z</time></trkpt><trkpt lat="43.6872246" lon="11.3138748"><ele>137.0</ele><time>2026-04-26T10:16:46.987Z</time></trkpt><trkpt lat="43.6872867" lon="11.3138399"><ele>137.0</ele><time>2026-04-26T10:16:47.987Z</time></trkpt><trkpt lat="43.6873527" lon="11.3138171"><ele>137.0</ele><time>2026-04-26T10:16:48.987Z</time></trkpt><trkpt lat="43.6874196" lon="11.3137762"><ele>137.0</ele><time>2026-04-26T10:16:49.987Z</time></trkpt><trkpt lat="43.68749" lon="11.3137336"><ele>137.00000000000003</ele><time>2026-04-26T10:16:50.988Z</time></trkpt><trkpt lat="43.6875537" lon="11.313702"><ele>137.0</ele><time>2026-04-26T10:16:51.987Z</time></trkpt><trkpt lat="43.6876566" lon="11.3136546"><ele>137.0</ele><time>2026-04-26T10:16:53.988Z</time></trkpt><trkpt lat="43.6877528" lon="11.3136477"><ele>137.0</ele><time>2026-04-26T10:16:55.987Z</time></trkpt><trkpt lat="43.6878725" lon="11.3136283"><ele>137.0</ele><time>2026-04-26T10:16:57.987Z</time></trkpt><trkpt lat="43.6879912" lon="11.3136112"><ele>137.0</ele><time>2026-04-26T10:16:59.987Z</time></trkpt><trkpt lat="43.6880882" lon="11.3136164"><ele>137.0</ele><time>2026-04-26T10:17:01.987Z</time></trkpt><trkpt lat="43.6881791" lon="11.3136181"><ele>136.0</ele><time>2026-04-26T10:17:03.988Z</time></trkpt><trkpt lat="43.6882748" lon="11.3136098"><ele>135.0</ele><time>2026-04-26T10:17:05.987Z</time></trkpt><trkpt lat="43.6883752" lon="11.3135669"><ele>134.0</ele><time>2026-04-26T10:17:07.988Z</time></trkpt><trkpt lat="43.6884612" lon="11.313517"><ele>133.0</ele><time>2026-04-26T10:17:09.987Z</time></trkpt><trkpt lat="43.6885324" lon="11.3134828"><ele>132.0</ele><time>2026-04-26T10:17:11.987Z</time></trkpt><trkpt lat="43.6886193" lon="11.3134557"><ele>130.79999999999998</ele><time>2026-04-26T10:17:14.987Z</time></trkpt><trkpt lat="43.6886983" lon="11.3134474"><ele>129.6</ele><time>2026-04-26T10:17:16.987Z</time></trkpt><trkpt lat="43.6887966" lon="11.3134373"><ele>128.39999999999998</ele><time>2026-04-26T10:17:18.987Z</time></trkpt><trkpt lat="43.6889138" lon="11.3134313"><ele>127.19999999999999</ele><time>2026-04-26T10:17:20.987Z</time></trkpt><trkpt lat="43.6890089" lon="11.3134061"><ele>126.0</ele><time>2026-04-26T10:17:22.987Z</time></trkpt><trkpt lat="43.6890845" lon="11.313384"><ele>126.0</ele><time>2026-04-26T10:17:25.987Z</time></trkpt><trkpt lat="43.6891405" lon="11.3133297"><ele>126.0</ele><time>2026-04-26T10:17:28.987Z</time></trkpt><trkpt lat="43.689199" lon="11.3132763"><ele>126.0</ele><time>2026-04-26T10:17:31.987Z</time></trkpt><trkpt lat="43.6892458" lon="11.3132096"><ele>126.0</ele><time>2026-04-26T10:17:33.987Z</time></trkpt><trkpt lat="43.6892975" lon="11.3131389"><ele>126.0</ele><time>2026-04-26T10:17:35.987Z</time></trkpt><trkpt lat="43.6893599" lon="11.3130567"><ele>126.0</ele><time>2026-04-26T10:17:38.987Z</time></trkpt><trkpt lat="43.6894251" lon="11.3129768"><ele>126.0</ele><time>2026-04-26T10:17:41.987Z</time></trkpt><trkpt lat="43.6894944" lon="11.3128914"><ele>126.0</ele><time>2026-04-26T10:17:44.987Z</time></trkpt><trkpt lat="43.689549" lon="11.312832"><ele>126.0</ele><time>2026-04-26T10:17:46.987Z</time></trkpt><trkpt lat="43.6896052" lon="11.3127795"><ele>126.0</ele><time>2026-04-26T10:17:48.987Z</time></trkpt><trkpt lat="43.6896681" lon="11.3127365"><ele>126.0</ele><time>2026-04-26T10:17:50.987Z</time></trkpt><trkpt lat="43.6897329" lon="11.3126754"><ele>126.0</ele><time>2026-04-26T10:17:52.987Z</time></trkpt><trkpt lat="43.689806" lon="11.3126244"><ele>126.0</ele><time>2026-04-26T10:17:54.987Z</time></trkpt><trkpt lat="43.689879" lon="11.3125789"><ele>126.0</ele><time>2026-04-26T10:17:56.987Z</time></trkpt><trkpt lat="43.6899519" lon="11.3125359"><ele>126.0</ele><time>2026-04-26T10:17:58.988Z</time></trkpt><trkpt lat="43.6900168" lon="11.3124913"><ele>126.0</ele><time>2026-04-26T10:18:00.987Z</time></trkpt><trkpt lat="43.6900818" lon="11.3124022"><ele>126.0</ele><time>2026-04-26T10:18:03.987Z</time></trkpt><trkpt lat="43.6901189" lon="11.3123203"><ele>126.0</ele><time>2026-04-26T10:18:05.987Z</time></trkpt><trkpt lat="43.6901664" lon="11.3122461"><ele>125.19999999999999</ele><time>2026-04-26T10:18:07.987Z</time></trkpt><trkpt lat="43.690227" lon="11.3121664"><ele>124.39999999999999</ele><time>2026-04-26T10:18:09.987Z</time></trkpt><trkpt lat="43.6902905" lon="11.3120929"><ele>123.6</ele><time>2026-04-26T10:18:11.987Z</time></trkpt><trkpt lat="43.6903595" lon="11.3119897"><ele>122.8</ele><time>2026-04-26T10:18:13.987Z</time></trkpt><trkpt lat="43.6904197" lon="11.311866"><ele>122.0</ele><time>2026-04-26T10:18:15.987Z</time></trkpt><trkpt lat="43.6904702" lon="11.311775"><ele>121.99999999999999</ele><time>2026-04-26T10:18:17.988Z</time></trkpt><trkpt lat="43.6905195" lon="11.3117093"><ele>122.0</ele><time>2026-04-26T10:18:19.987Z</time></trkpt><trkpt lat="43.6905711" lon="11.311651"><ele>122.0</ele><time>2026-04-26T10:18:21.987Z</time></trkpt><trkpt lat="43.6906266" lon="11.3115826"><ele>122.0</ele><time>2026-04-26T10:18:23.987Z</time></trkpt><trkpt lat="43.6906836" lon="11.3115003"><ele>121.99999999999999</ele><time>2026-04-26T10:18:25.987Z</time></trkpt><trkpt lat="43.690736" lon="11.3114103"><ele>122.0</ele><time>2026-04-26T10:18:27.987Z</time></trkpt><trkpt lat="43.6907906" lon="11.311311"><ele>120.8</ele><time>2026-04-26T10:18:29.987Z</time></trkpt><trkpt lat="43.6908616" lon="11.3112268"><ele>119.6</ele><time>2026-04-26T10:18:31.987Z</time></trkpt><trkpt lat="43.6909343" lon="11.3111505"><ele>118.39999999999999</ele><time>2026-04-26T10:18:33.987Z</time></trkpt><trkpt lat="43.6910152" lon="11.3110576"><ele>117.19999999999999</ele><time>2026-04-26T10:18:35.987Z</time></trkpt><trkpt lat="43.6911036" lon="11.3109466"><ele>116.0</ele><time>2026-04-26T10:18:37.987Z</time></trkpt><trkpt lat="43.6911854" lon="11.3108119"><ele>116.0</ele><time>2026-04-26T10:18:39.987Z</time></trkpt><trkpt lat="43.6912465" lon="11.3106863"><ele>116.0</ele><time>2026-04-26T10:18:41.987Z</time></trkpt><trkpt lat="43.6912895" lon="11.3105392"><ele>116.0</ele><time>2026-04-26T10:18:43.987Z</time></trkpt><trkpt lat="43.6913108" lon="11.310395"><ele>116.0</ele><time>2026-04-26T10:18:45.987Z</time></trkpt><trkpt lat="43.6913277" lon="11.3102569"><ele>116.0</ele><time>2026-04-26T10:18:47.987Z</time></trkpt><trkpt lat="43.6913516" lon="11.3101468"><ele>115.8</ele><time>2026-04-26T10:18:49.988Z</time></trkpt><trkpt lat="43.6913779" lon="11.3100201"><ele>115.6</ele><time>2026-04-26T10:18:51.987Z</time></trkpt><trkpt lat="43.6914001" lon="11.3098764"><ele>115.4</ele><time>2026-04-26T10:18:53.987Z</time></trkpt><trkpt lat="43.6914112" lon="11.3097135"><ele>115.2</ele><time>2026-04-26T10:18:55.987Z</time></trkpt><trkpt lat="43.6914067" lon="11.3095424"><ele>115.0</ele><time>2026-04-26T10:18:57.987Z</time></trkpt><trkpt lat="43.6913831" lon="11.3093903"><ele>114.8</ele><time>2026-04-26T10:18:59.987Z</time></trkpt><trkpt lat="43.6913708" lon="11.3092524"><ele>114.6</ele><time>2026-04-26T10:19:01.988Z</time></trkpt><trkpt lat="43.6913589" lon="11.3091649"><ele>114.4</ele><time>2026-04-26T10:19:03.987Z</time></trkpt><trkpt lat="43.6912937" lon="11.3091083"><ele>114.2</ele><time>2026-04-26T10:19:08.987Z</time></trkpt><trkpt lat="43.6912088" lon="11.3091341"><ele>114.0</ele><time>2026-04-26T10:19:10.988Z</time></trkpt><trkpt lat="43.6910867" lon="11.3091821"><ele>114.5</ele><time>2026-04-26T10:19:12.987Z</time></trkpt><trkpt lat="43.6910067" lon="11.3092157"><ele>115.0</ele><time>2026-04-26T10:19:13.987Z</time></trkpt><trkpt lat="43.6909293" lon="11.3092515"><ele>115.5</ele><time>2026-04-26T10:19:14.987Z</time></trkpt><trkpt lat="43.6908461" lon="11.309301"><ele>116.0</ele><time>2026-04-26T10:19:15.987Z</time></trkpt><trkpt lat="43.6907609" lon="11.3093606"><ele>116.5</ele><time>2026-04-26T10:19:16.987Z</time></trkpt><trkpt lat="43.6906779" lon="11.3094281"><ele>117.0</ele><time>2026-04-26T10:19:17.987Z</time></trkpt><trkpt lat="43.6905954" lon="11.3095078"><ele>117.0</ele><time>2026-04-26T10:19:18.987Z</time></trkpt><trkpt lat="43.6905136" lon="11.3095956"><ele>116.99999999999999</ele><time>2026-04-26T10:19:19.988Z</time></trkpt><trkpt lat="43.6904374" lon="11.309688"><ele>116.99999999999999</ele><time>2026-04-26T10:19:20.987Z</time></trkpt><trkpt lat="43.6903582" lon="11.3097805"><ele>117.0</ele><time>2026-04-26T10:19:21.987Z</time></trkpt><trkpt lat="43.6902783" lon="11.3098781"><ele>117.0</ele><time>2026-04-26T10:19:22.987Z</time></trkpt><trkpt lat="43.6901973" lon="11.3099749"><ele>120.0</ele><time>2026-04-26T10:19:23.987Z</time></trkpt><trkpt lat="43.6901263" lon="11.3100611"><ele>122.99999999999999</ele><time>2026-04-26T10:19:24.987Z</time></trkpt><trkpt lat="43.6900537" lon="11.3101483"><ele>125.99999999999999</ele><time>2026-04-26T10:19:25.987Z</time></trkpt><trkpt lat="43.6899781" lon="11.3102272"><ele>129.0</ele><time>2026-04-26T10:19:26.987Z</time></trkpt><trkpt lat="43.6898895" lon="11.3102869"><ele>132.0</ele><time>2026-04-26T10:19:27.987Z</time></trkpt><trkpt lat="43.6897956" lon="11.3103313"><ele>132.0</ele><time>2026-04-26T10:19:28.987Z</time></trkpt><trkpt lat="43.6896947" lon="11.3103684"><ele>132.0</ele><time>2026-04-26T10:19:29.988Z</time></trkpt><trkpt lat="43.6895864" lon="11.310392"><ele>132.0</ele><time>2026-04-26T10:19:30.987Z</time></trkpt><trkpt lat="43.689477" lon="11.3104107"><ele>132.0</ele><time>2026-04-26T10:19:31.987Z</time></trkpt><trkpt lat="43.689366" lon="11.3104263"><ele>132.0</ele><time>2026-04-26T10:19:32.987Z</time></trkpt><trkpt lat="43.6892504" lon="11.3104431"><ele>133.75</ele><time>2026-04-26T10:19:33.987Z</time></trkpt><trkpt lat="43.6891411" lon="11.3104572"><ele>135.5</ele><time>2026-04-26T10:19:34.988Z</time></trkpt><trkpt lat="43.6890256" lon="11.3104717"><ele>137.25</ele><time>2026-04-26T10:19:35.987Z</time></trkpt><trkpt lat="43.6889133" lon="11.3104874"><ele>139.0</ele><time>2026-04-26T10:19:36.988Z</time></trkpt><trkpt lat="43.6888006" lon="11.3105002"><ele>139.0</ele><time>2026-04-26T10:19:37.987Z</time></trkpt><trkpt lat="43.6886863" lon="11.310523"><ele>139.0</ele><time>2026-04-26T10:19:38.987Z</time></trkpt><trkpt lat="43.6885751" lon="11.3105433"><ele>139.0</ele><time>2026-04-26T10:19:39.987Z</time></trkpt><trkpt lat="43.6884639" lon="11.3105678"><ele>139.0</ele><time>2026-04-26T10:19:40.987Z</time></trkpt><trkpt lat="43.6883542" lon="11.3105879"><ele>143.2</ele><time>2026-04-26T10:19:41.987Z</time></trkpt><trkpt lat="43.6882458" lon="11.3106094"><ele>147.4</ele><time>2026-04-26T10:19:42.987Z</time></trkpt><trkpt lat="43.6881324" lon="11.3106178"><ele>151.6</ele><time>2026-04-26T10:19:43.987Z</time></trkpt><trkpt lat="43.6880207" lon="11.3106342"><ele>155.8</ele><time>2026-04-26T10:19:44.987Z</time></trkpt><trkpt lat="43.6879085" lon="11.3106594"><ele>160.0</ele><time>2026-04-26T10:19:45.987Z</time></trkpt><trkpt lat="43.6877954" lon="11.3106932"><ele>158.25</ele><time>2026-04-26T10:19:46.987Z</time></trkpt><trkpt lat="43.687679" lon="11.3107328"><ele>156.5</ele><time>2026-04-26T10:19:47.987Z</time></trkpt><trkpt lat="43.68756" lon="11.3107736"><ele>154.75</ele><time>2026-04-26T10:19:48.987Z</time></trkpt><trkpt lat="43.6874384" lon="11.3108152"><ele>153.0</ele><time>2026-04-26T10:19:49.987Z</time></trkpt><trkpt lat="43.6873156" lon="11.3108588"><ele>153.0</ele><time>2026-04-26T10:19:50.987Z</time></trkpt><trkpt lat="43.6871963" lon="11.310902"><ele>153.0</ele><time>2026-04-26T10:19:51.987Z</time></trkpt><trkpt lat="43.6870839" lon="11.3109464"><ele>153.0</ele><time>2026-04-26T10:19:52.987Z</time></trkpt><trkpt lat="43.6869761" lon="11.3109789"><ele>153.0</ele><time>2026-04-26T10:19:53.987Z</time></trkpt><trkpt lat="43.6868744" lon="11.3110162"><ele>152.8</ele><time>2026-04-26T10:19:54.987Z</time></trkpt><trkpt lat="43.6867773" lon="11.311054"><ele>152.60000000000002</ele><time>2026-04-26T10:19:55.987Z</time></trkpt><trkpt lat="43.6866773" lon="11.3110954"><ele>152.39999999999998</ele><time>2026-04-26T10:19:56.987Z</time></trkpt><trkpt lat="43.6865771" lon="11.3111368"><ele>152.2</ele><time>2026-04-26T10:19:57.987Z</time></trkpt><trkpt lat="43.6864869" lon="11.3111613"><ele>152.0</ele><time>2026-04-26T10:19:58.987Z</time></trkpt><trkpt lat="43.6863977" lon="11.3111942"><ele>152.0</ele><time>2026-04-26T10:19:59.987Z</time></trkpt><trkpt lat="43.6863067" lon="11.3112267"><ele>152.0</ele><time>2026-04-26T10:20:00.987Z</time></trkpt><trkpt lat="43.6862222" lon="11.3112512"><ele>152.0</ele><time>2026-04-26T10:20:01.987Z</time></trkpt><trkpt lat="43.6861335" lon="11.3112711"><ele>152.0</ele><time>2026-04-26T10:20:02.987Z</time></trkpt><trkpt lat="43.6860475" lon="11.3112895"><ele>152.0</ele><time>2026-04-26T10:20:03.987Z</time></trkpt><trkpt lat="43.6859582" lon="11.3113027"><ele>152.0</ele><time>2026-04-26T10:20:04.988Z</time></trkpt><trkpt lat="43.685862" lon="11.311313"><ele>152.2</ele><time>2026-04-26T10:20:05.987Z</time></trkpt><trkpt lat="43.6857638" lon="11.3113186"><ele>152.39999999999998</ele><time>2026-04-26T10:20:06.987Z</time></trkpt><trkpt lat="43.6856682" lon="11.3113223"><ele>152.60000000000002</ele><time>2026-04-26T10:20:07.987Z</time></trkpt><trkpt lat="43.6855703" lon="11.3113232"><ele>152.8</ele><time>2026-04-26T10:20:08.987Z</time></trkpt><trkpt lat="43.6854663" lon="11.3113249"><ele>153.0</ele><time>2026-04-26T10:20:09.987Z</time></trkpt><trkpt lat="43.68536" lon="11.3113289"><ele>153.4</ele><time>2026-04-26T10:20:10.987Z</time></trkpt><trkpt lat="43.6852504" lon="11.3113302"><ele>153.8</ele><time>2026-04-26T10:20:11.988Z</time></trkpt><trkpt lat="43.6851428" lon="11.3113329"><ele>154.2</ele><time>2026-04-26T10:20:12.987Z</time></trkpt><trkpt lat="43.6850298" lon="11.3113269"><ele>154.6</ele><time>2026-04-26T10:20:13.987Z</time></trkpt><trkpt lat="43.684915" lon="11.3113213"><ele>155.0</ele><time>2026-04-26T10:20:14.987Z</time></trkpt><trkpt lat="43.6848028" lon="11.3113135"><ele>155.0</ele><time>2026-04-26T10:20:15.987Z</time></trkpt><trkpt lat="43.6846888" lon="11.3113026"><ele>155.0</ele><time>2026-04-26T10:20:16.987Z</time></trkpt><trkpt lat="43.6845732" lon="11.3112937"><ele>155.0</ele><time>2026-04-26T10:20:17.987Z</time></trkpt><trkpt lat="43.6844574" lon="11.311288"><ele>155.0</ele><time>2026-04-26T10:20:18.987Z</time></trkpt><trkpt lat="43.6843417" lon="11.3112766"><ele>156.0</ele><time>2026-04-26T10:20:19.987Z</time></trkpt><trkpt lat="43.6842299" lon="11.3112676"><ele>157.0</ele><time>2026-04-26T10:20:20.987Z</time></trkpt><trkpt lat="43.6841198" lon="11.3112637"><ele>158.0</ele><time>2026-04-26T10:20:21.987Z</time></trkpt><trkpt lat="43.6840092" lon="11.3112548"><ele>159.0</ele><time>2026-04-26T10:20:22.987Z</time></trkpt><trkpt lat="43.6839052" lon="11.311244"><ele>160.0</ele><time>2026-04-26T10:20:23.987Z</time></trkpt><trkpt lat="43.683802" lon="11.3112348"><ele>160.0</ele><time>2026-04-26T10:20:24.988Z</time></trkpt><trkpt lat="43.6837006" lon="11.3112273"><ele>160.0</ele><time>2026-04-26T10:20:25.987Z</time></trkpt><trkpt lat="43.6835997" lon="11.311219"><ele>160.0</ele><time>2026-04-26T10:20:26.988Z</time></trkpt><trkpt lat="43.6834972" lon="11.3112144"><ele>160.0</ele><time>2026-04-26T10:20:27.987Z</time></trkpt><trkpt lat="43.6833934" lon="11.3112112"><ele>160.0</ele><time>2026-04-26T10:20:28.987Z</time></trkpt><trkpt lat="43.6832963" lon="11.3112076"><ele>161.2</ele><time>2026-04-26T10:20:29.988Z</time></trkpt><trkpt lat="43.6832014" lon="11.3112067"><ele>162.4</ele><time>2026-04-26T10:20:30.987Z</time></trkpt><trkpt lat="43.6831087" lon="11.3112057"><ele>163.60000000000002</ele><time>2026-04-26T10:20:31.987Z</time></trkpt><trkpt lat="43.6830169" lon="11.3112004"><ele>164.8</ele><time>2026-04-26T10:20:32.987Z</time></trkpt><trkpt lat="43.6829276" lon="11.3111901"><ele>166.0</ele><time>2026-04-26T10:20:33.987Z</time></trkpt><trkpt lat="43.682841" lon="11.3111843"><ele>167.0</ele><time>2026-04-26T10:20:34.987Z</time></trkpt><trkpt lat="43.6827485" lon="11.3111838"><ele>168.0</ele><time>2026-04-26T10:20:35.987Z</time></trkpt><trkpt lat="43.6826494" lon="11.3111798"><ele>169.0</ele><time>2026-04-26T10:20:36.987Z</time></trkpt><trkpt lat="43.6825446" lon="11.3111753"><ele>170.0</ele><time>2026-04-26T10:20:37.987Z</time></trkpt><trkpt lat="43.6824327" lon="11.3111667"><ele>171.0</ele><time>2026-04-26T10:20:38.987Z</time></trkpt><trkpt lat="43.6823225" lon="11.3111551"><ele>171.0</ele><time>2026-04-26T10:20:39.987Z</time></trkpt><trkpt lat="43.6822108" lon="11.3111463"><ele>171.0</ele><time>2026-04-26T10:20:40.987Z</time></trkpt><trkpt lat="43.6820996" lon="11.3111385"><ele>171.0</ele><time>2026-04-26T10:20:41.987Z</time></trkpt><trkpt lat="43.6819844" lon="11.3111345"><ele>171.0</ele><time>2026-04-26T10:20:42.987Z</time></trkpt><trkpt lat="43.681875" lon="11.3111393"><ele>171.0</ele><time>2026-04-26T10:20:43.987Z</time></trkpt><trkpt lat="43.6817639" lon="11.3111506"><ele>171.4</ele><time>2026-04-26T10:20:44.987Z</time></trkpt><trkpt lat="43.6816614" lon="11.3111726"><ele>171.8</ele><time>2026-04-26T10:20:45.987Z</time></trkpt><trkpt lat="43.6815585" lon="11.3111999"><ele>172.20000000000002</ele><time>2026-04-26T10:20:46.987Z</time></trkpt><trkpt lat="43.6814509" lon="11.3112172"><ele>172.60000000000002</ele><time>2026-04-26T10:20:47.987Z</time></trkpt><trkpt lat="43.6813418" lon="11.3112174"><ele>173.0</ele><time>2026-04-26T10:20:48.987Z</time></trkpt><trkpt lat="43.6812269" lon="11.3112092"><ele>173.0</ele><time>2026-04-26T10:20:49.987Z</time></trkpt><trkpt lat="43.6811094" lon="11.3111812"><ele>173.0</ele><time>2026-04-26T10:20:50.987Z</time></trkpt><trkpt lat="43.680991" lon="11.3111405"><ele>173.0</ele><time>2026-04-26T10:20:51.987Z</time></trkpt><trkpt lat="43.6808721" lon="11.3110906"><ele>173.0</ele><time>2026-04-26T10:20:52.987Z</time></trkpt><trkpt lat="43.68076" lon="11.3110363"><ele>174.2</ele><time>2026-04-26T10:20:53.987Z</time></trkpt><trkpt lat="43.6806536" lon="11.3109808"><ele>175.4</ele><time>2026-04-26T10:20:54.987Z</time></trkpt><trkpt lat="43.6805535" lon="11.310925"><ele>176.6</ele><time>2026-04-26T10:20:55.987Z</time></trkpt><trkpt lat="43.6804495" lon="11.3108857"><ele>177.79999999999998</ele><time>2026-04-26T10:20:56.987Z</time></trkpt><trkpt lat="43.6803523" lon="11.3108318"><ele>179.0</ele><time>2026-04-26T10:20:57.987Z</time></trkpt><trkpt lat="43.6802535" lon="11.3107935"><ele>181.79999999999998</ele><time>2026-04-26T10:20:58.987Z</time></trkpt><trkpt lat="43.680168" lon="11.310748"><ele>184.6</ele><time>2026-04-26T10:20:59.987Z</time></trkpt><trkpt lat="43.6800803" lon="11.3107113"><ele>187.4</ele><time>2026-04-26T10:21:00.987Z</time></trkpt><trkpt lat="43.6800075" lon="11.3106744"><ele>190.2</ele><time>2026-04-26T10:21:01.987Z</time></trkpt><trkpt lat="43.6799359" lon="11.3106548"><ele>193.0</ele><time>2026-04-26T10:21:02.987Z</time></trkpt><trkpt lat="43.6798081" lon="11.3106288"><ele>193.0</ele><time>2026-04-26T10:21:04.987Z</time></trkpt><trkpt lat="43.6796855" lon="11.3106715"><ele>193.0</ele><time>2026-04-26T10:21:06.987Z</time></trkpt><trkpt lat="43.6796144" lon="11.3107117"><ele>193.0</ele><time>2026-04-26T10:21:07.987Z</time></trkpt><trkpt lat="43.6795363" lon="11.3107595"><ele>193.0</ele><time>2026-04-26T10:21:08.988Z</time></trkpt><trkpt lat="43.6794549" lon="11.310805"><ele>193.0</ele><time>2026-04-26T10:21:09.988Z</time></trkpt><trkpt lat="43.6793696" lon="11.3108539"><ele>192.8</ele><time>2026-04-26T10:21:10.987Z</time></trkpt><trkpt lat="43.6792817" lon="11.3109047"><ele>192.60000000000002</ele><time>2026-04-26T10:21:11.987Z</time></trkpt><trkpt lat="43.6791972" lon="11.3109578"><ele>192.39999999999998</ele><time>2026-04-26T10:21:12.987Z</time></trkpt><trkpt lat="43.6791114" lon="11.3110077"><ele>192.2</ele><time>2026-04-26T10:21:13.988Z</time></trkpt><trkpt lat="43.679025" lon="11.3110586"><ele>192.0</ele><time>2026-04-26T10:21:14.987Z</time></trkpt><trkpt lat="43.6789301" lon="11.3111131"><ele>192.0</ele><time>2026-04-26T10:21:15.988Z</time></trkpt><trkpt lat="43.6788345" lon="11.3111674"><ele>192.0</ele><time>2026-04-26T10:21:16.987Z</time></trkpt><trkpt lat="43.6787301" lon="11.3112277"><ele>192.0</ele><time>2026-04-26T10:21:17.987Z</time></trkpt><trkpt lat="43.6786261" lon="11.3112755"><ele>192.0</ele><time>2026-04-26T10:21:18.987Z</time></trkpt><trkpt lat="43.6785214" lon="11.3113387"><ele>192.0</ele><time>2026-04-26T10:21:19.987Z</time></trkpt><trkpt lat="43.67841" lon="11.3113979"><ele>192.8</ele><time>2026-04-26T10:21:20.987Z</time></trkpt><trkpt lat="43.6782987" lon="11.311454"><ele>193.6</ele><time>2026-04-26T10:21:21.987Z</time></trkpt><trkpt lat="43.6781849" lon="11.3115099"><ele>194.4</ele><time>2026-04-26T10:21:22.987Z</time></trkpt><trkpt lat="43.6780823" lon="11.3115608"><ele>195.20000000000002</ele><time>2026-04-26T10:21:23.988Z</time></trkpt><trkpt lat="43.6779905" lon="11.3116114"><ele>196.0</ele><time>2026-04-26T10:21:24.987Z</time></trkpt><trkpt lat="43.6778997" lon="11.3116571"><ele>195.99999999999997</ele><time>2026-04-26T10:21:25.987Z</time></trkpt><trkpt lat="43.6778199" lon="11.3117031"><ele>196.0</ele><time>2026-04-26T10:21:26.987Z</time></trkpt><trkpt lat="43.6777456" lon="11.3117439"><ele>196.0</ele><time>2026-04-26T10:21:27.987Z</time></trkpt><trkpt lat="43.6776781" lon="11.3117853"><ele>196.0</ele><time>2026-04-26T10:21:28.987Z</time></trkpt><trkpt lat="43.6776125" lon="11.3118536"><ele>195.99999999999997</ele><time>2026-04-26T10:21:29.988Z</time></trkpt><trkpt lat="43.6775485" lon="11.3119335"><ele>196.0</ele><time>2026-04-26T10:21:30.988Z</time></trkpt><trkpt lat="43.677486" lon="11.3120322"><ele>196.4</ele><time>2026-04-26T10:21:31.987Z</time></trkpt><trkpt lat="43.6774196" lon="11.312141"><ele>196.8</ele><time>2026-04-26T10:21:32.987Z</time></trkpt><trkpt lat="43.6773532" lon="11.3122559"><ele>197.20000000000002</ele><time>2026-04-26T10:21:33.987Z</time></trkpt><trkpt lat="43.6772877" lon="11.3123701"><ele>197.60000000000002</ele><time>2026-04-26T10:21:34.987Z</time></trkpt><trkpt lat="43.677227" lon="11.3124813"><ele>198.0</ele><time>2026-04-26T10:21:35.988Z</time></trkpt><trkpt lat="43.6771584" lon="11.312595"><ele>198.0</ele><time>2026-04-26T10:21:36.987Z</time></trkpt><trkpt lat="43.6770869" lon="11.3127032"><ele>198.0</ele><time>2026-04-26T10:21:37.987Z</time></trkpt><trkpt lat="43.6770147" lon="11.3128142"><ele>198.0</ele><time>2026-04-26T10:21:38.987Z</time></trkpt><trkpt lat="43.6769357" lon="11.3129333"><ele>198.0</ele><time>2026-04-26T10:21:39.987Z</time></trkpt><trkpt lat="43.676845" lon="11.3130546"><ele>197.0</ele><time>2026-04-26T10:21:40.987Z</time></trkpt><trkpt lat="43.67675" lon="11.3131799"><ele>196.0</ele><time>2026-04-26T10:21:41.987Z</time></trkpt><trkpt lat="43.6766391" lon="11.3132972"><ele>195.0</ele><time>2026-04-26T10:21:42.987Z</time></trkpt><trkpt lat="43.6765143" lon="11.3134082"><ele>194.0</ele><time>2026-04-26T10:21:43.988Z</time></trkpt><trkpt lat="43.6763764" lon="11.3135259"><ele>194.0</ele><time>2026-04-26T10:21:44.987Z</time></trkpt><trkpt lat="43.6762309" lon="11.3136496"><ele>194.0</ele><time>2026-04-26T10:21:45.987Z</time></trkpt><trkpt lat="43.6760953" lon="11.313758"><ele>194.0</ele><time>2026-04-26T10:21:46.987Z</time></trkpt><trkpt lat="43.6759691" lon="11.3138645"><ele>195.25</ele><time>2026-04-26T10:21:47.987Z</time></trkpt><trkpt lat="43.6758476" lon="11.3139664"><ele>196.5</ele><time>2026-04-26T10:21:48.987Z</time></trkpt><trkpt lat="43.6757332" lon="11.3140607"><ele>197.75</ele><time>2026-04-26T10:21:49.987Z</time></trkpt><trkpt lat="43.6756251" lon="11.3141464"><ele>199.0</ele><time>2026-04-26T10:21:50.988Z</time></trkpt><trkpt lat="43.6755206" lon="11.3142311"><ele>199.0</ele><time>2026-04-26T10:21:51.987Z</time></trkpt><trkpt lat="43.6754235" lon="11.3143106"><ele>199.0</ele><time>2026-04-26T10:21:52.987Z</time></trkpt><trkpt lat="43.6753258" lon="11.3143871"><ele>199.0</ele><time>2026-04-26T10:21:53.987Z</time></trkpt><trkpt lat="43.6752319" lon="11.3144587"><ele>199.0</ele><time>2026-04-26T10:21:54.987Z</time></trkpt><trkpt lat="43.6751388" lon="11.3145304"><ele>199.0</ele><time>2026-04-26T10:21:55.987Z</time></trkpt><trkpt lat="43.6750458" lon="11.3146001"><ele>198.39999999999998</ele><time>2026-04-26T10:21:56.987Z</time></trkpt><trkpt lat="43.6749541" lon="11.3146682"><ele>197.8</ele><time>2026-04-26T10:21:57.987Z</time></trkpt><trkpt lat="43.6748626" lon="11.3147419"><ele>197.2</ele><time>2026-04-26T10:21:58.987Z</time></trkpt><trkpt lat="43.6747729" lon="11.3148111"><ele>196.60000000000002</ele><time>2026-04-26T10:21:59.987Z</time></trkpt><trkpt lat="43.6746822" lon="11.3148857"><ele>196.0</ele><time>2026-04-26T10:22:00.987Z</time></trkpt><trkpt lat="43.6745916" lon="11.314964"><ele>196.0</ele><time>2026-04-26T10:22:01.987Z</time></trkpt><trkpt lat="43.674504" lon="11.3150481"><ele>196.0</ele><time>2026-04-26T10:22:02.987Z</time></trkpt><trkpt lat="43.6744141" lon="11.3151353"><ele>196.0</ele><time>2026-04-26T10:22:03.987Z</time></trkpt><trkpt lat="43.6743214" lon="11.3152248"><ele>196.0</ele><time>2026-04-26T10:22:04.987Z</time></trkpt><trkpt lat="43.6742253" lon="11.315318"><ele>196.0</ele><time>2026-04-26T10:22:05.987Z</time></trkpt><trkpt lat="43.6741332" lon="11.3154172"><ele>196.0</ele><time>2026-04-26T10:22:06.987Z</time></trkpt><trkpt lat="43.6740349" lon="11.3155184"><ele>196.0</ele><time>2026-04-26T10:22:07.988Z</time></trkpt><trkpt lat="43.6739356" lon="11.3156171"><ele>196.0</ele><time>2026-04-26T10:22:08.987Z</time></trkpt><trkpt lat="43.6738336" lon="11.315713"><ele>196.0</ele><time>2026-04-26T10:22:09.987Z</time></trkpt><trkpt lat="43.6737376" lon="11.3158009"><ele>196.60000000000002</ele><time>2026-04-26T10:22:10.987Z</time></trkpt><trkpt lat="43.6736445" lon="11.315889"><ele>197.2</ele><time>2026-04-26T10:22:11.987Z</time></trkpt><trkpt lat="43.6735537" lon="11.3159734"><ele>197.8</ele><time>2026-04-26T10:22:12.987Z</time></trkpt><trkpt lat="43.6734615" lon="11.3160585"><ele>198.39999999999998</ele><time>2026-04-26T10:22:13.987Z</time></trkpt><trkpt lat="43.6733837" lon="11.3161382"><ele>199.0</ele><time>2026-04-26T10:22:14.988Z</time></trkpt><trkpt lat="43.6733026" lon="11.3162113"><ele>200.0</ele><time>2026-04-26T10:22:15.987Z</time></trkpt><trkpt lat="43.6732209" lon="11.3162853"><ele>201.0</ele><time>2026-04-26T10:22:16.987Z</time></trkpt><trkpt lat="43.6731432" lon="11.3163635"><ele>202.0</ele><time>2026-04-26T10:22:17.987Z</time></trkpt><trkpt lat="43.6730653" lon="11.3164321"><ele>203.0</ele><time>2026-04-26T10:22:18.987Z</time></trkpt><trkpt lat="43.6729925" lon="11.3165085"><ele>204.0</ele><time>2026-04-26T10:22:19.987Z</time></trkpt><trkpt lat="43.6729197" lon="11.3165863"><ele>204.79999999999998</ele><time>2026-04-26T10:22:20.987Z</time></trkpt><trkpt lat="43.6728432" lon="11.3166563"><ele>205.6</ele><time>2026-04-26T10:22:21.987Z</time></trkpt><trkpt lat="43.6727615" lon="11.3167339"><ele>206.4</ele><time>2026-04-26T10:22:22.988Z</time></trkpt><trkpt lat="43.6726758" lon="11.316814"><ele>207.2</ele><time>2026-04-26T10:22:23.987Z</time></trkpt><trkpt lat="43.6725851" lon="11.3169034"><ele>208.0</ele><time>2026-04-26T10:22:24.987Z</time></trkpt><trkpt lat="43.6724912" lon="11.3169863"><ele>208.75</ele><time>2026-04-26T10:22:25.987Z</time></trkpt><trkpt lat="43.6723927" lon="11.3170756"><ele>209.5</ele><time>2026-04-26T10:22:26.988Z</time></trkpt><trkpt lat="43.6722896" lon="11.3171724"><ele>210.25</ele><time>2026-04-26T10:22:27.987Z</time></trkpt><trkpt lat="43.6721858" lon="11.3172724"><ele>211.0</ele><time>2026-04-26T10:22:28.987Z</time></trkpt><trkpt lat="43.6720878" lon="11.3173702"><ele>211.20000000000002</ele><time>2026-04-26T10:22:29.987Z</time></trkpt><trkpt lat="43.6719942" lon="11.3174597"><ele>211.4</ele><time>2026-04-26T10:22:30.988Z</time></trkpt><trkpt lat="43.6719018" lon="11.3175449"><ele>211.6</ele><time>2026-04-26T10:22:31.987Z</time></trkpt><trkpt lat="43.6718105" lon="11.3176293"><ele>211.8</ele><time>2026-04-26T10:22:32.987Z</time></trkpt><trkpt lat="43.6717238" lon="11.3177205"><ele>212.0</ele><time>2026-04-26T10:22:33.987Z</time></trkpt><trkpt lat="43.6716333" lon="11.3177942"><ele>212.50000000000003</ele><time>2026-04-26T10:22:34.987Z</time></trkpt><trkpt lat="43.6715501" lon="11.3178781"><ele>213.0</ele><time>2026-04-26T10:22:35.987Z</time></trkpt><trkpt lat="43.6714707" lon="11.3179587"><ele>213.5</ele><time>2026-04-26T10:22:36.987Z</time></trkpt><trkpt lat="43.6714076" lon="11.3180287"><ele>214.0</ele><time>2026-04-26T10:22:37.987Z</time></trkpt><trkpt lat="43.671345" lon="11.3180852"><ele>214.50000000000003</ele><time>2026-04-26T10:22:38.987Z</time></trkpt><trkpt lat="43.6712847" lon="11.3181289"><ele>215.0</ele><time>2026-04-26T10:22:39.987Z</time></trkpt><trkpt lat="43.6712232" lon="11.3181642"><ele>215.00000000000003</ele><time>2026-04-26T10:22:40.987Z</time></trkpt><trkpt lat="43.6711566" lon="11.318195"><ele>215.0</ele><time>2026-04-26T10:22:41.987Z</time></trkpt><trkpt lat="43.6710834" lon="11.3182222"><ele>215.0</ele><time>2026-04-26T10:22:42.987Z</time></trkpt><trkpt lat="43.6710062" lon="11.3182523"><ele>215.0</ele><time>2026-04-26T10:22:43.987Z</time></trkpt><trkpt lat="43.6709232" lon="11.3182719"><ele>215.00000000000003</ele><time>2026-04-26T10:22:44.988Z</time></trkpt><trkpt lat="43.670835" lon="11.3182787"><ele>215.0</ele><time>2026-04-26T10:22:45.987Z</time></trkpt><trkpt lat="43.6707434" lon="11.3182766"><ele>214.6</ele><time>2026-04-26T10:22:46.987Z</time></trkpt><trkpt lat="43.6706507" lon="11.3182645"><ele>214.2</ele><time>2026-04-26T10:22:47.987Z</time></trkpt><trkpt lat="43.6705556" lon="11.3182461"><ele>213.8</ele><time>2026-04-26T10:22:48.987Z</time></trkpt><trkpt lat="43.6704611" lon="11.3182266"><ele>213.4</ele><time>2026-04-26T10:22:49.988Z</time></trkpt><trkpt lat="43.6703652" lon="11.3182003"><ele>213.0</ele><time>2026-04-26T10:22:50.987Z</time></trkpt><trkpt lat="43.6702676" lon="11.3181742"><ele>213.0</ele><time>2026-04-26T10:22:51.987Z</time></trkpt><trkpt lat="43.6701726" lon="11.3181377"><ele>213.0</ele><time>2026-04-26T10:22:52.988Z</time></trkpt><trkpt lat="43.6700871" lon="11.3180954"><ele>213.0</ele><time>2026-04-26T10:22:53.987Z</time></trkpt><trkpt lat="43.6700037" lon="11.3180523"><ele>213.0</ele><time>2026-04-26T10:22:54.987Z</time></trkpt><trkpt lat="43.6699231" lon="11.3180149"><ele>213.0</ele><time>2026-04-26T10:22:55.987Z</time></trkpt><trkpt lat="43.6698369" lon="11.3179798"><ele>213.0</ele><time>2026-04-26T10:22:56.988Z</time></trkpt><trkpt lat="43.6697498" lon="11.3179461"><ele>213.0</ele><time>2026-04-26T10:22:57.988Z</time></trkpt><trkpt lat="43.6696715" lon="11.3179145"><ele>213.0</ele><time>2026-04-26T10:22:58.987Z</time></trkpt><trkpt lat="43.6695962" lon="11.3178873"><ele>213.0</ele><time>2026-04-26T10:22:59.987Z</time></trkpt><trkpt lat="43.6695272" lon="11.3178639"><ele>213.0</ele><time>2026-04-26T10:23:00.987Z</time></trkpt><trkpt lat="43.6694189" lon="11.3178228"><ele>213.0</ele><time>2026-04-26T10:23:02.987Z</time></trkpt><trkpt lat="43.6693237" lon="11.3178373"><ele>211.5</ele><time>2026-04-26T10:23:04.987Z</time></trkpt><trkpt lat="43.6692867" lon="11.3179344"><ele>210.0</ele><time>2026-04-26T10:23:06.987Z</time></trkpt><trkpt lat="43.6693165" lon="11.3180556"><ele>208.5</ele><time>2026-04-26T10:23:08.987Z</time></trkpt><trkpt lat="43.6693588" lon="11.3181216"><ele>207.0</ele><time>2026-04-26T10:23:09.987Z</time></trkpt><trkpt lat="43.6694019" lon="11.3181972"><ele>205.5</ele><time>2026-04-26T10:23:10.987Z</time></trkpt><trkpt lat="43.6694469" lon="11.3182857"><ele>204.0</ele><time>2026-04-26T10:23:11.987Z</time></trkpt><trkpt lat="43.6694793" lon="11.3183716"><ele>204.0</ele><time>2026-04-26T10:23:12.987Z</time></trkpt><trkpt lat="43.6694958" lon="11.3184664"><ele>204.0</ele><time>2026-04-26T10:23:13.987Z</time></trkpt><trkpt lat="43.6694756" lon="11.3185613"><ele>204.0</ele><time>2026-04-26T10:23:14.987Z</time></trkpt><trkpt lat="43.6694365" lon="11.318641"><ele>204.0</ele><time>2026-04-26T10:23:15.987Z</time></trkpt><trkpt lat="43.6693667" lon="11.3187017"><ele>204.0</ele><time>2026-04-26T10:23:16.987Z</time></trkpt><trkpt lat="43.6692801" lon="11.3187564"><ele>204.0</ele><time>2026-04-26T10:23:17.987Z</time></trkpt><trkpt lat="43.6691799" lon="11.3188107"><ele>201.6</ele><time>2026-04-26T10:23:18.988Z</time></trkpt><trkpt lat="43.6690811" lon="11.3188562"><ele>199.2</ele><time>2026-04-26T10:23:19.987Z</time></trkpt><trkpt lat="43.6689859" lon="11.3189021"><ele>196.79999999999998</ele><time>2026-04-26T10:23:20.987Z</time></trkpt><trkpt lat="43.6688907" lon="11.3189449"><ele>194.39999999999998</ele><time>2026-04-26T10:23:21.987Z</time></trkpt><trkpt lat="43.6687955" lon="11.3189881"><ele>192.0</ele><time>2026-04-26T10:23:22.988Z</time></trkpt><trkpt lat="43.6687106" lon="11.3190348"><ele>191.0</ele><time>2026-04-26T10:23:23.987Z</time></trkpt><trkpt lat="43.6686351" lon="11.319082"><ele>190.0</ele><time>2026-04-26T10:23:24.987Z</time></trkpt><trkpt lat="43.6685696" lon="11.3191459"><ele>189.0</ele><time>2026-04-26T10:23:25.987Z</time></trkpt><trkpt lat="43.6685191" lon="11.3192129"><ele>188.0</ele><time>2026-04-26T10:23:26.987Z</time></trkpt><trkpt lat="43.6684866" lon="11.3192923"><ele>187.0</ele><time>2026-04-26T10:23:27.988Z</time></trkpt><trkpt lat="43.6684787" lon="11.3193796"><ele>186.0</ele><time>2026-04-26T10:23:28.988Z</time></trkpt><trkpt lat="43.6685291" lon="11.3195461"><ele>186.0</ele><time>2026-04-26T10:23:30.988Z</time></trkpt><trkpt lat="43.6685774" lon="11.3196308"><ele>186.0</ele><time>2026-04-26T10:23:31.987Z</time></trkpt><trkpt lat="43.6686241" lon="11.319719"><ele>186.0</ele><time>2026-04-26T10:23:32.987Z</time></trkpt><trkpt lat="43.6686621" lon="11.3198035"><ele>186.0</ele><time>2026-04-26T10:23:33.987Z</time></trkpt><trkpt lat="43.6686502" lon="11.3199559"><ele>186.0</ele><time>2026-04-26T10:23:35.987Z</time></trkpt><trkpt lat="43.6685394" lon="11.3200637"><ele>182.8</ele><time>2026-04-26T10:23:37.987Z</time></trkpt><trkpt lat="43.6684574" lon="11.3201104"><ele>179.60000000000002</ele><time>2026-04-26T10:23:38.988Z</time></trkpt><trkpt lat="43.6683693" lon="11.3201507"><ele>176.4</ele><time>2026-04-26T10:23:39.987Z</time></trkpt><trkpt lat="43.6682787" lon="11.3201791"><ele>173.2</ele><time>2026-04-26T10:23:40.987Z</time></trkpt><trkpt lat="43.6681874" lon="11.3201823"><ele>170.0</ele><time>2026-04-26T10:23:41.987Z</time></trkpt><trkpt lat="43.6680985" lon="11.3201728"><ele>170.0</ele><time>2026-04-26T10:23:42.987Z</time></trkpt><trkpt lat="43.6680196" lon="11.320134"><ele>170.0</ele><time>2026-04-26T10:23:43.987Z</time></trkpt><trkpt lat="43.6679535" lon="11.3200664"><ele>170.0</ele><time>2026-04-26T10:23:44.987Z</time></trkpt><trkpt lat="43.6678956" lon="11.3199969"><ele>170.0</ele><time>2026-04-26T10:23:45.987Z</time></trkpt><trkpt lat="43.6678406" lon="11.3199297"><ele>170.0</ele><time>2026-04-26T10:23:46.988Z</time></trkpt><trkpt lat="43.6677414" lon="11.3198328"><ele>170.0</ele><time>2026-04-26T10:23:48.987Z</time></trkpt><trkpt lat="43.6676329" lon="11.3198401"><ele>168.0</ele><time>2026-04-26T10:23:50.987Z</time></trkpt><trkpt lat="43.6675656" lon="11.3199715"><ele>166.0</ele><time>2026-04-26T10:23:52.988Z</time></trkpt><trkpt lat="43.66755" lon="11.3200664"><ele>164.0</ele><time>2026-04-26T10:23:53.987Z</time></trkpt><trkpt lat="43.6675352" lon="11.3201733"><ele>162.0</ele><time>2026-04-26T10:23:54.987Z</time></trkpt><trkpt lat="43.6675048" lon="11.3202771"><ele>160.0</ele><time>2026-04-26T10:23:55.988Z</time></trkpt><trkpt lat="43.6674549" lon="11.3203614"><ele>158.0</ele><time>2026-04-26T10:23:56.987Z</time></trkpt><trkpt lat="43.6673846" lon="11.320432"><ele>158.0</ele><time>2026-04-26T10:23:57.987Z</time></trkpt><trkpt lat="43.6673003" lon="11.3204848"><ele>158.0</ele><time>2026-04-26T10:23:58.987Z</time></trkpt><trkpt lat="43.667209" lon="11.3205336"><ele>158.0</ele><time>2026-04-26T10:23:59.987Z</time></trkpt><trkpt lat="43.6671173" lon="11.3205888"><ele>158.0</ele><time>2026-04-26T10:24:00.987Z</time></trkpt><trkpt lat="43.6670369" lon="11.3206365"><ele>158.0</ele><time>2026-04-26T10:24:01.987Z</time></trkpt><trkpt lat="43.6669698" lon="11.3206834"><ele>156.4</ele><time>2026-04-26T10:24:02.987Z</time></trkpt><trkpt lat="43.6668874" lon="11.3208107"><ele>154.8</ele><time>2026-04-26T10:24:04.987Z</time></trkpt><trkpt lat="43.6668617" lon="11.3209825"><ele>153.2</ele><time>2026-04-26T10:24:06.987Z</time></trkpt><trkpt lat="43.6668649" lon="11.3210711"><ele>151.6</ele><time>2026-04-26T10:24:07.987Z</time></trkpt><trkpt lat="43.6668723" lon="11.3212404"><ele>150.0</ele><time>2026-04-26T10:24:09.987Z</time></trkpt><trkpt lat="43.6668672" lon="11.3213733"><ele>150.0</ele><time>2026-04-26T10:24:11.987Z</time></trkpt><trkpt lat="43.6668138" lon="11.3214571"><ele>150.0</ele><time>2026-04-26T10:24:13.987Z</time></trkpt><trkpt lat="43.666754" lon="11.3214187"><ele>150.0</ele><time>2026-04-26T10:24:15.987Z</time></trkpt><trkpt lat="43.6667127" lon="11.3212683"><ele>150.0</ele><time>2026-04-26T10:24:17.987Z</time></trkpt><trkpt lat="43.6666924" lon="11.3211707"><ele>150.0</ele><time>2026-04-26T10:24:18.987Z</time></trkpt><trkpt lat="43.6666687" lon="11.3210633"><ele>150.0</ele><time>2026-04-26T10:24:19.987Z</time></trkpt><trkpt lat="43.6666419" lon="11.3209519"><ele>150.0</ele><time>2026-04-26T10:24:20.988Z</time></trkpt><trkpt lat="43.6666107" lon="11.3208344"><ele>150.0</ele><time>2026-04-26T10:24:21.988Z</time></trkpt><trkpt lat="43.6665846" lon="11.3207101"><ele>150.0</ele><time>2026-04-26T10:24:22.988Z</time></trkpt><trkpt lat="43.6665568" lon="11.3205963"><ele>150.0</ele><time>2026-04-26T10:24:23.987Z</time></trkpt><trkpt lat="43.6665299" lon="11.3204766"><ele>150.0</ele><time>2026-04-26T10:24:24.987Z</time></trkpt><trkpt lat="43.6664981" lon="11.3203488"><ele>150.0</ele><time>2026-04-26T10:24:25.987Z</time></trkpt><trkpt lat="43.6664651" lon="11.3202152"><ele>150.0</ele><time>2026-04-26T10:24:26.987Z</time></trkpt><trkpt lat="43.6664307" lon="11.3200735"><ele>150.0</ele><time>2026-04-26T10:24:27.987Z</time></trkpt><trkpt lat="43.6663912" lon="11.3199287"><ele>150.0</ele><time>2026-04-26T10:24:28.987Z</time></trkpt><trkpt lat="43.6663532" lon="11.319778"><ele>150.0</ele><time>2026-04-26T10:24:29.987Z</time></trkpt><trkpt lat="43.6663166" lon="11.319625"><ele>150.5</ele><time>2026-04-26T10:24:30.987Z</time></trkpt><trkpt lat="43.6662804" lon="11.3194722"><ele>151.0</ele><time>2026-04-26T10:24:31.987Z</time></trkpt><trkpt lat="43.6662439" lon="11.3193151"><ele>151.5</ele><time>2026-04-26T10:24:32.987Z</time></trkpt><trkpt lat="43.6662083" lon="11.3191566"><ele>152.0</ele><time>2026-04-26T10:24:33.987Z</time></trkpt><trkpt lat="43.6661719" lon="11.3189898"><ele>153.25</ele><time>2026-04-26T10:24:34.988Z</time></trkpt><trkpt lat="43.66613" lon="11.3188188"><ele>154.5</ele><time>2026-04-26T10:24:35.987Z</time></trkpt><trkpt lat="43.666091" lon="11.3186446"><ele>155.75</ele><time>2026-04-26T10:24:36.987Z</time></trkpt><trkpt lat="43.666052" lon="11.3184645"><ele>157.0</ele><time>2026-04-26T10:24:37.987Z</time></trkpt><trkpt lat="43.6660098" lon="11.3182815"><ele>154.5</ele><time>2026-04-26T10:24:38.988Z</time></trkpt><trkpt lat="43.6659663" lon="11.3180973"><ele>152.0</ele><time>2026-04-26T10:24:39.988Z</time></trkpt><trkpt lat="43.6659231" lon="11.3179111"><ele>149.5</ele><time>2026-04-26T10:24:40.987Z</time></trkpt><trkpt lat="43.665877" lon="11.317718"><ele>147.0</ele><time>2026-04-26T10:24:41.987Z</time></trkpt><trkpt lat="43.6658291" lon="11.317523"><ele>147.0</ele><time>2026-04-26T10:24:42.987Z</time></trkpt><trkpt lat="43.6657823" lon="11.3173267"><ele>147.0</ele><time>2026-04-26T10:24:43.987Z</time></trkpt><trkpt lat="43.6657352" lon="11.3171253"><ele>147.0</ele><time>2026-04-26T10:24:44.987Z</time></trkpt><trkpt lat="43.6656868" lon="11.3169239"><ele>146.75</ele><time>2026-04-26T10:24:45.987Z</time></trkpt><trkpt lat="43.6656437" lon="11.3167259"><ele>146.5</ele><time>2026-04-26T10:24:46.987Z</time></trkpt><trkpt lat="43.6655981" lon="11.3165303"><ele>146.25</ele><time>2026-04-26T10:24:47.987Z</time></trkpt><trkpt lat="43.6655545" lon="11.3163473"><ele>146.0</ele><time>2026-04-26T10:24:48.987Z</time></trkpt><trkpt lat="43.6655138" lon="11.3161735"><ele>146.0</ele><time>2026-04-26T10:24:49.987Z</time></trkpt><trkpt lat="43.6654749" lon="11.3160124"><ele>146.0</ele><time>2026-04-26T10:24:50.987Z</time></trkpt><trkpt lat="43.6654369" lon="11.3158563"><ele>146.0</ele><time>2026-04-26T10:24:51.987Z</time></trkpt><trkpt lat="43.6654047" lon="11.3157085"><ele>146.0</ele><time>2026-04-26T10:24:52.987Z</time></trkpt><trkpt lat="43.6653715" lon="11.315573"><ele>145.2</ele><time>2026-04-26T10:24:53.987Z</time></trkpt><trkpt lat="43.665337" lon="11.3154385"><ele>144.39999999999998</ele><time>2026-04-26T10:24:54.988Z</time></trkpt><trkpt lat="43.6652967" lon="11.3153004"><ele>143.6</ele><time>2026-04-26T10:24:55.987Z</time></trkpt><trkpt lat="43.6652437" lon="11.3151685"><ele>142.79999999999998</ele><time>2026-04-26T10:24:56.987Z</time></trkpt><trkpt lat="43.6651797" lon="11.3150547"><ele>142.0</ele><time>2026-04-26T10:24:57.987Z</time></trkpt><trkpt lat="43.6650992" lon="11.3149487"><ele>141.75</ele><time>2026-04-26T10:24:58.987Z</time></trkpt><trkpt lat="43.6650076" lon="11.3148573"><ele>141.5</ele><time>2026-04-26T10:24:59.987Z</time></trkpt><trkpt lat="43.6649065" lon="11.3147785"><ele>141.25</ele><time>2026-04-26T10:25:00.987Z</time></trkpt><trkpt lat="43.6647963" lon="11.314717"><ele>141.0</ele><time>2026-04-26T10:25:01.987Z</time></trkpt><trkpt lat="43.6646805" lon="11.314662"><ele>140.75</ele><time>2026-04-26T10:25:02.988Z</time></trkpt><trkpt lat="43.6645569" lon="11.3146236"><ele>140.5</ele><time>2026-04-26T10:25:03.988Z</time></trkpt><trkpt lat="43.6644245" lon="11.3145994"><ele>140.25</ele><time>2026-04-26T10:25:04.987Z</time></trkpt><trkpt lat="43.6642903" lon="11.314574"><ele>140.0</ele><time>2026-04-26T10:25:05.987Z</time></trkpt><trkpt lat="43.6641605" lon="11.31455"><ele>141.0</ele><time>2026-04-26T10:25:06.987Z</time></trkpt><trkpt lat="43.6640359" lon="11.3145284"><ele>142.0</ele><time>2026-04-26T10:25:07.987Z</time></trkpt><trkpt lat="43.6639118" lon="11.314517"><ele>143.0</ele><time>2026-04-26T10:25:08.987Z</time></trkpt><trkpt lat="43.6637925" lon="11.3145264"><ele>144.0</ele><time>2026-04-26T10:25:09.987Z</time></trkpt><trkpt lat="43.66368" lon="11.314568"><ele>144.5</ele><time>2026-04-26T10:25:10.988Z</time></trkpt><trkpt lat="43.6635732" lon="11.3146226"><ele>145.0</ele><time>2026-04-26T10:25:11.987Z</time></trkpt><trkpt lat="43.6634656" lon="11.3146844"><ele>145.5</ele><time>2026-04-26T10:25:12.987Z</time></trkpt><trkpt lat="43.66336" lon="11.3147471"><ele>146.0</ele><time>2026-04-26T10:25:13.987Z</time></trkpt><trkpt lat="43.6632553" lon="11.3148066"><ele>146.0</ele><time>2026-04-26T10:25:14.987Z</time></trkpt><trkpt lat="43.6631419" lon="11.3148523"><ele>146.0</ele><time>2026-04-26T10:25:15.987Z</time></trkpt><trkpt lat="43.6630236" lon="11.3148776"><ele>146.0</ele><time>2026-04-26T10:25:16.987Z</time></trkpt><trkpt lat="43.6629034" lon="11.3148747"><ele>146.0</ele><time>2026-04-26T10:25:17.987Z</time></trkpt><trkpt lat="43.6627883" lon="11.3148517"><ele>146.5</ele><time>2026-04-26T10:25:18.987Z</time></trkpt><trkpt lat="43.6626736" lon="11.3148092"><ele>147.0</ele><time>2026-04-26T10:25:19.987Z</time></trkpt><trkpt lat="43.6625564" lon="11.3147493"><ele>147.5</ele><time>2026-04-26T10:25:20.987Z</time></trkpt><trkpt lat="43.662436" lon="11.3146779"><ele>148.0</ele><time>2026-04-26T10:25:21.987Z</time></trkpt><trkpt lat="43.6622987" lon="11.3145931"><ele>150.66666666666669</ele><time>2026-04-26T10:25:22.987Z</time></trkpt><trkpt lat="43.6621488" lon="11.3144894"><ele>153.33333333333334</ele><time>2026-04-26T10:25:23.987Z</time></trkpt><trkpt lat="43.6620006" lon="11.3143766"><ele>156.0</ele><time>2026-04-26T10:25:24.987Z</time></trkpt><trkpt lat="43.6618419" lon="11.3142719"><ele>156.0</ele><time>2026-04-26T10:25:25.988Z</time></trkpt><trkpt lat="43.6616811" lon="11.3141792"><ele>156.0</ele><time>2026-04-26T10:25:26.987Z</time></trkpt><trkpt lat="43.6615184" lon="11.3140928"><ele>156.0</ele><time>2026-04-26T10:25:27.988Z</time></trkpt><trkpt lat="43.6613581" lon="11.3140101"><ele>156.0</ele><time>2026-04-26T10:25:28.987Z</time></trkpt><trkpt lat="43.6612048" lon="11.3139447"><ele>156.0</ele><time>2026-04-26T10:25:29.987Z</time></trkpt><trkpt lat="43.661052" lon="11.3138958"><ele>156.0</ele><time>2026-04-26T10:25:30.987Z</time></trkpt><trkpt lat="43.6608999" lon="11.313863"><ele>162.66666666666666</ele><time>2026-04-26T10:25:31.987Z</time></trkpt><trkpt lat="43.6607498" lon="11.3138447"><ele>169.33333333333331</ele><time>2026-04-26T10:25:32.988Z</time></trkpt><trkpt lat="43.660598" lon="11.3138329"><ele>176.0</ele><time>2026-04-26T10:25:33.987Z</time></trkpt><trkpt lat="43.6604506" lon="11.3138227"><ele>176.0</ele><time>2026-04-26T10:25:34.987Z</time></trkpt><trkpt lat="43.6603039" lon="11.3138183"><ele>176.0</ele><time>2026-04-26T10:25:35.987Z</time></trkpt><trkpt lat="43.6601685" lon="11.3138029"><ele>176.0</ele><time>2026-04-26T10:25:36.987Z</time></trkpt><trkpt lat="43.6600331" lon="11.3137698"><ele>176.0</ele><time>2026-04-26T10:25:37.988Z</time></trkpt><trkpt lat="43.6598999" lon="11.3137129"><ele>175.5</ele><time>2026-04-26T10:25:38.987Z</time></trkpt><trkpt lat="43.6597706" lon="11.3136425"><ele>175.0</ele><time>2026-04-26T10:25:39.987Z</time></trkpt><trkpt lat="43.659646" lon="11.3135613"><ele>174.5</ele><time>2026-04-26T10:25:40.987Z</time></trkpt><trkpt lat="43.6595296" lon="11.3134897"><ele>174.0</ele><time>2026-04-26T10:25:41.987Z</time></trkpt><trkpt lat="43.6594166" lon="11.3134165"><ele>172.75</ele><time>2026-04-26T10:25:42.987Z</time></trkpt><trkpt lat="43.659308" lon="11.313336"><ele>171.5</ele><time>2026-04-26T10:25:43.988Z</time></trkpt><trkpt lat="43.6592008" lon="11.3132431"><ele>170.25</ele><time>2026-04-26T10:25:44.987Z</time></trkpt><trkpt lat="43.6590939" lon="11.3131337"><ele>169.0</ele><time>2026-04-26T10:25:45.987Z</time></trkpt><trkpt lat="43.6589864" lon="11.3130143"><ele>172.66666666666669</ele><time>2026-04-26T10:25:46.987Z</time></trkpt><trkpt lat="43.6588709" lon="11.3128767"><ele>176.33333333333334</ele><time>2026-04-26T10:25:47.987Z</time></trkpt><trkpt lat="43.658747" lon="11.3127184"><ele>180.0</ele><time>2026-04-26T10:25:48.987Z</time></trkpt><trkpt lat="43.6586239" lon="11.3125459"><ele>181.0</ele><time>2026-04-26T10:25:49.988Z</time></trkpt><trkpt lat="43.6585017" lon="11.3123672"><ele>182.0</ele><time>2026-04-26T10:25:50.987Z</time></trkpt><trkpt lat="43.6583805" lon="11.3121849"><ele>183.0</ele><time>2026-04-26T10:25:51.987Z</time></trkpt><trkpt lat="43.6582603" lon="11.3120086"><ele>183.0</ele><time>2026-04-26T10:25:52.987Z</time></trkpt><trkpt lat="43.6581464" lon="11.3118398"><ele>183.0</ele><time>2026-04-26T10:25:53.987Z</time></trkpt><trkpt lat="43.658043" lon="11.3116761"><ele>183.0</ele><time>2026-04-26T10:25:54.988Z</time></trkpt><trkpt lat="43.6579608" lon="11.3115195"><ele>185.75</ele><time>2026-04-26T10:25:55.987Z</time></trkpt><trkpt lat="43.6579065" lon="11.311371"><ele>188.5</ele><time>2026-04-26T10:25:56.987Z</time></trkpt><trkpt lat="43.657873" lon="11.3112175"><ele>191.25</ele><time>2026-04-26T10:25:57.988Z</time></trkpt><trkpt lat="43.6578521" lon="11.311059"><ele>194.0</ele><time>2026-04-26T10:25:58.987Z</time></trkpt><trkpt lat="43.6578433" lon="11.3109097"><ele>194.0</ele><time>2026-04-26T10:25:59.987Z</time></trkpt><trkpt lat="43.6578302" lon="11.3107722"><ele>194.0</ele><time>2026-04-26T10:26:00.987Z</time></trkpt><trkpt lat="43.6577956" lon="11.3106329"><ele>194.0</ele><time>2026-04-26T10:26:01.987Z</time></trkpt><trkpt lat="43.6577342" lon="11.3105159"><ele>194.0</ele><time>2026-04-26T10:26:02.987Z</time></trkpt><trkpt lat="43.6576491" lon="11.310422"><ele>194.0</ele><time>2026-04-26T10:26:03.987Z</time></trkpt><trkpt lat="43.6575498" lon="11.3103593"><ele>194.0</ele><time>2026-04-26T10:26:04.988Z</time></trkpt><trkpt lat="43.6574362" lon="11.3103266"><ele>194.0</ele><time>2026-04-26T10:26:05.988Z</time></trkpt><trkpt lat="43.6573127" lon="11.310303"><ele>194.0</ele><time>2026-04-26T10:26:06.987Z</time></trkpt><trkpt lat="43.6571878" lon="11.3102664"><ele>194.0</ele><time>2026-04-26T10:26:07.987Z</time></trkpt><trkpt lat="43.6570681" lon="11.3102036"><ele>192.75</ele><time>2026-04-26T10:26:08.987Z</time></trkpt><trkpt lat="43.6569518" lon="11.3101175"><ele>191.5</ele><time>2026-04-26T10:26:09.987Z</time></trkpt><trkpt lat="43.656834" lon="11.310011"><ele>190.25</ele><time>2026-04-26T10:26:10.987Z</time></trkpt><trkpt lat="43.6567176" lon="11.309902"><ele>189.0</ele><time>2026-04-26T10:26:11.987Z</time></trkpt><trkpt lat="43.6565977" lon="11.3097909"><ele>194.0</ele><time>2026-04-26T10:26:12.987Z</time></trkpt><trkpt lat="43.6564691" lon="11.3096739"><ele>199.0</ele><time>2026-04-26T10:26:13.987Z</time></trkpt><trkpt lat="43.6563417" lon="11.3095596"><ele>204.0</ele><time>2026-04-26T10:26:14.987Z</time></trkpt><trkpt lat="43.6562122" lon="11.3094551"><ele>202.66666666666669</ele><time>2026-04-26T10:26:15.987Z</time></trkpt><trkpt lat="43.6560789" lon="11.3093563"><ele>201.33333333333334</ele><time>2026-04-26T10:26:16.987Z</time></trkpt><trkpt lat="43.655939" lon="11.309268"><ele>200.0</ele><time>2026-04-26T10:26:17.987Z</time></trkpt><trkpt lat="43.6557988" lon="11.3091817"><ele>200.0</ele><time>2026-04-26T10:26:18.988Z</time></trkpt><trkpt lat="43.6556568" lon="11.3090967"><ele>200.0</ele><time>2026-04-26T10:26:19.987Z</time></trkpt><trkpt lat="43.6555093" lon="11.3090128"><ele>200.0</ele><time>2026-04-26T10:26:20.987Z</time></trkpt><trkpt lat="43.6553614" lon="11.308935"><ele>203.33333333333334</ele><time>2026-04-26T10:26:21.987Z</time></trkpt><trkpt lat="43.6552121" lon="11.3088615"><ele>206.66666666666669</ele><time>2026-04-26T10:26:22.987Z</time></trkpt><trkpt lat="43.6550607" lon="11.3087972"><ele>210.0</ele><time>2026-04-26T10:26:23.987Z</time></trkpt><trkpt lat="43.6549156" lon="11.3087313"><ele>210.0</ele><time>2026-04-26T10:26:24.987Z</time></trkpt><trkpt lat="43.6547722" lon="11.3086725"><ele>210.0</ele><time>2026-04-26T10:26:25.987Z</time></trkpt><trkpt lat="43.6546298" lon="11.3086174"><ele>210.0</ele><time>2026-04-26T10:26:26.987Z</time></trkpt><trkpt lat="43.6544949" lon="11.3085669"><ele>210.0</ele><time>2026-04-26T10:26:27.987Z</time></trkpt><trkpt lat="43.654363" lon="11.3085129"><ele>209.75</ele><time>2026-04-26T10:26:28.987Z</time></trkpt><trkpt lat="43.6542309" lon="11.3084583"><ele>209.5</ele><time>2026-04-26T10:26:29.987Z</time></trkpt><trkpt lat="43.6541071" lon="11.3084108"><ele>209.25</ele><time>2026-04-26T10:26:30.987Z</time></trkpt><trkpt lat="43.6539909" lon="11.3083695"><ele>209.0</ele><time>2026-04-26T10:26:31.988Z</time></trkpt><trkpt lat="43.6538712" lon="11.3083282"><ele>209.0</ele><time>2026-04-26T10:26:32.988Z</time></trkpt><trkpt lat="43.6537514" lon="11.3082885"><ele>209.0</ele><time>2026-04-26T10:26:33.987Z</time></trkpt><trkpt lat="43.6536339" lon="11.308259"><ele>209.0</ele><time>2026-04-26T10:26:34.987Z</time></trkpt><trkpt lat="43.6535119" lon="11.3082373"><ele>209.0</ele><time>2026-04-26T10:26:35.987Z</time></trkpt><trkpt lat="43.6533938" lon="11.3082105"><ele>209.6</ele><time>2026-04-26T10:26:36.987Z</time></trkpt><trkpt lat="43.6532799" lon="11.308186"><ele>210.2</ele><time>2026-04-26T10:26:37.987Z</time></trkpt><trkpt lat="43.6531815" lon="11.3081649"><ele>210.79999999999998</ele><time>2026-04-26T10:26:38.988Z</time></trkpt><trkpt lat="43.6530954" lon="11.3081459"><ele>211.39999999999998</ele><time>2026-04-26T10:26:39.987Z</time></trkpt><trkpt lat="43.6530232" lon="11.3081236"><ele>212.0</ele><time>2026-04-26T10:26:40.987Z</time></trkpt><trkpt lat="43.6529481" lon="11.3080888"><ele>212.39999999999998</ele><time>2026-04-26T10:26:42.987Z</time></trkpt><trkpt lat="43.6528478" lon="11.3080576"><ele>212.79999999999998</ele><time>2026-04-26T10:26:45.987Z</time></trkpt><trkpt lat="43.6527174" lon="11.3081053"><ele>213.2</ele><time>2026-04-26T10:26:47.987Z</time></trkpt><trkpt lat="43.6526426" lon="11.3081395"><ele>213.6</ele><time>2026-04-26T10:26:48.987Z</time></trkpt><trkpt lat="43.652571" lon="11.3081627"><ele>214.0</ele><time>2026-04-26T10:26:49.987Z</time></trkpt><trkpt lat="43.6525024" lon="11.3081749"><ele>214.0</ele><time>2026-04-26T10:26:50.987Z</time></trkpt><trkpt lat="43.6524325" lon="11.3081634"><ele>213.99999999999997</ele><time>2026-04-26T10:26:51.987Z</time></trkpt><trkpt lat="43.6523627" lon="11.3081442"><ele>213.99999999999997</ele><time>2026-04-26T10:26:52.987Z</time></trkpt><trkpt lat="43.6522491" lon="11.3081156"><ele>214.0</ele><time>2026-04-26T10:26:54.987Z</time></trkpt><trkpt lat="43.6521642" lon="11.308127"><ele>214.0</ele><time>2026-04-26T10:26:56.987Z</time></trkpt><trkpt lat="43.6520551" lon="11.3082263"><ele>214.0</ele><time>2026-04-26T10:26:58.987Z</time></trkpt><trkpt lat="43.6520042" lon="11.3083056"><ele>213.99999999999997</ele><time>2026-04-26T10:26:59.988Z</time></trkpt><trkpt lat="43.651949" lon="11.3083972"><ele>213.99999999999997</ele><time>2026-04-26T10:27:00.988Z</time></trkpt><trkpt lat="43.6518839" lon="11.3084965"><ele>214.0</ele><time>2026-04-26T10:27:01.988Z</time></trkpt><trkpt lat="43.6518118" lon="11.308598"><ele>214.0</ele><time>2026-04-26T10:27:02.987Z</time></trkpt><trkpt lat="43.6517371" lon="11.3086999"><ele>214.0</ele><time>2026-04-26T10:27:03.987Z</time></trkpt><trkpt lat="43.6516616" lon="11.3088022"><ele>213.99999999999997</ele><time>2026-04-26T10:27:04.987Z</time></trkpt><trkpt lat="43.6515822" lon="11.3089013"><ele>213.99999999999997</ele><time>2026-04-26T10:27:05.987Z</time></trkpt><trkpt lat="43.6514967" lon="11.3089941"><ele>214.0</ele><time>2026-04-26T10:27:06.987Z</time></trkpt><trkpt lat="43.6514046" lon="11.3090851"><ele>214.0</ele><time>2026-04-26T10:27:07.987Z</time></trkpt><trkpt lat="43.6513058" lon="11.3091743"><ele>214.25</ele><time>2026-04-26T10:27:08.987Z</time></trkpt><trkpt lat="43.6512039" lon="11.3092686"><ele>214.5</ele><time>2026-04-26T10:27:09.987Z</time></trkpt><trkpt lat="43.6511002" lon="11.309362"><ele>214.75</ele><time>2026-04-26T10:27:10.987Z</time></trkpt><trkpt lat="43.6509969" lon="11.3094569"><ele>215.0</ele><time>2026-04-26T10:27:11.987Z</time></trkpt><trkpt lat="43.6508903" lon="11.3095559"><ele>215.75</ele><time>2026-04-26T10:27:12.988Z</time></trkpt><trkpt lat="43.6507807" lon="11.3096512"><ele>216.5</ele><time>2026-04-26T10:27:13.987Z</time></trkpt><trkpt lat="43.6506735" lon="11.3097504"><ele>217.25</ele><time>2026-04-26T10:27:14.988Z</time></trkpt><trkpt lat="43.6505638" lon="11.3098491"><ele>218.0</ele><time>2026-04-26T10:27:15.987Z</time></trkpt><trkpt lat="43.6504574" lon="11.3099493"><ele>218.5</ele><time>2026-04-26T10:27:16.987Z</time></trkpt><trkpt lat="43.65035" lon="11.3100506"><ele>219.0</ele><time>2026-04-26T10:27:17.987Z</time></trkpt><trkpt lat="43.6502421" lon="11.3101468"><ele>219.5</ele><time>2026-04-26T10:27:18.987Z</time></trkpt><trkpt lat="43.6501362" lon="11.3102498"><ele>220.0</ele><time>2026-04-26T10:27:19.988Z</time></trkpt><trkpt lat="43.6500289" lon="11.3103549"><ele>220.5</ele><time>2026-04-26T10:27:20.987Z</time></trkpt><trkpt lat="43.6499202" lon="11.3104593"><ele>221.0</ele><time>2026-04-26T10:27:21.987Z</time></trkpt><trkpt lat="43.6498103" lon="11.3105588"><ele>221.5</ele><time>2026-04-26T10:27:22.987Z</time></trkpt><trkpt lat="43.6497089" lon="11.3106496"><ele>222.0</ele><time>2026-04-26T10:27:23.987Z</time></trkpt><trkpt lat="43.6496095" lon="11.3107343"><ele>223.0</ele><time>2026-04-26T10:27:24.987Z</time></trkpt><trkpt lat="43.6495031" lon="11.3108065"><ele>224.0</ele><time>2026-04-26T10:27:25.988Z</time></trkpt><trkpt lat="43.6493892" lon="11.3108569"><ele>225.0</ele><time>2026-04-26T10:27:26.987Z</time></trkpt><trkpt lat="43.6492675" lon="11.3108971"><ele>226.0</ele><time>2026-04-26T10:27:27.987Z</time></trkpt><trkpt lat="43.6491393" lon="11.3109298"><ele>226.5</ele><time>2026-04-26T10:27:28.987Z</time></trkpt><trkpt lat="43.649007" lon="11.3109572"><ele>227.0</ele><time>2026-04-26T10:27:29.987Z</time></trkpt><trkpt lat="43.6488734" lon="11.3109825"><ele>227.5</ele><time>2026-04-26T10:27:30.987Z</time></trkpt><trkpt lat="43.6487379" lon="11.3110093"><ele>228.0</ele><time>2026-04-26T10:27:31.987Z</time></trkpt><trkpt lat="43.6485983" lon="11.3110377"><ele>229.0</ele><time>2026-04-26T10:27:32.987Z</time></trkpt><trkpt lat="43.6484576" lon="11.3110657"><ele>230.0</ele><time>2026-04-26T10:27:33.987Z</time></trkpt><trkpt lat="43.648318" lon="11.3110982"><ele>231.0</ele><time>2026-04-26T10:27:34.987Z</time></trkpt><trkpt lat="43.6481764" lon="11.3111291"><ele>232.0</ele><time>2026-04-26T10:27:35.987Z</time></trkpt><trkpt lat="43.6480311" lon="11.311158"><ele>232.0</ele><time>2026-04-26T10:27:36.987Z</time></trkpt><trkpt lat="43.6478855" lon="11.3111882"><ele>232.0</ele><time>2026-04-26T10:27:37.987Z</time></trkpt><trkpt lat="43.6477383" lon="11.3112218"><ele>232.0</ele><time>2026-04-26T10:27:38.988Z</time></trkpt><trkpt lat="43.6475885" lon="11.3112613"><ele>232.0</ele><time>2026-04-26T10:27:39.987Z</time></trkpt><trkpt lat="43.6474357" lon="11.3113115"><ele>233.33333333333331</ele><time>2026-04-26T10:27:40.987Z</time></trkpt><trkpt lat="43.6472841" lon="11.3113604"><ele>234.66666666666669</ele><time>2026-04-26T10:27:41.987Z</time></trkpt><trkpt lat="43.6471255" lon="11.3114106"><ele>236.0</ele><time>2026-04-26T10:27:42.987Z</time></trkpt><trkpt lat="43.6469667" lon="11.3114655"><ele>239.0</ele><time>2026-04-26T10:27:43.987Z</time></trkpt><trkpt lat="43.6468027" lon="11.3115223"><ele>242.0</ele><time>2026-04-26T10:27:44.987Z</time></trkpt><trkpt lat="43.6466417" lon="11.311579"><ele>245.0</ele><time>2026-04-26T10:27:45.987Z</time></trkpt><trkpt lat="43.6464828" lon="11.3116385"><ele>245.0</ele><time>2026-04-26T10:27:46.987Z</time></trkpt><trkpt lat="43.6463285" lon="11.311702"><ele>245.0</ele><time>2026-04-26T10:27:47.987Z</time></trkpt><trkpt lat="43.6461754" lon="11.31177"><ele>245.0</ele><time>2026-04-26T10:27:48.987Z</time></trkpt><trkpt lat="43.6460254" lon="11.3118428"><ele>244.33333333333334</ele><time>2026-04-26T10:27:49.987Z</time></trkpt><trkpt lat="43.6458787" lon="11.3119146"><ele>243.66666666666669</ele><time>2026-04-26T10:27:50.987Z</time></trkpt><trkpt lat="43.6457286" lon="11.3119848"><ele>243.0</ele><time>2026-04-26T10:27:51.987Z</time></trkpt><trkpt lat="43.6455798" lon="11.3120533"><ele>243.0</ele><time>2026-04-26T10:27:52.987Z</time></trkpt><trkpt lat="43.6454299" lon="11.3121162"><ele>243.0</ele><time>2026-04-26T10:27:53.988Z</time></trkpt><trkpt lat="43.6452742" lon="11.3121481"><ele>243.0</ele><time>2026-04-26T10:27:54.987Z</time></trkpt><trkpt lat="43.6451199" lon="11.3121794"><ele>243.0</ele><time>2026-04-26T10:27:55.987Z</time></trkpt><trkpt lat="43.644965" lon="11.3122016"><ele>243.0</ele><time>2026-04-26T10:27:56.988Z</time></trkpt><trkpt lat="43.6448099" lon="11.3122229"><ele>243.0</ele><time>2026-04-26T10:27:57.987Z</time></trkpt><trkpt lat="43.6446587" lon="11.3122456"><ele>244.66666666666669</ele><time>2026-04-26T10:27:58.987Z</time></trkpt><trkpt lat="43.6445042" lon="11.3122724"><ele>246.33333333333334</ele><time>2026-04-26T10:27:59.988Z</time></trkpt><trkpt lat="43.6443492" lon="11.3122911"><ele>248.0</ele><time>2026-04-26T10:28:00.987Z</time></trkpt><trkpt lat="43.6441936" lon="11.3123156"><ele>249.66666666666669</ele><time>2026-04-26T10:28:01.987Z</time></trkpt><trkpt lat="43.6440352" lon="11.3123442"><ele>251.33333333333331</ele><time>2026-04-26T10:28:02.987Z</time></trkpt><trkpt lat="43.6438786" lon="11.3123747"><ele>253.0</ele><time>2026-04-26T10:28:03.988Z</time></trkpt><trkpt lat="43.6437165" lon="11.3123994"><ele>253.33333333333331</ele><time>2026-04-26T10:28:04.987Z</time></trkpt><trkpt lat="43.6435522" lon="11.3124298"><ele>253.66666666666669</ele><time>2026-04-26T10:28:05.987Z</time></trkpt><trkpt lat="43.6433909" lon="11.3124563"><ele>254.0</ele><time>2026-04-26T10:28:06.987Z</time></trkpt><trkpt lat="43.6432304" lon="11.3124809"><ele>254.0</ele><time>2026-04-26T10:28:07.988Z</time></trkpt><trkpt lat="43.6430698" lon="11.3125079"><ele>254.0</ele><time>2026-04-26T10:28:08.987Z</time></trkpt><trkpt lat="43.6429075" lon="11.3125321"><ele>254.0</ele><time>2026-04-26T10:28:09.987Z</time></trkpt><trkpt lat="43.6427458" lon="11.3125564"><ele>255.66666666666669</ele><time>2026-04-26T10:28:10.987Z</time></trkpt><trkpt lat="43.6425813" lon="11.3125837"><ele>257.3333333333333</ele><time>2026-04-26T10:28:11.988Z</time></trkpt><trkpt lat="43.6424198" lon="11.3126136"><ele>259.0</ele><time>2026-04-26T10:28:12.987Z</time></trkpt><trkpt lat="43.6422606" lon="11.3126415"><ele>259.0</ele><time>2026-04-26T10:28:13.987Z</time></trkpt><trkpt lat="43.6421023" lon="11.3126697"><ele>259.0</ele><time>2026-04-26T10:28:14.987Z</time></trkpt><trkpt lat="43.6419452" lon="11.3126964"><ele>259.0</ele><time>2026-04-26T10:28:15.987Z</time></trkpt><trkpt lat="43.6417916" lon="11.3127206"><ele>261.3333333333333</ele><time>2026-04-26T10:28:16.987Z</time></trkpt><trkpt lat="43.6416366" lon="11.3127444"><ele>263.6666666666667</ele><time>2026-04-26T10:28:17.988Z</time></trkpt><trkpt lat="43.641482" lon="11.3127683"><ele>266.0</ele><time>2026-04-26T10:28:18.987Z</time></trkpt><trkpt lat="43.641332" lon="11.3128061"><ele>266.0</ele><time>2026-04-26T10:28:19.987Z</time></trkpt><trkpt lat="43.6411865" lon="11.3128637"><ele>266.0</ele><time>2026-04-26T10:28:20.987Z</time></trkpt><trkpt lat="43.6410412" lon="11.3129372"><ele>266.0</ele><time>2026-04-26T10:28:21.987Z</time></trkpt><trkpt lat="43.6408994" lon="11.313022"><ele>267.33333333333337</ele><time>2026-04-26T10:28:22.988Z</time></trkpt><trkpt lat="43.6407602" lon="11.3131052"><ele>268.6666666666667</ele><time>2026-04-26T10:28:23.988Z</time></trkpt><trkpt lat="43.6406192" lon="11.313181"><ele>270.0</ele><time>2026-04-26T10:28:24.987Z</time></trkpt><trkpt lat="43.6404732" lon="11.3132459"><ele>270.0</ele><time>2026-04-26T10:28:25.987Z</time></trkpt><trkpt lat="43.6403185" lon="11.3132881"><ele>270.0</ele><time>2026-04-26T10:28:26.988Z</time></trkpt><trkpt lat="43.6401678" lon="11.3133155"><ele>270.0</ele><time>2026-04-26T10:28:27.987Z</time></trkpt><trkpt lat="43.6400197" lon="11.3133325"><ele>272.0</ele><time>2026-04-26T10:28:28.987Z</time></trkpt><trkpt lat="43.6398843" lon="11.3133473"><ele>274.0</ele><time>2026-04-26T10:28:29.987Z</time></trkpt><trkpt lat="43.6397588" lon="11.3133641"><ele>276.0</ele><time>2026-04-26T10:28:30.988Z</time></trkpt><trkpt lat="43.6396382" lon="11.313383"><ele>278.0</ele><time>2026-04-26T10:28:31.988Z</time></trkpt><trkpt lat="43.6395279" lon="11.3134014"><ele>277.8</ele><time>2026-04-26T10:28:32.987Z</time></trkpt><trkpt lat="43.6394282" lon="11.3134217"><ele>277.6</ele><time>2026-04-26T10:28:33.988Z</time></trkpt><trkpt lat="43.6393383" lon="11.3134429"><ele>277.4</ele><time>2026-04-26T10:28:34.987Z</time></trkpt><trkpt lat="43.6392469" lon="11.3134647"><ele>277.2</ele><time>2026-04-26T10:28:35.987Z</time></trkpt><trkpt lat="43.6391528" lon="11.3134939"><ele>277.0</ele><time>2026-04-26T10:28:36.987Z</time></trkpt><trkpt lat="43.6390551" lon="11.3135353"><ele>277.0</ele><time>2026-04-26T10:28:37.987Z</time></trkpt><trkpt lat="43.638953" lon="11.3135795"><ele>277.0</ele><time>2026-04-26T10:28:38.987Z</time></trkpt><trkpt lat="43.6388487" lon="11.3136302"><ele>277.0</ele><time>2026-04-26T10:28:39.988Z</time></trkpt><trkpt lat="43.6387371" lon="11.3136878"><ele>277.0</ele><time>2026-04-26T10:28:40.987Z</time></trkpt><trkpt lat="43.6386318" lon="11.3137473"><ele>276.0</ele><time>2026-04-26T10:28:41.987Z</time></trkpt><trkpt lat="43.6385307" lon="11.3138008"><ele>275.0</ele><time>2026-04-26T10:28:42.988Z</time></trkpt><trkpt lat="43.6384261" lon="11.313851"><ele>274.0</ele><time>2026-04-26T10:28:43.987Z</time></trkpt><trkpt lat="43.6383176" lon="11.3138973"><ele>273.0</ele><time>2026-04-26T10:28:44.987Z</time></trkpt><trkpt lat="43.6382075" lon="11.3139282"><ele>272.0</ele><time>2026-04-26T10:28:45.987Z</time></trkpt><trkpt lat="43.6381008" lon="11.313946"><ele>274.75</ele><time>2026-04-26T10:28:46.987Z</time></trkpt><trkpt lat="43.6379921" lon="11.3139556"><ele>277.5</ele><time>2026-04-26T10:28:47.987Z</time></trkpt><trkpt lat="43.6378784" lon="11.3139761"><ele>280.25</ele><time>2026-04-26T10:28:48.987Z</time></trkpt><trkpt lat="43.637766" lon="11.3139821"><ele>283.0</ele><time>2026-04-26T10:28:49.988Z</time></trkpt><trkpt lat="43.6376522" lon="11.3139939"><ele>284.25</ele><time>2026-04-26T10:28:50.987Z</time></trkpt><trkpt lat="43.6375368" lon="11.314006"><ele>285.5</ele><time>2026-04-26T10:28:51.987Z</time></trkpt><trkpt lat="43.637416" lon="11.3140173"><ele>286.75</ele><time>2026-04-26T10:28:52.987Z</time></trkpt><trkpt lat="43.6372959" lon="11.3140234"><ele>288.0</ele><time>2026-04-26T10:28:53.987Z</time></trkpt><trkpt lat="43.6371731" lon="11.3140244"><ele>288.0</ele><time>2026-04-26T10:28:54.988Z</time></trkpt><trkpt lat="43.6370474" lon="11.3140063"><ele>288.0</ele><time>2026-04-26T10:28:55.987Z</time></trkpt><trkpt lat="43.6369266" lon="11.3139706"><ele>288.0</ele><time>2026-04-26T10:28:56.988Z</time></trkpt><trkpt lat="43.636805" lon="11.3139216"><ele>288.0</ele><time>2026-04-26T10:28:57.987Z</time></trkpt><trkpt lat="43.6366922" lon="11.3138556"><ele>288.5</ele><time>2026-04-26T10:28:58.988Z</time></trkpt><trkpt lat="43.6365789" lon="11.3137885"><ele>289.0</ele><time>2026-04-26T10:28:59.987Z</time></trkpt><trkpt lat="43.6364684" lon="11.3137224"><ele>289.5</ele><time>2026-04-26T10:29:00.987Z</time></trkpt><trkpt lat="43.6363571" lon="11.313659"><ele>290.0</ele><time>2026-04-26T10:29:01.987Z</time></trkpt><trkpt lat="43.6362486" lon="11.3136002"><ele>292.5</ele><time>2026-04-26T10:29:02.987Z</time></trkpt><trkpt lat="43.636129" lon="11.3135618"><ele>295.0</ele><time>2026-04-26T10:29:03.987Z</time></trkpt><trkpt lat="43.6360076" lon="11.3135358"><ele>297.5</ele><time>2026-04-26T10:29:04.987Z</time></trkpt><trkpt lat="43.6358823" lon="11.31351"><ele>300.0</ele><time>2026-04-26T10:29:05.987Z</time></trkpt><trkpt lat="43.635757" lon="11.3134841"><ele>300.0</ele><time>2026-04-26T10:29:06.987Z</time></trkpt><trkpt lat="43.6356305" lon="11.3134617"><ele>300.0</ele><time>2026-04-26T10:29:07.987Z</time></trkpt><trkpt lat="43.6355051" lon="11.3134424"><ele>300.0</ele><time>2026-04-26T10:29:08.988Z</time></trkpt><trkpt lat="43.6353813" lon="11.3134359"><ele>300.0</ele><time>2026-04-26T10:29:09.987Z</time></trkpt><trkpt lat="43.6352582" lon="11.3134495"><ele>300.0</ele><time>2026-04-26T10:29:10.987Z</time></trkpt><trkpt lat="43.635132" lon="11.3134861"><ele>300.0</ele><time>2026-04-26T10:29:11.987Z</time></trkpt><trkpt lat="43.6350126" lon="11.3135529"><ele>300.0</ele><time>2026-04-26T10:29:12.987Z</time></trkpt><trkpt lat="43.634897" lon="11.3136336"><ele>300.0</ele><time>2026-04-26T10:29:13.987Z</time></trkpt><trkpt lat="43.6347837" lon="11.3137219"><ele>300.0</ele><time>2026-04-26T10:29:14.987Z</time></trkpt><trkpt lat="43.6346701" lon="11.313806"><ele>300.0</ele><time>2026-04-26T10:29:15.987Z</time></trkpt><trkpt lat="43.6345643" lon="11.3138856"><ele>300.0</ele><time>2026-04-26T10:29:16.987Z</time></trkpt><trkpt lat="43.6344567" lon="11.313945"><ele>300.0</ele><time>2026-04-26T10:29:17.987Z</time></trkpt><trkpt lat="43.6343417" lon="11.3139901"><ele>301.25</ele><time>2026-04-26T10:29:18.987Z</time></trkpt><trkpt lat="43.6342224" lon="11.3140028"><ele>302.5</ele><time>2026-04-26T10:29:19.987Z</time></trkpt><trkpt lat="43.6341" lon="11.3139727"><ele>303.75</ele><time>2026-04-26T10:29:20.988Z</time></trkpt><trkpt lat="43.6339839" lon="11.3139078"><ele>305.0</ele><time>2026-04-26T10:29:21.987Z</time></trkpt><trkpt lat="43.6338713" lon="11.3138423"><ele>304.5</ele><time>2026-04-26T10:29:22.987Z</time></trkpt><trkpt lat="43.6337511" lon="11.3137889"><ele>304.0</ele><time>2026-04-26T10:29:23.988Z</time></trkpt><trkpt lat="43.6336278" lon="11.3137636"><ele>303.5</ele><time>2026-04-26T10:29:24.987Z</time></trkpt><trkpt lat="43.6335" lon="11.313758"><ele>303.0</ele><time>2026-04-26T10:29:25.987Z</time></trkpt><trkpt lat="43.6333702" lon="11.313771"><ele>303.0</ele><time>2026-04-26T10:29:26.987Z</time></trkpt><trkpt lat="43.6332359" lon="11.3138004"><ele>303.0</ele><time>2026-04-26T10:29:27.987Z</time></trkpt><trkpt lat="43.633105" lon="11.3138224"><ele>303.0</ele><time>2026-04-26T10:29:28.987Z</time></trkpt><trkpt lat="43.6329788" lon="11.3138324"><ele>303.0</ele><time>2026-04-26T10:29:29.987Z</time></trkpt><trkpt lat="43.6328471" lon="11.3138159"><ele>304.0</ele><time>2026-04-26T10:29:30.987Z</time></trkpt><trkpt lat="43.632722" lon="11.3137651"><ele>305.0</ele><time>2026-04-26T10:29:31.987Z</time></trkpt><trkpt lat="43.6325977" lon="11.3136908"><ele>306.0</ele><time>2026-04-26T10:29:32.987Z</time></trkpt><trkpt lat="43.6324725" lon="11.3136082"><ele>307.0</ele><time>2026-04-26T10:29:33.987Z</time></trkpt><trkpt lat="43.6323462" lon="11.3135182"><ele>307.0</ele><time>2026-04-26T10:29:34.988Z</time></trkpt><trkpt lat="43.6322145" lon="11.3134311"><ele>307.0</ele><time>2026-04-26T10:29:35.987Z</time></trkpt><trkpt lat="43.6320743" lon="11.3133488"><ele>307.0</ele><time>2026-04-26T10:29:36.987Z</time></trkpt><trkpt lat="43.6319269" lon="11.3132714"><ele>310.3333333333333</ele><time>2026-04-26T10:29:37.987Z</time></trkpt><trkpt lat="43.6317732" lon="11.3132012"><ele>313.6666666666667</ele><time>2026-04-26T10:29:38.987Z</time></trkpt><trkpt lat="43.6316265" lon="11.3131369"><ele>317.0</ele><time>2026-04-26T10:29:39.987Z</time></trkpt><trkpt lat="43.6314956" lon="11.3130725"><ele>318.0</ele><time>2026-04-26T10:29:40.988Z</time></trkpt><trkpt lat="43.6313776" lon="11.3129838"><ele>319.0</ele><time>2026-04-26T10:29:41.987Z</time></trkpt><trkpt lat="43.6312775" lon="11.3128849"><ele>320.0</ele><time>2026-04-26T10:29:42.988Z</time></trkpt><trkpt lat="43.631179" lon="11.3127822"><ele>321.0</ele><time>2026-04-26T10:29:43.988Z</time></trkpt><trkpt lat="43.6310825" lon="11.3126819"><ele>321.0</ele><time>2026-04-26T10:29:44.987Z</time></trkpt><trkpt lat="43.6309771" lon="11.3125999"><ele>321.0</ele><time>2026-04-26T10:29:45.987Z</time></trkpt><trkpt lat="43.6308651" lon="11.3125331"><ele>321.0</ele><time>2026-04-26T10:29:46.987Z</time></trkpt><trkpt lat="43.6307441" lon="11.3124779"><ele>321.0</ele><time>2026-04-26T10:29:47.988Z</time></trkpt><trkpt lat="43.6306164" lon="11.3124254"><ele>321.0</ele><time>2026-04-26T10:29:48.987Z</time></trkpt><trkpt lat="43.6304873" lon="11.3123681"><ele>321.0</ele><time>2026-04-26T10:29:49.988Z</time></trkpt><trkpt lat="43.6303559" lon="11.3123067"><ele>321.0</ele><time>2026-04-26T10:29:50.987Z</time></trkpt><trkpt lat="43.6302232" lon="11.3122414"><ele>321.0</ele><time>2026-04-26T10:29:51.987Z</time></trkpt><trkpt lat="43.630093" lon="11.3121706"><ele>321.5</ele><time>2026-04-26T10:29:52.987Z</time></trkpt><trkpt lat="43.6299638" lon="11.3120971"><ele>322.0</ele><time>2026-04-26T10:29:53.987Z</time></trkpt><trkpt lat="43.629836" lon="11.3120197"><ele>322.5</ele><time>2026-04-26T10:29:54.987Z</time></trkpt><trkpt lat="43.6297141" lon="11.3119342"><ele>323.0</ele><time>2026-04-26T10:29:55.987Z</time></trkpt><trkpt lat="43.6296022" lon="11.3118379"><ele>323.0</ele><time>2026-04-26T10:29:56.987Z</time></trkpt><trkpt lat="43.6294971" lon="11.3117436"><ele>323.0</ele><time>2026-04-26T10:29:57.987Z</time></trkpt><trkpt lat="43.629397" lon="11.3116611"><ele>323.0</ele><time>2026-04-26T10:29:58.987Z</time></trkpt><trkpt lat="43.6292929" lon="11.311595"><ele>323.0</ele><time>2026-04-26T10:29:59.987Z</time></trkpt><trkpt lat="43.6291912" lon="11.3115521"><ele>325.6666666666667</ele><time>2026-04-26T10:30:00.987Z</time></trkpt><trkpt lat="43.6290872" lon="11.3115291"><ele>328.33333333333337</ele><time>2026-04-26T10:30:01.987Z</time></trkpt><trkpt lat="43.6289887" lon="11.3115118"><ele>331.0</ele><time>2026-04-26T10:30:02.987Z</time></trkpt><trkpt lat="43.628897" lon="11.3114958"><ele>333.6666666666667</ele><time>2026-04-26T10:30:03.987Z</time></trkpt><trkpt lat="43.628818" lon="11.3114801"><ele>336.3333333333333</ele><time>2026-04-26T10:30:04.988Z</time></trkpt><trkpt lat="43.6287462" lon="11.3114661"><ele>339.0</ele><time>2026-04-26T10:30:05.987Z</time></trkpt><trkpt lat="43.6286816" lon="11.3114557"><ele>339.6666666666667</ele><time>2026-04-26T10:30:06.987Z</time></trkpt><trkpt lat="43.6286068" lon="11.3114497"><ele>340.3333333333333</ele><time>2026-04-26T10:30:07.987Z</time></trkpt><trkpt lat="43.6285248" lon="11.3114486"><ele>341.0</ele><time>2026-04-26T10:30:08.988Z</time></trkpt><trkpt lat="43.6284346" lon="11.3114373"><ele>341.66666666666663</ele><time>2026-04-26T10:30:09.987Z</time></trkpt><trkpt lat="43.6283389" lon="11.311416"><ele>342.3333333333333</ele><time>2026-04-26T10:30:10.987Z</time></trkpt><trkpt lat="43.628239" lon="11.3113807"><ele>343.0</ele><time>2026-04-26T10:30:11.987Z</time></trkpt><trkpt lat="43.6281378" lon="11.311325"><ele>343.0</ele><time>2026-04-26T10:30:12.988Z</time></trkpt><trkpt lat="43.6280381" lon="11.311257"><ele>343.0</ele><time>2026-04-26T10:30:13.987Z</time></trkpt><trkpt lat="43.6279449" lon="11.3111862"><ele>343.0</ele><time>2026-04-26T10:30:14.987Z</time></trkpt><trkpt lat="43.6278573" lon="11.3111062"><ele>343.0</ele><time>2026-04-26T10:30:15.987Z</time></trkpt><trkpt lat="43.6277719" lon="11.3110148"><ele>343.0</ele><time>2026-04-26T10:30:16.987Z</time></trkpt><trkpt lat="43.6276874" lon="11.3109086"><ele>340.0</ele><time>2026-04-26T10:30:17.987Z</time></trkpt><trkpt lat="43.6276112" lon="11.3107912"><ele>337.0</ele><time>2026-04-26T10:30:18.988Z</time></trkpt><trkpt lat="43.6275338" lon="11.3106701"><ele>334.0</ele><time>2026-04-26T10:30:19.988Z</time></trkpt><trkpt lat="43.6274624" lon="11.3105487"><ele>331.0</ele><time>2026-04-26T10:30:20.987Z</time></trkpt><trkpt lat="43.6273975" lon="11.310425"><ele>331.0</ele><time>2026-04-26T10:30:21.987Z</time></trkpt><trkpt lat="43.6273334" lon="11.3103005"><ele>331.0</ele><time>2026-04-26T10:30:22.988Z</time></trkpt><trkpt lat="43.6272719" lon="11.3101857"><ele>331.0</ele><time>2026-04-26T10:30:23.987Z</time></trkpt><trkpt lat="43.6272014" lon="11.310077"><ele>331.0</ele><time>2026-04-26T10:30:24.987Z</time></trkpt><trkpt lat="43.627122" lon="11.3099919"><ele>331.0</ele><time>2026-04-26T10:30:25.987Z</time></trkpt><trkpt lat="43.627038" lon="11.3099308"><ele>330.20000000000005</ele><time>2026-04-26T10:30:26.987Z</time></trkpt><trkpt lat="43.6269478" lon="11.3098876"><ele>329.40000000000003</ele><time>2026-04-26T10:30:27.987Z</time></trkpt><trkpt lat="43.6268535" lon="11.3098541"><ele>328.6</ele><time>2026-04-26T10:30:28.987Z</time></trkpt><trkpt lat="43.6267521" lon="11.3098155"><ele>327.8</ele><time>2026-04-26T10:30:29.987Z</time></trkpt><trkpt lat="43.6266433" lon="11.3097703"><ele>327.0</ele><time>2026-04-26T10:30:30.987Z</time></trkpt><trkpt lat="43.6265327" lon="11.3097217"><ele>327.0</ele><time>2026-04-26T10:30:31.987Z</time></trkpt><trkpt lat="43.6264222" lon="11.3096643"><ele>327.0</ele><time>2026-04-26T10:30:32.987Z</time></trkpt><trkpt lat="43.626308" lon="11.3096043"><ele>327.0</ele><time>2026-04-26T10:30:33.987Z</time></trkpt><trkpt lat="43.6261934" lon="11.3095505"><ele>327.0</ele><time>2026-04-26T10:30:34.987Z</time></trkpt><trkpt lat="43.626076" lon="11.3094961"><ele>324.25</ele><time>2026-04-26T10:30:35.987Z</time></trkpt><trkpt lat="43.6259566" lon="11.3094437"><ele>321.5</ele><time>2026-04-26T10:30:36.987Z</time></trkpt><trkpt lat="43.6258316" lon="11.309399"><ele>318.75</ele><time>2026-04-26T10:30:37.987Z</time></trkpt><trkpt lat="43.6257022" lon="11.3093649"><ele>316.0</ele><time>2026-04-26T10:30:38.987Z</time></trkpt><trkpt lat="43.6255728" lon="11.3093288"><ele>316.0</ele><time>2026-04-26T10:30:39.987Z</time></trkpt><trkpt lat="43.6254461" lon="11.3092921"><ele>316.0</ele><time>2026-04-26T10:30:40.988Z</time></trkpt><trkpt lat="43.6253218" lon="11.3092574"><ele>316.0</ele><time>2026-04-26T10:30:41.987Z</time></trkpt><trkpt lat="43.6251989" lon="11.3092209"><ele>316.0</ele><time>2026-04-26T10:30:42.987Z</time></trkpt><trkpt lat="43.6250777" lon="11.3091824"><ele>313.75</ele><time>2026-04-26T10:30:43.987Z</time></trkpt><trkpt lat="43.6249576" lon="11.3091415"><ele>311.5</ele><time>2026-04-26T10:30:44.987Z</time></trkpt><trkpt lat="43.6248351" lon="11.3090939"><ele>309.25</ele><time>2026-04-26T10:30:45.987Z</time></trkpt><trkpt lat="43.6247123" lon="11.3090505"><ele>307.0</ele><time>2026-04-26T10:30:46.987Z</time></trkpt><trkpt lat="43.6245888" lon="11.309005"><ele>304.5</ele><time>2026-04-26T10:30:47.987Z</time></trkpt><trkpt lat="43.6244624" lon="11.3089584"><ele>302.0</ele><time>2026-04-26T10:30:48.987Z</time></trkpt><trkpt lat="43.6243394" lon="11.3089116"><ele>299.5</ele><time>2026-04-26T10:30:49.987Z</time></trkpt><trkpt lat="43.6242194" lon="11.308863"><ele>297.0</ele><time>2026-04-26T10:30:50.987Z</time></trkpt><trkpt lat="43.6241012" lon="11.3088105"><ele>296.25</ele><time>2026-04-26T10:30:51.988Z</time></trkpt><trkpt lat="43.6239851" lon="11.3087579"><ele>295.5</ele><time>2026-04-26T10:30:52.987Z</time></trkpt><trkpt lat="43.6238717" lon="11.3087056"><ele>294.75</ele><time>2026-04-26T10:30:53.987Z</time></trkpt><trkpt lat="43.6237629" lon="11.3086466"><ele>294.0</ele><time>2026-04-26T10:30:54.987Z</time></trkpt><trkpt lat="43.6236594" lon="11.3085704"><ele>293.0</ele><time>2026-04-26T10:30:55.987Z</time></trkpt><trkpt lat="43.6235582" lon="11.3084811"><ele>292.0</ele><time>2026-04-26T10:30:56.987Z</time></trkpt><trkpt lat="43.623458" lon="11.3083814"><ele>291.0</ele><time>2026-04-26T10:30:57.988Z</time></trkpt><trkpt lat="43.6233607" lon="11.3082704"><ele>290.0</ele><time>2026-04-26T10:30:58.987Z</time></trkpt><trkpt lat="43.6232643" lon="11.3081597"><ele>289.0</ele><time>2026-04-26T10:30:59.987Z</time></trkpt><trkpt lat="43.6231681" lon="11.3080452"><ele>288.0</ele><time>2026-04-26T10:31:00.987Z</time></trkpt><trkpt lat="43.6230708" lon="11.3079286"><ele>287.0</ele><time>2026-04-26T10:31:01.987Z</time></trkpt><trkpt lat="43.6229741" lon="11.3078112"><ele>286.0</ele><time>2026-04-26T10:31:02.987Z</time></trkpt><trkpt lat="43.6228831" lon="11.3076879"><ele>285.5</ele><time>2026-04-26T10:31:03.987Z</time></trkpt><trkpt lat="43.6228004" lon="11.307547"><ele>285.0</ele><time>2026-04-26T10:31:04.987Z</time></trkpt><trkpt lat="43.6227271" lon="11.3073944"><ele>284.5</ele><time>2026-04-26T10:31:05.987Z</time></trkpt><trkpt lat="43.6226561" lon="11.3072409"><ele>284.0</ele><time>2026-04-26T10:31:06.987Z</time></trkpt><trkpt lat="43.6225885" lon="11.3070848"><ele>285.0</ele><time>2026-04-26T10:31:07.987Z</time></trkpt><trkpt lat="43.6225186" lon="11.3069269"><ele>286.0</ele><time>2026-04-26T10:31:08.987Z</time></trkpt><trkpt lat="43.6224524" lon="11.3067697"><ele>287.0</ele><time>2026-04-26T10:31:09.987Z</time></trkpt><trkpt lat="43.6223871" lon="11.3066139"><ele>288.0</ele><time>2026-04-26T10:31:10.987Z</time></trkpt><trkpt lat="43.6223236" lon="11.3064533"><ele>287.75</ele><time>2026-04-26T10:31:11.988Z</time></trkpt><trkpt lat="43.6222645" lon="11.3062876"><ele>287.5</ele><time>2026-04-26T10:31:12.987Z</time></trkpt><trkpt lat="43.6222071" lon="11.3061203"><ele>287.25</ele><time>2026-04-26T10:31:13.988Z</time></trkpt><trkpt lat="43.6221523" lon="11.3059467"><ele>287.0</ele><time>2026-04-26T10:31:14.987Z</time></trkpt><trkpt lat="43.622097" lon="11.305771"><ele>287.0</ele><time>2026-04-26T10:31:15.987Z</time></trkpt><trkpt lat="43.6220451" lon="11.3055899"><ele>287.0</ele><time>2026-04-26T10:31:16.987Z</time></trkpt><trkpt lat="43.6220006" lon="11.3054158"><ele>287.0</ele><time>2026-04-26T10:31:17.987Z</time></trkpt><trkpt lat="43.6219574" lon="11.3052473"><ele>287.0</ele><time>2026-04-26T10:31:18.987Z</time></trkpt><trkpt lat="43.6219151" lon="11.3050901"><ele>287.25</ele><time>2026-04-26T10:31:19.987Z</time></trkpt><trkpt lat="43.6218692" lon="11.3049393"><ele>287.5</ele><time>2026-04-26T10:31:20.987Z</time></trkpt><trkpt lat="43.6218141" lon="11.3047979"><ele>287.75</ele><time>2026-04-26T10:31:21.988Z</time></trkpt><trkpt lat="43.6217424" lon="11.3046731"><ele>288.0</ele><time>2026-04-26T10:31:22.987Z</time></trkpt><trkpt lat="43.6216493" lon="11.3045719"><ele>288.0</ele><time>2026-04-26T10:31:23.988Z</time></trkpt><trkpt lat="43.6215461" lon="11.3044809"><ele>288.0</ele><time>2026-04-26T10:31:24.987Z</time></trkpt><trkpt lat="43.6214398" lon="11.3043872"><ele>288.0</ele><time>2026-04-26T10:31:25.987Z</time></trkpt><trkpt lat="43.6213282" lon="11.3042957"><ele>288.0</ele><time>2026-04-26T10:31:26.987Z</time></trkpt><trkpt lat="43.6212135" lon="11.3042006"><ele>286.75</ele><time>2026-04-26T10:31:27.988Z</time></trkpt><trkpt lat="43.6210968" lon="11.3040938"><ele>285.5</ele><time>2026-04-26T10:31:28.987Z</time></trkpt><trkpt lat="43.6209737" lon="11.3039949"><ele>284.25</ele><time>2026-04-26T10:31:29.987Z</time></trkpt><trkpt lat="43.620849" lon="11.3038905"><ele>283.0</ele><time>2026-04-26T10:31:30.987Z</time></trkpt><trkpt lat="43.6207244" lon="11.3037861"><ele>280.66666666666663</ele><time>2026-04-26T10:31:31.987Z</time></trkpt><trkpt lat="43.6205959" lon="11.3036754"><ele>278.3333333333333</ele><time>2026-04-26T10:31:32.987Z</time></trkpt><trkpt lat="43.6204714" lon="11.3035613"><ele>276.0</ele><time>2026-04-26T10:31:33.987Z</time></trkpt><trkpt lat="43.6203462" lon="11.3034457"><ele>275.6666666666667</ele><time>2026-04-26T10:31:34.987Z</time></trkpt><trkpt lat="43.6202217" lon="11.3033249"><ele>275.33333333333337</ele><time>2026-04-26T10:31:35.987Z</time></trkpt><trkpt lat="43.6200955" lon="11.3032103"><ele>275.0</ele><time>2026-04-26T10:31:36.987Z</time></trkpt><trkpt lat="43.6199651" lon="11.3031057"><ele>273.25</ele><time>2026-04-26T10:31:37.987Z</time></trkpt><trkpt lat="43.6198324" lon="11.3030203"><ele>271.5</ele><time>2026-04-26T10:31:38.987Z</time></trkpt><trkpt lat="43.6197027" lon="11.3029531"><ele>269.75</ele><time>2026-04-26T10:31:39.987Z</time></trkpt><trkpt lat="43.6195733" lon="11.3028827"><ele>268.0</ele><time>2026-04-26T10:31:40.987Z</time></trkpt><trkpt lat="43.6194463" lon="11.3028143"><ele>267.75</ele><time>2026-04-26T10:31:41.987Z</time></trkpt><trkpt lat="43.6193187" lon="11.302744"><ele>267.5</ele><time>2026-04-26T10:31:42.987Z</time></trkpt><trkpt lat="43.6191908" lon="11.3026726"><ele>267.25</ele><time>2026-04-26T10:31:43.987Z</time></trkpt><trkpt lat="43.6190614" lon="11.3025874"><ele>267.0</ele><time>2026-04-26T10:31:44.987Z</time></trkpt><trkpt lat="43.61894" lon="11.3024854"><ele>267.0</ele><time>2026-04-26T10:31:45.987Z</time></trkpt><trkpt lat="43.6188302" lon="11.3023661"><ele>267.0</ele><time>2026-04-26T10:31:46.987Z</time></trkpt><trkpt lat="43.6187232" lon="11.3022337"><ele>267.0</ele><time>2026-04-26T10:31:47.987Z</time></trkpt><trkpt lat="43.6186217" lon="11.3020949"><ele>267.0</ele><time>2026-04-26T10:31:48.987Z</time></trkpt><trkpt lat="43.6185241" lon="11.3019491"><ele>266.5</ele><time>2026-04-26T10:31:49.987Z</time></trkpt><trkpt lat="43.6184271" lon="11.301802"><ele>266.0</ele><time>2026-04-26T10:31:50.987Z</time></trkpt><trkpt lat="43.6183297" lon="11.3016547"><ele>265.5</ele><time>2026-04-26T10:31:51.987Z</time></trkpt><trkpt lat="43.6182301" lon="11.3015071"><ele>265.0</ele><time>2026-04-26T10:31:52.987Z</time></trkpt><trkpt lat="43.6181377" lon="11.3013644"><ele>264.75</ele><time>2026-04-26T10:31:53.987Z</time></trkpt><trkpt lat="43.6180401" lon="11.3012236"><ele>264.5</ele><time>2026-04-26T10:31:54.987Z</time></trkpt><trkpt lat="43.6179427" lon="11.301085"><ele>264.25</ele><time>2026-04-26T10:31:55.988Z</time></trkpt><trkpt lat="43.6178377" lon="11.3009553"><ele>264.0</ele><time>2026-04-26T10:31:56.987Z</time></trkpt><trkpt lat="43.6177285" lon="11.300824"><ele>264.75</ele><time>2026-04-26T10:31:57.987Z</time></trkpt><trkpt lat="43.6176149" lon="11.3006954"><ele>265.5</ele><time>2026-04-26T10:31:58.987Z</time></trkpt><trkpt lat="43.6174988" lon="11.3005665"><ele>266.25</ele><time>2026-04-26T10:31:59.987Z</time></trkpt><trkpt lat="43.6173837" lon="11.3004421"><ele>267.0</ele><time>2026-04-26T10:32:00.987Z</time></trkpt><trkpt lat="43.6172741" lon="11.3003193"><ele>266.5</ele><time>2026-04-26T10:32:01.987Z</time></trkpt><trkpt lat="43.6171694" lon="11.3002025"><ele>266.0</ele><time>2026-04-26T10:32:02.988Z</time></trkpt><trkpt lat="43.6170665" lon="11.3000947"><ele>265.5</ele><time>2026-04-26T10:32:03.987Z</time></trkpt><trkpt lat="43.6169628" lon="11.2999886"><ele>265.0</ele><time>2026-04-26T10:32:04.987Z</time></trkpt><trkpt lat="43.6168598" lon="11.2998961"><ele>265.0</ele><time>2026-04-26T10:32:05.988Z</time></trkpt><trkpt lat="43.6167502" lon="11.2998226"><ele>265.0</ele><time>2026-04-26T10:32:06.987Z</time></trkpt><trkpt lat="43.6166282" lon="11.2997607"><ele>265.0</ele><time>2026-04-26T10:32:07.987Z</time></trkpt><trkpt lat="43.6164928" lon="11.2997104"><ele>265.0</ele><time>2026-04-26T10:32:08.987Z</time></trkpt><trkpt lat="43.6163538" lon="11.2996603"><ele>263.5</ele><time>2026-04-26T10:32:09.987Z</time></trkpt><trkpt lat="43.6162144" lon="11.2996121"><ele>262.0</ele><time>2026-04-26T10:32:10.987Z</time></trkpt><trkpt lat="43.616075" lon="11.2995706"><ele>260.5</ele><time>2026-04-26T10:32:11.987Z</time></trkpt><trkpt lat="43.6159402" lon="11.2995315"><ele>259.0</ele><time>2026-04-26T10:32:12.987Z</time></trkpt><trkpt lat="43.6158045" lon="11.2994848"><ele>258.75</ele><time>2026-04-26T10:32:13.987Z</time></trkpt><trkpt lat="43.6156662" lon="11.2994402"><ele>258.5</ele><time>2026-04-26T10:32:14.987Z</time></trkpt><trkpt lat="43.615529" lon="11.2993925"><ele>258.25</ele><time>2026-04-26T10:32:15.987Z</time></trkpt><trkpt lat="43.6153945" lon="11.2993368"><ele>258.0</ele><time>2026-04-26T10:32:16.987Z</time></trkpt><trkpt lat="43.6152621" lon="11.2992794"><ele>256.5</ele><time>2026-04-26T10:32:17.987Z</time></trkpt><trkpt lat="43.6151346" lon="11.2992167"><ele>255.0</ele><time>2026-04-26T10:32:18.987Z</time></trkpt><trkpt lat="43.6150108" lon="11.2991563"><ele>253.5</ele><time>2026-04-26T10:32:19.987Z</time></trkpt><trkpt lat="43.6148896" lon="11.2990959"><ele>252.0</ele><time>2026-04-26T10:32:20.987Z</time></trkpt><trkpt lat="43.6147747" lon="11.2990412"><ele>252.0</ele><time>2026-04-26T10:32:21.987Z</time></trkpt><trkpt lat="43.6146623" lon="11.2989868"><ele>252.0</ele><time>2026-04-26T10:32:22.987Z</time></trkpt><trkpt lat="43.6145521" lon="11.2989398"><ele>252.0</ele><time>2026-04-26T10:32:23.987Z</time></trkpt><trkpt lat="43.6144439" lon="11.2988896"><ele>252.0</ele><time>2026-04-26T10:32:24.988Z</time></trkpt><trkpt lat="43.614336" lon="11.2988333"><ele>251.0</ele><time>2026-04-26T10:32:25.987Z</time></trkpt><trkpt lat="43.6142372" lon="11.2987653"><ele>250.0</ele><time>2026-04-26T10:32:26.988Z</time></trkpt><trkpt lat="43.6141401" lon="11.2986858"><ele>249.0</ele><time>2026-04-26T10:32:27.987Z</time></trkpt><trkpt lat="43.6140463" lon="11.2985853"><ele>248.0</ele><time>2026-04-26T10:32:28.987Z</time></trkpt><trkpt lat="43.6139528" lon="11.2984671"><ele>248.0</ele><time>2026-04-26T10:32:29.987Z</time></trkpt><trkpt lat="43.6138625" lon="11.2983282"><ele>248.0</ele><time>2026-04-26T10:32:30.988Z</time></trkpt><trkpt lat="43.613775" lon="11.2981907"><ele>248.0</ele><time>2026-04-26T10:32:31.987Z</time></trkpt><trkpt lat="43.6136942" lon="11.2980604"><ele>248.0</ele><time>2026-04-26T10:32:32.987Z</time></trkpt><trkpt lat="43.6136151" lon="11.2979448"><ele>246.8</ele><time>2026-04-26T10:32:33.988Z</time></trkpt><trkpt lat="43.6135327" lon="11.2978486"><ele>245.60000000000002</ele><time>2026-04-26T10:32:34.987Z</time></trkpt><trkpt lat="43.6134425" lon="11.2977891"><ele>244.39999999999998</ele><time>2026-04-26T10:32:35.987Z</time></trkpt><trkpt lat="43.6133496" lon="11.2977689"><ele>243.2</ele><time>2026-04-26T10:32:36.987Z</time></trkpt><trkpt lat="43.6132576" lon="11.2977881"><ele>242.0</ele><time>2026-04-26T10:32:37.987Z</time></trkpt><trkpt lat="43.6131698" lon="11.2978392"><ele>242.00000000000003</ele><time>2026-04-26T10:32:38.987Z</time></trkpt><trkpt lat="43.6131002" lon="11.2979248"><ele>242.0</ele><time>2026-04-26T10:32:39.987Z</time></trkpt><trkpt lat="43.6130493" lon="11.2980275"><ele>242.0</ele><time>2026-04-26T10:32:40.988Z</time></trkpt><trkpt lat="43.6130233" lon="11.2981425"><ele>242.0</ele><time>2026-04-26T10:32:41.988Z</time></trkpt><trkpt lat="43.6130249" lon="11.2982584"><ele>242.00000000000003</ele><time>2026-04-26T10:32:42.987Z</time></trkpt><trkpt lat="43.6130532" lon="11.2983785"><ele>242.0</ele><time>2026-04-26T10:32:43.987Z</time></trkpt><trkpt lat="43.6131054" lon="11.2984963"><ele>241.5</ele><time>2026-04-26T10:32:44.987Z</time></trkpt><trkpt lat="43.6131737" lon="11.2986276"><ele>241.0</ele><time>2026-04-26T10:32:45.987Z</time></trkpt><trkpt lat="43.6132494" lon="11.2987701"><ele>240.5</ele><time>2026-04-26T10:32:46.987Z</time></trkpt><trkpt lat="43.6133249" lon="11.2989207"><ele>240.0</ele><time>2026-04-26T10:32:47.987Z</time></trkpt><trkpt lat="43.6134062" lon="11.2990776"><ele>240.0</ele><time>2026-04-26T10:32:48.987Z</time></trkpt><trkpt lat="43.6134904" lon="11.2992302"><ele>240.0</ele><time>2026-04-26T10:32:49.988Z</time></trkpt><trkpt lat="43.6135783" lon="11.2993691"><ele>240.0</ele><time>2026-04-26T10:32:50.987Z</time></trkpt><trkpt lat="43.6136836" lon="11.2994857"><ele>240.0</ele><time>2026-04-26T10:32:51.988Z</time></trkpt><trkpt lat="43.6137981" lon="11.2995725"><ele>239.5</ele><time>2026-04-26T10:32:52.987Z</time></trkpt><trkpt lat="43.6139175" lon="11.2996542"><ele>239.0</ele><time>2026-04-26T10:32:53.987Z</time></trkpt><trkpt lat="43.6140323" lon="11.299738"><ele>238.5</ele><time>2026-04-26T10:32:54.987Z</time></trkpt><trkpt lat="43.6141357" lon="11.2998262"><ele>238.0</ele><time>2026-04-26T10:32:55.987Z</time></trkpt><trkpt lat="43.6142239" lon="11.2999067"><ele>238.0</ele><time>2026-04-26T10:32:56.987Z</time></trkpt><trkpt lat="43.6142876" lon="11.2999908"><ele>238.0</ele><time>2026-04-26T10:32:57.987Z</time></trkpt><trkpt lat="43.6143171" lon="11.3000767"><ele>238.0</ele><time>2026-04-26T10:32:58.988Z</time></trkpt><trkpt lat="43.6143145" lon="11.3001646"><ele>238.0</ele><time>2026-04-26T10:32:59.987Z</time></trkpt><trkpt lat="43.6142728" lon="11.3002434"><ele>238.0</ele><time>2026-04-26T10:33:00.987Z</time></trkpt><trkpt lat="43.6142087" lon="11.3002857"><ele>238.0</ele><time>2026-04-26T10:33:01.987Z</time></trkpt><trkpt lat="43.6141261" lon="11.3002808"><ele>238.0</ele><time>2026-04-26T10:33:02.987Z</time></trkpt><trkpt lat="43.6140357" lon="11.3002454"><ele>238.0</ele><time>2026-04-26T10:33:03.987Z</time></trkpt><trkpt lat="43.6139372" lon="11.3001831"><ele>238.0</ele><time>2026-04-26T10:33:04.987Z</time></trkpt><trkpt lat="43.6138237" lon="11.3001184"><ele>238.0</ele><time>2026-04-26T10:33:05.987Z</time></trkpt><trkpt lat="43.6137025" lon="11.3000551"><ele>238.0</ele><time>2026-04-26T10:33:06.987Z</time></trkpt><trkpt lat="43.6135741" lon="11.299984"><ele>238.5</ele><time>2026-04-26T10:33:07.987Z</time></trkpt><trkpt lat="43.613451" lon="11.2999153"><ele>239.0</ele><time>2026-04-26T10:33:08.987Z</time></trkpt><trkpt lat="43.6133227" lon="11.2998453"><ele>239.5</ele><time>2026-04-26T10:33:09.987Z</time></trkpt><trkpt lat="43.6131911" lon="11.2997721"><ele>240.0</ele><time>2026-04-26T10:33:10.988Z</time></trkpt><trkpt lat="43.6130568" lon="11.2997021"><ele>240.0</ele><time>2026-04-26T10:33:11.988Z</time></trkpt><trkpt lat="43.6129214" lon="11.2996297"><ele>240.0</ele><time>2026-04-26T10:33:12.988Z</time></trkpt><trkpt lat="43.6127872" lon="11.2995537"><ele>240.0</ele><time>2026-04-26T10:33:13.987Z</time></trkpt><trkpt lat="43.6126527" lon="11.2994817"><ele>240.0</ele><time>2026-04-26T10:33:14.987Z</time></trkpt><trkpt lat="43.6125216" lon="11.2994199"><ele>237.25</ele><time>2026-04-26T10:33:15.987Z</time></trkpt><trkpt lat="43.6123912" lon="11.2993526"><ele>234.5</ele><time>2026-04-26T10:33:16.988Z</time></trkpt><trkpt lat="43.6122639" lon="11.2992948"><ele>231.75</ele><time>2026-04-26T10:33:17.987Z</time></trkpt><trkpt lat="43.6121437" lon="11.2992516"><ele>229.0</ele><time>2026-04-26T10:33:18.987Z</time></trkpt><trkpt lat="43.6120248" lon="11.2992354"><ele>228.6</ele><time>2026-04-26T10:33:19.988Z</time></trkpt><trkpt lat="43.6119138" lon="11.2992555"><ele>228.2</ele><time>2026-04-26T10:33:20.987Z</time></trkpt><trkpt lat="43.6118117" lon="11.2993054"><ele>227.79999999999998</ele><time>2026-04-26T10:33:21.987Z</time></trkpt><trkpt lat="43.6117148" lon="11.299369"><ele>227.39999999999998</ele><time>2026-04-26T10:33:22.987Z</time></trkpt><trkpt lat="43.6116181" lon="11.2994385"><ele>227.0</ele><time>2026-04-26T10:33:23.987Z</time></trkpt><trkpt lat="43.6115162" lon="11.2994997"><ele>227.0</ele><time>2026-04-26T10:33:24.987Z</time></trkpt><trkpt lat="43.6114128" lon="11.2995344"><ele>227.0</ele><time>2026-04-26T10:33:25.987Z</time></trkpt><trkpt lat="43.6113079" lon="11.2995277"><ele>227.0</ele><time>2026-04-26T10:33:26.987Z</time></trkpt><trkpt lat="43.6112102" lon="11.2994813"><ele>227.0</ele><time>2026-04-26T10:33:27.987Z</time></trkpt><trkpt lat="43.611109" lon="11.2994223"><ele>227.0</ele><time>2026-04-26T10:33:28.987Z</time></trkpt><trkpt lat="43.6110014" lon="11.2993871"><ele>225.75</ele><time>2026-04-26T10:33:29.987Z</time></trkpt><trkpt lat="43.6108928" lon="11.299385"><ele>224.5</ele><time>2026-04-26T10:33:30.987Z</time></trkpt><trkpt lat="43.6107819" lon="11.2994149"><ele>223.25</ele><time>2026-04-26T10:33:31.987Z</time></trkpt><trkpt lat="43.6106708" lon="11.2994692"><ele>222.0</ele><time>2026-04-26T10:33:32.987Z</time></trkpt><trkpt lat="43.6105586" lon="11.2995389"><ele>222.0</ele><time>2026-04-26T10:33:33.987Z</time></trkpt><trkpt lat="43.6104483" lon="11.2996089"><ele>222.0</ele><time>2026-04-26T10:33:34.987Z</time></trkpt><trkpt lat="43.6103405" lon="11.299674"><ele>222.0</ele><time>2026-04-26T10:33:35.988Z</time></trkpt><trkpt lat="43.6102363" lon="11.2997321"><ele>222.0</ele><time>2026-04-26T10:33:36.987Z</time></trkpt><trkpt lat="43.6101266" lon="11.2997958"><ele>219.25</ele><time>2026-04-26T10:33:37.987Z</time></trkpt><trkpt lat="43.6100111" lon="11.2998527"><ele>216.5</ele><time>2026-04-26T10:33:38.988Z</time></trkpt><trkpt lat="43.6098947" lon="11.2998891"><ele>213.75</ele><time>2026-04-26T10:33:39.987Z</time></trkpt><trkpt lat="43.6097696" lon="11.2999073"><ele>211.0</ele><time>2026-04-26T10:33:40.987Z</time></trkpt><trkpt lat="43.6096437" lon="11.2998987"><ele>211.0</ele><time>2026-04-26T10:33:41.987Z</time></trkpt><trkpt lat="43.6095137" lon="11.2998667"><ele>211.0</ele><time>2026-04-26T10:33:42.987Z</time></trkpt><trkpt lat="43.6093948" lon="11.2998315"><ele>211.0</ele><time>2026-04-26T10:33:43.987Z</time></trkpt><trkpt lat="43.6092765" lon="11.2997958"><ele>211.0</ele><time>2026-04-26T10:33:44.987Z</time></trkpt><trkpt lat="43.6091731" lon="11.2997588"><ele>211.8</ele><time>2026-04-26T10:33:45.987Z</time></trkpt><trkpt lat="43.6090788" lon="11.2997263"><ele>212.60000000000002</ele><time>2026-04-26T10:33:46.988Z</time></trkpt><trkpt lat="43.6089938" lon="11.2997047"><ele>213.4</ele><time>2026-04-26T10:33:47.987Z</time></trkpt><trkpt lat="43.6089051" lon="11.2997021"><ele>214.2</ele><time>2026-04-26T10:33:48.987Z</time></trkpt><trkpt lat="43.6088166" lon="11.2997334"><ele>215.0</ele><time>2026-04-26T10:33:49.987Z</time></trkpt><trkpt lat="43.6087364" lon="11.2997953"><ele>212.4</ele><time>2026-04-26T10:33:50.987Z</time></trkpt><trkpt lat="43.6086559" lon="11.2998839"><ele>209.8</ele><time>2026-04-26T10:33:51.987Z</time></trkpt><trkpt lat="43.6085826" lon="11.2999973"><ele>207.2</ele><time>2026-04-26T10:33:52.988Z</time></trkpt><trkpt lat="43.6085107" lon="11.3001258"><ele>204.6</ele><time>2026-04-26T10:33:53.987Z</time></trkpt><trkpt lat="43.6084408" lon="11.3002542"><ele>202.0</ele><time>2026-04-26T10:33:54.987Z</time></trkpt><trkpt lat="43.6083714" lon="11.3003888"><ele>202.0</ele><time>2026-04-26T10:33:55.987Z</time></trkpt><trkpt lat="43.608302" lon="11.3005205"><ele>202.0</ele><time>2026-04-26T10:33:56.987Z</time></trkpt><trkpt lat="43.6082382" lon="11.3006524"><ele>202.0</ele><time>2026-04-26T10:33:57.987Z</time></trkpt><trkpt lat="43.6081806" lon="11.3007753"><ele>202.0</ele><time>2026-04-26T10:33:58.988Z</time></trkpt><trkpt lat="43.6081294" lon="11.3008902"><ele>202.0</ele><time>2026-04-26T10:33:59.987Z</time></trkpt><trkpt lat="43.608086" lon="11.3010142"><ele>203.2</ele><time>2026-04-26T10:34:00.987Z</time></trkpt><trkpt lat="43.6080476" lon="11.3011404"><ele>204.39999999999998</ele><time>2026-04-26T10:34:01.987Z</time></trkpt><trkpt lat="43.6080128" lon="11.3012653"><ele>205.60000000000002</ele><time>2026-04-26T10:34:02.987Z</time></trkpt><trkpt lat="43.6079809" lon="11.3013918"><ele>206.8</ele><time>2026-04-26T10:34:03.987Z</time></trkpt><trkpt lat="43.607952" lon="11.3015195"><ele>208.0</ele><time>2026-04-26T10:34:04.987Z</time></trkpt><trkpt lat="43.6079274" lon="11.3016463"><ele>208.8</ele><time>2026-04-26T10:34:05.987Z</time></trkpt><trkpt lat="43.6079081" lon="11.3017785"><ele>209.60000000000002</ele><time>2026-04-26T10:34:06.987Z</time></trkpt><trkpt lat="43.6078941" lon="11.3019144"><ele>210.39999999999998</ele><time>2026-04-26T10:34:07.988Z</time></trkpt><trkpt lat="43.6078872" lon="11.3020548"><ele>211.2</ele><time>2026-04-26T10:34:08.987Z</time></trkpt><trkpt lat="43.6078724" lon="11.3021963"><ele>212.0</ele><time>2026-04-26T10:34:09.987Z</time></trkpt><trkpt lat="43.6078453" lon="11.3023455"><ele>210.5</ele><time>2026-04-26T10:34:10.987Z</time></trkpt><trkpt lat="43.6078015" lon="11.3025008"><ele>209.0</ele><time>2026-04-26T10:34:11.987Z</time></trkpt><trkpt lat="43.6077378" lon="11.3026538"><ele>207.5</ele><time>2026-04-26T10:34:12.987Z</time></trkpt><trkpt lat="43.6076673" lon="11.3028012"><ele>206.0</ele><time>2026-04-26T10:34:13.987Z</time></trkpt><trkpt lat="43.6075945" lon="11.3029491"><ele>206.75</ele><time>2026-04-26T10:34:14.987Z</time></trkpt><trkpt lat="43.6075181" lon="11.3030908"><ele>207.5</ele><time>2026-04-26T10:34:15.988Z</time></trkpt><trkpt lat="43.6074427" lon="11.3032274"><ele>208.25</ele><time>2026-04-26T10:34:16.987Z</time></trkpt><trkpt lat="43.6073686" lon="11.3033633"><ele>209.0</ele><time>2026-04-26T10:34:17.987Z</time></trkpt><trkpt lat="43.6072977" lon="11.3034916"><ele>209.0</ele><time>2026-04-26T10:34:18.987Z</time></trkpt><trkpt lat="43.6072313" lon="11.3036216"><ele>209.0</ele><time>2026-04-26T10:34:19.987Z</time></trkpt><trkpt lat="43.6071692" lon="11.3037438"><ele>209.0</ele><time>2026-04-26T10:34:20.987Z</time></trkpt><trkpt lat="43.6071085" lon="11.3038634"><ele>209.0</ele><time>2026-04-26T10:34:21.987Z</time></trkpt><trkpt lat="43.6070497" lon="11.3039766"><ele>209.0</ele><time>2026-04-26T10:34:22.987Z</time></trkpt><trkpt lat="43.6069911" lon="11.3040895"><ele>209.0</ele><time>2026-04-26T10:34:23.987Z</time></trkpt><trkpt lat="43.6069311" lon="11.3042011"><ele>209.0</ele><time>2026-04-26T10:34:24.987Z</time></trkpt><trkpt lat="43.6068672" lon="11.3043133"><ele>209.0</ele><time>2026-04-26T10:34:25.987Z</time></trkpt><trkpt lat="43.6067999" lon="11.3044321"><ele>209.0</ele><time>2026-04-26T10:34:26.987Z</time></trkpt><trkpt lat="43.6067231" lon="11.3045431"><ele>209.0</ele><time>2026-04-26T10:34:27.987Z</time></trkpt><trkpt lat="43.6066269" lon="11.304646"><ele>209.0</ele><time>2026-04-26T10:34:28.987Z</time></trkpt><trkpt lat="43.6065253" lon="11.3047405"><ele>209.0</ele><time>2026-04-26T10:34:29.987Z</time></trkpt><trkpt lat="43.6064107" lon="11.3048394"><ele>209.0</ele><time>2026-04-26T10:34:30.988Z</time></trkpt><trkpt lat="43.6062939" lon="11.304944"><ele>209.0</ele><time>2026-04-26T10:34:31.987Z</time></trkpt><trkpt lat="43.6061746" lon="11.305046"><ele>208.75</ele><time>2026-04-26T10:34:32.988Z</time></trkpt><trkpt lat="43.6060523" lon="11.3051552"><ele>208.5</ele><time>2026-04-26T10:34:33.987Z</time></trkpt><trkpt lat="43.6059296" lon="11.3052609"><ele>208.25</ele><time>2026-04-26T10:34:34.987Z</time></trkpt><trkpt lat="43.6058086" lon="11.3053611"><ele>208.0</ele><time>2026-04-26T10:34:35.987Z</time></trkpt><trkpt lat="43.6056957" lon="11.3054594"><ele>208.0</ele><time>2026-04-26T10:34:36.987Z</time></trkpt><trkpt lat="43.6055855" lon="11.3055587"><ele>208.0</ele><time>2026-04-26T10:34:37.988Z</time></trkpt><trkpt lat="43.6054791" lon="11.3056532"><ele>208.0</ele><time>2026-04-26T10:34:38.987Z</time></trkpt><trkpt lat="43.6053741" lon="11.3057405"><ele>208.0</ele><time>2026-04-26T10:34:39.987Z</time></trkpt><trkpt lat="43.6052658" lon="11.3058318"><ele>208.0</ele><time>2026-04-26T10:34:40.987Z</time></trkpt><trkpt lat="43.6051552" lon="11.3059238"><ele>208.0</ele><time>2026-04-26T10:34:41.987Z</time></trkpt><trkpt lat="43.6050463" lon="11.3060165"><ele>208.0</ele><time>2026-04-26T10:34:42.987Z</time></trkpt><trkpt lat="43.6049322" lon="11.3061142"><ele>208.0</ele><time>2026-04-26T10:34:43.987Z</time></trkpt><trkpt lat="43.6048155" lon="11.3062167"><ele>208.0</ele><time>2026-04-26T10:34:44.988Z</time></trkpt><trkpt lat="43.6046956" lon="11.3063138"><ele>208.0</ele><time>2026-04-26T10:34:45.987Z</time></trkpt><trkpt lat="43.6045753" lon="11.3064069"><ele>208.0</ele><time>2026-04-26T10:34:46.987Z</time></trkpt><trkpt lat="43.6044659" lon="11.3065049"><ele>208.0</ele><time>2026-04-26T10:34:47.987Z</time></trkpt><trkpt lat="43.6043684" lon="11.3066045"><ele>208.25</ele><time>2026-04-26T10:34:48.987Z</time></trkpt><trkpt lat="43.6042891" lon="11.3067207"><ele>208.5</ele><time>2026-04-26T10:34:49.987Z</time></trkpt><trkpt lat="43.6042264" lon="11.3068507"><ele>208.75</ele><time>2026-04-26T10:34:50.987Z</time></trkpt><trkpt lat="43.6041841" lon="11.307"><ele>209.0</ele><time>2026-04-26T10:34:51.987Z</time></trkpt><trkpt lat="43.6041589" lon="11.3071586"><ele>210.25</ele><time>2026-04-26T10:34:52.987Z</time></trkpt><trkpt lat="43.6041486" lon="11.3073321"><ele>211.5</ele><time>2026-04-26T10:34:53.987Z</time></trkpt><trkpt lat="43.6041456" lon="11.3075167"><ele>212.75</ele><time>2026-04-26T10:34:54.987Z</time></trkpt><trkpt lat="43.6041395" lon="11.3077067"><ele>214.0</ele><time>2026-04-26T10:34:55.987Z</time></trkpt><trkpt lat="43.6041358" lon="11.3078992"><ele>214.5</ele><time>2026-04-26T10:34:56.987Z</time></trkpt><trkpt lat="43.6041331" lon="11.3080823"><ele>215.0</ele><time>2026-04-26T10:34:57.987Z</time></trkpt><trkpt lat="43.6041217" lon="11.3082599"><ele>215.5</ele><time>2026-04-26T10:34:58.987Z</time></trkpt><trkpt lat="43.6040966" lon="11.3084243"><ele>216.0</ele><time>2026-04-26T10:34:59.987Z</time></trkpt><trkpt lat="43.6040577" lon="11.3085792"><ele>216.0</ele><time>2026-04-26T10:35:00.987Z</time></trkpt><trkpt lat="43.6040073" lon="11.3087285"><ele>216.0</ele><time>2026-04-26T10:35:01.988Z</time></trkpt><trkpt lat="43.6039455" lon="11.3088766"><ele>216.0</ele><time>2026-04-26T10:35:02.987Z</time></trkpt><trkpt lat="43.6038731" lon="11.3090151"><ele>216.0</ele><time>2026-04-26T10:35:03.987Z</time></trkpt><trkpt lat="43.6037883" lon="11.309133"><ele>216.0</ele><time>2026-04-26T10:35:04.987Z</time></trkpt><trkpt lat="43.6036868" lon="11.3092277"><ele>216.0</ele><time>2026-04-26T10:35:05.988Z</time></trkpt><trkpt lat="43.6035698" lon="11.3093111"><ele>216.0</ele><time>2026-04-26T10:35:06.987Z</time></trkpt><trkpt lat="43.6034483" lon="11.3093832"><ele>216.0</ele><time>2026-04-26T10:35:07.988Z</time></trkpt><trkpt lat="43.6033338" lon="11.3094545"><ele>215.4</ele><time>2026-04-26T10:35:08.987Z</time></trkpt><trkpt lat="43.6032298" lon="11.3095154"><ele>214.8</ele><time>2026-04-26T10:35:09.987Z</time></trkpt><trkpt lat="43.603136" lon="11.3095753"><ele>214.20000000000002</ele><time>2026-04-26T10:35:10.987Z</time></trkpt><trkpt lat="43.6030496" lon="11.3096257"><ele>213.60000000000002</ele><time>2026-04-26T10:35:11.987Z</time></trkpt><trkpt lat="43.6029725" lon="11.3096626"><ele>213.0</ele><time>2026-04-26T10:35:12.987Z</time></trkpt><trkpt lat="43.6029074" lon="11.3096815"><ele>212.83333333333334</ele><time>2026-04-26T10:35:13.987Z</time></trkpt><trkpt lat="43.6028231" lon="11.3096674"><ele>212.66666666666669</ele><time>2026-04-26T10:35:15.987Z</time></trkpt><trkpt lat="43.6027634" lon="11.3095918"><ele>212.5</ele><time>2026-04-26T10:35:18.987Z</time></trkpt><trkpt lat="43.6027174" lon="11.3095008"><ele>212.33333333333334</ele><time>2026-04-26T10:35:21.987Z</time></trkpt><trkpt lat="43.6026642" lon="11.3093662"><ele>212.16666666666669</ele><time>2026-04-26T10:35:23.987Z</time></trkpt><trkpt lat="43.6026347" lon="11.3092807"><ele>212.0</ele><time>2026-04-26T10:35:24.987Z</time></trkpt><trkpt lat="43.6026003" lon="11.3091913"><ele>212.00000000000003</ele><time>2026-04-26T10:35:25.987Z</time></trkpt><trkpt lat="43.6025745" lon="11.3091057"><ele>212.0</ele><time>2026-04-26T10:35:26.987Z</time></trkpt><trkpt lat="43.6025283" lon="11.3090067"><ele>212.0</ele><time>2026-04-26T10:35:27.987Z</time></trkpt><trkpt lat="43.6024874" lon="11.3089096"><ele>212.0</ele><time>2026-04-26T10:35:28.987Z</time></trkpt><trkpt lat="43.6024402" lon="11.3088043"><ele>212.00000000000003</ele><time>2026-04-26T10:35:29.987Z</time></trkpt><trkpt lat="43.6023998" lon="11.3086973"><ele>212.0</ele><time>2026-04-26T10:35:30.987Z</time></trkpt><trkpt lat="43.6023629" lon="11.3085991"><ele>211.83333333333334</ele><time>2026-04-26T10:35:31.987Z</time></trkpt><trkpt lat="43.6023192" lon="11.3085052"><ele>211.66666666666669</ele><time>2026-04-26T10:35:32.987Z</time></trkpt><trkpt lat="43.6022854" lon="11.3084193"><ele>211.5</ele><time>2026-04-26T10:35:33.988Z</time></trkpt><trkpt lat="43.6022472" lon="11.3083275"><ele>211.33333333333331</ele><time>2026-04-26T10:35:34.987Z</time></trkpt><trkpt lat="43.6022089" lon="11.3082288"><ele>211.16666666666666</ele><time>2026-04-26T10:35:35.987Z</time></trkpt><trkpt lat="43.6021689" lon="11.3081325"><ele>211.0</ele><time>2026-04-26T10:35:36.987Z</time></trkpt><trkpt lat="43.6021256" lon="11.3080377"><ele>210.60000000000002</ele><time>2026-04-26T10:35:37.987Z</time></trkpt><trkpt lat="43.6020828" lon="11.3079382"><ele>210.2</ele><time>2026-04-26T10:35:38.987Z</time></trkpt><trkpt lat="43.6020391" lon="11.3078256"><ele>209.8</ele><time>2026-04-26T10:35:39.988Z</time></trkpt><trkpt lat="43.601994" lon="11.3077052"><ele>209.39999999999998</ele><time>2026-04-26T10:35:40.988Z</time></trkpt><trkpt lat="43.6019477" lon="11.3076017"><ele>209.0</ele><time>2026-04-26T10:35:41.987Z</time></trkpt><trkpt lat="43.6018988" lon="11.3074914"><ele>210.28571428571428</ele><time>2026-04-26T10:35:42.987Z</time></trkpt><trkpt lat="43.601859" lon="11.3073948"><ele>211.57142857142856</ele><time>2026-04-26T10:35:43.987Z</time></trkpt><trkpt lat="43.6018204" lon="11.3073086"><ele>212.85714285714286</ele><time>2026-04-26T10:35:44.987Z</time></trkpt><trkpt lat="43.6017794" lon="11.3072188"><ele>214.14285714285714</ele><time>2026-04-26T10:35:45.987Z</time></trkpt><trkpt lat="43.6017558" lon="11.3071263"><ele>215.42857142857144</ele><time>2026-04-26T10:35:46.987Z</time></trkpt><trkpt lat="43.6017171" lon="11.3070445"><ele>216.71428571428572</ele><time>2026-04-26T10:35:47.987Z</time></trkpt><trkpt lat="43.6016841" lon="11.3069577"><ele>218.0</ele><time>2026-04-26T10:35:48.987Z</time></trkpt><trkpt lat="43.6016432" lon="11.3068786"><ele>218.0</ele><time>2026-04-26T10:35:50.987Z</time></trkpt><trkpt lat="43.6016322" lon="11.3067743"><ele>218.0</ele><time>2026-04-26T10:35:53.987Z</time></trkpt><trkpt lat="43.6016581" lon="11.3066542"><ele>218.0</ele><time>2026-04-26T10:35:55.988Z</time></trkpt><trkpt lat="43.601678" lon="11.30652"><ele>218.0</ele><time>2026-04-26T10:35:57.987Z</time></trkpt><trkpt lat="43.6016782" lon="11.3063559"><ele>218.0</ele><time>2026-04-26T10:35:59.987Z</time></trkpt><trkpt lat="43.6016859" lon="11.3062056"><ele>217.50000000000003</ele><time>2026-04-26T10:36:01.987Z</time></trkpt><trkpt lat="43.6016849" lon="11.3060759"><ele>217.0</ele><time>2026-04-26T10:36:03.988Z</time></trkpt><trkpt lat="43.6016507" lon="11.3059955"><ele>216.5</ele><time>2026-04-26T10:36:05.987Z</time></trkpt><trkpt lat="43.6015888" lon="11.3059627"><ele>216.0</ele><time>2026-04-26T10:36:07.987Z</time></trkpt><trkpt lat="43.601474" lon="11.3059566"><ele>215.50000000000003</ele><time>2026-04-26T10:36:09.988Z</time></trkpt><trkpt lat="43.6014053" lon="11.3059597"><ele>215.0</ele><time>2026-04-26T10:36:10.988Z</time></trkpt><trkpt lat="43.6013371" lon="11.3059666"><ele>215.00000000000003</ele><time>2026-04-26T10:36:11.987Z</time></trkpt><trkpt lat="43.6012644" lon="11.3059784"><ele>215.0</ele><time>2026-04-26T10:36:12.988Z</time></trkpt><trkpt lat="43.6011845" lon="11.3059877"><ele>215.0</ele><time>2026-04-26T10:36:13.987Z</time></trkpt><trkpt lat="43.601101" lon="11.3059934"><ele>215.0</ele><time>2026-04-26T10:36:14.987Z</time></trkpt><trkpt lat="43.6010164" lon="11.305998"><ele>215.00000000000003</ele><time>2026-04-26T10:36:15.987Z</time></trkpt><trkpt lat="43.600935" lon="11.3060025"><ele>215.0</ele><time>2026-04-26T10:36:16.987Z</time></trkpt><trkpt lat="43.6008543" lon="11.3060037"><ele>217.2</ele><time>2026-04-26T10:36:17.987Z</time></trkpt><trkpt lat="43.6007733" lon="11.3060045"><ele>219.4</ele><time>2026-04-26T10:36:18.987Z</time></trkpt><trkpt lat="43.6007064" lon="11.3060073"><ele>221.60000000000002</ele><time>2026-04-26T10:36:19.987Z</time></trkpt><trkpt lat="43.6005948" lon="11.3060077"><ele>223.8</ele><time>2026-04-26T10:36:21.987Z</time></trkpt><trkpt lat="43.6004815" lon="11.3059989"><ele>226.0</ele><time>2026-04-26T10:36:23.988Z</time></trkpt><trkpt lat="43.6003885" lon="11.3059916"><ele>227.60000000000002</ele><time>2026-04-26T10:36:25.987Z</time></trkpt><trkpt lat="43.6002903" lon="11.3059836"><ele>229.20000000000002</ele><time>2026-04-26T10:36:27.987Z</time></trkpt><trkpt lat="43.6001852" lon="11.3059713"><ele>230.79999999999998</ele><time>2026-04-26T10:36:29.987Z</time></trkpt><trkpt lat="43.6000672" lon="11.3059628"><ele>232.39999999999998</ele><time>2026-04-26T10:36:31.987Z</time></trkpt><trkpt lat="43.5999998" lon="11.305965"><ele>234.0</ele><time>2026-04-26T10:36:32.987Z</time></trkpt><trkpt lat="43.5998875" lon="11.3059815"><ele>234.0</ele><time>2026-04-26T10:36:34.987Z</time></trkpt><trkpt lat="43.5998204" lon="11.3060456"><ele>234.0</ele><time>2026-04-26T10:36:36.987Z</time></trkpt><trkpt lat="43.5997904" lon="11.3061683"><ele>234.0</ele><time>2026-04-26T10:36:38.988Z</time></trkpt><trkpt lat="43.5997982" lon="11.3063053"><ele>234.0</ele><time>2026-04-26T10:36:40.987Z</time></trkpt><trkpt lat="43.5997951" lon="11.3064078"><ele>234.0</ele><time>2026-04-26T10:36:42.987Z</time></trkpt><trkpt lat="43.5997564" lon="11.3065029"><ele>234.0</ele><time>2026-04-26T10:36:45.987Z</time></trkpt><trkpt lat="43.5996828" lon="11.3065493"><ele>234.42857142857144</ele><time>2026-04-26T10:36:49.987Z</time></trkpt><trkpt lat="43.5996089" lon="11.3065743"><ele>234.8571428571429</ele><time>2026-04-26T10:36:51.987Z</time></trkpt><trkpt lat="43.5995141" lon="11.3066082"><ele>235.28571428571428</ele><time>2026-04-26T10:36:53.987Z</time></trkpt><trkpt lat="43.5994472" lon="11.306608"><ele>235.71428571428572</ele><time>2026-04-26T10:36:54.987Z</time></trkpt><trkpt lat="43.5993835" lon="11.306604"><ele>236.14285714285714</ele><time>2026-04-26T10:36:55.987Z</time></trkpt><trkpt lat="43.5993143" lon="11.3065961"><ele>236.57142857142856</ele><time>2026-04-26T10:36:56.987Z</time></trkpt><trkpt lat="43.5992443" lon="11.3065888"><ele>236.99999999999997</ele><time>2026-04-26T10:36:57.987Z</time></trkpt><trkpt lat="43.5991284" lon="11.3065854"><ele>237.16666666666666</ele><time>2026-04-26T10:36:59.987Z</time></trkpt><trkpt lat="43.5990311" lon="11.3065891"><ele>237.33333333333331</ele><time>2026-04-26T10:37:01.988Z</time></trkpt><trkpt lat="43.5989595" lon="11.3066154"><ele>237.5</ele><time>2026-04-26T10:37:03.987Z</time></trkpt><trkpt lat="43.5988932" lon="11.3067089"><ele>237.66666666666666</ele><time>2026-04-26T10:37:06.988Z</time></trkpt><trkpt lat="43.5988191" lon="11.3067584"><ele>237.83333333333331</ele><time>2026-04-26T10:37:08.987Z</time></trkpt><trkpt lat="43.5987446" lon="11.3068314"><ele>238.0</ele><time>2026-04-26T10:37:10.987Z</time></trkpt><trkpt lat="43.5987075" lon="11.3069426"><ele>238.0</ele><time>2026-04-26T10:37:12.987Z</time></trkpt><trkpt lat="43.5986938" lon="11.307082"><ele>238.0</ele><time>2026-04-26T10:37:14.987Z</time></trkpt><trkpt lat="43.5986843" lon="11.307224"><ele>238.0</ele><time>2026-04-26T10:37:16.987Z</time></trkpt><trkpt lat="43.5986491" lon="11.307359"><ele>238.0</ele><time>2026-04-26T10:37:18.987Z</time></trkpt><trkpt lat="43.5985809" lon="11.307489"><ele>238.0</ele><time>2026-04-26T10:37:20.987Z</time></trkpt><trkpt lat="43.5984788" lon="11.3075884"><ele>241.2</ele><time>2026-04-26T10:37:22.988Z</time></trkpt><trkpt lat="43.5983853" lon="11.3076721"><ele>244.4</ele><time>2026-04-26T10:37:24.987Z</time></trkpt><trkpt lat="43.5983157" lon="11.3077335"><ele>247.59999999999997</ele><time>2026-04-26T10:37:26.987Z</time></trkpt><trkpt lat="43.598228" lon="11.3077663"><ele>250.79999999999998</ele><time>2026-04-26T10:37:28.987Z</time></trkpt><trkpt lat="43.5981083" lon="11.3078002"><ele>254.0</ele><time>2026-04-26T10:37:30.987Z</time></trkpt><trkpt lat="43.598042" lon="11.3078106"><ele>254.0</ele><time>2026-04-26T10:37:31.987Z</time></trkpt><trkpt lat="43.5979761" lon="11.3078204"><ele>253.99999999999997</ele><time>2026-04-26T10:37:32.987Z</time></trkpt><trkpt lat="43.5978532" lon="11.3078506"><ele>253.99999999999997</ele><time>2026-04-26T10:37:34.987Z</time></trkpt><trkpt lat="43.5977434" lon="11.3078803"><ele>254.0</ele><time>2026-04-26T10:37:36.988Z</time></trkpt><trkpt lat="43.5976351" lon="11.3079063"><ele>254.0</ele><time>2026-04-26T10:37:38.987Z</time></trkpt><trkpt lat="43.5975313" lon="11.3079447"><ele>254.83333333333334</ele><time>2026-04-26T10:37:40.987Z</time></trkpt><trkpt lat="43.5974184" lon="11.3079875"><ele>255.66666666666669</ele><time>2026-04-26T10:37:42.987Z</time></trkpt><trkpt lat="43.5973506" lon="11.3080041"><ele>256.5</ele><time>2026-04-26T10:37:43.987Z</time></trkpt><trkpt lat="43.5972842" lon="11.3080245"><ele>257.3333333333333</ele><time>2026-04-26T10:37:44.987Z</time></trkpt><trkpt lat="43.5971573" lon="11.3080547"><ele>258.16666666666663</ele><time>2026-04-26T10:37:46.987Z</time></trkpt><trkpt lat="43.5970948" lon="11.3080681"><ele>259.0</ele><time>2026-04-26T10:37:47.987Z</time></trkpt><trkpt lat="43.597033" lon="11.3080872"><ele>260.0</ele><time>2026-04-26T10:37:48.987Z</time></trkpt><trkpt lat="43.5969668" lon="11.3081031"><ele>261.0</ele><time>2026-04-26T10:37:49.987Z</time></trkpt><trkpt lat="43.5969018" lon="11.3081203"><ele>262.0</ele><time>2026-04-26T10:37:50.988Z</time></trkpt><trkpt lat="43.5967939" lon="11.3081492"><ele>263.0</ele><time>2026-04-26T10:37:52.987Z</time></trkpt><trkpt lat="43.5966984" lon="11.3081703"><ele>264.0</ele><time>2026-04-26T10:37:54.987Z</time></trkpt><trkpt lat="43.5965952" lon="11.3081933"><ele>265.0</ele><time>2026-04-26T10:37:56.987Z</time></trkpt><trkpt lat="43.5964981" lon="11.3082177"><ele>265.0</ele><time>2026-04-26T10:37:58.987Z</time></trkpt><trkpt lat="43.596396" lon="11.3082308"><ele>265.0</ele><time>2026-04-26T10:38:00.987Z</time></trkpt><trkpt lat="43.5962986" lon="11.308245"><ele>265.0</ele><time>2026-04-26T10:38:02.987Z</time></trkpt><trkpt lat="43.5962247" lon="11.3082201"><ele>265.0</ele><time>2026-04-26T10:38:04.987Z</time></trkpt><trkpt lat="43.5961838" lon="11.308146"><ele>265.0</ele><time>2026-04-26T10:38:06.987Z</time></trkpt><trkpt lat="43.5961958" lon="11.308043"><ele>265.0</ele><time>2026-04-26T10:38:08.987Z</time></trkpt><trkpt lat="43.5962165" lon="11.3079324"><ele>264.66666666666663</ele><time>2026-04-26T10:38:10.987Z</time></trkpt><trkpt lat="43.5961947" lon="11.3078482"><ele>264.3333333333333</ele><time>2026-04-26T10:38:12.987Z</time></trkpt><trkpt lat="43.5961363" lon="11.3078134"><ele>264.0</ele><time>2026-04-26T10:38:14.987Z</time></trkpt><trkpt lat="43.5960352" lon="11.3078311"><ele>263.6666666666667</ele><time>2026-04-26T10:38:16.987Z</time></trkpt><trkpt lat="43.5959696" lon="11.3078435"><ele>263.33333333333337</ele><time>2026-04-26T10:38:17.987Z</time></trkpt><trkpt lat="43.5959062" lon="11.307857"><ele>263.0</ele><time>2026-04-26T10:38:18.987Z</time></trkpt><trkpt lat="43.5957855" lon="11.3078923"><ele>264.4</ele><time>2026-04-26T10:38:20.987Z</time></trkpt><trkpt lat="43.5956735" lon="11.3079249"><ele>265.8</ele><time>2026-04-26T10:38:22.987Z</time></trkpt><trkpt lat="43.5955508" lon="11.3079521"><ele>267.2</ele><time>2026-04-26T10:38:24.987Z</time></trkpt><trkpt lat="43.5954827" lon="11.3079714"><ele>268.6</ele><time>2026-04-26T10:38:25.987Z</time></trkpt><trkpt lat="43.5954178" lon="11.3079869"><ele>270.0</ele><time>2026-04-26T10:38:26.988Z</time></trkpt><trkpt lat="43.5953089" lon="11.308005"><ele>270.1666666666667</ele><time>2026-04-26T10:38:28.987Z</time></trkpt><trkpt lat="43.5952135" lon="11.3080334"><ele>270.3333333333333</ele><time>2026-04-26T10:38:30.988Z</time></trkpt><trkpt lat="43.5951464" lon="11.3081237"><ele>270.5</ele><time>2026-04-26T10:38:32.987Z</time></trkpt><trkpt lat="43.5951331" lon="11.3082523"><ele>270.66666666666663</ele><time>2026-04-26T10:38:34.987Z</time></trkpt><trkpt lat="43.5951497" lon="11.3083725"><ele>270.8333333333333</ele><time>2026-04-26T10:38:36.987Z</time></trkpt><trkpt lat="43.5951485" lon="11.3084637"><ele>271.0</ele><time>2026-04-26T10:38:38.987Z</time></trkpt><trkpt lat="43.5950834" lon="11.3085601"><ele>270.5</ele><time>2026-04-26T10:38:42.987Z</time></trkpt><trkpt lat="43.5949781" lon="11.308598"><ele>270.0</ele><time>2026-04-26T10:38:44.987Z</time></trkpt><trkpt lat="43.5949051" lon="11.3086114"><ele>269.5</ele><time>2026-04-26T10:38:45.988Z</time></trkpt><trkpt lat="43.5948266" lon="11.3086232"><ele>269.0</ele><time>2026-04-26T10:38:46.987Z</time></trkpt><trkpt lat="43.5947567" lon="11.3086387"><ele>268.5</ele><time>2026-04-26T10:38:47.987Z</time></trkpt><trkpt lat="43.5946911" lon="11.308652"><ele>268.0</ele><time>2026-04-26T10:38:48.987Z</time></trkpt><trkpt lat="43.5946274" lon="11.3086581"><ele>268.0</ele><time>2026-04-26T10:38:49.988Z</time></trkpt><trkpt lat="43.5945198" lon="11.3086791"><ele>268.0</ele><time>2026-04-26T10:38:51.987Z</time></trkpt><trkpt lat="43.5944353" lon="11.3087005"><ele>268.0</ele><time>2026-04-26T10:38:53.988Z</time></trkpt><trkpt lat="43.5943508" lon="11.308722"><ele>268.0</ele><time>2026-04-26T10:38:55.987Z</time></trkpt><trkpt lat="43.5942869" lon="11.3087375"><ele>268.0</ele><time>2026-04-26T10:38:57.987Z</time></trkpt><trkpt lat="43.5942182" lon="11.3086839"><ele>268.0</ele><time>2026-04-26T10:39:01.987Z</time></trkpt><trkpt lat="43.5942246" lon="11.3085803"><ele>267.4</ele><time>2026-04-26T10:39:03.987Z</time></trkpt><trkpt lat="43.5942473" lon="11.3084128"><ele>266.8</ele><time>2026-04-26T10:39:05.987Z</time></trkpt><trkpt lat="43.5942613" lon="11.3083086"><ele>266.2</ele><time>2026-04-26T10:39:06.987Z</time></trkpt><trkpt lat="43.594276" lon="11.3082023"><ele>265.6</ele><time>2026-04-26T10:39:07.988Z</time></trkpt><trkpt lat="43.5942882" lon="11.3080868"><ele>265.0</ele><time>2026-04-26T10:39:08.987Z</time></trkpt><trkpt lat="43.5943005" lon="11.3079567"><ele>265.0</ele><time>2026-04-26T10:39:09.987Z</time></trkpt><trkpt lat="43.5943158" lon="11.3078217"><ele>265.0</ele><time>2026-04-26T10:39:10.987Z</time></trkpt><trkpt lat="43.5943285" lon="11.3076803"><ele>265.0</ele><time>2026-04-26T10:39:11.987Z</time></trkpt><trkpt lat="43.5943439" lon="11.3075385"><ele>265.0</ele><time>2026-04-26T10:39:12.988Z</time></trkpt><trkpt lat="43.5943615" lon="11.3073829"><ele>265.0</ele><time>2026-04-26T10:39:13.987Z</time></trkpt><trkpt lat="43.5943771" lon="11.3072193"><ele>266.0</ele><time>2026-04-26T10:39:14.988Z</time></trkpt><trkpt lat="43.5943961" lon="11.3070555"><ele>267.0</ele><time>2026-04-26T10:39:15.987Z</time></trkpt><trkpt lat="43.594412" lon="11.3068924"><ele>268.0</ele><time>2026-04-26T10:39:16.987Z</time></trkpt><trkpt lat="43.5944304" lon="11.3067355"><ele>269.0</ele><time>2026-04-26T10:39:17.987Z</time></trkpt><trkpt lat="43.594447" lon="11.3065821"><ele>269.0</ele><time>2026-04-26T10:39:18.987Z</time></trkpt><trkpt lat="43.5944597" lon="11.3064272"><ele>269.0</ele><time>2026-04-26T10:39:19.988Z</time></trkpt><trkpt lat="43.594475" lon="11.3062716"><ele>269.0</ele><time>2026-04-26T10:39:20.987Z</time></trkpt><trkpt lat="43.5944853" lon="11.3061104"><ele>269.0</ele><time>2026-04-26T10:39:21.988Z</time></trkpt><trkpt lat="43.5944906" lon="11.3059436"><ele>269.0</ele><time>2026-04-26T10:39:22.987Z</time></trkpt><trkpt lat="43.5944894" lon="11.3057711"><ele>269.0</ele><time>2026-04-26T10:39:23.987Z</time></trkpt><trkpt lat="43.5944879" lon="11.3055965"><ele>269.0</ele><time>2026-04-26T10:39:24.987Z</time></trkpt><trkpt lat="43.5944824" lon="11.3054252"><ele>269.0</ele><time>2026-04-26T10:39:25.988Z</time></trkpt><trkpt lat="43.5944784" lon="11.3052591"><ele>269.8</ele><time>2026-04-26T10:39:26.987Z</time></trkpt><trkpt lat="43.5944721" lon="11.3050975"><ele>270.59999999999997</ele><time>2026-04-26T10:39:27.987Z</time></trkpt><trkpt lat="43.5944662" lon="11.3049441"><ele>271.4</ele><time>2026-04-26T10:39:28.987Z</time></trkpt><trkpt lat="43.594463" lon="11.304795"><ele>272.2</ele><time>2026-04-26T10:39:29.987Z</time></trkpt><trkpt lat="43.5944611" lon="11.3046509"><ele>273.0</ele><time>2026-04-26T10:39:30.988Z</time></trkpt><trkpt lat="43.5944611" lon="11.3045182"><ele>274.1666666666667</ele><time>2026-04-26T10:39:31.988Z</time></trkpt><trkpt lat="43.594458" lon="11.3044079"><ele>275.3333333333333</ele><time>2026-04-26T10:39:32.987Z</time></trkpt><trkpt lat="43.594452" lon="11.3042668"><ele>276.5</ele><time>2026-04-26T10:39:34.987Z</time></trkpt><trkpt lat="43.5944244" lon="11.3041829"><ele>277.66666666666663</ele><time>2026-04-26T10:39:36.987Z</time></trkpt><trkpt lat="43.5943702" lon="11.3040963"><ele>278.8333333333333</ele><time>2026-04-26T10:39:38.987Z</time></trkpt><trkpt lat="43.5943305" lon="11.3040283"><ele>280.0</ele><time>2026-04-26T10:39:39.988Z</time></trkpt><trkpt lat="43.5942806" lon="11.3039563"><ele>281.16666666666663</ele><time>2026-04-26T10:39:40.987Z</time></trkpt><trkpt lat="43.594233" lon="11.3038765"><ele>282.3333333333333</ele><time>2026-04-26T10:39:41.987Z</time></trkpt><trkpt lat="43.5941778" lon="11.3037884"><ele>283.5</ele><time>2026-04-26T10:39:42.988Z</time></trkpt><trkpt lat="43.5941202" lon="11.3036957"><ele>284.6666666666667</ele><time>2026-04-26T10:39:43.987Z</time></trkpt><trkpt lat="43.5940673" lon="11.3036086"><ele>285.83333333333337</ele><time>2026-04-26T10:39:44.987Z</time></trkpt><trkpt lat="43.5940198" lon="11.3035299"><ele>287.0</ele><time>2026-04-26T10:39:45.987Z</time></trkpt><trkpt lat="43.5939747" lon="11.303455"><ele>287.0</ele><time>2026-04-26T10:39:46.987Z</time></trkpt><trkpt lat="43.5939303" lon="11.3033816"><ele>287.0</ele><time>2026-04-26T10:39:47.987Z</time></trkpt><trkpt lat="43.5938848" lon="11.303311"><ele>287.0</ele><time>2026-04-26T10:39:48.987Z</time></trkpt><trkpt lat="43.5938392" lon="11.3032395"><ele>287.0</ele><time>2026-04-26T10:39:49.987Z</time></trkpt><trkpt lat="43.5937924" lon="11.3031743"><ele>287.0</ele><time>2026-04-26T10:39:50.988Z</time></trkpt><trkpt lat="43.5937122" lon="11.3030471"><ele>287.0</ele><time>2026-04-26T10:39:52.987Z</time></trkpt><trkpt lat="43.5936638" lon="11.3029897"><ele>286.85714285714283</ele><time>2026-04-26T10:39:53.987Z</time></trkpt><trkpt lat="43.5936015" lon="11.3029475"><ele>286.7142857142857</ele><time>2026-04-26T10:39:54.988Z</time></trkpt><trkpt lat="43.5935367" lon="11.3029026"><ele>286.57142857142856</ele><time>2026-04-26T10:39:55.987Z</time></trkpt><trkpt lat="43.5934706" lon="11.30286"><ele>286.42857142857144</ele><time>2026-04-26T10:39:56.987Z</time></trkpt><trkpt lat="43.5934035" lon="11.3028006"><ele>286.2857142857143</ele><time>2026-04-26T10:39:57.987Z</time></trkpt><trkpt lat="43.5933457" lon="11.3027354"><ele>286.1428571428571</ele><time>2026-04-26T10:39:58.988Z</time></trkpt><trkpt lat="43.5932933" lon="11.3026776"><ele>286.0</ele><time>2026-04-26T10:39:59.987Z</time></trkpt><trkpt lat="43.5932389" lon="11.3026152"><ele>285.99999999999994</ele><time>2026-04-26T10:40:00.987Z</time></trkpt><trkpt lat="43.5931847" lon="11.3025505"><ele>286.0</ele><time>2026-04-26T10:40:01.988Z</time></trkpt><trkpt lat="43.5931353" lon="11.3024787"><ele>286.0</ele><time>2026-04-26T10:40:02.988Z</time></trkpt><trkpt lat="43.5930805" lon="11.3024042"><ele>286.0</ele><time>2026-04-26T10:40:03.988Z</time></trkpt><trkpt lat="43.5930281" lon="11.302332"><ele>286.0</ele><time>2026-04-26T10:40:04.988Z</time></trkpt><trkpt lat="43.5929747" lon="11.3022614"><ele>285.99999999999994</ele><time>2026-04-26T10:40:05.987Z</time></trkpt><trkpt lat="43.5929201" lon="11.3021962"><ele>286.0</ele><time>2026-04-26T10:40:06.987Z</time></trkpt><trkpt lat="43.5928235" lon="11.3020826"><ele>286.2857142857143</ele><time>2026-04-26T10:40:08.987Z</time></trkpt><trkpt lat="43.5927775" lon="11.3020169"><ele>286.57142857142856</ele><time>2026-04-26T10:40:09.987Z</time></trkpt><trkpt lat="43.5927303" lon="11.3019433"><ele>286.8571428571429</ele><time>2026-04-26T10:40:10.988Z</time></trkpt><trkpt lat="43.592691" lon="11.3018739"><ele>287.1428571428571</ele><time>2026-04-26T10:40:11.987Z</time></trkpt><trkpt lat="43.5926544" lon="11.3017987"><ele>287.42857142857144</ele><time>2026-04-26T10:40:12.987Z</time></trkpt><trkpt lat="43.5926184" lon="11.3017179"><ele>287.7142857142857</ele><time>2026-04-26T10:40:13.987Z</time></trkpt><trkpt lat="43.5925869" lon="11.30163"><ele>288.0</ele><time>2026-04-26T10:40:14.988Z</time></trkpt><trkpt lat="43.59256" lon="11.301542"><ele>288.0</ele><time>2026-04-26T10:40:15.987Z</time></trkpt><trkpt lat="43.5925324" lon="11.301462"><ele>288.0</ele><time>2026-04-26T10:40:16.988Z</time></trkpt><trkpt lat="43.5924978" lon="11.3013877"><ele>288.0</ele><time>2026-04-26T10:40:17.987Z</time></trkpt><trkpt lat="43.592414" lon="11.3012699"><ele>288.0</ele><time>2026-04-26T10:40:19.987Z</time></trkpt><trkpt lat="43.5923313" lon="11.3011441"><ele>288.0</ele><time>2026-04-26T10:40:21.987Z</time></trkpt><trkpt lat="43.5922863" lon="11.3010736"><ele>288.0</ele><time>2026-04-26T10:40:22.987Z</time></trkpt><trkpt lat="43.5922467" lon="11.301004"><ele>287.5714285714286</ele><time>2026-04-26T10:40:23.987Z</time></trkpt><trkpt lat="43.592204" lon="11.3009195"><ele>287.14285714285717</ele><time>2026-04-26T10:40:24.987Z</time></trkpt><trkpt lat="43.5921663" lon="11.3008272"><ele>286.7142857142857</ele><time>2026-04-26T10:40:25.987Z</time></trkpt><trkpt lat="43.5921311" lon="11.3007312"><ele>286.28571428571433</ele><time>2026-04-26T10:40:26.988Z</time></trkpt><trkpt lat="43.5920943" lon="11.3006397"><ele>285.8571428571429</ele><time>2026-04-26T10:40:27.987Z</time></trkpt><trkpt lat="43.5920592" lon="11.3005522"><ele>285.42857142857144</ele><time>2026-04-26T10:40:28.987Z</time></trkpt><trkpt lat="43.5920293" lon="11.3004753"><ele>285.0</ele><time>2026-04-26T10:40:29.988Z</time></trkpt><trkpt lat="43.5919888" lon="11.3003273"><ele>285.0</ele><time>2026-04-26T10:40:31.987Z</time></trkpt><trkpt lat="43.591971" lon="11.3001653"><ele>285.0</ele><time>2026-04-26T10:40:33.987Z</time></trkpt><trkpt lat="43.5919509" lon="11.3000807"><ele>285.0</ele><time>2026-04-26T10:40:34.987Z</time></trkpt><trkpt lat="43.5919193" lon="11.3000001"><ele>285.0</ele><time>2026-04-26T10:40:35.987Z</time></trkpt><trkpt lat="43.591886" lon="11.2999263"><ele>285.0</ele><time>2026-04-26T10:40:36.987Z</time></trkpt><trkpt lat="43.5918535" lon="11.2998483"><ele>285.0</ele><time>2026-04-26T10:40:37.987Z</time></trkpt><trkpt lat="43.5918267" lon="11.2997551"><ele>286.6</ele><time>2026-04-26T10:40:38.988Z</time></trkpt><trkpt lat="43.5917979" lon="11.299663"><ele>288.2</ele><time>2026-04-26T10:40:39.987Z</time></trkpt><trkpt lat="43.5917654" lon="11.2995742"><ele>289.8</ele><time>2026-04-26T10:40:40.987Z</time></trkpt><trkpt lat="43.5917123" lon="11.2994164"><ele>291.4</ele><time>2026-04-26T10:40:42.987Z</time></trkpt><trkpt lat="43.5916851" lon="11.299243"><ele>293.0</ele><time>2026-04-26T10:40:44.987Z</time></trkpt><trkpt lat="43.591674" lon="11.299156"><ele>293.0</ele><time>2026-04-26T10:40:45.988Z</time></trkpt><trkpt lat="43.5916452" lon="11.299013"><ele>293.0</ele><time>2026-04-26T10:40:47.987Z</time></trkpt><trkpt lat="43.5916215" lon="11.2988724"><ele>293.0</ele><time>2026-04-26T10:40:49.987Z</time></trkpt><trkpt lat="43.5915895" lon="11.298735"><ele>293.0</ele><time>2026-04-26T10:40:51.987Z</time></trkpt><trkpt lat="43.591566" lon="11.2986197"><ele>293.0</ele><time>2026-04-26T10:40:53.987Z</time></trkpt><trkpt lat="43.5915442" lon="11.2985089"><ele>292.6666666666667</ele><time>2026-04-26T10:40:55.987Z</time></trkpt><trkpt lat="43.5915331" lon="11.2983884"><ele>292.33333333333337</ele><time>2026-04-26T10:40:57.987Z</time></trkpt><trkpt lat="43.5915376" lon="11.2982538"><ele>292.0</ele><time>2026-04-26T10:40:59.988Z</time></trkpt><trkpt lat="43.59154" lon="11.2981566"><ele>291.6666666666667</ele><time>2026-04-26T10:41:01.987Z</time></trkpt><trkpt lat="43.5915552" lon="11.2980583"><ele>291.3333333333333</ele><time>2026-04-26T10:41:04.987Z</time></trkpt><trkpt lat="43.5915946" lon="11.2979359"><ele>291.0</ele><time>2026-04-26T10:41:07.987Z</time></trkpt><trkpt lat="43.5915535" lon="11.2980316"><ele>292.0</ele><time>2026-04-26T10:41:43.987Z</time></trkpt><trkpt lat="43.5915299" lon="11.29813"><ele>293.0</ele><time>2026-04-26T10:41:46.987Z</time></trkpt><trkpt lat="43.5915226" lon="11.2982518"><ele>294.0</ele><time>2026-04-26T10:41:49.988Z</time></trkpt><trkpt lat="43.5915216" lon="11.2984471"><ele>295.0</ele><time>2026-04-26T10:44:49.983Z</time></trkpt><trkpt lat="43.591543" lon="11.2985573"><ele>296.0</ele><time>2026-04-26T10:44:51.983Z</time></trkpt><trkpt lat="43.5915735" lon="11.2986887"><ele>296.0</ele><time>2026-04-26T10:44:53.985Z</time></trkpt><trkpt lat="43.5916073" lon="11.2988046"><ele>296.0</ele><time>2026-04-26T10:44:55.983Z</time></trkpt><trkpt lat="43.5916277" lon="11.298889"><ele>296.0</ele><time>2026-04-26T10:44:57.983Z</time></trkpt><trkpt lat="43.5916379" lon="11.2989832"><ele>296.0</ele><time>2026-04-26T10:45:08.984Z</time></trkpt><trkpt lat="43.5915819" lon="11.2989307"><ele>296.0</ele><time>2026-04-26T10:45:32.986Z</time></trkpt><trkpt lat="43.5915435" lon="11.2988381"><ele>296.0</ele><time>2026-04-26T10:45:56.982Z</time></trkpt><trkpt lat="43.5915016" lon="11.298737"><ele>296.0</ele><time>2026-04-26T10:45:57.993Z</time></trkpt><trkpt lat="43.5914621" lon="11.2986399"><ele>296.0</ele><time>2026-04-26T10:45:58.982Z</time></trkpt><trkpt lat="43.5914264" lon="11.2985437"><ele>296.0</ele><time>2026-04-26T10:45:59.992Z</time></trkpt><trkpt lat="43.5913669" lon="11.2983796"><ele>296.0</ele><time>2026-04-26T10:46:01.986Z</time></trkpt><trkpt lat="43.5913406" lon="11.2982887"><ele>296.0</ele><time>2026-04-26T10:46:02.983Z</time></trkpt><trkpt lat="43.5913113" lon="11.298187"><ele>296.0</ele><time>2026-04-26T10:46:03.983Z</time></trkpt><trkpt lat="43.5913" lon="11.2981014"><ele>295.0</ele><time>2026-04-26T10:46:04.981Z</time></trkpt><trkpt lat="43.5912943" lon="11.2980057"><ele>294.0</ele><time>2026-04-26T10:46:05.981Z</time></trkpt><trkpt lat="43.5912861" lon="11.2979172"><ele>293.0</ele><time>2026-04-26T10:46:06.983Z</time></trkpt><trkpt lat="43.5912789" lon="11.2978199"><ele>292.0</ele><time>2026-04-26T10:46:07.984Z</time></trkpt><trkpt lat="43.5912744" lon="11.2975954"><ele>291.0</ele><time>2026-04-26T10:46:09.981Z</time></trkpt><trkpt lat="43.5912864" lon="11.2974544"><ele>291.0</ele><time>2026-04-26T10:46:10.981Z</time></trkpt><trkpt lat="43.5913006" lon="11.2973139"><ele>291.0</ele><time>2026-04-26T10:46:11.981Z</time></trkpt><trkpt lat="43.5913096" lon="11.2971809"><ele>291.0</ele><time>2026-04-26T10:46:12.981Z</time></trkpt><trkpt lat="43.5913277" lon="11.2970432"><ele>291.0</ele><time>2026-04-26T10:46:13.989Z</time></trkpt><trkpt lat="43.5912973" lon="11.2969259"><ele>291.0</ele><time>2026-04-26T10:46:14.984Z</time></trkpt><trkpt lat="43.5912781" lon="11.2968301"><ele>289.6666666666667</ele><time>2026-04-26T10:46:15.982Z</time></trkpt><trkpt lat="43.591242" lon="11.2967119"><ele>288.3333333333333</ele><time>2026-04-26T10:46:17.984Z</time></trkpt><trkpt lat="43.591203" lon="11.2966041"><ele>287.0</ele><time>2026-04-26T10:46:20.98Z</time></trkpt><trkpt lat="43.5911382" lon="11.2965845"><ele>285.66666666666663</ele><time>2026-04-26T10:46:23.985Z</time></trkpt><trkpt lat="43.5911343" lon="11.2966872"><ele>284.3333333333333</ele><time>2026-04-26T10:46:26.984Z</time></trkpt><trkpt lat="43.5912111" lon="11.2967457"><ele>283.0</ele><time>2026-04-26T10:46:28.985Z</time></trkpt><trkpt lat="43.5912944" lon="11.2968544"><ele>283.0</ele><time>2026-04-26T10:46:30.983Z</time></trkpt><trkpt lat="43.5913158" lon="11.2969514"><ele>283.0</ele><time>2026-04-26T10:46:31.982Z</time></trkpt><trkpt lat="43.5913165" lon="11.2970647"><ele>283.0</ele><time>2026-04-26T10:46:32.984Z</time></trkpt><trkpt lat="43.5913065" lon="11.2971854"><ele>283.0</ele><time>2026-04-26T10:46:33.983Z</time></trkpt><trkpt lat="43.5912959" lon="11.2972881"><ele>283.0</ele><time>2026-04-26T10:46:34.981Z</time></trkpt><trkpt lat="43.5912872" lon="11.2973973"><ele>283.0</ele><time>2026-04-26T10:46:35.995Z</time></trkpt><trkpt lat="43.5912802" lon="11.297497"><ele>284.3333333333333</ele><time>2026-04-26T10:46:36.984Z</time></trkpt><trkpt lat="43.5912743" lon="11.2975859"><ele>285.66666666666663</ele><time>2026-04-26T10:46:37.986Z</time></trkpt><trkpt lat="43.5912679" lon="11.2976913"><ele>287.0</ele><time>2026-04-26T10:46:38.982Z</time></trkpt><trkpt lat="43.5912707" lon="11.2978006"><ele>288.3333333333333</ele><time>2026-04-26T10:46:39.984Z</time></trkpt><trkpt lat="43.5912821" lon="11.2979284"><ele>289.6666666666667</ele><time>2026-04-26T10:46:40.981Z</time></trkpt><trkpt lat="43.5913134" lon="11.2980293"><ele>291.0</ele><time>2026-04-26T10:46:41.982Z</time></trkpt><trkpt lat="43.5913264" lon="11.2981544"><ele>292.0</ele><time>2026-04-26T10:46:42.992Z</time></trkpt><trkpt lat="43.5913436" lon="11.2982634"><ele>293.0</ele><time>2026-04-26T10:46:43.984Z</time></trkpt><trkpt lat="43.5914234" lon="11.2984333"><ele>294.0</ele><time>2026-04-26T10:46:45.981Z</time></trkpt><trkpt lat="43.5914482" lon="11.2985414"><ele>295.0</ele><time>2026-04-26T10:46:46.983Z</time></trkpt><trkpt lat="43.5914982" lon="11.2986536"><ele>296.0</ele><time>2026-04-26T10:46:47.985Z</time></trkpt><trkpt lat="43.5915428" lon="11.2987647"><ele>296.0</ele><time>2026-04-26T10:46:48.983Z</time></trkpt><trkpt lat="43.5915815" lon="11.2988597"><ele>296.0</ele><time>2026-04-26T10:46:49.982Z</time></trkpt><trkpt lat="43.5916282" lon="11.2989716"><ele>296.0</ele><time>2026-04-26T10:46:51.985Z</time></trkpt><trkpt lat="43.5916562" lon="11.2990809"><ele>296.0</ele><time>2026-04-26T10:47:19.982Z</time></trkpt><trkpt lat="43.5916767" lon="11.2991811"><ele>296.0</ele><time>2026-04-26T10:47:21.981Z</time></trkpt><trkpt lat="43.5916936" lon="11.2993365"><ele>296.0</ele><time>2026-04-26T10:47:23.982Z</time></trkpt><trkpt lat="43.5917414" lon="11.2994974"><ele>295.40000000000003</ele><time>2026-04-26T10:47:25.985Z</time></trkpt><trkpt lat="43.591775" lon="11.2995757"><ele>294.8</ele><time>2026-04-26T10:47:26.985Z</time></trkpt><trkpt lat="43.5918338" lon="11.2997444"><ele>294.20000000000005</ele><time>2026-04-26T10:47:28.983Z</time></trkpt><trkpt lat="43.5918752" lon="11.2998882"><ele>293.6</ele><time>2026-04-26T10:47:30.982Z</time></trkpt><trkpt lat="43.5919209" lon="11.2999851"><ele>293.0</ele><time>2026-04-26T10:47:32.981Z</time></trkpt><trkpt lat="43.5919606" lon="11.3000908"><ele>294.1666666666667</ele><time>2026-04-26T10:47:34.981Z</time></trkpt><trkpt lat="43.5919808" lon="11.3002198"><ele>295.33333333333337</ele><time>2026-04-26T10:47:36.981Z</time></trkpt><trkpt lat="43.5919993" lon="11.300337"><ele>296.5</ele><time>2026-04-26T10:47:38.982Z</time></trkpt><trkpt lat="43.5920525" lon="11.3004749"><ele>297.6666666666667</ele><time>2026-04-26T10:47:40.981Z</time></trkpt><trkpt lat="43.592086" lon="11.3005613"><ele>298.8333333333333</ele><time>2026-04-26T10:47:41.985Z</time></trkpt><trkpt lat="43.5921238" lon="11.3006554"><ele>300.0</ele><time>2026-04-26T10:47:42.982Z</time></trkpt><trkpt lat="43.5921598" lon="11.3007581"><ele>300.0</ele><time>2026-04-26T10:47:43.982Z</time></trkpt><trkpt lat="43.5921942" lon="11.3008574"><ele>300.0</ele><time>2026-04-26T10:47:44.982Z</time></trkpt><trkpt lat="43.5922379" lon="11.3009566"><ele>300.0</ele><time>2026-04-26T10:47:45.983Z</time></trkpt><trkpt lat="43.5922786" lon="11.3010368"><ele>300.0</ele><time>2026-04-26T10:47:46.98Z</time></trkpt><trkpt lat="43.5923267" lon="11.301125"><ele>300.0</ele><time>2026-04-26T10:47:47.982Z</time></trkpt><trkpt lat="43.5923755" lon="11.3011954"><ele>300.0</ele><time>2026-04-26T10:47:48.982Z</time></trkpt><trkpt lat="43.5924252" lon="11.3012667"><ele>300.0</ele><time>2026-04-26T10:47:49.983Z</time></trkpt><trkpt lat="43.5925039" lon="11.3013903"><ele>300.0</ele><time>2026-04-26T10:47:51.984Z</time></trkpt><trkpt lat="43.5925555" lon="11.3015361"><ele>300.0</ele><time>2026-04-26T10:47:53.984Z</time></trkpt><trkpt lat="43.5925825" lon="11.301621"><ele>300.0</ele><time>2026-04-26T10:47:54.987Z</time></trkpt><trkpt lat="43.5926153" lon="11.3017173"><ele>300.0</ele><time>2026-04-26T10:47:55.983Z</time></trkpt><trkpt lat="43.5926578" lon="11.3018087"><ele>300.2857142857143</ele><time>2026-04-26T10:47:56.984Z</time></trkpt><trkpt lat="43.5927062" lon="11.3018931"><ele>300.57142857142856</ele><time>2026-04-26T10:47:57.982Z</time></trkpt><trkpt lat="43.5927564" lon="11.3019732"><ele>300.8571428571429</ele><time>2026-04-26T10:47:58.983Z</time></trkpt><trkpt lat="43.5928053" lon="11.3020454"><ele>301.1428571428571</ele><time>2026-04-26T10:47:59.983Z</time></trkpt><trkpt lat="43.5928565" lon="11.3021126"><ele>301.42857142857144</ele><time>2026-04-26T10:48:00.982Z</time></trkpt><trkpt lat="43.5929088" lon="11.3021748"><ele>301.7142857142857</ele><time>2026-04-26T10:48:01.983Z</time></trkpt><trkpt lat="43.5929662" lon="11.3022448"><ele>302.0</ele><time>2026-04-26T10:48:02.985Z</time></trkpt><trkpt lat="43.593068" lon="11.3023805"><ele>298.8</ele><time>2026-04-26T10:48:04.982Z</time></trkpt><trkpt lat="43.5931123" lon="11.3024424"><ele>295.6</ele><time>2026-04-26T10:48:05.984Z</time></trkpt><trkpt lat="43.5931957" lon="11.302562"><ele>292.40000000000003</ele><time>2026-04-26T10:48:07.98Z</time></trkpt><trkpt lat="43.5932734" lon="11.3026512"><ele>289.2</ele><time>2026-04-26T10:48:09.986Z</time></trkpt><trkpt lat="43.5933533" lon="11.3027416"><ele>286.0</ele><time>2026-04-26T10:48:11.989Z</time></trkpt><trkpt lat="43.5934358" lon="11.3028288"><ele>286.0</ele><time>2026-04-26T10:48:13.982Z</time></trkpt><trkpt lat="43.5935446" lon="11.3029035"><ele>286.0</ele><time>2026-04-26T10:48:15.984Z</time></trkpt><trkpt lat="43.5936083" lon="11.3029486"><ele>286.0</ele><time>2026-04-26T10:48:16.984Z</time></trkpt><trkpt lat="43.5936644" lon="11.3029941"><ele>286.0</ele><time>2026-04-26T10:48:17.981Z</time></trkpt><trkpt lat="43.5937159" lon="11.3030512"><ele>286.0</ele><time>2026-04-26T10:48:18.983Z</time></trkpt><trkpt lat="43.5937688" lon="11.3031185"><ele>286.0</ele><time>2026-04-26T10:48:19.982Z</time></trkpt><trkpt lat="43.5938236" lon="11.3032134"><ele>286.2</ele><time>2026-04-26T10:48:20.983Z</time></trkpt><trkpt lat="43.5938835" lon="11.3033085"><ele>286.40000000000003</ele><time>2026-04-26T10:48:21.986Z</time></trkpt><trkpt lat="43.593946" lon="11.3034033"><ele>286.6</ele><time>2026-04-26T10:48:22.983Z</time></trkpt><trkpt lat="43.5940053" lon="11.3035021"><ele>286.8</ele><time>2026-04-26T10:48:23.984Z</time></trkpt><trkpt lat="43.5940676" lon="11.3036039"><ele>287.0</ele><time>2026-04-26T10:48:24.992Z</time></trkpt><trkpt lat="43.594126" lon="11.3037028"><ele>287.0</ele><time>2026-04-26T10:48:25.983Z</time></trkpt><trkpt lat="43.594183" lon="11.3037925"><ele>287.0</ele><time>2026-04-26T10:48:26.98Z</time></trkpt><trkpt lat="43.5942377" lon="11.3038795"><ele>287.0</ele><time>2026-04-26T10:48:27.983Z</time></trkpt><trkpt lat="43.5942857" lon="11.3039555"><ele>287.0</ele><time>2026-04-26T10:48:28.985Z</time></trkpt><trkpt lat="43.594329" lon="11.3040193"><ele>287.0</ele><time>2026-04-26T10:48:29.983Z</time></trkpt><trkpt lat="43.5943858" lon="11.3041165"><ele>287.0</ele><time>2026-04-26T10:48:31.982Z</time></trkpt><trkpt lat="43.5944224" lon="11.3041959"><ele>285.25</ele><time>2026-04-26T10:48:33.981Z</time></trkpt><trkpt lat="43.5944558" lon="11.3044601"><ele>283.5</ele><time>2026-04-26T10:48:36.983Z</time></trkpt><trkpt lat="43.5944574" lon="11.3045928"><ele>281.75</ele><time>2026-04-26T10:48:37.982Z</time></trkpt><trkpt lat="43.5944602" lon="11.3047472"><ele>280.0</ele><time>2026-04-26T10:48:38.981Z</time></trkpt><trkpt lat="43.5944652" lon="11.304917"><ele>278.25</ele><time>2026-04-26T10:48:39.99Z</time></trkpt><trkpt lat="43.5944728" lon="11.3051017"><ele>276.5</ele><time>2026-04-26T10:48:40.981Z</time></trkpt><trkpt lat="43.5944796" lon="11.305297"><ele>274.75</ele><time>2026-04-26T10:48:41.985Z</time></trkpt><trkpt lat="43.5944837" lon="11.3055"><ele>273.0</ele><time>2026-04-26T10:48:42.985Z</time></trkpt><trkpt lat="43.5944881" lon="11.305703"><ele>272.0</ele><time>2026-04-26T10:48:43.983Z</time></trkpt><trkpt lat="43.594488" lon="11.3058997"><ele>271.0</ele><time>2026-04-26T10:48:44.986Z</time></trkpt><trkpt lat="43.594481" lon="11.3061006"><ele>270.0</ele><time>2026-04-26T10:48:45.983Z</time></trkpt><trkpt lat="43.5944671" lon="11.3062973"><ele>269.0</ele><time>2026-04-26T10:48:46.982Z</time></trkpt><trkpt lat="43.5944474" lon="11.3064918"><ele>269.0</ele><time>2026-04-26T10:48:47.983Z</time></trkpt><trkpt lat="43.5944295" lon="11.3066961"><ele>269.0</ele><time>2026-04-26T10:48:48.986Z</time></trkpt><trkpt lat="43.5944096" lon="11.3069005"><ele>269.0</ele><time>2026-04-26T10:48:49.982Z</time></trkpt><trkpt lat="43.5943911" lon="11.3071014"><ele>269.0</ele><time>2026-04-26T10:48:50.984Z</time></trkpt><trkpt lat="43.5943698" lon="11.3072944"><ele>268.0</ele><time>2026-04-26T10:48:51.982Z</time></trkpt><trkpt lat="43.5943511" lon="11.3074737"><ele>267.0</ele><time>2026-04-26T10:48:52.984Z</time></trkpt><trkpt lat="43.5943329" lon="11.3076431"><ele>266.0</ele><time>2026-04-26T10:48:53.983Z</time></trkpt><trkpt lat="43.5943191" lon="11.3078079"><ele>265.0</ele><time>2026-04-26T10:48:54.987Z</time></trkpt><trkpt lat="43.5943041" lon="11.3079703"><ele>264.4</ele><time>2026-04-26T10:48:55.983Z</time></trkpt><trkpt lat="43.5942868" lon="11.3081268"><ele>263.8</ele><time>2026-04-26T10:48:56.984Z</time></trkpt><trkpt lat="43.5942697" lon="11.3082758"><ele>263.2</ele><time>2026-04-26T10:48:57.987Z</time></trkpt><trkpt lat="43.5942528" lon="11.3084181"><ele>262.6</ele><time>2026-04-26T10:48:58.986Z</time></trkpt><trkpt lat="43.5942383" lon="11.3085537"><ele>262.0</ele><time>2026-04-26T10:48:59.985Z</time></trkpt><trkpt lat="43.5942258" lon="11.3086767"><ele>262.0</ele><time>2026-04-26T10:49:00.983Z</time></trkpt><trkpt lat="43.5942076" lon="11.3087985"><ele>262.0</ele><time>2026-04-26T10:49:01.989Z</time></trkpt><trkpt lat="43.594187" lon="11.3089072"><ele>262.0</ele><time>2026-04-26T10:49:02.986Z</time></trkpt><trkpt lat="43.5941531" lon="11.3090178"><ele>262.0</ele><time>2026-04-26T10:49:03.987Z</time></trkpt><trkpt lat="43.5941266" lon="11.3091278"><ele>262.0</ele><time>2026-04-26T10:49:04.985Z</time></trkpt><trkpt lat="43.5941018" lon="11.3092232"><ele>262.0</ele><time>2026-04-26T10:49:05.982Z</time></trkpt><trkpt lat="43.5940773" lon="11.3093213"><ele>261.8333333333333</ele><time>2026-04-26T10:49:06.983Z</time></trkpt><trkpt lat="43.5940511" lon="11.3094268"><ele>261.66666666666663</ele><time>2026-04-26T10:49:07.98Z</time></trkpt><trkpt lat="43.5940233" lon="11.3095273"><ele>261.5</ele><time>2026-04-26T10:49:08.984Z</time></trkpt><trkpt lat="43.5939963" lon="11.309627"><ele>261.3333333333333</ele><time>2026-04-26T10:49:09.985Z</time></trkpt><trkpt lat="43.5939714" lon="11.3097305"><ele>261.1666666666667</ele><time>2026-04-26T10:49:10.984Z</time></trkpt><trkpt lat="43.5939479" lon="11.3098362"><ele>261.0</ele><time>2026-04-26T10:49:11.982Z</time></trkpt><trkpt lat="43.5939203" lon="11.3099436"><ele>260.6666666666667</ele><time>2026-04-26T10:49:12.987Z</time></trkpt><trkpt lat="43.5938878" lon="11.3100427"><ele>260.3333333333333</ele><time>2026-04-26T10:49:13.991Z</time></trkpt><trkpt lat="43.5938392" lon="11.3101295"><ele>260.0</ele><time>2026-04-26T10:49:14.981Z</time></trkpt><trkpt lat="43.5937795" lon="11.3102001"><ele>259.66666666666663</ele><time>2026-04-26T10:49:15.983Z</time></trkpt><trkpt lat="43.593711" lon="11.3102567"><ele>259.3333333333333</ele><time>2026-04-26T10:49:16.985Z</time></trkpt><trkpt lat="43.5936336" lon="11.3103067"><ele>259.0</ele><time>2026-04-26T10:49:17.982Z</time></trkpt><trkpt lat="43.5935532" lon="11.3103549"><ele>257.8333333333333</ele><time>2026-04-26T10:49:18.985Z</time></trkpt><trkpt lat="43.5934748" lon="11.3104011"><ele>256.66666666666663</ele><time>2026-04-26T10:49:19.995Z</time></trkpt><trkpt lat="43.5933971" lon="11.3104468"><ele>255.5</ele><time>2026-04-26T10:49:20.984Z</time></trkpt><trkpt lat="43.5933211" lon="11.3104848"><ele>254.33333333333331</ele><time>2026-04-26T10:49:21.985Z</time></trkpt><trkpt lat="43.5932389" lon="11.3105242"><ele>253.16666666666666</ele><time>2026-04-26T10:49:22.983Z</time></trkpt><trkpt lat="43.5931612" lon="11.310564"><ele>252.0</ele><time>2026-04-26T10:49:23.982Z</time></trkpt><trkpt lat="43.593089" lon="11.3106059"><ele>252.0</ele><time>2026-04-26T10:49:24.983Z</time></trkpt><trkpt lat="43.5930154" lon="11.3106441"><ele>252.0</ele><time>2026-04-26T10:49:25.982Z</time></trkpt><trkpt lat="43.5929505" lon="11.3106785"><ele>252.0</ele><time>2026-04-26T10:49:26.987Z</time></trkpt><trkpt lat="43.5928473" lon="11.3107432"><ele>252.0</ele><time>2026-04-26T10:49:28.983Z</time></trkpt><trkpt lat="43.5927647" lon="11.3107856"><ele>252.0</ele><time>2026-04-26T10:49:30.99Z</time></trkpt><trkpt lat="43.5926971" lon="11.3108262"><ele>252.0</ele><time>2026-04-26T10:49:34.981Z</time></trkpt><trkpt lat="43.5926282" lon="11.310838"><ele>250.8</ele><time>2026-04-26T10:49:56.983Z</time></trkpt><trkpt lat="43.5925577" lon="11.3108534"><ele>249.6</ele><time>2026-04-26T10:49:58.982Z</time></trkpt><trkpt lat="43.5924464" lon="11.3108653"><ele>248.40000000000003</ele><time>2026-04-26T10:50:00.989Z</time></trkpt><trkpt lat="43.5923178" lon="11.3108634"><ele>247.20000000000002</ele><time>2026-04-26T10:50:02.982Z</time></trkpt><trkpt lat="43.592247" lon="11.3108564"><ele>246.0</ele><time>2026-04-26T10:50:03.981Z</time></trkpt><trkpt lat="43.5921706" lon="11.3108497"><ele>246.0</ele><time>2026-04-26T10:50:04.981Z</time></trkpt><trkpt lat="43.5920967" lon="11.3108508"><ele>246.0</ele><time>2026-04-26T10:50:05.989Z</time></trkpt><trkpt lat="43.5920153" lon="11.3108468"><ele>246.0</ele><time>2026-04-26T10:50:06.984Z</time></trkpt><trkpt lat="43.5919371" lon="11.3108437"><ele>246.0</ele><time>2026-04-26T10:50:07.984Z</time></trkpt><trkpt lat="43.5918576" lon="11.310839"><ele>246.0</ele><time>2026-04-26T10:50:08.996Z</time></trkpt><trkpt lat="43.5917799" lon="11.3108364"><ele>246.0</ele><time>2026-04-26T10:50:09.982Z</time></trkpt><trkpt lat="43.5917002" lon="11.3108366"><ele>243.83333333333334</ele><time>2026-04-26T10:50:10.983Z</time></trkpt><trkpt lat="43.5916227" lon="11.3108352"><ele>241.66666666666669</ele><time>2026-04-26T10:50:11.989Z</time></trkpt><trkpt lat="43.5915454" lon="11.3108307"><ele>239.5</ele><time>2026-04-26T10:50:12.983Z</time></trkpt><trkpt lat="43.591457" lon="11.3108231"><ele>237.33333333333334</ele><time>2026-04-26T10:50:13.985Z</time></trkpt><trkpt lat="43.5913615" lon="11.3108207"><ele>235.16666666666669</ele><time>2026-04-26T10:50:14.985Z</time></trkpt><trkpt lat="43.5912641" lon="11.3108164"><ele>233.0</ele><time>2026-04-26T10:50:15.982Z</time></trkpt><trkpt lat="43.5911632" lon="11.3108106"><ele>231.0</ele><time>2026-04-26T10:50:16.985Z</time></trkpt><trkpt lat="43.5910634" lon="11.3108169"><ele>229.0</ele><time>2026-04-26T10:50:17.983Z</time></trkpt><trkpt lat="43.59086" lon="11.3108879"><ele>227.0</ele><time>2026-04-26T10:50:19.982Z</time></trkpt><trkpt lat="43.5907587" lon="11.310962"><ele>225.0</ele><time>2026-04-26T10:50:20.986Z</time></trkpt><trkpt lat="43.5906676" lon="11.3110592"><ele>225.0</ele><time>2026-04-26T10:50:21.982Z</time></trkpt><trkpt lat="43.5905763" lon="11.3111668"><ele>225.0</ele><time>2026-04-26T10:50:22.982Z</time></trkpt><trkpt lat="43.5905009" lon="11.3112791"><ele>225.0</ele><time>2026-04-26T10:50:23.981Z</time></trkpt><trkpt lat="43.590432" lon="11.3113997"><ele>225.0</ele><time>2026-04-26T10:50:24.986Z</time></trkpt><trkpt lat="43.5903767" lon="11.311537"><ele>224.5</ele><time>2026-04-26T10:50:25.982Z</time></trkpt><trkpt lat="43.5903359" lon="11.3116813"><ele>224.0</ele><time>2026-04-26T10:50:26.984Z</time></trkpt><trkpt lat="43.590305" lon="11.3118309"><ele>223.5</ele><time>2026-04-26T10:50:27.985Z</time></trkpt><trkpt lat="43.5902739" lon="11.3119785"><ele>223.0</ele><time>2026-04-26T10:50:28.984Z</time></trkpt><trkpt lat="43.5902487" lon="11.3121361"><ele>222.8</ele><time>2026-04-26T10:50:29.984Z</time></trkpt><trkpt lat="43.5902277" lon="11.3122937"><ele>222.60000000000002</ele><time>2026-04-26T10:50:30.983Z</time></trkpt><trkpt lat="43.5902077" lon="11.3124456"><ele>222.39999999999998</ele><time>2026-04-26T10:50:31.982Z</time></trkpt><trkpt lat="43.5901922" lon="11.3125962"><ele>222.2</ele><time>2026-04-26T10:50:32.983Z</time></trkpt><trkpt lat="43.590183" lon="11.3127424"><ele>222.0</ele><time>2026-04-26T10:50:33.984Z</time></trkpt><trkpt lat="43.5901714" lon="11.3128809"><ele>222.0</ele><time>2026-04-26T10:50:34.993Z</time></trkpt><trkpt lat="43.5901623" lon="11.3130149"><ele>222.0</ele><time>2026-04-26T10:50:35.982Z</time></trkpt><trkpt lat="43.5901587" lon="11.3131377"><ele>222.0</ele><time>2026-04-26T10:50:36.982Z</time></trkpt><trkpt lat="43.5901554" lon="11.3132495"><ele>222.0</ele><time>2026-04-26T10:50:37.986Z</time></trkpt><trkpt lat="43.5901539" lon="11.3133537"><ele>222.0</ele><time>2026-04-26T10:50:38.983Z</time></trkpt><trkpt lat="43.5901517" lon="11.3135677"><ele>221.85714285714286</ele><time>2026-04-26T10:50:40.983Z</time></trkpt><trkpt lat="43.5901512" lon="11.3136608"><ele>221.71428571428572</ele><time>2026-04-26T10:50:41.989Z</time></trkpt><trkpt lat="43.590138" lon="11.3137521"><ele>221.57142857142858</ele><time>2026-04-26T10:50:42.982Z</time></trkpt><trkpt lat="43.5901074" lon="11.3138284"><ele>221.42857142857144</ele><time>2026-04-26T10:50:43.981Z</time></trkpt><trkpt lat="43.5900636" lon="11.3139033"><ele>221.28571428571428</ele><time>2026-04-26T10:50:44.983Z</time></trkpt><trkpt lat="43.5900106" lon="11.3139703"><ele>221.14285714285717</ele><time>2026-04-26T10:50:45.991Z</time></trkpt><trkpt lat="43.5899205" lon="11.3140057"><ele>221.0</ele><time>2026-04-26T10:50:46.982Z</time></trkpt><trkpt lat="43.5898344" lon="11.3140206"><ele>221.4</ele><time>2026-04-26T10:50:47.981Z</time></trkpt><trkpt lat="43.589744" lon="11.3140219"><ele>221.8</ele><time>2026-04-26T10:50:48.982Z</time></trkpt><trkpt lat="43.589645" lon="11.3140112"><ele>222.20000000000002</ele><time>2026-04-26T10:50:49.983Z</time></trkpt><trkpt lat="43.5895461" lon="11.3139998"><ele>222.60000000000002</ele><time>2026-04-26T10:50:50.982Z</time></trkpt><trkpt lat="43.5894477" lon="11.3139956"><ele>223.0</ele><time>2026-04-26T10:50:51.984Z</time></trkpt><trkpt lat="43.5893382" lon="11.3139843"><ele>223.5</ele><time>2026-04-26T10:50:52.983Z</time></trkpt><trkpt lat="43.5892254" lon="11.3139733"><ele>224.0</ele><time>2026-04-26T10:50:53.983Z</time></trkpt><trkpt lat="43.5891108" lon="11.313962"><ele>224.5</ele><time>2026-04-26T10:50:54.983Z</time></trkpt><trkpt lat="43.5889898" lon="11.313945"><ele>225.0</ele><time>2026-04-26T10:50:55.983Z</time></trkpt><trkpt lat="43.5888658" lon="11.3139333"><ele>225.0</ele><time>2026-04-26T10:50:56.986Z</time></trkpt><trkpt lat="43.5887408" lon="11.3139162"><ele>225.0</ele><time>2026-04-26T10:50:57.982Z</time></trkpt><trkpt lat="43.5886143" lon="11.3138974"><ele>225.0</ele><time>2026-04-26T10:50:58.981Z</time></trkpt><trkpt lat="43.588486" lon="11.3138803"><ele>225.0</ele><time>2026-04-26T10:50:59.992Z</time></trkpt><trkpt lat="43.5882252" lon="11.3138542"><ele>225.5</ele><time>2026-04-26T10:51:01.981Z</time></trkpt><trkpt lat="43.588092" lon="11.3138383"><ele>226.0</ele><time>2026-04-26T10:51:02.984Z</time></trkpt><trkpt lat="43.5879619" lon="11.3138194"><ele>226.5</ele><time>2026-04-26T10:51:03.982Z</time></trkpt><trkpt lat="43.5878303" lon="11.313803"><ele>227.0</ele><time>2026-04-26T10:51:04.981Z</time></trkpt><trkpt lat="43.5876927" lon="11.3137909"><ele>227.75</ele><time>2026-04-26T10:51:05.988Z</time></trkpt><trkpt lat="43.5875587" lon="11.3137739"><ele>228.5</ele><time>2026-04-26T10:51:06.982Z</time></trkpt><trkpt lat="43.5874254" lon="11.3137599"><ele>229.25</ele><time>2026-04-26T10:51:07.985Z</time></trkpt><trkpt lat="43.5872964" lon="11.3137448"><ele>230.0</ele><time>2026-04-26T10:51:08.982Z</time></trkpt><trkpt lat="43.5871777" lon="11.3137308"><ele>230.00000000000003</ele><time>2026-04-26T10:51:09.983Z</time></trkpt><trkpt lat="43.5870726" lon="11.3137122"><ele>230.0</ele><time>2026-04-26T10:51:10.99Z</time></trkpt><trkpt lat="43.586978" lon="11.3136922"><ele>230.0</ele><time>2026-04-26T10:51:11.981Z</time></trkpt><trkpt lat="43.5868949" lon="11.313668"><ele>230.0</ele><time>2026-04-26T10:51:12.98Z</time></trkpt><trkpt lat="43.5868187" lon="11.3136435"><ele>230.00000000000003</ele><time>2026-04-26T10:51:13.98Z</time></trkpt><trkpt lat="43.5867495" lon="11.3136385"><ele>230.0</ele><time>2026-04-26T10:51:14.984Z</time></trkpt><trkpt lat="43.5866829" lon="11.3136407"><ele>229.8</ele><time>2026-04-26T10:51:15.984Z</time></trkpt><trkpt lat="43.5865849" lon="11.3137041"><ele>229.6</ele><time>2026-04-26T10:51:17.98Z</time></trkpt><trkpt lat="43.5864934" lon="11.3137366"><ele>229.39999999999998</ele><time>2026-04-26T10:51:20.981Z</time></trkpt><trkpt lat="43.5863811" lon="11.3137231"><ele>229.2</ele><time>2026-04-26T10:51:22.993Z</time></trkpt><trkpt lat="43.5863151" lon="11.3137408"><ele>229.0</ele><time>2026-04-26T10:51:23.981Z</time></trkpt><trkpt lat="43.5862464" lon="11.3137978"><ele>229.0</ele><time>2026-04-26T10:51:24.991Z</time></trkpt><trkpt lat="43.586168" lon="11.3138427"><ele>228.99999999999997</ele><time>2026-04-26T10:51:25.981Z</time></trkpt><trkpt lat="43.5860862" lon="11.3138879"><ele>228.99999999999997</ele><time>2026-04-26T10:51:26.981Z</time></trkpt><trkpt lat="43.5860057" lon="11.3139401"><ele>229.0</ele><time>2026-04-26T10:51:27.984Z</time></trkpt><trkpt lat="43.5859215" lon="11.3139997"><ele>229.0</ele><time>2026-04-26T10:51:28.982Z</time></trkpt><trkpt lat="43.5858368" lon="11.3140675"><ele>229.0</ele><time>2026-04-26T10:51:29.981Z</time></trkpt><trkpt lat="43.5857462" lon="11.3141366"><ele>229.0</ele><time>2026-04-26T10:51:30.982Z</time></trkpt><trkpt lat="43.5855592" lon="11.3142834"><ele>229.0</ele><time>2026-04-26T10:51:32.981Z</time></trkpt><trkpt lat="43.585462" lon="11.314357"><ele>229.0</ele><time>2026-04-26T10:51:33.982Z</time></trkpt><trkpt lat="43.5853707" lon="11.3144259"><ele>229.2</ele><time>2026-04-26T10:51:34.982Z</time></trkpt><trkpt lat="43.5852816" lon="11.3144963"><ele>229.39999999999998</ele><time>2026-04-26T10:51:35.981Z</time></trkpt><trkpt lat="43.5851934" lon="11.3145663"><ele>229.6</ele><time>2026-04-26T10:51:36.982Z</time></trkpt><trkpt lat="43.5851051" lon="11.3146347"><ele>229.8</ele><time>2026-04-26T10:51:37.981Z</time></trkpt><trkpt lat="43.58502" lon="11.3147024"><ele>230.0</ele><time>2026-04-26T10:51:38.98Z</time></trkpt><trkpt lat="43.5849324" lon="11.3147686"><ele>230.0</ele><time>2026-04-26T10:51:39.981Z</time></trkpt><trkpt lat="43.5848469" lon="11.314833"><ele>230.0</ele><time>2026-04-26T10:51:40.98Z</time></trkpt><trkpt lat="43.5847643" lon="11.3148977"><ele>230.0</ele><time>2026-04-26T10:51:41.981Z</time></trkpt><trkpt lat="43.5846832" lon="11.3149661"><ele>230.0</ele><time>2026-04-26T10:51:42.98Z</time></trkpt><trkpt lat="43.584603" lon="11.315036"><ele>230.0</ele><time>2026-04-26T10:51:43.991Z</time></trkpt><trkpt lat="43.584525" lon="11.3151061"><ele>231.6</ele><time>2026-04-26T10:51:44.981Z</time></trkpt><trkpt lat="43.5844538" lon="11.3151731"><ele>233.2</ele><time>2026-04-26T10:51:45.988Z</time></trkpt><trkpt lat="43.5843963" lon="11.3152312"><ele>234.8</ele><time>2026-04-26T10:51:46.982Z</time></trkpt><trkpt lat="43.5843361" lon="11.3152846"><ele>236.4</ele><time>2026-04-26T10:51:47.986Z</time></trkpt><trkpt lat="43.5842511" lon="11.3154062"><ele>238.0</ele><time>2026-04-26T10:51:49.982Z</time></trkpt><trkpt lat="43.5841867" lon="11.3155491"><ele>236.83333333333331</ele><time>2026-04-26T10:51:51.981Z</time></trkpt><trkpt lat="43.584143" lon="11.3156781"><ele>235.66666666666666</ele><time>2026-04-26T10:51:53.986Z</time></trkpt><trkpt lat="43.5841109" lon="11.3157582"><ele>234.5</ele><time>2026-04-26T10:51:54.981Z</time></trkpt><trkpt lat="43.5840637" lon="11.315852"><ele>233.33333333333331</ele><time>2026-04-26T10:51:55.978Z</time></trkpt><trkpt lat="43.5840175" lon="11.3159583"><ele>232.16666666666666</ele><time>2026-04-26T10:51:56.979Z</time></trkpt><trkpt lat="43.5839613" lon="11.3160721"><ele>231.0</ele><time>2026-04-26T10:51:57.98Z</time></trkpt><trkpt lat="43.5839062" lon="11.3161947"><ele>231.0</ele><time>2026-04-26T10:51:58.986Z</time></trkpt><trkpt lat="43.5838564" lon="11.3163139"><ele>231.0</ele><time>2026-04-26T10:51:59.982Z</time></trkpt><trkpt lat="43.583808" lon="11.3164276"><ele>231.0</ele><time>2026-04-26T10:52:00.979Z</time></trkpt><trkpt lat="43.5837631" lon="11.3165279"><ele>231.0</ele><time>2026-04-26T10:52:01.98Z</time></trkpt><trkpt lat="43.583724" lon="11.3166194"><ele>231.0</ele><time>2026-04-26T10:52:02.983Z</time></trkpt><trkpt lat="43.5836874" lon="11.3167099"><ele>231.0</ele><time>2026-04-26T10:52:03.982Z</time></trkpt><trkpt lat="43.5836499" lon="11.3167946"><ele>231.42857142857144</ele><time>2026-04-26T10:52:04.986Z</time></trkpt><trkpt lat="43.5836152" lon="11.3168771"><ele>231.85714285714286</ele><time>2026-04-26T10:52:05.984Z</time></trkpt><trkpt lat="43.5835828" lon="11.3169547"><ele>232.28571428571428</ele><time>2026-04-26T10:52:06.984Z</time></trkpt><trkpt lat="43.5835472" lon="11.3170295"><ele>232.71428571428572</ele><time>2026-04-26T10:52:07.985Z</time></trkpt><trkpt lat="43.5835045" lon="11.3171092"><ele>233.14285714285717</ele><time>2026-04-26T10:52:08.981Z</time></trkpt><trkpt lat="43.5834497" lon="11.3171974"><ele>233.57142857142858</ele><time>2026-04-26T10:52:09.984Z</time></trkpt><trkpt lat="43.5833932" lon="11.3172845"><ele>234.0</ele><time>2026-04-26T10:52:10.986Z</time></trkpt><trkpt lat="43.5833404" lon="11.3173561"><ele>234.0</ele><time>2026-04-26T10:52:11.982Z</time></trkpt><trkpt lat="43.5832297" lon="11.3174702"><ele>233.99999999999997</ele><time>2026-04-26T10:52:14.98Z</time></trkpt><trkpt lat="43.5831643" lon="11.3175206"><ele>233.99999999999997</ele><time>2026-04-26T10:52:17.98Z</time></trkpt><trkpt lat="43.5831043" lon="11.3175664"><ele>234.0</ele><time>2026-04-26T10:52:21.979Z</time></trkpt><trkpt lat="43.583001" lon="11.3176559"><ele>234.0</ele><time>2026-04-26T10:52:40.982Z</time></trkpt><trkpt lat="43.582939" lon="11.3176912"><ele>234.0</ele><time>2026-04-26T10:52:41.981Z</time></trkpt><trkpt lat="43.5828638" lon="11.317732"><ele>233.99999999999997</ele><time>2026-04-26T10:52:42.982Z</time></trkpt><trkpt lat="43.5827781" lon="11.317767"><ele>233.99999999999997</ele><time>2026-04-26T10:52:43.983Z</time></trkpt><trkpt lat="43.582686" lon="11.3178054"><ele>234.0</ele><time>2026-04-26T10:52:44.984Z</time></trkpt><trkpt lat="43.5825827" lon="11.3178453"><ele>234.0</ele><time>2026-04-26T10:52:45.984Z</time></trkpt><trkpt lat="43.5824761" lon="11.3178887"><ele>234.5</ele><time>2026-04-26T10:52:46.985Z</time></trkpt><trkpt lat="43.5823686" lon="11.3179291"><ele>235.0</ele><time>2026-04-26T10:52:47.981Z</time></trkpt><trkpt lat="43.5822585" lon="11.3179665"><ele>235.5</ele><time>2026-04-26T10:52:48.982Z</time></trkpt><trkpt lat="43.5821447" lon="11.3180037"><ele>236.0</ele><time>2026-04-26T10:52:49.98Z</time></trkpt><trkpt lat="43.5820296" lon="11.3179815"><ele>236.75</ele><time>2026-04-26T10:52:50.983Z</time></trkpt><trkpt lat="43.5819077" lon="11.3179538"><ele>237.5</ele><time>2026-04-26T10:52:51.986Z</time></trkpt><trkpt lat="43.5817983" lon="11.3179255"><ele>238.25</ele><time>2026-04-26T10:52:52.983Z</time></trkpt><trkpt lat="43.5816863" lon="11.3179032"><ele>239.0</ele><time>2026-04-26T10:52:53.983Z</time></trkpt><trkpt lat="43.5815741" lon="11.3178846"><ele>239.0</ele><time>2026-04-26T10:52:54.982Z</time></trkpt><trkpt lat="43.581457" lon="11.3178822"><ele>239.0</ele><time>2026-04-26T10:52:55.984Z</time></trkpt><trkpt lat="43.5813388" lon="11.3178903"><ele>239.0</ele><time>2026-04-26T10:52:56.982Z</time></trkpt><trkpt lat="43.5812243" lon="11.317898"><ele>239.0</ele><time>2026-04-26T10:52:57.982Z</time></trkpt><trkpt lat="43.5811152" lon="11.3179041"><ele>238.6</ele><time>2026-04-26T10:52:58.983Z</time></trkpt><trkpt lat="43.5810148" lon="11.3178884"><ele>238.2</ele><time>2026-04-26T10:52:59.981Z</time></trkpt><trkpt lat="43.5809219" lon="11.3178433"><ele>237.79999999999998</ele><time>2026-04-26T10:53:00.979Z</time></trkpt><trkpt lat="43.5808327" lon="11.3177765"><ele>237.39999999999998</ele><time>2026-04-26T10:53:01.984Z</time></trkpt><trkpt lat="43.5807328" lon="11.3176991"><ele>237.0</ele><time>2026-04-26T10:53:02.984Z</time></trkpt><trkpt lat="43.5806303" lon="11.3176182"><ele>237.0</ele><time>2026-04-26T10:53:03.986Z</time></trkpt><trkpt lat="43.5805226" lon="11.3175287"><ele>237.0</ele><time>2026-04-26T10:53:04.984Z</time></trkpt><trkpt lat="43.5804181" lon="11.3174384"><ele>237.0</ele><time>2026-04-26T10:53:05.982Z</time></trkpt><trkpt lat="43.5803263" lon="11.3173376"><ele>237.0</ele><time>2026-04-26T10:53:06.978Z</time></trkpt><trkpt lat="43.5802478" lon="11.3172474"><ele>238.0</ele><time>2026-04-26T10:53:07.983Z</time></trkpt><trkpt lat="43.5801713" lon="11.3171529"><ele>239.0</ele><time>2026-04-26T10:53:08.983Z</time></trkpt><trkpt lat="43.5800871" lon="11.3170841"><ele>240.0</ele><time>2026-04-26T10:53:09.984Z</time></trkpt><trkpt lat="43.5800027" lon="11.317033"><ele>241.0</ele><time>2026-04-26T10:53:10.98Z</time></trkpt><trkpt lat="43.5799255" lon="11.3169972"><ele>242.0</ele><time>2026-04-26T10:53:11.981Z</time></trkpt><trkpt lat="43.5798589" lon="11.3169652"><ele>243.0</ele><time>2026-04-26T10:53:12.982Z</time></trkpt><trkpt lat="43.5797467" lon="11.3169266"><ele>243.0</ele><time>2026-04-26T10:53:14.982Z</time></trkpt><trkpt lat="43.5796635" lon="11.3168947"><ele>243.0</ele><time>2026-04-26T10:53:16.981Z</time></trkpt><trkpt lat="43.5795959" lon="11.316874"><ele>243.0</ele><time>2026-04-26T10:53:18.981Z</time></trkpt><trkpt lat="43.5795339" lon="11.3168471"><ele>243.0</ele><time>2026-04-26T10:53:20.98Z</time></trkpt><trkpt lat="43.579449" lon="11.3168202"><ele>243.0</ele><time>2026-04-26T10:53:26.981Z</time></trkpt><trkpt lat="43.579335" lon="11.3167856"><ele>243.0</ele><time>2026-04-26T10:53:28.982Z</time></trkpt><trkpt lat="43.5792594" lon="11.3167568"><ele>242.2</ele><time>2026-04-26T10:53:29.98Z</time></trkpt><trkpt lat="43.5791738" lon="11.3167219"><ele>241.4</ele><time>2026-04-26T10:53:30.983Z</time></trkpt><trkpt lat="43.5790754" lon="11.3166814"><ele>240.59999999999997</ele><time>2026-04-26T10:53:31.983Z</time></trkpt><trkpt lat="43.5789665" lon="11.316636"><ele>239.79999999999998</ele><time>2026-04-26T10:53:32.989Z</time></trkpt><trkpt lat="43.578851" lon="11.3165914"><ele>239.0</ele><time>2026-04-26T10:53:33.982Z</time></trkpt><trkpt lat="43.5787299" lon="11.3165532"><ele>239.25</ele><time>2026-04-26T10:53:34.98Z</time></trkpt><trkpt lat="43.5785979" lon="11.3165329"><ele>239.5</ele><time>2026-04-26T10:53:35.981Z</time></trkpt><trkpt lat="43.5784589" lon="11.3165354"><ele>239.75</ele><time>2026-04-26T10:53:36.99Z</time></trkpt><trkpt lat="43.5783175" lon="11.3165586"><ele>240.0</ele><time>2026-04-26T10:53:37.983Z</time></trkpt><trkpt lat="43.5781772" lon="11.3165909"><ele>240.0</ele><time>2026-04-26T10:53:38.983Z</time></trkpt><trkpt lat="43.5780404" lon="11.3166252"><ele>240.0</ele><time>2026-04-26T10:53:39.985Z</time></trkpt><trkpt lat="43.5779156" lon="11.3166629"><ele>240.0</ele><time>2026-04-26T10:53:40.982Z</time></trkpt><trkpt lat="43.5777975" lon="11.3167088"><ele>240.0</ele><time>2026-04-26T10:53:41.985Z</time></trkpt><trkpt lat="43.577684" lon="11.316747"><ele>241.0</ele><time>2026-04-26T10:53:42.982Z</time></trkpt><trkpt lat="43.5775703" lon="11.3167853"><ele>242.0</ele><time>2026-04-26T10:53:43.983Z</time></trkpt><trkpt lat="43.5774544" lon="11.3168253"><ele>243.0</ele><time>2026-04-26T10:53:44.983Z</time></trkpt><trkpt lat="43.5773295" lon="11.3168691"><ele>244.0</ele><time>2026-04-26T10:53:45.984Z</time></trkpt><trkpt lat="43.5771975" lon="11.3169187"><ele>244.0</ele><time>2026-04-26T10:53:46.982Z</time></trkpt><trkpt lat="43.5770602" lon="11.3169819"><ele>244.0</ele><time>2026-04-26T10:53:47.98Z</time></trkpt><trkpt lat="43.5769151" lon="11.3170496"><ele>244.0</ele><time>2026-04-26T10:53:48.979Z</time></trkpt><trkpt lat="43.576771" lon="11.3171189"><ele>243.0</ele><time>2026-04-26T10:53:49.982Z</time></trkpt><trkpt lat="43.5766297" lon="11.317189"><ele>242.0</ele><time>2026-04-26T10:53:50.989Z</time></trkpt><trkpt lat="43.5764945" lon="11.3172618"><ele>241.0</ele><time>2026-04-26T10:53:51.984Z</time></trkpt><trkpt lat="43.5763627" lon="11.317331"><ele>240.0</ele><time>2026-04-26T10:53:52.981Z</time></trkpt><trkpt lat="43.576236" lon="11.3174029"><ele>241.0</ele><time>2026-04-26T10:53:53.986Z</time></trkpt><trkpt lat="43.5761143" lon="11.3174726"><ele>242.0</ele><time>2026-04-26T10:53:54.982Z</time></trkpt><trkpt lat="43.5759942" lon="11.3175374"><ele>243.0</ele><time>2026-04-26T10:53:55.981Z</time></trkpt><trkpt lat="43.575873" lon="11.3175972"><ele>244.0</ele><time>2026-04-26T10:53:56.982Z</time></trkpt><trkpt lat="43.5757541" lon="11.3176553"><ele>244.0</ele><time>2026-04-26T10:53:57.984Z</time></trkpt><trkpt lat="43.5756334" lon="11.3177175"><ele>244.0</ele><time>2026-04-26T10:53:58.983Z</time></trkpt><trkpt lat="43.5755099" lon="11.3177799"><ele>244.0</ele><time>2026-04-26T10:53:59.985Z</time></trkpt><trkpt lat="43.5753811" lon="11.3178473"><ele>244.0</ele><time>2026-04-26T10:54:00.989Z</time></trkpt><trkpt lat="43.575249" lon="11.3179091"><ele>243.75</ele><time>2026-04-26T10:54:01.983Z</time></trkpt><trkpt lat="43.5751172" lon="11.3179778"><ele>243.5</ele><time>2026-04-26T10:54:02.981Z</time></trkpt><trkpt lat="43.5749764" lon="11.3180464"><ele>243.25</ele><time>2026-04-26T10:54:03.983Z</time></trkpt><trkpt lat="43.5748321" lon="11.3181224"><ele>243.0</ele><time>2026-04-26T10:54:04.983Z</time></trkpt><trkpt lat="43.5746841" lon="11.3181998"><ele>250.5</ele><time>2026-04-26T10:54:05.982Z</time></trkpt><trkpt lat="43.5743827" lon="11.3183473"><ele>258.0</ele><time>2026-04-26T10:54:07.982Z</time></trkpt><trkpt lat="43.5742351" lon="11.3184194"><ele>258.0</ele><time>2026-04-26T10:54:08.982Z</time></trkpt><trkpt lat="43.5740917" lon="11.3184921"><ele>258.0</ele><time>2026-04-26T10:54:09.987Z</time></trkpt><trkpt lat="43.5739502" lon="11.318565"><ele>258.0</ele><time>2026-04-26T10:54:10.983Z</time></trkpt><trkpt lat="43.5738131" lon="11.3186322"><ele>258.0</ele><time>2026-04-26T10:54:11.982Z</time></trkpt><trkpt lat="43.5736767" lon="11.3187031"><ele>255.75</ele><time>2026-04-26T10:54:12.984Z</time></trkpt><trkpt lat="43.5735375" lon="11.318777"><ele>253.5</ele><time>2026-04-26T10:54:13.98Z</time></trkpt><trkpt lat="43.5733983" lon="11.3188457"><ele>251.25</ele><time>2026-04-26T10:54:14.983Z</time></trkpt><trkpt lat="43.5732561" lon="11.3189154"><ele>249.0</ele><time>2026-04-26T10:54:15.984Z</time></trkpt><trkpt lat="43.5731105" lon="11.3189851"><ele>249.0</ele><time>2026-04-26T10:54:16.989Z</time></trkpt><trkpt lat="43.5729662" lon="11.3190615"><ele>249.0</ele><time>2026-04-26T10:54:17.981Z</time></trkpt><trkpt lat="43.5728206" lon="11.3191361"><ele>249.0</ele><time>2026-04-26T10:54:18.982Z</time></trkpt><trkpt lat="43.5726705" lon="11.3192084"><ele>252.0</ele><time>2026-04-26T10:54:19.981Z</time></trkpt><trkpt lat="43.5725264" lon="11.3192836"><ele>255.0</ele><time>2026-04-26T10:54:20.982Z</time></trkpt><trkpt lat="43.5723832" lon="11.3193541"><ele>258.0</ele><time>2026-04-26T10:54:21.981Z</time></trkpt><trkpt lat="43.5722382" lon="11.3194271"><ele>258.0</ele><time>2026-04-26T10:54:22.984Z</time></trkpt><trkpt lat="43.5720933" lon="11.3194967"><ele>258.0</ele><time>2026-04-26T10:54:23.984Z</time></trkpt><trkpt lat="43.5719447" lon="11.3195738"><ele>258.0</ele><time>2026-04-26T10:54:24.983Z</time></trkpt><trkpt lat="43.5717983" lon="11.3196487"><ele>255.33333333333331</ele><time>2026-04-26T10:54:25.982Z</time></trkpt><trkpt lat="43.5716516" lon="11.3197236"><ele>252.66666666666666</ele><time>2026-04-26T10:54:26.982Z</time></trkpt><trkpt lat="43.5715039" lon="11.3197935"><ele>250.0</ele><time>2026-04-26T10:54:27.98Z</time></trkpt><trkpt lat="43.5713557" lon="11.3198667"><ele>250.0</ele><time>2026-04-26T10:54:28.98Z</time></trkpt><trkpt lat="43.5712106" lon="11.3199386"><ele>250.0</ele><time>2026-04-26T10:54:29.98Z</time></trkpt><trkpt lat="43.5710643" lon="11.3200107"><ele>250.0</ele><time>2026-04-26T10:54:30.982Z</time></trkpt><trkpt lat="43.5709164" lon="11.3200803"><ele>252.25</ele><time>2026-04-26T10:54:31.981Z</time></trkpt><trkpt lat="43.5707785" lon="11.3201484"><ele>254.5</ele><time>2026-04-26T10:54:32.988Z</time></trkpt><trkpt lat="43.5706408" lon="11.3202094"><ele>256.75</ele><time>2026-04-26T10:54:33.979Z</time></trkpt><trkpt lat="43.5705025" lon="11.3202665"><ele>259.0</ele><time>2026-04-26T10:54:34.982Z</time></trkpt><trkpt lat="43.5703573" lon="11.3203121"><ele>260.0</ele><time>2026-04-26T10:54:35.981Z</time></trkpt><trkpt lat="43.5702089" lon="11.3203561"><ele>261.0</ele><time>2026-04-26T10:54:36.987Z</time></trkpt><trkpt lat="43.5700588" lon="11.3203977"><ele>262.0</ele><time>2026-04-26T10:54:37.983Z</time></trkpt><trkpt lat="43.5699116" lon="11.3204328"><ele>262.0</ele><time>2026-04-26T10:54:38.983Z</time></trkpt><trkpt lat="43.5697768" lon="11.3204663"><ele>262.0</ele><time>2026-04-26T10:54:39.984Z</time></trkpt><trkpt lat="43.5696492" lon="11.3204975"><ele>262.0</ele><time>2026-04-26T10:54:40.983Z</time></trkpt><trkpt lat="43.5695342" lon="11.3205364"><ele>262.0</ele><time>2026-04-26T10:54:41.982Z</time></trkpt><trkpt lat="43.5694345" lon="11.3205863"><ele>263.0</ele><time>2026-04-26T10:54:42.982Z</time></trkpt><trkpt lat="43.5693524" lon="11.3206598"><ele>264.0</ele><time>2026-04-26T10:54:43.981Z</time></trkpt><trkpt lat="43.5692889" lon="11.3207611"><ele>265.0</ele><time>2026-04-26T10:54:44.981Z</time></trkpt><trkpt lat="43.5692461" lon="11.3208835"><ele>266.0</ele><time>2026-04-26T10:54:45.983Z</time></trkpt><trkpt lat="43.5692248" lon="11.3210205"><ele>267.0</ele><time>2026-04-26T10:54:46.981Z</time></trkpt><trkpt lat="43.5692049" lon="11.3211617"><ele>265.6666666666667</ele><time>2026-04-26T10:54:47.982Z</time></trkpt><trkpt lat="43.569167" lon="11.3214653"><ele>264.33333333333337</ele><time>2026-04-26T10:54:49.982Z</time></trkpt><trkpt lat="43.5691285" lon="11.3216236"><ele>263.0</ele><time>2026-04-26T10:54:50.983Z</time></trkpt><trkpt lat="43.5690795" lon="11.3217765"><ele>263.0</ele><time>2026-04-26T10:54:51.984Z</time></trkpt><trkpt lat="43.5689976" lon="11.3219248"><ele>263.0</ele><time>2026-04-26T10:54:52.98Z</time></trkpt><trkpt lat="43.568915" lon="11.3220684"><ele>263.0</ele><time>2026-04-26T10:54:53.985Z</time></trkpt><trkpt lat="43.5688259" lon="11.3222152"><ele>263.0</ele><time>2026-04-26T10:54:54.982Z</time></trkpt><trkpt lat="43.5687394" lon="11.3223474"><ele>267.0</ele><time>2026-04-26T10:54:55.981Z</time></trkpt><trkpt lat="43.5686461" lon="11.3224583"><ele>271.0</ele><time>2026-04-26T10:54:56.98Z</time></trkpt><trkpt lat="43.568533" lon="11.3225129"><ele>275.0</ele><time>2026-04-26T10:54:57.982Z</time></trkpt><trkpt lat="43.5684084" lon="11.3225573"><ele>279.0</ele><time>2026-04-26T10:54:58.984Z</time></trkpt><trkpt lat="43.5682819" lon="11.3225866"><ele>279.0</ele><time>2026-04-26T10:54:59.981Z</time></trkpt><trkpt lat="43.5681463" lon="11.3226233"><ele>279.0</ele><time>2026-04-26T10:55:00.982Z</time></trkpt><trkpt lat="43.5680013" lon="11.3226458"><ele>279.0</ele><time>2026-04-26T10:55:01.983Z</time></trkpt><trkpt lat="43.5678641" lon="11.3226726"><ele>279.0</ele><time>2026-04-26T10:55:02.982Z</time></trkpt><trkpt lat="43.5677229" lon="11.3227001"><ele>280.75</ele><time>2026-04-26T10:55:03.983Z</time></trkpt><trkpt lat="43.5675909" lon="11.32272"><ele>282.5</ele><time>2026-04-26T10:55:04.983Z</time></trkpt><trkpt lat="43.5674605" lon="11.3227324"><ele>284.25</ele><time>2026-04-26T10:55:05.983Z</time></trkpt><trkpt lat="43.5673297" lon="11.3227119"><ele>286.0</ele><time>2026-04-26T10:55:06.982Z</time></trkpt><trkpt lat="43.567203" lon="11.3226562"><ele>286.0</ele><time>2026-04-26T10:55:07.981Z</time></trkpt><trkpt lat="43.567075" lon="11.3225841"><ele>286.0</ele><time>2026-04-26T10:55:08.98Z</time></trkpt><trkpt lat="43.5669471" lon="11.3224953"><ele>286.0</ele><time>2026-04-26T10:55:09.982Z</time></trkpt><trkpt lat="43.5668115" lon="11.3224163"><ele>286.0</ele><time>2026-04-26T10:55:10.984Z</time></trkpt><trkpt lat="43.5666647" lon="11.3223573"><ele>285.66666666666663</ele><time>2026-04-26T10:55:11.982Z</time></trkpt><trkpt lat="43.5665053" lon="11.3223298"><ele>285.3333333333333</ele><time>2026-04-26T10:55:12.982Z</time></trkpt><trkpt lat="43.5663478" lon="11.3223216"><ele>285.0</ele><time>2026-04-26T10:55:13.982Z</time></trkpt><trkpt lat="43.5661891" lon="11.3223363"><ele>285.0</ele><time>2026-04-26T10:55:14.982Z</time></trkpt><trkpt lat="43.5660311" lon="11.3223727"><ele>285.0</ele><time>2026-04-26T10:55:15.98Z</time></trkpt><trkpt lat="43.56587" lon="11.3224252"><ele>285.0</ele><time>2026-04-26T10:55:16.994Z</time></trkpt><trkpt lat="43.5657093" lon="11.3224643"><ele>285.0</ele><time>2026-04-26T10:55:17.982Z</time></trkpt><trkpt lat="43.5655506" lon="11.3224986"><ele>285.0</ele><time>2026-04-26T10:55:18.982Z</time></trkpt><trkpt lat="43.5654027" lon="11.3225217"><ele>285.0</ele><time>2026-04-26T10:55:19.981Z</time></trkpt><trkpt lat="43.5652675" lon="11.3225458"><ele>285.0</ele><time>2026-04-26T10:55:20.981Z</time></trkpt><trkpt lat="43.5651458" lon="11.3225795"><ele>287.5</ele><time>2026-04-26T10:55:21.98Z</time></trkpt><trkpt lat="43.565026" lon="11.3226285"><ele>290.0</ele><time>2026-04-26T10:55:22.988Z</time></trkpt><trkpt lat="43.5649084" lon="11.3227047"><ele>292.5</ele><time>2026-04-26T10:55:23.979Z</time></trkpt><trkpt lat="43.5647947" lon="11.3227951"><ele>295.0</ele><time>2026-04-26T10:55:24.981Z</time></trkpt><trkpt lat="43.5646797" lon="11.3228911"><ele>295.0</ele><time>2026-04-26T10:55:25.981Z</time></trkpt><trkpt lat="43.5645602" lon="11.3229821"><ele>295.0</ele><time>2026-04-26T10:55:26.984Z</time></trkpt><trkpt lat="43.5644284" lon="11.3230496"><ele>295.0</ele><time>2026-04-26T10:55:27.98Z</time></trkpt><trkpt lat="43.5642867" lon="11.3230967"><ele>295.0</ele><time>2026-04-26T10:55:28.984Z</time></trkpt><trkpt lat="43.564135" lon="11.3231191"><ele>295.3333333333333</ele><time>2026-04-26T10:55:29.984Z</time></trkpt><trkpt lat="43.5639753" lon="11.3231374"><ele>295.6666666666667</ele><time>2026-04-26T10:55:30.98Z</time></trkpt><trkpt lat="43.5638159" lon="11.3231795"><ele>296.0</ele><time>2026-04-26T10:55:31.982Z</time></trkpt><trkpt lat="43.5636601" lon="11.323254"><ele>299.6666666666667</ele><time>2026-04-26T10:55:32.982Z</time></trkpt><trkpt lat="43.5635118" lon="11.3233456"><ele>303.3333333333333</ele><time>2026-04-26T10:55:33.984Z</time></trkpt><trkpt lat="43.563369" lon="11.3234434"><ele>307.0</ele><time>2026-04-26T10:55:34.98Z</time></trkpt><trkpt lat="43.5632333" lon="11.323538"><ele>307.0</ele><time>2026-04-26T10:55:35.979Z</time></trkpt><trkpt lat="43.5631082" lon="11.3236275"><ele>307.0</ele><time>2026-04-26T10:55:36.983Z</time></trkpt><trkpt lat="43.5629785" lon="11.3237011"><ele>307.0</ele><time>2026-04-26T10:55:37.983Z</time></trkpt><trkpt lat="43.5628373" lon="11.3237514"><ele>307.0</ele><time>2026-04-26T10:55:38.981Z</time></trkpt><trkpt lat="43.5626905" lon="11.3237778"><ele>305.0</ele><time>2026-04-26T10:55:39.988Z</time></trkpt><trkpt lat="43.5623768" lon="11.32388"><ele>303.0</ele><time>2026-04-26T10:55:41.987Z</time></trkpt><trkpt lat="43.5622248" lon="11.3239747"><ele>303.0</ele><time>2026-04-26T10:55:42.98Z</time></trkpt><trkpt lat="43.5620742" lon="11.3240672"><ele>303.0</ele><time>2026-04-26T10:55:43.98Z</time></trkpt><trkpt lat="43.5619187" lon="11.3241604"><ele>303.0</ele><time>2026-04-26T10:55:44.983Z</time></trkpt><trkpt lat="43.561756" lon="11.324227"><ele>307.3333333333333</ele><time>2026-04-26T10:55:45.98Z</time></trkpt><trkpt lat="43.5615959" lon="11.3242848"><ele>311.66666666666663</ele><time>2026-04-26T10:55:46.981Z</time></trkpt><trkpt lat="43.5614344" lon="11.3243263"><ele>316.0</ele><time>2026-04-26T10:55:47.987Z</time></trkpt><trkpt lat="43.5612778" lon="11.3243557"><ele>318.0</ele><time>2026-04-26T10:55:48.98Z</time></trkpt><trkpt lat="43.5611264" lon="11.3243586"><ele>320.0</ele><time>2026-04-26T10:55:49.982Z</time></trkpt><trkpt lat="43.5609784" lon="11.3243373"><ele>322.0</ele><time>2026-04-26T10:55:50.979Z</time></trkpt><trkpt lat="43.5608278" lon="11.3243026"><ele>322.0</ele><time>2026-04-26T10:55:51.982Z</time></trkpt><trkpt lat="43.5606768" lon="11.3242477"><ele>322.0</ele><time>2026-04-26T10:55:52.983Z</time></trkpt><trkpt lat="43.5605321" lon="11.3241781"><ele>322.0</ele><time>2026-04-26T10:55:53.98Z</time></trkpt><trkpt lat="43.5603886" lon="11.3240953"><ele>324.0</ele><time>2026-04-26T10:55:54.98Z</time></trkpt><trkpt lat="43.560253" lon="11.3239916"><ele>326.0</ele><time>2026-04-26T10:55:55.979Z</time></trkpt><trkpt lat="43.5601276" lon="11.3238725"><ele>328.0</ele><time>2026-04-26T10:55:56.982Z</time></trkpt><trkpt lat="43.560004" lon="11.3237462"><ele>328.0</ele><time>2026-04-26T10:55:57.984Z</time></trkpt><trkpt lat="43.5598871" lon="11.3236305"><ele>328.0</ele><time>2026-04-26T10:55:58.981Z</time></trkpt><trkpt lat="43.5597801" lon="11.3235252"><ele>328.0</ele><time>2026-04-26T10:55:59.984Z</time></trkpt><trkpt lat="43.5596852" lon="11.3234221"><ele>328.0</ele><time>2026-04-26T10:56:00.98Z</time></trkpt><trkpt lat="43.5595995" lon="11.3233181"><ele>329.25</ele><time>2026-04-26T10:56:01.981Z</time></trkpt><trkpt lat="43.5595328" lon="11.3231969"><ele>330.5</ele><time>2026-04-26T10:56:02.987Z</time></trkpt><trkpt lat="43.5594776" lon="11.3230594"><ele>331.75</ele><time>2026-04-26T10:56:03.981Z</time></trkpt><trkpt lat="43.5594286" lon="11.322912"><ele>333.0</ele><time>2026-04-26T10:56:04.98Z</time></trkpt><trkpt lat="43.5593813" lon="11.3227602"><ele>333.0</ele><time>2026-04-26T10:56:05.982Z</time></trkpt><trkpt lat="43.5593259" lon="11.3226295"><ele>333.0</ele><time>2026-04-26T10:56:06.984Z</time></trkpt><trkpt lat="43.5592505" lon="11.3225251"><ele>333.0</ele><time>2026-04-26T10:56:07.981Z</time></trkpt><trkpt lat="43.5591544" lon="11.3224416"><ele>333.0</ele><time>2026-04-26T10:56:08.98Z</time></trkpt><trkpt lat="43.5590519" lon="11.3223924"><ele>333.0</ele><time>2026-04-26T10:56:09.981Z</time></trkpt><trkpt lat="43.5589419" lon="11.3223783"><ele>333.0</ele><time>2026-04-26T10:56:10.98Z</time></trkpt><trkpt lat="43.5588283" lon="11.322394"><ele>333.0</ele><time>2026-04-26T10:56:11.98Z</time></trkpt><trkpt lat="43.5587087" lon="11.3224295"><ele>333.0</ele><time>2026-04-26T10:56:12.983Z</time></trkpt><trkpt lat="43.5585787" lon="11.3224763"><ele>333.0</ele><time>2026-04-26T10:56:13.98Z</time></trkpt><trkpt lat="43.55844" lon="11.3225252"><ele>334.25</ele><time>2026-04-26T10:56:14.98Z</time></trkpt><trkpt lat="43.5582974" lon="11.3225727"><ele>335.5</ele><time>2026-04-26T10:56:15.98Z</time></trkpt><trkpt lat="43.55815" lon="11.3226218"><ele>336.75</ele><time>2026-04-26T10:56:16.983Z</time></trkpt><trkpt lat="43.5580096" lon="11.3226684"><ele>338.0</ele><time>2026-04-26T10:56:17.985Z</time></trkpt><trkpt lat="43.5578714" lon="11.3227133"><ele>340.75</ele><time>2026-04-26T10:56:18.983Z</time></trkpt><trkpt lat="43.5577474" lon="11.3227554"><ele>343.5</ele><time>2026-04-26T10:56:19.982Z</time></trkpt><trkpt lat="43.5576224" lon="11.3228009"><ele>346.25</ele><time>2026-04-26T10:56:20.98Z</time></trkpt><trkpt lat="43.5574982" lon="11.3228542"><ele>349.0</ele><time>2026-04-26T10:56:21.982Z</time></trkpt><trkpt lat="43.5573823" lon="11.3229195"><ele>349.0</ele><time>2026-04-26T10:56:22.985Z</time></trkpt><trkpt lat="43.5572704" lon="11.3230101"><ele>349.0</ele><time>2026-04-26T10:56:23.987Z</time></trkpt><trkpt lat="43.5571671" lon="11.3231177"><ele>349.0</ele><time>2026-04-26T10:56:24.98Z</time></trkpt><trkpt lat="43.5570671" lon="11.3232452"><ele>349.0</ele><time>2026-04-26T10:56:25.98Z</time></trkpt><trkpt lat="43.556953" lon="11.3233631"><ele>348.66666666666663</ele><time>2026-04-26T10:56:26.981Z</time></trkpt><trkpt lat="43.5568303" lon="11.3234774"><ele>348.3333333333333</ele><time>2026-04-26T10:56:27.981Z</time></trkpt><trkpt lat="43.5567042" lon="11.3235937"><ele>348.0</ele><time>2026-04-26T10:56:28.979Z</time></trkpt><trkpt lat="43.5565777" lon="11.3237112"><ele>348.0</ele><time>2026-04-26T10:56:29.981Z</time></trkpt><trkpt lat="43.5564483" lon="11.3238205"><ele>348.0</ele><time>2026-04-26T10:56:30.981Z</time></trkpt><trkpt lat="43.5563278" lon="11.3239282"><ele>348.0</ele><time>2026-04-26T10:56:31.981Z</time></trkpt><trkpt lat="43.5560901" lon="11.3241403"><ele>349.0</ele><time>2026-04-26T10:56:33.981Z</time></trkpt><trkpt lat="43.555975" lon="11.3242439"><ele>350.0</ele><time>2026-04-26T10:56:34.983Z</time></trkpt><trkpt lat="43.5558567" lon="11.3243453"><ele>351.0</ele><time>2026-04-26T10:56:35.98Z</time></trkpt><trkpt lat="43.5557494" lon="11.3244456"><ele>352.0</ele><time>2026-04-26T10:56:36.982Z</time></trkpt><trkpt lat="43.5556435" lon="11.3245347"><ele>352.0</ele><time>2026-04-26T10:56:37.982Z</time></trkpt><trkpt lat="43.5555329" lon="11.3246037"><ele>352.0</ele><time>2026-04-26T10:56:38.98Z</time></trkpt><trkpt lat="43.5554153" lon="11.324643"><ele>352.0</ele><time>2026-04-26T10:56:39.983Z</time></trkpt><trkpt lat="43.5552941" lon="11.3246449"><ele>352.0</ele><time>2026-04-26T10:56:40.982Z</time></trkpt><trkpt lat="43.5551682" lon="11.3246164"><ele>355.25</ele><time>2026-04-26T10:56:41.983Z</time></trkpt><trkpt lat="43.5550443" lon="11.3245715"><ele>358.5</ele><time>2026-04-26T10:56:42.985Z</time></trkpt><trkpt lat="43.5549221" lon="11.324526"><ele>361.75</ele><time>2026-04-26T10:56:43.98Z</time></trkpt><trkpt lat="43.5548" lon="11.3244977"><ele>365.0</ele><time>2026-04-26T10:56:44.981Z</time></trkpt><trkpt lat="43.5546844" lon="11.3244964"><ele>365.0</ele><time>2026-04-26T10:56:45.985Z</time></trkpt><trkpt lat="43.5545729" lon="11.3245297"><ele>365.0</ele><time>2026-04-26T10:56:46.986Z</time></trkpt><trkpt lat="43.5544664" lon="11.3245941"><ele>365.0</ele><time>2026-04-26T10:56:47.982Z</time></trkpt><trkpt lat="43.5543668" lon="11.3246895"><ele>365.0</ele><time>2026-04-26T10:56:48.981Z</time></trkpt><trkpt lat="43.5542716" lon="11.3248022"><ele>365.0</ele><time>2026-04-26T10:56:49.98Z</time></trkpt><trkpt lat="43.5541746" lon="11.3249148"><ele>365.0</ele><time>2026-04-26T10:56:50.982Z</time></trkpt><trkpt lat="43.5540801" lon="11.3250231"><ele>365.0</ele><time>2026-04-26T10:56:51.98Z</time></trkpt><trkpt lat="43.5539912" lon="11.3251223"><ele>365.0</ele><time>2026-04-26T10:56:52.978Z</time></trkpt><trkpt lat="43.5539049" lon="11.3252055"><ele>365.0</ele><time>2026-04-26T10:56:53.981Z</time></trkpt><trkpt lat="43.5538212" lon="11.3252788"><ele>365.0</ele><time>2026-04-26T10:56:54.982Z</time></trkpt><trkpt lat="43.5537289" lon="11.3253354"><ele>365.0</ele><time>2026-04-26T10:56:55.984Z</time></trkpt><trkpt lat="43.553636" lon="11.3253612"><ele>365.0</ele><time>2026-04-26T10:56:56.984Z</time></trkpt><trkpt lat="43.553543" lon="11.3253465"><ele>365.0</ele><time>2026-04-26T10:56:57.983Z</time></trkpt><trkpt lat="43.5534643" lon="11.3252911"><ele>365.4</ele><time>2026-04-26T10:56:58.981Z</time></trkpt><trkpt lat="43.553401" lon="11.3251966"><ele>365.8</ele><time>2026-04-26T10:56:59.981Z</time></trkpt><trkpt lat="43.5533584" lon="11.3250721"><ele>366.20000000000005</ele><time>2026-04-26T10:57:00.979Z</time></trkpt><trkpt lat="43.553331" lon="11.3249255"><ele>366.6</ele><time>2026-04-26T10:57:01.98Z</time></trkpt><trkpt lat="43.5533093" lon="11.3247692"><ele>367.0</ele><time>2026-04-26T10:57:02.98Z</time></trkpt><trkpt lat="43.5532815" lon="11.3246277"><ele>369.8</ele><time>2026-04-26T10:57:03.982Z</time></trkpt><trkpt lat="43.5532429" lon="11.3244951"><ele>372.6</ele><time>2026-04-26T10:57:04.982Z</time></trkpt><trkpt lat="43.5531896" lon="11.3243703"><ele>375.40000000000003</ele><time>2026-04-26T10:57:05.983Z</time></trkpt><trkpt lat="43.5531106" lon="11.324263"><ele>378.20000000000005</ele><time>2026-04-26T10:57:06.98Z</time></trkpt><trkpt lat="43.553014" lon="11.3241837"><ele>381.0</ele><time>2026-04-26T10:57:07.98Z</time></trkpt><trkpt lat="43.5529009" lon="11.3241398"><ele>380.0</ele><time>2026-04-26T10:57:08.981Z</time></trkpt><trkpt lat="43.5527751" lon="11.3241172"><ele>379.0</ele><time>2026-04-26T10:57:09.98Z</time></trkpt><trkpt lat="43.5526483" lon="11.3241103"><ele>378.0</ele><time>2026-04-26T10:57:10.979Z</time></trkpt><trkpt lat="43.5525153" lon="11.3241214"><ele>377.0</ele><time>2026-04-26T10:57:11.981Z</time></trkpt><trkpt lat="43.5523822" lon="11.3241333"><ele>377.0</ele><time>2026-04-26T10:57:12.981Z</time></trkpt><trkpt lat="43.5522477" lon="11.3241471"><ele>377.0</ele><time>2026-04-26T10:57:13.98Z</time></trkpt><trkpt lat="43.552115" lon="11.3241608"><ele>377.0</ele><time>2026-04-26T10:57:14.982Z</time></trkpt><trkpt lat="43.5519864" lon="11.3241658"><ele>377.0</ele><time>2026-04-26T10:57:15.984Z</time></trkpt><trkpt lat="43.551862" lon="11.3241699"><ele>377.5</ele><time>2026-04-26T10:57:16.981Z</time></trkpt><trkpt lat="43.5517325" lon="11.3241561"><ele>378.0</ele><time>2026-04-26T10:57:17.984Z</time></trkpt><trkpt lat="43.5516026" lon="11.3241219"><ele>378.5</ele><time>2026-04-26T10:57:18.986Z</time></trkpt><trkpt lat="43.5514748" lon="11.324069"><ele>379.0</ele><time>2026-04-26T10:57:19.99Z</time></trkpt><trkpt lat="43.5513522" lon="11.324009"><ele>379.0</ele><time>2026-04-26T10:57:20.98Z</time></trkpt><trkpt lat="43.551224" lon="11.3239557"><ele>379.0</ele><time>2026-04-26T10:57:21.986Z</time></trkpt><trkpt lat="43.5510967" lon="11.3239032"><ele>379.0</ele><time>2026-04-26T10:57:22.981Z</time></trkpt><trkpt lat="43.5509724" lon="11.3238522"><ele>379.0</ele><time>2026-04-26T10:57:23.98Z</time></trkpt><trkpt lat="43.5508526" lon="11.3237988"><ele>383.0</ele><time>2026-04-26T10:57:24.979Z</time></trkpt><trkpt lat="43.5507407" lon="11.3237297"><ele>387.0</ele><time>2026-04-26T10:57:25.98Z</time></trkpt><trkpt lat="43.5506289" lon="11.3236444"><ele>391.0</ele><time>2026-04-26T10:57:26.981Z</time></trkpt><trkpt lat="43.5505259" lon="11.3235347"><ele>395.0</ele><time>2026-04-26T10:57:27.983Z</time></trkpt><trkpt lat="43.5504295" lon="11.3234098"><ele>395.0</ele><time>2026-04-26T10:57:28.981Z</time></trkpt><trkpt lat="43.5503376" lon="11.3232881"><ele>395.0</ele><time>2026-04-26T10:57:29.98Z</time></trkpt><trkpt lat="43.5502437" lon="11.3231709"><ele>395.0</ele><time>2026-04-26T10:57:30.979Z</time></trkpt><trkpt lat="43.5501416" lon="11.323072"><ele>395.0</ele><time>2026-04-26T10:57:31.981Z</time></trkpt><trkpt lat="43.550029" lon="11.3229949"><ele>395.0</ele><time>2026-04-26T10:57:32.983Z</time></trkpt><trkpt lat="43.5499082" lon="11.3229365"><ele>395.0</ele><time>2026-04-26T10:57:33.979Z</time></trkpt><trkpt lat="43.5497805" lon="11.3228952"><ele>395.0</ele><time>2026-04-26T10:57:34.982Z</time></trkpt><trkpt lat="43.5496448" lon="11.3228814"><ele>395.0</ele><time>2026-04-26T10:57:35.982Z</time></trkpt><trkpt lat="43.5495072" lon="11.3229023"><ele>395.3333333333333</ele><time>2026-04-26T10:57:36.988Z</time></trkpt><trkpt lat="43.5493663" lon="11.322936"><ele>395.66666666666663</ele><time>2026-04-26T10:57:37.978Z</time></trkpt><trkpt lat="43.5492172" lon="11.3229739"><ele>396.0</ele><time>2026-04-26T10:57:38.981Z</time></trkpt><trkpt lat="43.5490623" lon="11.3230143"><ele>396.0</ele><time>2026-04-26T10:57:39.98Z</time></trkpt><trkpt lat="43.5489072" lon="11.3230565"><ele>396.0</ele><time>2026-04-26T10:57:40.98Z</time></trkpt><trkpt lat="43.548747" lon="11.3230959"><ele>396.0</ele><time>2026-04-26T10:57:41.983Z</time></trkpt><trkpt lat="43.5485855" lon="11.3231367"><ele>393.66666666666663</ele><time>2026-04-26T10:57:42.98Z</time></trkpt><trkpt lat="43.5484235" lon="11.3231773"><ele>391.3333333333333</ele><time>2026-04-26T10:57:43.981Z</time></trkpt><trkpt lat="43.5482571" lon="11.3232146"><ele>389.0</ele><time>2026-04-26T10:57:44.985Z</time></trkpt><trkpt lat="43.548091" lon="11.3232514"><ele>389.0</ele><time>2026-04-26T10:57:45.983Z</time></trkpt><trkpt lat="43.5479234" lon="11.3232938"><ele>389.0</ele><time>2026-04-26T10:57:46.983Z</time></trkpt><trkpt lat="43.5477519" lon="11.3233318"><ele>389.0</ele><time>2026-04-26T10:57:47.989Z</time></trkpt><trkpt lat="43.5475812" lon="11.3233746"><ele>391.0</ele><time>2026-04-26T10:57:48.983Z</time></trkpt><trkpt lat="43.5474091" lon="11.3234154"><ele>393.0</ele><time>2026-04-26T10:57:49.982Z</time></trkpt><trkpt lat="43.5472343" lon="11.3234554"><ele>395.0</ele><time>2026-04-26T10:57:50.985Z</time></trkpt><trkpt lat="43.5470636" lon="11.3234971"><ele>397.66666666666663</ele><time>2026-04-26T10:57:51.981Z</time></trkpt><trkpt lat="43.5468974" lon="11.323536"><ele>400.33333333333337</ele><time>2026-04-26T10:57:52.981Z</time></trkpt><trkpt lat="43.5467525" lon="11.3235708"><ele>403.0</ele><time>2026-04-26T10:57:53.979Z</time></trkpt><trkpt lat="43.5466198" lon="11.3236035"><ele>403.0</ele><time>2026-04-26T10:57:54.983Z</time></trkpt><trkpt lat="43.5464966" lon="11.3236513"><ele>403.0</ele><time>2026-04-26T10:57:55.981Z</time></trkpt><trkpt lat="43.5462822" lon="11.3238469"><ele>403.0</ele><time>2026-04-26T10:57:57.981Z</time></trkpt><trkpt lat="43.5462092" lon="11.3239874"><ele>402.5</ele><time>2026-04-26T10:57:58.981Z</time></trkpt><trkpt lat="43.5461529" lon="11.3241562"><ele>402.0</ele><time>2026-04-26T10:57:59.98Z</time></trkpt><trkpt lat="43.5460992" lon="11.3243261"><ele>401.5</ele><time>2026-04-26T10:58:00.985Z</time></trkpt><trkpt lat="43.5460461" lon="11.3244927"><ele>401.0</ele><time>2026-04-26T10:58:01.979Z</time></trkpt><trkpt lat="43.5459998" lon="11.3246528"><ele>402.0</ele><time>2026-04-26T10:58:02.98Z</time></trkpt><trkpt lat="43.5459525" lon="11.3248109"><ele>403.0</ele><time>2026-04-26T10:58:03.982Z</time></trkpt><trkpt lat="43.5459062" lon="11.3249674"><ele>404.0</ele><time>2026-04-26T10:58:04.983Z</time></trkpt><trkpt lat="43.5458605" lon="11.3251238"><ele>405.0</ele><time>2026-04-26T10:58:05.982Z</time></trkpt><trkpt lat="43.5458147" lon="11.3252848"><ele>405.0</ele><time>2026-04-26T10:58:06.982Z</time></trkpt><trkpt lat="43.5457656" lon="11.325443"><ele>405.0</ele><time>2026-04-26T10:58:07.98Z</time></trkpt><trkpt lat="43.5457199" lon="11.3256064"><ele>405.0</ele><time>2026-04-26T10:58:08.981Z</time></trkpt><trkpt lat="43.5456705" lon="11.3257681"><ele>405.0</ele><time>2026-04-26T10:58:09.981Z</time></trkpt><trkpt lat="43.5456127" lon="11.325928"><ele>405.5</ele><time>2026-04-26T10:58:10.982Z</time></trkpt><trkpt lat="43.545553" lon="11.3260801"><ele>406.0</ele><time>2026-04-26T10:58:11.983Z</time></trkpt><trkpt lat="43.5454838" lon="11.3262253"><ele>406.5</ele><time>2026-04-26T10:58:12.981Z</time></trkpt><trkpt lat="43.5454076" lon="11.3263703"><ele>407.0</ele><time>2026-04-26T10:58:13.981Z</time></trkpt><trkpt lat="43.5453261" lon="11.3265183"><ele>408.25</ele><time>2026-04-26T10:58:14.982Z</time></trkpt><trkpt lat="43.5452437" lon="11.3266641"><ele>409.5</ele><time>2026-04-26T10:58:15.984Z</time></trkpt><trkpt lat="43.5451637" lon="11.3267982"><ele>410.75</ele><time>2026-04-26T10:58:16.982Z</time></trkpt><trkpt lat="43.5450871" lon="11.3269173"><ele>412.0</ele><time>2026-04-26T10:58:17.98Z</time></trkpt><trkpt lat="43.545004" lon="11.3270158"><ele>412.0</ele><time>2026-04-26T10:58:18.982Z</time></trkpt><trkpt lat="43.5449119" lon="11.3270924"><ele>412.0</ele><time>2026-04-26T10:58:19.981Z</time></trkpt><trkpt lat="43.5448154" lon="11.3271423"><ele>412.0</ele><time>2026-04-26T10:58:20.981Z</time></trkpt><trkpt lat="43.544716" lon="11.3271498"><ele>412.0</ele><time>2026-04-26T10:58:21.979Z</time></trkpt><trkpt lat="43.5446186" lon="11.327117"><ele>412.0</ele><time>2026-04-26T10:58:22.981Z</time></trkpt><trkpt lat="43.5445262" lon="11.3270459"><ele>414.0</ele><time>2026-04-26T10:58:23.98Z</time></trkpt><trkpt lat="43.5444558" lon="11.3269409"><ele>416.0</ele><time>2026-04-26T10:58:24.98Z</time></trkpt><trkpt lat="43.5444085" lon="11.3268066"><ele>418.0</ele><time>2026-04-26T10:58:25.979Z</time></trkpt><trkpt lat="43.5443826" lon="11.3266461"><ele>420.0</ele><time>2026-04-26T10:58:26.982Z</time></trkpt><trkpt lat="43.5443279" lon="11.3262776"><ele>420.0</ele><time>2026-04-26T10:58:28.981Z</time></trkpt><trkpt lat="43.544296" lon="11.3260847"><ele>420.0</ele><time>2026-04-26T10:58:29.984Z</time></trkpt><trkpt lat="43.5442556" lon="11.3258879"><ele>420.0</ele><time>2026-04-26T10:58:30.982Z</time></trkpt><trkpt lat="43.5442217" lon="11.325684"><ele>420.0</ele><time>2026-04-26T10:58:31.98Z</time></trkpt><trkpt lat="43.5441949" lon="11.3254791"><ele>420.5</ele><time>2026-04-26T10:58:32.981Z</time></trkpt><trkpt lat="43.5441787" lon="11.3252728"><ele>421.0</ele><time>2026-04-26T10:58:33.983Z</time></trkpt><trkpt lat="43.544173" lon="11.3250819"><ele>421.5</ele><time>2026-04-26T10:58:34.984Z</time></trkpt><trkpt lat="43.5441746" lon="11.3249005"><ele>422.0</ele><time>2026-04-26T10:58:35.98Z</time></trkpt><trkpt lat="43.5441922" lon="11.3247376"><ele>423.75</ele><time>2026-04-26T10:58:36.982Z</time></trkpt><trkpt lat="43.5442377" lon="11.3245816"><ele>425.5</ele><time>2026-04-26T10:58:37.983Z</time></trkpt><trkpt lat="43.5443055" lon="11.3244409"><ele>427.25</ele><time>2026-04-26T10:58:38.981Z</time></trkpt><trkpt lat="43.5443845" lon="11.324319"><ele>429.0</ele><time>2026-04-26T10:58:39.981Z</time></trkpt><trkpt lat="43.5444617" lon="11.3242046"><ele>429.0</ele><time>2026-04-26T10:58:40.981Z</time></trkpt><trkpt lat="43.5445237" lon="11.3240839"><ele>429.0</ele><time>2026-04-26T10:58:41.982Z</time></trkpt><trkpt lat="43.5445725" lon="11.3239416"><ele>429.0</ele><time>2026-04-26T10:58:42.984Z</time></trkpt><trkpt lat="43.5446029" lon="11.3237871"><ele>429.0</ele><time>2026-04-26T10:58:43.982Z</time></trkpt><trkpt lat="43.5446156" lon="11.3236318"><ele>430.5</ele><time>2026-04-26T10:58:44.985Z</time></trkpt><trkpt lat="43.5445991" lon="11.3234792"><ele>432.0</ele><time>2026-04-26T10:58:45.983Z</time></trkpt><trkpt lat="43.544573" lon="11.3233231"><ele>433.5</ele><time>2026-04-26T10:58:46.983Z</time></trkpt><trkpt lat="43.5445298" lon="11.3231628"><ele>435.0</ele><time>2026-04-26T10:58:47.979Z</time></trkpt><trkpt lat="43.5444132" lon="11.3228394"><ele>435.0</ele><time>2026-04-26T10:58:49.979Z</time></trkpt><trkpt lat="43.5443524" lon="11.3226709"><ele>435.0</ele><time>2026-04-26T10:58:50.977Z</time></trkpt><trkpt lat="43.5442927" lon="11.3225003"><ele>435.0</ele><time>2026-04-26T10:58:51.98Z</time></trkpt><trkpt lat="43.5442352" lon="11.3223416"><ele>435.0</ele><time>2026-04-26T10:58:52.982Z</time></trkpt><trkpt lat="43.5441819" lon="11.3221991"><ele>435.6</ele><time>2026-04-26T10:58:53.983Z</time></trkpt><trkpt lat="43.5441333" lon="11.3220664"><ele>436.2</ele><time>2026-04-26T10:58:54.98Z</time></trkpt><trkpt lat="43.5440976" lon="11.3219331"><ele>436.79999999999995</ele><time>2026-04-26T10:58:55.979Z</time></trkpt><trkpt lat="43.5440838" lon="11.3218012"><ele>437.4</ele><time>2026-04-26T10:58:56.982Z</time></trkpt><trkpt lat="43.5440884" lon="11.3216665"><ele>438.0</ele><time>2026-04-26T10:58:57.979Z</time></trkpt><trkpt lat="43.544116" lon="11.3215468"><ele>438.0</ele><time>2026-04-26T10:58:58.979Z</time></trkpt><trkpt lat="43.544172" lon="11.3214542"><ele>437.99999999999994</ele><time>2026-04-26T10:58:59.98Z</time></trkpt><trkpt lat="43.5442536" lon="11.3213904"><ele>437.99999999999994</ele><time>2026-04-26T10:59:00.978Z</time></trkpt><trkpt lat="43.5443486" lon="11.3213592"><ele>438.0</ele><time>2026-04-26T10:59:01.979Z</time></trkpt><trkpt lat="43.5444553" lon="11.3213518"><ele>438.0</ele><time>2026-04-26T10:59:02.98Z</time></trkpt><trkpt lat="43.5445725" lon="11.3213481"><ele>441.5</ele><time>2026-04-26T10:59:03.98Z</time></trkpt><trkpt lat="43.5446957" lon="11.3213465"><ele>445.0</ele><time>2026-04-26T10:59:04.98Z</time></trkpt><trkpt lat="43.544823" lon="11.3213419"><ele>448.5</ele><time>2026-04-26T10:59:05.978Z</time></trkpt><trkpt lat="43.5449628" lon="11.3213357"><ele>452.0</ele><time>2026-04-26T10:59:06.981Z</time></trkpt><trkpt lat="43.5451058" lon="11.3213277"><ele>452.0</ele><time>2026-04-26T10:59:07.982Z</time></trkpt><trkpt lat="43.5452704" lon="11.3213202"><ele>452.0</ele><time>2026-04-26T10:59:08.983Z</time></trkpt><trkpt lat="43.5454557" lon="11.3213095"><ele>452.0</ele><time>2026-04-26T10:59:09.984Z</time></trkpt><trkpt lat="43.5456565" lon="11.3212942"><ele>453.3333333333333</ele><time>2026-04-26T10:59:10.984Z</time></trkpt><trkpt lat="43.5458763" lon="11.3212824"><ele>454.66666666666663</ele><time>2026-04-26T10:59:11.983Z</time></trkpt><trkpt lat="43.5460742" lon="11.3212759"><ele>456.0</ele><time>2026-04-26T10:59:12.979Z</time></trkpt><trkpt lat="43.5462488" lon="11.3212759"><ele>456.33333333333337</ele><time>2026-04-26T10:59:13.982Z</time></trkpt><trkpt lat="43.5464081" lon="11.3212743"><ele>456.6666666666667</ele><time>2026-04-26T10:59:14.982Z</time></trkpt><trkpt lat="43.54655" lon="11.3212472"><ele>457.0</ele><time>2026-04-26T10:59:15.981Z</time></trkpt><trkpt lat="43.5466919" lon="11.3211866"><ele>457.0</ele><time>2026-04-26T10:59:16.982Z</time></trkpt><trkpt lat="43.5468298" lon="11.3211112"><ele>457.0</ele><time>2026-04-26T10:59:17.982Z</time></trkpt><trkpt lat="43.5469738" lon="11.3210449"><ele>457.0</ele><time>2026-04-26T10:59:18.98Z</time></trkpt><trkpt lat="43.5472516" lon="11.3209582"><ele>455.25</ele><time>2026-04-26T10:59:20.979Z</time></trkpt><trkpt lat="43.5473677" lon="11.3209112"><ele>453.5</ele><time>2026-04-26T10:59:21.981Z</time></trkpt><trkpt lat="43.5474669" lon="11.3208369"><ele>451.75</ele><time>2026-04-26T10:59:22.98Z</time></trkpt><trkpt lat="43.5475477" lon="11.3207311"><ele>450.0</ele><time>2026-04-26T10:59:23.977Z</time></trkpt><trkpt lat="43.5476052" lon="11.3205912"><ele>450.8</ele><time>2026-04-26T10:59:24.981Z</time></trkpt><trkpt lat="43.5476304" lon="11.3204471"><ele>451.6</ele><time>2026-04-26T10:59:25.983Z</time></trkpt><trkpt lat="43.54762" lon="11.3203077"><ele>452.4</ele><time>2026-04-26T10:59:26.981Z</time></trkpt><trkpt lat="43.5475811" lon="11.3201819"><ele>453.2</ele><time>2026-04-26T10:59:27.979Z</time></trkpt><trkpt lat="43.5475199" lon="11.3200764"><ele>454.0</ele><time>2026-04-26T10:59:28.979Z</time></trkpt><trkpt lat="43.5474385" lon="11.3199875"><ele>454.0</ele><time>2026-04-26T10:59:29.982Z</time></trkpt><trkpt lat="43.5473427" lon="11.3199022"><ele>454.0</ele><time>2026-04-26T10:59:30.98Z</time></trkpt><trkpt lat="43.5472354" lon="11.319811"><ele>454.0</ele><time>2026-04-26T10:59:31.979Z</time></trkpt><trkpt lat="43.5471227" lon="11.319722"><ele>454.0</ele><time>2026-04-26T10:59:32.981Z</time></trkpt><trkpt lat="43.5470095" lon="11.3196259"><ele>456.0</ele><time>2026-04-26T10:59:33.979Z</time></trkpt><trkpt lat="43.5468949" lon="11.3195229"><ele>458.0</ele><time>2026-04-26T10:59:34.978Z</time></trkpt><trkpt lat="43.5467851" lon="11.3194036"><ele>460.0</ele><time>2026-04-26T10:59:35.978Z</time></trkpt><trkpt lat="43.5466935" lon="11.3192774"><ele>462.0</ele><time>2026-04-26T10:59:36.979Z</time></trkpt><trkpt lat="43.5466186" lon="11.3191324"><ele>462.0</ele><time>2026-04-26T10:59:37.979Z</time></trkpt><trkpt lat="43.54656" lon="11.3189776"><ele>462.0</ele><time>2026-04-26T10:59:38.98Z</time></trkpt><trkpt lat="43.5465268" lon="11.3188086"><ele>462.0</ele><time>2026-04-26T10:59:39.981Z</time></trkpt><trkpt lat="43.5465236" lon="11.3184502"><ele>461.40000000000003</ele><time>2026-04-26T10:59:41.98Z</time></trkpt><trkpt lat="43.5465206" lon="11.3182859"><ele>460.80000000000007</ele><time>2026-04-26T10:59:42.98Z</time></trkpt><trkpt lat="43.5464973" lon="11.3181372"><ele>460.2</ele><time>2026-04-26T10:59:43.981Z</time></trkpt><trkpt lat="43.5464571" lon="11.3180127"><ele>459.6</ele><time>2026-04-26T10:59:44.983Z</time></trkpt><trkpt lat="43.5463861" lon="11.3179125"><ele>459.0</ele><time>2026-04-26T10:59:45.985Z</time></trkpt><trkpt lat="43.546321" lon="11.3178196"><ele>461.5</ele><time>2026-04-26T10:59:46.981Z</time></trkpt><trkpt lat="43.5461966" lon="11.3178051"><ele>464.0</ele><time>2026-04-26T10:59:47.978Z</time></trkpt><trkpt lat="43.5460784" lon="11.3177703"><ele>466.5</ele><time>2026-04-26T10:59:48.983Z</time></trkpt><trkpt lat="43.5459477" lon="11.3177493"><ele>469.0</ele><time>2026-04-26T10:59:49.982Z</time></trkpt><trkpt lat="43.5458173" lon="11.3177335"><ele>469.0</ele><time>2026-04-26T10:59:50.982Z</time></trkpt><trkpt lat="43.5456889" lon="11.3177113"><ele>469.0</ele><time>2026-04-26T10:59:51.984Z</time></trkpt><trkpt lat="43.5455716" lon="11.3176945"><ele>469.0</ele><time>2026-04-26T10:59:52.981Z</time></trkpt><trkpt lat="43.5454603" lon="11.3176413"><ele>469.0</ele><time>2026-04-26T10:59:53.981Z</time></trkpt><trkpt lat="43.5453559" lon="11.317569"><ele>471.0</ele><time>2026-04-26T10:59:54.979Z</time></trkpt><trkpt lat="43.5452698" lon="11.3174658"><ele>473.0</ele><time>2026-04-26T10:59:55.98Z</time></trkpt><trkpt lat="43.5452057" lon="11.3173427"><ele>475.0</ele><time>2026-04-26T10:59:56.981Z</time></trkpt><trkpt lat="43.5451563" lon="11.3172011"><ele>477.0</ele><time>2026-04-26T10:59:57.981Z</time></trkpt><trkpt lat="43.5451225" lon="11.3170497"><ele>477.0</ele><time>2026-04-26T10:59:58.985Z</time></trkpt><trkpt lat="43.5451093" lon="11.3169072"><ele>477.00000000000006</ele><time>2026-04-26T10:59:59.983Z</time></trkpt><trkpt lat="43.5451092" lon="11.3167704"><ele>477.00000000000006</ele><time>2026-04-26T11:00:00.983Z</time></trkpt><trkpt lat="43.5451074" lon="11.3166452"><ele>477.0</ele><time>2026-04-26T11:00:01.978Z</time></trkpt><trkpt lat="43.5451104" lon="11.3165226"><ele>477.0</ele><time>2026-04-26T11:00:02.979Z</time></trkpt><trkpt lat="43.5451107" lon="11.3164167"><ele>476.6666666666667</ele><time>2026-04-26T11:00:03.981Z</time></trkpt><trkpt lat="43.5451062" lon="11.3163141"><ele>476.33333333333337</ele><time>2026-04-26T11:00:04.98Z</time></trkpt><trkpt lat="43.5450866" lon="11.3162288"><ele>476.0</ele><time>2026-04-26T11:00:05.981Z</time></trkpt><trkpt lat="43.545029" lon="11.3161174"><ele>475.6666666666667</ele><time>2026-04-26T11:00:07.979Z</time></trkpt><trkpt lat="43.5449509" lon="11.3160658"><ele>475.33333333333337</ele><time>2026-04-26T11:00:09.979Z</time></trkpt><trkpt lat="43.5448729" lon="11.3160281"><ele>475.0</ele><time>2026-04-26T11:00:11.981Z</time></trkpt><trkpt lat="43.5447647" lon="11.3160418"><ele>475.00000000000006</ele><time>2026-04-26T11:00:13.981Z</time></trkpt><trkpt lat="43.5446507" lon="11.3160813"><ele>475.0</ele><time>2026-04-26T11:00:15.98Z</time></trkpt><trkpt lat="43.5445842" lon="11.3161018"><ele>475.0</ele><time>2026-04-26T11:00:16.986Z</time></trkpt><trkpt lat="43.5445127" lon="11.3161214"><ele>475.0</ele><time>2026-04-26T11:00:17.982Z</time></trkpt><trkpt lat="43.5444356" lon="11.3161437"><ele>475.00000000000006</ele><time>2026-04-26T11:00:18.982Z</time></trkpt><trkpt lat="43.5443574" lon="11.316166"><ele>475.0</ele><time>2026-04-26T11:00:19.983Z</time></trkpt><trkpt lat="43.5442784" lon="11.3161922"><ele>474.1666666666667</ele><time>2026-04-26T11:00:20.98Z</time></trkpt><trkpt lat="43.5441972" lon="11.3162183"><ele>473.33333333333337</ele><time>2026-04-26T11:00:21.979Z</time></trkpt><trkpt lat="43.5441162" lon="11.3162404"><ele>472.5</ele><time>2026-04-26T11:00:22.98Z</time></trkpt><trkpt lat="43.5440409" lon="11.3162707"><ele>471.66666666666663</ele><time>2026-04-26T11:00:23.982Z</time></trkpt><trkpt lat="43.5439671" lon="11.3162938"><ele>470.8333333333333</ele><time>2026-04-26T11:00:24.979Z</time></trkpt><trkpt lat="43.5438899" lon="11.3163204"><ele>470.0</ele><time>2026-04-26T11:00:25.981Z</time></trkpt><trkpt lat="43.5438092" lon="11.3163463"><ele>469.99999999999994</ele><time>2026-04-26T11:00:26.979Z</time></trkpt><trkpt lat="43.5437315" lon="11.3163749"><ele>470.0</ele><time>2026-04-26T11:00:27.982Z</time></trkpt><trkpt lat="43.5436486" lon="11.3164018"><ele>470.0</ele><time>2026-04-26T11:00:28.979Z</time></trkpt><trkpt lat="43.5435654" lon="11.3164261"><ele>470.0</ele><time>2026-04-26T11:00:29.979Z</time></trkpt><trkpt lat="43.5434786" lon="11.3164525"><ele>469.99999999999994</ele><time>2026-04-26T11:00:30.978Z</time></trkpt><trkpt lat="43.5433887" lon="11.3164813"><ele>470.0</ele><time>2026-04-26T11:00:31.983Z</time></trkpt><trkpt lat="43.5432971" lon="11.3165051"><ele>469.8</ele><time>2026-04-26T11:00:32.981Z</time></trkpt><trkpt lat="43.5432042" lon="11.3165288"><ele>469.6</ele><time>2026-04-26T11:00:33.982Z</time></trkpt><trkpt lat="43.5431125" lon="11.3165548"><ele>469.4</ele><time>2026-04-26T11:00:34.979Z</time></trkpt><trkpt lat="43.5430196" lon="11.3165691"><ele>469.2</ele><time>2026-04-26T11:00:35.979Z</time></trkpt><trkpt lat="43.5429309" lon="11.316593"><ele>469.0</ele><time>2026-04-26T11:00:36.98Z</time></trkpt><trkpt lat="43.5428371" lon="11.31662"><ele>469.0</ele><time>2026-04-26T11:00:37.981Z</time></trkpt><trkpt lat="43.542744" lon="11.3166607"><ele>469.0</ele><time>2026-04-26T11:00:38.979Z</time></trkpt><trkpt lat="43.5426514" lon="11.316721"><ele>469.0</ele><time>2026-04-26T11:00:39.981Z</time></trkpt><trkpt lat="43.5425793" lon="11.316797"><ele>469.0</ele><time>2026-04-26T11:00:40.98Z</time></trkpt><trkpt lat="43.5425126" lon="11.3168758"><ele>469.0</ele><time>2026-04-26T11:00:41.981Z</time></trkpt><trkpt lat="43.5424427" lon="11.3169579"><ele>469.0</ele><time>2026-04-26T11:00:42.982Z</time></trkpt><trkpt lat="43.5423702" lon="11.3170398"><ele>469.0</ele><time>2026-04-26T11:00:43.98Z</time></trkpt><trkpt lat="43.5422901" lon="11.3171123"><ele>469.0</ele><time>2026-04-26T11:00:44.98Z</time></trkpt><trkpt lat="43.5422002" lon="11.3171629"><ele>469.0</ele><time>2026-04-26T11:00:45.979Z</time></trkpt><trkpt lat="43.5421003" lon="11.3171927"><ele>469.0</ele><time>2026-04-26T11:00:46.981Z</time></trkpt><trkpt lat="43.5419972" lon="11.3172008"><ele>466.2</ele><time>2026-04-26T11:00:47.985Z</time></trkpt><trkpt lat="43.5418966" lon="11.3171844"><ele>463.4</ele><time>2026-04-26T11:00:48.98Z</time></trkpt><trkpt lat="43.5417872" lon="11.3171539"><ele>460.6</ele><time>2026-04-26T11:00:49.982Z</time></trkpt><trkpt lat="43.5416787" lon="11.3171203"><ele>457.8</ele><time>2026-04-26T11:00:50.991Z</time></trkpt><trkpt lat="43.5415672" lon="11.3170829"><ele>455.0</ele><time>2026-04-26T11:00:51.982Z</time></trkpt><trkpt lat="43.5414558" lon="11.3170417"><ele>455.0</ele><time>2026-04-26T11:00:52.981Z</time></trkpt><trkpt lat="43.5412675" lon="11.3169805"><ele>455.0</ele><time>2026-04-26T11:00:54.982Z</time></trkpt><trkpt lat="43.5411757" lon="11.3169524"><ele>455.0</ele><time>2026-04-26T11:00:55.981Z</time></trkpt><trkpt lat="43.5410797" lon="11.3169229"><ele>455.0</ele><time>2026-04-26T11:00:56.98Z</time></trkpt><trkpt lat="43.5409882" lon="11.3169028"><ele>454.66666666666663</ele><time>2026-04-26T11:00:57.979Z</time></trkpt><trkpt lat="43.5408999" lon="11.3168862"><ele>454.3333333333333</ele><time>2026-04-26T11:00:58.985Z</time></trkpt><trkpt lat="43.5408137" lon="11.3168881"><ele>454.0</ele><time>2026-04-26T11:00:59.982Z</time></trkpt><trkpt lat="43.540728" lon="11.3169027"><ele>453.66666666666663</ele><time>2026-04-26T11:01:00.983Z</time></trkpt><trkpt lat="43.5406438" lon="11.3169341"><ele>453.3333333333333</ele><time>2026-04-26T11:01:01.989Z</time></trkpt><trkpt lat="43.5405581" lon="11.3169812"><ele>453.0</ele><time>2026-04-26T11:01:02.981Z</time></trkpt><trkpt lat="43.5404666" lon="11.3170352"><ele>451.59999999999997</ele><time>2026-04-26T11:01:03.98Z</time></trkpt><trkpt lat="43.5403726" lon="11.3170951"><ele>450.19999999999993</ele><time>2026-04-26T11:01:04.979Z</time></trkpt><trkpt lat="43.540277" lon="11.3171566"><ele>448.8</ele><time>2026-04-26T11:01:05.979Z</time></trkpt><trkpt lat="43.5401807" lon="11.317214"><ele>447.4</ele><time>2026-04-26T11:01:06.981Z</time></trkpt><trkpt lat="43.5400876" lon="11.3172693"><ele>446.0</ele><time>2026-04-26T11:01:07.985Z</time></trkpt><trkpt lat="43.5399906" lon="11.3173137"><ele>448.4</ele><time>2026-04-26T11:01:08.98Z</time></trkpt><trkpt lat="43.5398898" lon="11.3173408"><ele>450.8</ele><time>2026-04-26T11:01:09.983Z</time></trkpt><trkpt lat="43.5397952" lon="11.3173465"><ele>453.19999999999993</ele><time>2026-04-26T11:01:10.981Z</time></trkpt><trkpt lat="43.5397084" lon="11.3173341"><ele>455.59999999999997</ele><time>2026-04-26T11:01:11.98Z</time></trkpt><trkpt lat="43.5396169" lon="11.3173089"><ele>458.0</ele><time>2026-04-26T11:01:12.983Z</time></trkpt><trkpt lat="43.5395158" lon="11.3172733"><ele>454.25</ele><time>2026-04-26T11:01:13.983Z</time></trkpt><trkpt lat="43.5393022" lon="11.3171911"><ele>450.5</ele><time>2026-04-26T11:01:15.979Z</time></trkpt><trkpt lat="43.539197" lon="11.3171483"><ele>446.75</ele><time>2026-04-26T11:01:16.981Z</time></trkpt><trkpt lat="43.5390969" lon="11.3171022"><ele>443.0</ele><time>2026-04-26T11:01:17.982Z</time></trkpt><trkpt lat="43.5389986" lon="11.3170604"><ele>443.0</ele><time>2026-04-26T11:01:18.979Z</time></trkpt><trkpt lat="43.5389034" lon="11.3170179"><ele>442.99999999999994</ele><time>2026-04-26T11:01:19.981Z</time></trkpt><trkpt lat="43.5388122" lon="11.3169741"><ele>442.99999999999994</ele><time>2026-04-26T11:01:20.98Z</time></trkpt><trkpt lat="43.5387132" lon="11.3169335"><ele>443.0</ele><time>2026-04-26T11:01:21.979Z</time></trkpt><trkpt lat="43.5386028" lon="11.3168919"><ele>443.0</ele><time>2026-04-26T11:01:22.979Z</time></trkpt><trkpt lat="43.5384872" lon="11.3168447"><ele>443.25</ele><time>2026-04-26T11:01:23.98Z</time></trkpt><trkpt lat="43.5383634" lon="11.3168009"><ele>443.5</ele><time>2026-04-26T11:01:24.979Z</time></trkpt><trkpt lat="43.5382346" lon="11.316749"><ele>443.75</ele><time>2026-04-26T11:01:25.98Z</time></trkpt><trkpt lat="43.5381025" lon="11.3166914"><ele>444.0</ele><time>2026-04-26T11:01:26.982Z</time></trkpt><trkpt lat="43.5379793" lon="11.3166328"><ele>445.5</ele><time>2026-04-26T11:01:27.98Z</time></trkpt><trkpt lat="43.5378526" lon="11.3165706"><ele>447.0</ele><time>2026-04-26T11:01:28.982Z</time></trkpt><trkpt lat="43.5377303" lon="11.3164937"><ele>448.5</ele><time>2026-04-26T11:01:29.981Z</time></trkpt><trkpt lat="43.5376104" lon="11.3164094"><ele>450.0</ele><time>2026-04-26T11:01:30.979Z</time></trkpt><trkpt lat="43.5375129" lon="11.3162861"><ele>446.75</ele><time>2026-04-26T11:01:31.978Z</time></trkpt><trkpt lat="43.537419" lon="11.3161601"><ele>443.5</ele><time>2026-04-26T11:01:32.98Z</time></trkpt><trkpt lat="43.5373417" lon="11.3160137"><ele>440.25</ele><time>2026-04-26T11:01:33.98Z</time></trkpt><trkpt lat="43.5372641" lon="11.315862"><ele>437.0</ele><time>2026-04-26T11:01:34.995Z</time></trkpt><trkpt lat="43.5371916" lon="11.315709"><ele>437.5</ele><time>2026-04-26T11:01:35.981Z</time></trkpt><trkpt lat="43.537115" lon="11.3155605"><ele>438.0</ele><time>2026-04-26T11:01:36.981Z</time></trkpt><trkpt lat="43.5370303" lon="11.3154313"><ele>438.5</ele><time>2026-04-26T11:01:37.981Z</time></trkpt><trkpt lat="43.5369365" lon="11.3153127"><ele>439.0</ele><time>2026-04-26T11:01:38.981Z</time></trkpt><trkpt lat="43.536843" lon="11.3151998"><ele>439.0</ele><time>2026-04-26T11:01:39.988Z</time></trkpt><trkpt lat="43.5367514" lon="11.3150851"><ele>439.0</ele><time>2026-04-26T11:01:40.99Z</time></trkpt><trkpt lat="43.5366651" lon="11.3149732"><ele>439.0</ele><time>2026-04-26T11:01:41.98Z</time></trkpt><trkpt lat="43.536582" lon="11.3148576"><ele>439.0</ele><time>2026-04-26T11:01:42.985Z</time></trkpt><trkpt lat="43.5365161" lon="11.3147257"><ele>437.0</ele><time>2026-04-26T11:01:43.98Z</time></trkpt><trkpt lat="43.536459" lon="11.3145738"><ele>435.0</ele><time>2026-04-26T11:01:44.987Z</time></trkpt><trkpt lat="43.5363991" lon="11.3144196"><ele>433.0</ele><time>2026-04-26T11:01:45.98Z</time></trkpt><trkpt lat="43.5363307" lon="11.3142667"><ele>431.0</ele><time>2026-04-26T11:01:46.981Z</time></trkpt><trkpt lat="43.5362507" lon="11.3141102"><ele>432.0</ele><time>2026-04-26T11:01:47.979Z</time></trkpt><trkpt lat="43.5361559" lon="11.3139645"><ele>433.0</ele><time>2026-04-26T11:01:48.981Z</time></trkpt><trkpt lat="43.5360548" lon="11.3138236"><ele>434.0</ele><time>2026-04-26T11:01:49.982Z</time></trkpt><trkpt lat="43.5359513" lon="11.3136882"><ele>435.0</ele><time>2026-04-26T11:01:50.98Z</time></trkpt><trkpt lat="43.5358468" lon="11.3135496"><ele>432.33333333333337</ele><time>2026-04-26T11:01:51.984Z</time></trkpt><trkpt lat="43.5357434" lon="11.3134022"><ele>429.6666666666667</ele><time>2026-04-26T11:01:52.978Z</time></trkpt><trkpt lat="43.5356352" lon="11.3132578"><ele>427.0</ele><time>2026-04-26T11:01:53.982Z</time></trkpt><trkpt lat="43.5355218" lon="11.3131111"><ele>425.0</ele><time>2026-04-26T11:01:54.979Z</time></trkpt><trkpt lat="43.5354064" lon="11.3129618"><ele>423.0</ele><time>2026-04-26T11:01:55.982Z</time></trkpt><trkpt lat="43.5352914" lon="11.3128105"><ele>421.0</ele><time>2026-04-26T11:01:56.981Z</time></trkpt><trkpt lat="43.5351729" lon="11.3126533"><ele>420.6666666666667</ele><time>2026-04-26T11:01:57.98Z</time></trkpt><trkpt lat="43.5350533" lon="11.312501"><ele>420.33333333333337</ele><time>2026-04-26T11:01:58.981Z</time></trkpt><trkpt lat="43.5349378" lon="11.3123498"><ele>420.0</ele><time>2026-04-26T11:01:59.983Z</time></trkpt><trkpt lat="43.5348299" lon="11.3122026"><ele>420.0</ele><time>2026-04-26T11:02:00.983Z</time></trkpt><trkpt lat="43.5347312" lon="11.3120545"><ele>420.0</ele><time>2026-04-26T11:02:01.979Z</time></trkpt><trkpt lat="43.5346453" lon="11.3119001"><ele>420.0</ele><time>2026-04-26T11:02:02.981Z</time></trkpt><trkpt lat="43.5345708" lon="11.311733"><ele>420.0</ele><time>2026-04-26T11:02:03.987Z</time></trkpt><trkpt lat="43.5345153" lon="11.3115574"><ele>422.0</ele><time>2026-04-26T11:02:04.983Z</time></trkpt><trkpt lat="43.5344688" lon="11.3113655"><ele>424.0</ele><time>2026-04-26T11:02:05.983Z</time></trkpt><trkpt lat="43.5344341" lon="11.3111672"><ele>426.0</ele><time>2026-04-26T11:02:06.982Z</time></trkpt><trkpt lat="43.5344139" lon="11.3109768"><ele>428.0</ele><time>2026-04-26T11:02:07.978Z</time></trkpt><trkpt lat="43.5343912" lon="11.3107924"><ele>428.0</ele><time>2026-04-26T11:02:08.982Z</time></trkpt><trkpt lat="43.5343578" lon="11.3106172"><ele>428.0</ele><time>2026-04-26T11:02:09.984Z</time></trkpt><trkpt lat="43.5343144" lon="11.3104655"><ele>428.0</ele><time>2026-04-26T11:02:10.982Z</time></trkpt><trkpt lat="43.5342414" lon="11.3103194"><ele>428.0</ele><time>2026-04-26T11:02:11.981Z</time></trkpt><trkpt lat="43.5341569" lon="11.310187"><ele>425.5</ele><time>2026-04-26T11:02:12.979Z</time></trkpt><trkpt lat="43.534062" lon="11.3100665"><ele>423.0</ele><time>2026-04-26T11:02:13.981Z</time></trkpt><trkpt lat="43.5339556" lon="11.3099523"><ele>420.5</ele><time>2026-04-26T11:02:14.983Z</time></trkpt><trkpt lat="43.5338447" lon="11.3098421"><ele>418.0</ele><time>2026-04-26T11:02:15.979Z</time></trkpt><trkpt lat="43.5336202" lon="11.3096329"><ele>418.0</ele><time>2026-04-26T11:02:17.979Z</time></trkpt><trkpt lat="43.5335045" lon="11.3095308"><ele>418.0</ele><time>2026-04-26T11:02:18.979Z</time></trkpt><trkpt lat="43.5333891" lon="11.3094272"><ele>418.0</ele><time>2026-04-26T11:02:19.983Z</time></trkpt><trkpt lat="43.5332806" lon="11.3093311"><ele>418.0</ele><time>2026-04-26T11:02:20.981Z</time></trkpt><trkpt lat="43.5331761" lon="11.3092396"><ele>418.0</ele><time>2026-04-26T11:02:21.981Z</time></trkpt><trkpt lat="43.5330724" lon="11.3091482"><ele>418.0</ele><time>2026-04-26T11:02:22.982Z</time></trkpt><trkpt lat="43.5329759" lon="11.3090603"><ele>418.0</ele><time>2026-04-26T11:02:23.982Z</time></trkpt><trkpt lat="43.5328846" lon="11.3089722"><ele>418.0</ele><time>2026-04-26T11:02:24.984Z</time></trkpt><trkpt lat="43.5328006" lon="11.3088859"><ele>418.0</ele><time>2026-04-26T11:02:25.985Z</time></trkpt><trkpt lat="43.5327227" lon="11.3087875"><ele>418.0</ele><time>2026-04-26T11:02:26.981Z</time></trkpt><trkpt lat="43.532656" lon="11.3086685"><ele>418.0</ele><time>2026-04-26T11:02:27.981Z</time></trkpt><trkpt lat="43.5325979" lon="11.3085364"><ele>418.0</ele><time>2026-04-26T11:02:28.982Z</time></trkpt><trkpt lat="43.5325598" lon="11.3083934"><ele>418.0</ele><time>2026-04-26T11:02:29.979Z</time></trkpt><trkpt lat="43.5325344" lon="11.30824"><ele>418.0</ele><time>2026-04-26T11:02:30.982Z</time></trkpt><trkpt lat="43.5325023" lon="11.3080785"><ele>418.0</ele><time>2026-04-26T11:02:31.981Z</time></trkpt><trkpt lat="43.5324657" lon="11.3079244"><ele>418.0</ele><time>2026-04-26T11:02:32.98Z</time></trkpt><trkpt lat="43.5324211" lon="11.3077641"><ele>418.0</ele><time>2026-04-26T11:02:33.982Z</time></trkpt><trkpt lat="43.5323747" lon="11.3076121"><ele>416.25</ele><time>2026-04-26T11:02:34.98Z</time></trkpt><trkpt lat="43.5323179" lon="11.307467"><ele>414.5</ele><time>2026-04-26T11:02:35.982Z</time></trkpt><trkpt lat="43.5322532" lon="11.3073208"><ele>412.75</ele><time>2026-04-26T11:02:36.982Z</time></trkpt><trkpt lat="43.5321822" lon="11.30717"><ele>411.0</ele><time>2026-04-26T11:02:37.982Z</time></trkpt><trkpt lat="43.5321108" lon="11.3070196"><ele>414.5</ele><time>2026-04-26T11:02:38.982Z</time></trkpt><trkpt lat="43.5320373" lon="11.3068711"><ele>418.0</ele><time>2026-04-26T11:02:39.983Z</time></trkpt><trkpt lat="43.5319744" lon="11.306726"><ele>421.5</ele><time>2026-04-26T11:02:40.986Z</time></trkpt><trkpt lat="43.5319186" lon="11.3065804"><ele>425.0</ele><time>2026-04-26T11:02:41.983Z</time></trkpt><trkpt lat="43.531878" lon="11.3064234"><ele>423.75</ele><time>2026-04-26T11:02:42.984Z</time></trkpt><trkpt lat="43.5318525" lon="11.3062478"><ele>422.5</ele><time>2026-04-26T11:02:43.982Z</time></trkpt><trkpt lat="43.5318462" lon="11.3060693"><ele>421.25</ele><time>2026-04-26T11:02:44.983Z</time></trkpt><trkpt lat="43.5318513" lon="11.3058906"><ele>420.0</ele><time>2026-04-26T11:02:45.985Z</time></trkpt><trkpt lat="43.5318572" lon="11.3057028"><ele>418.75</ele><time>2026-04-26T11:02:46.98Z</time></trkpt><trkpt lat="43.5318636" lon="11.3055195"><ele>417.5</ele><time>2026-04-26T11:02:47.982Z</time></trkpt><trkpt lat="43.5318698" lon="11.3053468"><ele>416.25</ele><time>2026-04-26T11:02:48.982Z</time></trkpt><trkpt lat="43.5318677" lon="11.3051793"><ele>415.0</ele><time>2026-04-26T11:02:49.983Z</time></trkpt><trkpt lat="43.5318611" lon="11.3050127"><ele>415.0</ele><time>2026-04-26T11:02:50.98Z</time></trkpt><trkpt lat="43.53184" lon="11.3048482"><ele>415.0</ele><time>2026-04-26T11:02:51.981Z</time></trkpt><trkpt lat="43.531792" lon="11.304697"><ele>415.0</ele><time>2026-04-26T11:02:52.985Z</time></trkpt><trkpt lat="43.5317209" lon="11.3045633"><ele>415.0</ele><time>2026-04-26T11:02:53.981Z</time></trkpt><trkpt lat="43.5316312" lon="11.3044375"><ele>414.0</ele><time>2026-04-26T11:02:54.98Z</time></trkpt><trkpt lat="43.5315247" lon="11.3043217"><ele>413.0</ele><time>2026-04-26T11:02:55.989Z</time></trkpt><trkpt lat="43.53141" lon="11.3042153"><ele>412.0</ele><time>2026-04-26T11:02:56.982Z</time></trkpt><trkpt lat="43.5312904" lon="11.3041183"><ele>411.0</ele><time>2026-04-26T11:02:57.981Z</time></trkpt><trkpt lat="43.5310361" lon="11.3039619"><ele>405.5</ele><time>2026-04-26T11:02:59.981Z</time></trkpt><trkpt lat="43.5309024" lon="11.3039058"><ele>400.0</ele><time>2026-04-26T11:03:00.979Z</time></trkpt><trkpt lat="43.5307577" lon="11.303863"><ele>394.5</ele><time>2026-04-26T11:03:01.979Z</time></trkpt><trkpt lat="43.5306101" lon="11.3038339"><ele>389.0</ele><time>2026-04-26T11:03:02.98Z</time></trkpt><trkpt lat="43.5304593" lon="11.3038144"><ele>388.75</ele><time>2026-04-26T11:03:03.983Z</time></trkpt><trkpt lat="43.5303145" lon="11.3038063"><ele>388.5</ele><time>2026-04-26T11:03:04.981Z</time></trkpt><trkpt lat="43.530172" lon="11.3038125"><ele>388.25</ele><time>2026-04-26T11:03:05.981Z</time></trkpt><trkpt lat="43.5300379" lon="11.3038318"><ele>388.0</ele><time>2026-04-26T11:03:06.982Z</time></trkpt><trkpt lat="43.5299082" lon="11.3038594"><ele>388.0</ele><time>2026-04-26T11:03:07.986Z</time></trkpt><trkpt lat="43.5297841" lon="11.3038845"><ele>388.0</ele><time>2026-04-26T11:03:08.981Z</time></trkpt><trkpt lat="43.5296596" lon="11.303904"><ele>388.0</ele><time>2026-04-26T11:03:09.982Z</time></trkpt><trkpt lat="43.5295304" lon="11.3038987"><ele>388.0</ele><time>2026-04-26T11:03:10.978Z</time></trkpt><trkpt lat="43.5293966" lon="11.3038812"><ele>387.25</ele><time>2026-04-26T11:03:11.978Z</time></trkpt><trkpt lat="43.5292641" lon="11.3038597"><ele>386.5</ele><time>2026-04-26T11:03:12.979Z</time></trkpt><trkpt lat="43.5291363" lon="11.3038381"><ele>385.75</ele><time>2026-04-26T11:03:13.981Z</time></trkpt><trkpt lat="43.5290141" lon="11.3038164"><ele>385.0</ele><time>2026-04-26T11:03:14.983Z</time></trkpt><trkpt lat="43.5288958" lon="11.303801"><ele>385.0</ele><time>2026-04-26T11:03:15.981Z</time></trkpt><trkpt lat="43.5287809" lon="11.3038155"><ele>385.0</ele><time>2026-04-26T11:03:16.98Z</time></trkpt><trkpt lat="43.5286705" lon="11.3038563"><ele>385.0</ele><time>2026-04-26T11:03:17.98Z</time></trkpt><trkpt lat="43.528564" lon="11.3039072"><ele>385.0</ele><time>2026-04-26T11:03:18.98Z</time></trkpt><trkpt lat="43.528453" lon="11.3039436"><ele>384.6</ele><time>2026-04-26T11:03:19.981Z</time></trkpt><trkpt lat="43.5283453" lon="11.3039556"><ele>384.2</ele><time>2026-04-26T11:03:20.978Z</time></trkpt><trkpt lat="43.5282375" lon="11.3039366"><ele>383.79999999999995</ele><time>2026-04-26T11:03:21.981Z</time></trkpt><trkpt lat="43.5281422" lon="11.3038745"><ele>383.4</ele><time>2026-04-26T11:03:22.978Z</time></trkpt><trkpt lat="43.528063" lon="11.3037742"><ele>383.0</ele><time>2026-04-26T11:03:23.982Z</time></trkpt><trkpt lat="43.5279985" lon="11.3036472"><ele>383.0</ele><time>2026-04-26T11:03:24.993Z</time></trkpt><trkpt lat="43.5279386" lon="11.3035223"><ele>383.0</ele><time>2026-04-26T11:03:25.98Z</time></trkpt><trkpt lat="43.5278708" lon="11.3034049"><ele>383.0</ele><time>2026-04-26T11:03:26.979Z</time></trkpt><trkpt lat="43.5277881" lon="11.3033011"><ele>383.0</ele><time>2026-04-26T11:03:27.979Z</time></trkpt><trkpt lat="43.5276877" lon="11.3032277"><ele>383.0</ele><time>2026-04-26T11:03:28.981Z</time></trkpt><trkpt lat="43.527572" lon="11.3031761"><ele>384.5</ele><time>2026-04-26T11:03:29.983Z</time></trkpt><trkpt lat="43.5274545" lon="11.3031202"><ele>386.0</ele><time>2026-04-26T11:03:30.979Z</time></trkpt><trkpt lat="43.5273421" lon="11.3030337"><ele>387.5</ele><time>2026-04-26T11:03:31.981Z</time></trkpt><trkpt lat="43.527231" lon="11.3029401"><ele>389.0</ele><time>2026-04-26T11:03:32.982Z</time></trkpt><trkpt lat="43.5271283" lon="11.3027926"><ele>386.5</ele><time>2026-04-26T11:03:33.979Z</time></trkpt><trkpt lat="43.5270227" lon="11.302665"><ele>384.0</ele><time>2026-04-26T11:03:34.98Z</time></trkpt><trkpt lat="43.5269266" lon="11.3025335"><ele>381.5</ele><time>2026-04-26T11:03:35.983Z</time></trkpt><trkpt lat="43.526837" lon="11.3023977"><ele>379.0</ele><time>2026-04-26T11:03:36.981Z</time></trkpt><trkpt lat="43.5267617" lon="11.3022503"><ele>378.0</ele><time>2026-04-26T11:03:37.983Z</time></trkpt><trkpt lat="43.5267063" lon="11.3020908"><ele>377.0</ele><time>2026-04-26T11:03:38.98Z</time></trkpt><trkpt lat="43.5266662" lon="11.3019187"><ele>376.0</ele><time>2026-04-26T11:03:39.979Z</time></trkpt><trkpt lat="43.5266496" lon="11.3017352"><ele>375.0</ele><time>2026-04-26T11:03:40.98Z</time></trkpt><trkpt lat="43.5266329" lon="11.3015438"><ele>374.25</ele><time>2026-04-26T11:03:41.981Z</time></trkpt><trkpt lat="43.5266183" lon="11.3013551"><ele>373.5</ele><time>2026-04-26T11:03:42.978Z</time></trkpt><trkpt lat="43.5266053" lon="11.3011753"><ele>372.75</ele><time>2026-04-26T11:03:43.981Z</time></trkpt><trkpt lat="43.5265849" lon="11.3009952"><ele>372.0</ele><time>2026-04-26T11:03:44.982Z</time></trkpt><trkpt lat="43.5265453" lon="11.3008151"><ele>372.0</ele><time>2026-04-26T11:03:45.98Z</time></trkpt><trkpt lat="43.5265071" lon="11.3006316"><ele>372.0</ele><time>2026-04-26T11:03:46.979Z</time></trkpt><trkpt lat="43.5264364" lon="11.300471"><ele>372.0</ele><time>2026-04-26T11:03:47.982Z</time></trkpt><trkpt lat="43.5263796" lon="11.3003086"><ele>372.0</ele><time>2026-04-26T11:03:48.979Z</time></trkpt><trkpt lat="43.5263246" lon="11.3001563"><ele>372.0</ele><time>2026-04-26T11:03:49.98Z</time></trkpt><trkpt lat="43.5262653" lon="11.3000257"><ele>372.0</ele><time>2026-04-26T11:03:50.979Z</time></trkpt><trkpt lat="43.5261869" lon="11.2999149"><ele>372.0</ele><time>2026-04-26T11:03:51.983Z</time></trkpt><trkpt lat="43.5260818" lon="11.2998311"><ele>372.0</ele><time>2026-04-26T11:03:52.984Z</time></trkpt><trkpt lat="43.5259666" lon="11.2997791"><ele>367.25</ele><time>2026-04-26T11:03:53.99Z</time></trkpt><trkpt lat="43.525838" lon="11.2997447"><ele>362.5</ele><time>2026-04-26T11:03:54.979Z</time></trkpt><trkpt lat="43.5257096" lon="11.2997167"><ele>357.75</ele><time>2026-04-26T11:03:55.979Z</time></trkpt><trkpt lat="43.5255838" lon="11.2996969"><ele>353.0</ele><time>2026-04-26T11:03:56.979Z</time></trkpt><trkpt lat="43.525467" lon="11.2996986"><ele>353.59999999999997</ele><time>2026-04-26T11:03:57.979Z</time></trkpt><trkpt lat="43.5253541" lon="11.2997227"><ele>354.2</ele><time>2026-04-26T11:03:58.98Z</time></trkpt><trkpt lat="43.5252448" lon="11.2997736"><ele>354.8</ele><time>2026-04-26T11:03:59.979Z</time></trkpt><trkpt lat="43.525157" lon="11.2998567"><ele>355.4</ele><time>2026-04-26T11:04:00.991Z</time></trkpt><trkpt lat="43.5250871" lon="11.2999706"><ele>356.0</ele><time>2026-04-26T11:04:01.983Z</time></trkpt><trkpt lat="43.5250345" lon="11.3001195"><ele>357.75</ele><time>2026-04-26T11:04:02.984Z</time></trkpt><trkpt lat="43.5249876" lon="11.3002908"><ele>359.5</ele><time>2026-04-26T11:04:03.98Z</time></trkpt><trkpt lat="43.524943" lon="11.3004608"><ele>361.25</ele><time>2026-04-26T11:04:04.983Z</time></trkpt><trkpt lat="43.5248945" lon="11.3006197"><ele>363.0</ele><time>2026-04-26T11:04:05.981Z</time></trkpt><trkpt lat="43.5248657" lon="11.3007772"><ele>363.0</ele><time>2026-04-26T11:04:06.98Z</time></trkpt><trkpt lat="43.5248621" lon="11.300939"><ele>363.0</ele><time>2026-04-26T11:04:07.984Z</time></trkpt><trkpt lat="43.5248733" lon="11.3010923"><ele>363.0</ele><time>2026-04-26T11:04:08.979Z</time></trkpt><trkpt lat="43.5249192" lon="11.3012291"><ele>363.0</ele><time>2026-04-26T11:04:09.98Z</time></trkpt><trkpt lat="43.5249886" lon="11.3013485"><ele>363.0</ele><time>2026-04-26T11:04:10.981Z</time></trkpt><trkpt lat="43.5251601" lon="11.3015575"><ele>362.0</ele><time>2026-04-26T11:04:12.982Z</time></trkpt><trkpt lat="43.5252476" lon="11.3016544"><ele>361.0</ele><time>2026-04-26T11:04:13.98Z</time></trkpt><trkpt lat="43.5253366" lon="11.3017442"><ele>360.0</ele><time>2026-04-26T11:04:14.981Z</time></trkpt><trkpt lat="43.5254157" lon="11.3018361"><ele>359.0</ele><time>2026-04-26T11:04:15.982Z</time></trkpt><trkpt lat="43.5254823" lon="11.3019372"><ele>358.0</ele><time>2026-04-26T11:04:16.982Z</time></trkpt><trkpt lat="43.525538" lon="11.3020427"><ele>359.3333333333333</ele><time>2026-04-26T11:04:17.981Z</time></trkpt><trkpt lat="43.5255788" lon="11.3021552"><ele>360.66666666666663</ele><time>2026-04-26T11:04:18.981Z</time></trkpt><trkpt lat="43.5255986" lon="11.3022774"><ele>362.0</ele><time>2026-04-26T11:04:19.979Z</time></trkpt><trkpt lat="43.525598" lon="11.3023998"><ele>363.3333333333333</ele><time>2026-04-26T11:04:20.979Z</time></trkpt><trkpt lat="43.5255692" lon="11.3025038"><ele>364.6666666666667</ele><time>2026-04-26T11:04:21.981Z</time></trkpt><trkpt lat="43.5255204" lon="11.302574"><ele>366.0</ele><time>2026-04-26T11:04:22.98Z</time></trkpt><trkpt lat="43.5254587" lon="11.3025987"><ele>363.8</ele><time>2026-04-26T11:04:23.98Z</time></trkpt><trkpt lat="43.5253944" lon="11.3025791"><ele>361.6</ele><time>2026-04-26T11:04:24.981Z</time></trkpt><trkpt lat="43.5253297" lon="11.3025242"><ele>359.4</ele><time>2026-04-26T11:04:25.98Z</time></trkpt><trkpt lat="43.5252544" lon="11.3024542"><ele>357.2</ele><time>2026-04-26T11:04:26.979Z</time></trkpt><trkpt lat="43.5251707" lon="11.3023575"><ele>355.0</ele><time>2026-04-26T11:04:27.982Z</time></trkpt><trkpt lat="43.525076" lon="11.3022543"><ele>355.75</ele><time>2026-04-26T11:04:28.978Z</time></trkpt><trkpt lat="43.5249723" lon="11.3021357"><ele>356.5</ele><time>2026-04-26T11:04:29.983Z</time></trkpt><trkpt lat="43.5248582" lon="11.3020187"><ele>357.25</ele><time>2026-04-26T11:04:30.98Z</time></trkpt><trkpt lat="43.524738" lon="11.3018911"><ele>358.0</ele><time>2026-04-26T11:04:31.98Z</time></trkpt><trkpt lat="43.5246171" lon="11.3017638"><ele>355.25</ele><time>2026-04-26T11:04:32.98Z</time></trkpt><trkpt lat="43.5245002" lon="11.3016425"><ele>352.5</ele><time>2026-04-26T11:04:33.979Z</time></trkpt><trkpt lat="43.5243908" lon="11.3015258"><ele>349.75</ele><time>2026-04-26T11:04:34.981Z</time></trkpt><trkpt lat="43.524295" lon="11.3014154"><ele>347.0</ele><time>2026-04-26T11:04:35.978Z</time></trkpt><trkpt lat="43.5242211" lon="11.3013153"><ele>347.0</ele><time>2026-04-26T11:04:36.983Z</time></trkpt><trkpt lat="43.5241705" lon="11.3011994"><ele>347.0</ele><time>2026-04-26T11:04:37.984Z</time></trkpt><trkpt lat="43.5241495" lon="11.3010739"><ele>347.0</ele><time>2026-04-26T11:04:38.988Z</time></trkpt><trkpt lat="43.5241595" lon="11.300949"><ele>347.0</ele><time>2026-04-26T11:04:39.98Z</time></trkpt><trkpt lat="43.5241976" lon="11.3008202"><ele>347.0</ele><time>2026-04-26T11:04:40.981Z</time></trkpt><trkpt lat="43.5242301" lon="11.3006827"><ele>347.25</ele><time>2026-04-26T11:04:41.978Z</time></trkpt><trkpt lat="43.5242557" lon="11.3005302"><ele>347.5</ele><time>2026-04-26T11:04:42.978Z</time></trkpt><trkpt lat="43.5242594" lon="11.3003791"><ele>347.75</ele><time>2026-04-26T11:04:43.989Z</time></trkpt><trkpt lat="43.5242344" lon="11.300228"><ele>348.0</ele><time>2026-04-26T11:04:44.978Z</time></trkpt><trkpt lat="43.524176" lon="11.3000852"><ele>348.0</ele><time>2026-04-26T11:04:45.99Z</time></trkpt><trkpt lat="43.5240866" lon="11.2999489"><ele>348.0</ele><time>2026-04-26T11:04:46.983Z</time></trkpt><trkpt lat="43.5239724" lon="11.2998256"><ele>348.0</ele><time>2026-04-26T11:04:47.98Z</time></trkpt><trkpt lat="43.5238356" lon="11.2997086"><ele>348.0</ele><time>2026-04-26T11:04:48.979Z</time></trkpt><trkpt lat="43.5236919" lon="11.2995835"><ele>345.0</ele><time>2026-04-26T11:04:49.979Z</time></trkpt><trkpt lat="43.523551" lon="11.2994536"><ele>342.0</ele><time>2026-04-26T11:04:50.98Z</time></trkpt><trkpt lat="43.5234037" lon="11.2993211"><ele>339.0</ele><time>2026-04-26T11:04:51.979Z</time></trkpt><trkpt lat="43.5232558" lon="11.2991927"><ele>339.0</ele><time>2026-04-26T11:04:52.98Z</time></trkpt><trkpt lat="43.5231165" lon="11.2990681"><ele>339.0</ele><time>2026-04-26T11:04:53.981Z</time></trkpt><trkpt lat="43.5229814" lon="11.2989517"><ele>339.0</ele><time>2026-04-26T11:04:54.981Z</time></trkpt><trkpt lat="43.5228494" lon="11.2988403"><ele>337.5</ele><time>2026-04-26T11:04:55.982Z</time></trkpt><trkpt lat="43.5227201" lon="11.298728"><ele>336.0</ele><time>2026-04-26T11:04:56.98Z</time></trkpt><trkpt lat="43.5225928" lon="11.2986188"><ele>334.5</ele><time>2026-04-26T11:04:57.981Z</time></trkpt><trkpt lat="43.5224697" lon="11.2985126"><ele>333.0</ele><time>2026-04-26T11:04:58.982Z</time></trkpt><trkpt lat="43.5223512" lon="11.2984106"><ele>333.0</ele><time>2026-04-26T11:04:59.982Z</time></trkpt><trkpt lat="43.5222344" lon="11.2983137"><ele>333.0</ele><time>2026-04-26T11:05:00.983Z</time></trkpt><trkpt lat="43.5221183" lon="11.2982249"><ele>333.0</ele><time>2026-04-26T11:05:01.979Z</time></trkpt><trkpt lat="43.521996" lon="11.2981484"><ele>333.0</ele><time>2026-04-26T11:05:02.98Z</time></trkpt><trkpt lat="43.5218666" lon="11.298093"><ele>334.75</ele><time>2026-04-26T11:05:03.981Z</time></trkpt><trkpt lat="43.521724" lon="11.2980671"><ele>336.5</ele><time>2026-04-26T11:05:04.98Z</time></trkpt><trkpt lat="43.5215901" lon="11.2980474"><ele>338.25</ele><time>2026-04-26T11:05:05.979Z</time></trkpt><trkpt lat="43.5214592" lon="11.2980316"><ele>340.0</ele><time>2026-04-26T11:05:06.979Z</time></trkpt><trkpt lat="43.5213354" lon="11.2980054"><ele>334.75</ele><time>2026-04-26T11:05:07.987Z</time></trkpt><trkpt lat="43.5212139" lon="11.2979829"><ele>329.5</ele><time>2026-04-26T11:05:08.98Z</time></trkpt><trkpt lat="43.5211026" lon="11.2979415"><ele>324.25</ele><time>2026-04-26T11:05:09.984Z</time></trkpt><trkpt lat="43.5210004" lon="11.2978635"><ele>319.0</ele><time>2026-04-26T11:05:10.978Z</time></trkpt><trkpt lat="43.5209041" lon="11.2977514"><ele>319.0</ele><time>2026-04-26T11:05:11.98Z</time></trkpt><trkpt lat="43.5208038" lon="11.2976094"><ele>319.0</ele><time>2026-04-26T11:05:12.979Z</time></trkpt><trkpt lat="43.5207007" lon="11.2974476"><ele>319.0</ele><time>2026-04-26T11:05:13.98Z</time></trkpt><trkpt lat="43.5205895" lon="11.297274"><ele>322.0</ele><time>2026-04-26T11:05:14.979Z</time></trkpt><trkpt lat="43.520471" lon="11.2970906"><ele>325.0</ele><time>2026-04-26T11:05:15.981Z</time></trkpt><trkpt lat="43.5203516" lon="11.2969129"><ele>328.0</ele><time>2026-04-26T11:05:16.98Z</time></trkpt><trkpt lat="43.5202358" lon="11.2967346"><ele>322.0</ele><time>2026-04-26T11:05:17.984Z</time></trkpt><trkpt lat="43.5201259" lon="11.2965663"><ele>316.0</ele><time>2026-04-26T11:05:18.979Z</time></trkpt><trkpt lat="43.5200188" lon="11.2964052"><ele>310.0</ele><time>2026-04-26T11:05:19.979Z</time></trkpt><trkpt lat="43.519916" lon="11.2962552"><ele>310.0</ele><time>2026-04-26T11:05:20.98Z</time></trkpt><trkpt lat="43.5198271" lon="11.2961089"><ele>310.0</ele><time>2026-04-26T11:05:21.981Z</time></trkpt><trkpt lat="43.5197446" lon="11.2959636"><ele>310.0</ele><time>2026-04-26T11:05:22.978Z</time></trkpt><trkpt lat="43.5196836" lon="11.2958129"><ele>310.0</ele><time>2026-04-26T11:05:23.98Z</time></trkpt><trkpt lat="43.519647" lon="11.2956461"><ele>308.25</ele><time>2026-04-26T11:05:24.981Z</time></trkpt><trkpt lat="43.5196366" lon="11.2954732"><ele>306.5</ele><time>2026-04-26T11:05:25.983Z</time></trkpt><trkpt lat="43.5196578" lon="11.2953085"><ele>304.75</ele><time>2026-04-26T11:05:26.979Z</time></trkpt><trkpt lat="43.5197129" lon="11.2951566"><ele>303.0</ele><time>2026-04-26T11:05:27.98Z</time></trkpt><trkpt lat="43.519789" lon="11.2950174"><ele>303.0</ele><time>2026-04-26T11:05:28.981Z</time></trkpt><trkpt lat="43.5198859" lon="11.2948884"><ele>303.0</ele><time>2026-04-26T11:05:29.98Z</time></trkpt><trkpt lat="43.5199985" lon="11.2947881"><ele>303.0</ele><time>2026-04-26T11:05:30.98Z</time></trkpt><trkpt lat="43.5201018" lon="11.2946992"><ele>303.0</ele><time>2026-04-26T11:05:31.978Z</time></trkpt><trkpt lat="43.5202087" lon="11.2946288"><ele>298.25</ele><time>2026-04-26T11:05:32.98Z</time></trkpt><trkpt lat="43.520318" lon="11.2945922"><ele>293.5</ele><time>2026-04-26T11:05:33.978Z</time></trkpt><trkpt lat="43.5204377" lon="11.2945906"><ele>288.75</ele><time>2026-04-26T11:05:34.981Z</time></trkpt><trkpt lat="43.5205604" lon="11.2946374"><ele>284.0</ele><time>2026-04-26T11:05:35.98Z</time></trkpt><trkpt lat="43.5206903" lon="11.2947059"><ele>288.5</ele><time>2026-04-26T11:05:36.98Z</time></trkpt><trkpt lat="43.5208278" lon="11.2947684"><ele>293.0</ele><time>2026-04-26T11:05:37.979Z</time></trkpt><trkpt lat="43.5209639" lon="11.2948118"><ele>297.5</ele><time>2026-04-26T11:05:38.982Z</time></trkpt><trkpt lat="43.5210919" lon="11.2948404"><ele>302.0</ele><time>2026-04-26T11:05:39.981Z</time></trkpt><trkpt lat="43.5212036" lon="11.2948654"><ele>300.6</ele><time>2026-04-26T11:05:40.982Z</time></trkpt><trkpt lat="43.5213061" lon="11.2948803"><ele>299.2</ele><time>2026-04-26T11:05:41.981Z</time></trkpt><trkpt lat="43.5213993" lon="11.2948683"><ele>297.8</ele><time>2026-04-26T11:05:42.981Z</time></trkpt><trkpt lat="43.5214821" lon="11.2948246"><ele>296.4</ele><time>2026-04-26T11:05:43.979Z</time></trkpt><trkpt lat="43.5215441" lon="11.2947325"><ele>295.0</ele><time>2026-04-26T11:05:44.981Z</time></trkpt><trkpt lat="43.5215736" lon="11.2946181"><ele>292.8</ele><time>2026-04-26T11:05:45.984Z</time></trkpt><trkpt lat="43.5215588" lon="11.2945079"><ele>290.6</ele><time>2026-04-26T11:05:46.978Z</time></trkpt><trkpt lat="43.5215064" lon="11.2944162"><ele>288.4</ele><time>2026-04-26T11:05:47.98Z</time></trkpt><trkpt lat="43.5214221" lon="11.294342"><ele>286.2</ele><time>2026-04-26T11:05:48.979Z</time></trkpt><trkpt lat="43.5213195" lon="11.2942841"><ele>284.0</ele><time>2026-04-26T11:05:49.979Z</time></trkpt><trkpt lat="43.5212007" lon="11.2942304"><ele>284.0</ele><time>2026-04-26T11:05:50.98Z</time></trkpt><trkpt lat="43.5210741" lon="11.2941826"><ele>284.0</ele><time>2026-04-26T11:05:51.983Z</time></trkpt><trkpt lat="43.5209364" lon="11.2941297"><ele>284.0</ele><time>2026-04-26T11:05:52.99Z</time></trkpt><trkpt lat="43.5207949" lon="11.2940771"><ele>284.0</ele><time>2026-04-26T11:05:53.988Z</time></trkpt><trkpt lat="43.5206608" lon="11.2940235"><ele>284.0</ele><time>2026-04-26T11:05:54.983Z</time></trkpt><trkpt lat="43.5204033" lon="11.2939386"><ele>284.0</ele><time>2026-04-26T11:05:56.982Z</time></trkpt><trkpt lat="43.5202877" lon="11.293902"><ele>284.0</ele><time>2026-04-26T11:05:57.979Z</time></trkpt><trkpt lat="43.5201797" lon="11.2938665"><ele>282.0</ele><time>2026-04-26T11:05:58.982Z</time></trkpt><trkpt lat="43.5200889" lon="11.2938115"><ele>280.0</ele><time>2026-04-26T11:05:59.995Z</time></trkpt><trkpt lat="43.5200222" lon="11.2937406"><ele>278.0</ele><time>2026-04-26T11:06:00.979Z</time></trkpt><trkpt lat="43.5199865" lon="11.2936453"><ele>276.0</ele><time>2026-04-26T11:06:01.979Z</time></trkpt><trkpt lat="43.5199957" lon="11.293538"><ele>274.0</ele><time>2026-04-26T11:06:02.987Z</time></trkpt><trkpt lat="43.520042" lon="11.2934307"><ele>272.0</ele><time>2026-04-26T11:06:03.979Z</time></trkpt><trkpt lat="43.5201075" lon="11.2933225"><ele>272.0</ele><time>2026-04-26T11:06:04.981Z</time></trkpt><trkpt lat="43.5201623" lon="11.2932122"><ele>272.0</ele><time>2026-04-26T11:06:05.983Z</time></trkpt><trkpt lat="43.5202026" lon="11.2930925"><ele>272.0</ele><time>2026-04-26T11:06:06.983Z</time></trkpt><trkpt lat="43.5202165" lon="11.2929561"><ele>272.0</ele><time>2026-04-26T11:06:07.979Z</time></trkpt><trkpt lat="43.5202124" lon="11.2928205"><ele>272.0</ele><time>2026-04-26T11:06:08.98Z</time></trkpt><trkpt lat="43.520204" lon="11.2926742"><ele>271.4</ele><time>2026-04-26T11:06:09.98Z</time></trkpt><trkpt lat="43.5201904" lon="11.2925212"><ele>270.79999999999995</ele><time>2026-04-26T11:06:10.981Z</time></trkpt><trkpt lat="43.5201712" lon="11.2923541"><ele>270.2</ele><time>2026-04-26T11:06:11.983Z</time></trkpt><trkpt lat="43.5201544" lon="11.2922011"><ele>269.59999999999997</ele><time>2026-04-26T11:06:12.982Z</time></trkpt><trkpt lat="43.520138" lon="11.2920675"><ele>269.0</ele><time>2026-04-26T11:06:13.984Z</time></trkpt><trkpt lat="43.520128" lon="11.291957"><ele>271.2</ele><time>2026-04-26T11:06:14.985Z</time></trkpt><trkpt lat="43.5201544" lon="11.2917986"><ele>273.4</ele><time>2026-04-26T11:06:16.978Z</time></trkpt><trkpt lat="43.5202788" lon="11.2917293"><ele>275.6</ele><time>2026-04-26T11:06:18.979Z</time></trkpt><trkpt lat="43.520361" lon="11.2917251"><ele>277.8</ele><time>2026-04-26T11:06:19.98Z</time></trkpt><trkpt lat="43.5204654" lon="11.2917376"><ele>280.0</ele><time>2026-04-26T11:06:20.981Z</time></trkpt><trkpt lat="43.5205804" lon="11.2917279"><ele>280.5</ele><time>2026-04-26T11:06:21.981Z</time></trkpt><trkpt lat="43.5207055" lon="11.2917337"><ele>281.0</ele><time>2026-04-26T11:06:22.978Z</time></trkpt><trkpt lat="43.5208254" lon="11.2917181"><ele>281.5</ele><time>2026-04-26T11:06:23.981Z</time></trkpt><trkpt lat="43.5209479" lon="11.2916988"><ele>282.0</ele><time>2026-04-26T11:06:24.982Z</time></trkpt><trkpt lat="43.5210764" lon="11.2917114"><ele>282.6666666666667</ele><time>2026-04-26T11:06:25.983Z</time></trkpt><trkpt lat="43.5213235" lon="11.2917787"><ele>283.33333333333337</ele><time>2026-04-26T11:06:27.98Z</time></trkpt><trkpt lat="43.5214465" lon="11.291811"><ele>284.0</ele><time>2026-04-26T11:06:28.981Z</time></trkpt><trkpt lat="43.5215322" lon="11.2918333"><ele>284.0</ele><time>2026-04-26T11:06:29.981Z</time></trkpt><trkpt lat="43.5216235" lon="11.2918357"><ele>284.0</ele><time>2026-04-26T11:06:30.98Z</time></trkpt><trkpt lat="43.521716" lon="11.2918203"><ele>284.0</ele><time>2026-04-26T11:06:31.979Z</time></trkpt><trkpt lat="43.5218109" lon="11.2917816"><ele>284.0</ele><time>2026-04-26T11:06:32.98Z</time></trkpt><trkpt lat="43.5219105" lon="11.2917102"><ele>284.0</ele><time>2026-04-26T11:06:33.978Z</time></trkpt><trkpt lat="43.5220093" lon="11.2916228"><ele>285.25</ele><time>2026-04-26T11:06:34.982Z</time></trkpt><trkpt lat="43.5221036" lon="11.2915089"><ele>286.5</ele><time>2026-04-26T11:06:35.981Z</time></trkpt><trkpt lat="43.5221964" lon="11.2913845"><ele>287.75</ele><time>2026-04-26T11:06:36.98Z</time></trkpt><trkpt lat="43.5222806" lon="11.2912648"><ele>289.0</ele><time>2026-04-26T11:06:37.98Z</time></trkpt><trkpt lat="43.5223591" lon="11.2911509"><ele>289.0</ele><time>2026-04-26T11:06:38.988Z</time></trkpt><trkpt lat="43.5224451" lon="11.2910612"><ele>289.0</ele><time>2026-04-26T11:06:39.979Z</time></trkpt><trkpt lat="43.5225438" lon="11.2909836"><ele>289.0</ele><time>2026-04-26T11:06:40.981Z</time></trkpt><trkpt lat="43.5226535" lon="11.2909344"><ele>289.0</ele><time>2026-04-26T11:06:41.982Z</time></trkpt><trkpt lat="43.5227651" lon="11.2908854"><ele>289.0</ele><time>2026-04-26T11:06:42.98Z</time></trkpt><trkpt lat="43.5228783" lon="11.2908302"><ele>289.0</ele><time>2026-04-26T11:06:43.98Z</time></trkpt><trkpt lat="43.5229953" lon="11.2907751"><ele>289.0</ele><time>2026-04-26T11:06:44.983Z</time></trkpt><trkpt lat="43.5231203" lon="11.290726"><ele>289.0</ele><time>2026-04-26T11:06:45.979Z</time></trkpt><trkpt lat="43.5232436" lon="11.2906777"><ele>287.66666666666663</ele><time>2026-04-26T11:06:46.981Z</time></trkpt><trkpt lat="43.5235108" lon="11.290599"><ele>286.3333333333333</ele><time>2026-04-26T11:06:48.979Z</time></trkpt><trkpt lat="43.52365" lon="11.2905694"><ele>285.0</ele><time>2026-04-26T11:06:49.982Z</time></trkpt><trkpt lat="43.5237942" lon="11.2905544"><ele>283.75</ele><time>2026-04-26T11:06:50.983Z</time></trkpt><trkpt lat="43.5239419" lon="11.2905581"><ele>282.5</ele><time>2026-04-26T11:06:51.983Z</time></trkpt><trkpt lat="43.5240833" lon="11.2905769"><ele>281.25</ele><time>2026-04-26T11:06:52.984Z</time></trkpt><trkpt lat="43.5242169" lon="11.2905943"><ele>280.0</ele><time>2026-04-26T11:06:53.979Z</time></trkpt><trkpt lat="43.5243461" lon="11.290605"><ele>279.5</ele><time>2026-04-26T11:06:54.979Z</time></trkpt><trkpt lat="43.5244715" lon="11.2906105"><ele>279.0</ele><time>2026-04-26T11:06:55.979Z</time></trkpt><trkpt lat="43.5245954" lon="11.290587"><ele>278.5</ele><time>2026-04-26T11:06:56.981Z</time></trkpt><trkpt lat="43.524719" lon="11.2905374"><ele>278.0</ele><time>2026-04-26T11:06:57.984Z</time></trkpt><trkpt lat="43.5248437" lon="11.2904851"><ele>278.0</ele><time>2026-04-26T11:06:58.981Z</time></trkpt><trkpt lat="43.5249721" lon="11.2904463"><ele>278.0</ele><time>2026-04-26T11:06:59.981Z</time></trkpt><trkpt lat="43.5251054" lon="11.2904264"><ele>278.0</ele><time>2026-04-26T11:07:00.979Z</time></trkpt><trkpt lat="43.5252416" lon="11.2904145"><ele>278.0</ele><time>2026-04-26T11:07:01.981Z</time></trkpt><trkpt lat="43.5253851" lon="11.2904016"><ele>276.0</ele><time>2026-04-26T11:07:02.982Z</time></trkpt><trkpt lat="43.5255282" lon="11.2903808"><ele>274.0</ele><time>2026-04-26T11:07:03.979Z</time></trkpt><trkpt lat="43.5256735" lon="11.2903523"><ele>272.0</ele><time>2026-04-26T11:07:04.979Z</time></trkpt><trkpt lat="43.5258245" lon="11.2903157"><ele>270.0</ele><time>2026-04-26T11:07:05.978Z</time></trkpt><trkpt lat="43.5259762" lon="11.2902712"><ele>270.0</ele><time>2026-04-26T11:07:06.979Z</time></trkpt><trkpt lat="43.5261244" lon="11.2902272"><ele>270.0</ele><time>2026-04-26T11:07:07.985Z</time></trkpt><trkpt lat="43.5262632" lon="11.2901824"><ele>270.0</ele><time>2026-04-26T11:07:08.977Z</time></trkpt><trkpt lat="43.5263953" lon="11.2901399"><ele>270.0</ele><time>2026-04-26T11:07:09.98Z</time></trkpt><trkpt lat="43.5265169" lon="11.2901004"><ele>269.25</ele><time>2026-04-26T11:07:10.98Z</time></trkpt><trkpt lat="43.5266299" lon="11.2900481"><ele>268.5</ele><time>2026-04-26T11:07:11.978Z</time></trkpt><trkpt lat="43.5267281" lon="11.2899821"><ele>267.75</ele><time>2026-04-26T11:07:12.978Z</time></trkpt><trkpt lat="43.5268167" lon="11.2898937"><ele>267.0</ele><time>2026-04-26T11:07:13.98Z</time></trkpt><trkpt lat="43.5268981" lon="11.2897857"><ele>267.5</ele><time>2026-04-26T11:07:14.981Z</time></trkpt><trkpt lat="43.5269725" lon="11.2896582"><ele>268.0</ele><time>2026-04-26T11:07:15.98Z</time></trkpt><trkpt lat="43.5270302" lon="11.2895107"><ele>268.5</ele><time>2026-04-26T11:07:16.979Z</time></trkpt><trkpt lat="43.5270744" lon="11.2893477"><ele>269.0</ele><time>2026-04-26T11:07:17.978Z</time></trkpt><trkpt lat="43.5270982" lon="11.2891703"><ele>270.5</ele><time>2026-04-26T11:07:18.98Z</time></trkpt><trkpt lat="43.5270984" lon="11.2889914"><ele>272.0</ele><time>2026-04-26T11:07:19.98Z</time></trkpt><trkpt lat="43.5270759" lon="11.2888103"><ele>273.5</ele><time>2026-04-26T11:07:20.981Z</time></trkpt><trkpt lat="43.5270408" lon="11.2886344"><ele>275.0</ele><time>2026-04-26T11:07:21.977Z</time></trkpt><trkpt lat="43.527002" lon="11.2884553"><ele>275.0</ele><time>2026-04-26T11:07:22.982Z</time></trkpt><trkpt lat="43.526961" lon="11.2882755"><ele>275.0</ele><time>2026-04-26T11:07:23.982Z</time></trkpt><trkpt lat="43.5269246" lon="11.2880935"><ele>275.0</ele><time>2026-04-26T11:07:24.979Z</time></trkpt><trkpt lat="43.5268921" lon="11.2879134"><ele>275.0</ele><time>2026-04-26T11:07:25.979Z</time></trkpt><trkpt lat="43.5268668" lon="11.2877397"><ele>277.25</ele><time>2026-04-26T11:07:26.978Z</time></trkpt><trkpt lat="43.5268574" lon="11.2875709"><ele>279.5</ele><time>2026-04-26T11:07:27.979Z</time></trkpt><trkpt lat="43.5268613" lon="11.2874012"><ele>281.75</ele><time>2026-04-26T11:07:28.984Z</time></trkpt><trkpt lat="43.5268876" lon="11.2872336"><ele>284.0</ele><time>2026-04-26T11:07:29.98Z</time></trkpt><trkpt lat="43.5269203" lon="11.287067"><ele>284.25</ele><time>2026-04-26T11:07:30.979Z</time></trkpt><trkpt lat="43.5269591" lon="11.2868988"><ele>284.5</ele><time>2026-04-26T11:07:31.979Z</time></trkpt><trkpt lat="43.5269999" lon="11.2867383"><ele>284.75</ele><time>2026-04-26T11:07:32.98Z</time></trkpt><trkpt lat="43.5270373" lon="11.2865963"><ele>285.0</ele><time>2026-04-26T11:07:33.978Z</time></trkpt><trkpt lat="43.5270906" lon="11.2864828"><ele>287.6</ele><time>2026-04-26T11:07:34.978Z</time></trkpt><trkpt lat="43.5271602" lon="11.2863863"><ele>290.2</ele><time>2026-04-26T11:07:35.98Z</time></trkpt><trkpt lat="43.5272556" lon="11.2863201"><ele>292.8</ele><time>2026-04-26T11:07:36.979Z</time></trkpt><trkpt lat="43.5273556" lon="11.2862561"><ele>295.4</ele><time>2026-04-26T11:07:37.977Z</time></trkpt><trkpt lat="43.5274593" lon="11.2862007"><ele>298.0</ele><time>2026-04-26T11:07:38.978Z</time></trkpt><trkpt lat="43.5275552" lon="11.2861157"><ele>298.0</ele><time>2026-04-26T11:07:39.982Z</time></trkpt><trkpt lat="43.5276288" lon="11.2860025"><ele>298.0</ele><time>2026-04-26T11:07:40.978Z</time></trkpt><trkpt lat="43.5276905" lon="11.2858589"><ele>298.0</ele><time>2026-04-26T11:07:41.98Z</time></trkpt><trkpt lat="43.5277348" lon="11.2856955"><ele>298.0</ele><time>2026-04-26T11:07:42.98Z</time></trkpt><trkpt lat="43.5277689" lon="11.2855292"><ele>297.75</ele><time>2026-04-26T11:07:43.98Z</time></trkpt><trkpt lat="43.5277887" lon="11.2853587"><ele>297.5</ele><time>2026-04-26T11:07:44.979Z</time></trkpt><trkpt lat="43.5277916" lon="11.2852013"><ele>297.25</ele><time>2026-04-26T11:07:45.979Z</time></trkpt><trkpt lat="43.5277726" lon="11.2850426"><ele>297.0</ele><time>2026-04-26T11:07:46.978Z</time></trkpt><trkpt lat="43.5277341" lon="11.2848808"><ele>300.0</ele><time>2026-04-26T11:07:47.996Z</time></trkpt><trkpt lat="43.5276811" lon="11.2847239"><ele>303.0</ele><time>2026-04-26T11:07:48.979Z</time></trkpt><trkpt lat="43.5275429" lon="11.2844722"><ele>306.0</ele><time>2026-04-26T11:07:50.978Z</time></trkpt><trkpt lat="43.5274542" lon="11.2843781"><ele>306.0</ele><time>2026-04-26T11:07:51.978Z</time></trkpt><trkpt lat="43.527373" lon="11.284287"><ele>306.0</ele><time>2026-04-26T11:07:52.981Z</time></trkpt><trkpt lat="43.5273153" lon="11.284193"><ele>306.0</ele><time>2026-04-26T11:07:53.978Z</time></trkpt><trkpt lat="43.5272985" lon="11.2840965"><ele>306.0</ele><time>2026-04-26T11:07:54.978Z</time></trkpt><trkpt lat="43.5273549" lon="11.2839613"><ele>306.0</ele><time>2026-04-26T11:07:56.977Z</time></trkpt><trkpt lat="43.5274176" lon="11.2839427"><ele>306.0</ele><time>2026-04-26T11:07:57.981Z</time></trkpt><trkpt lat="43.5274925" lon="11.2839493"><ele>306.0</ele><time>2026-04-26T11:07:58.983Z</time></trkpt><trkpt lat="43.5276013" lon="11.2839631"><ele>306.0</ele><time>2026-04-26T11:07:59.978Z</time></trkpt><trkpt lat="43.5277192" lon="11.28397"><ele>306.0</ele><time>2026-04-26T11:08:00.979Z</time></trkpt><trkpt lat="43.5278441" lon="11.2839823"><ele>306.0</ele><time>2026-04-26T11:08:01.977Z</time></trkpt><trkpt lat="43.5279724" lon="11.2839996"><ele>308.75</ele><time>2026-04-26T11:08:02.981Z</time></trkpt><trkpt lat="43.5281084" lon="11.2840528"><ele>311.5</ele><time>2026-04-26T11:08:03.978Z</time></trkpt><trkpt lat="43.5282514" lon="11.2841288"><ele>314.25</ele><time>2026-04-26T11:08:04.979Z</time></trkpt><trkpt lat="43.5283922" lon="11.2842064"><ele>317.0</ele><time>2026-04-26T11:08:05.979Z</time></trkpt><trkpt lat="43.5285283" lon="11.2842913"><ele>317.0</ele><time>2026-04-26T11:08:06.98Z</time></trkpt><trkpt lat="43.5286525" lon="11.2843777"><ele>317.0</ele><time>2026-04-26T11:08:07.978Z</time></trkpt><trkpt lat="43.5287636" lon="11.2844772"><ele>317.0</ele><time>2026-04-26T11:08:08.982Z</time></trkpt><trkpt lat="43.5288675" lon="11.2845805"><ele>317.0</ele><time>2026-04-26T11:08:09.978Z</time></trkpt><trkpt lat="43.5289619" lon="11.2846896"><ele>319.25</ele><time>2026-04-26T11:08:10.977Z</time></trkpt><trkpt lat="43.5290571" lon="11.2847943"><ele>321.5</ele><time>2026-04-26T11:08:11.979Z</time></trkpt><trkpt lat="43.5291485" lon="11.2848949"><ele>323.75</ele><time>2026-04-26T11:08:12.98Z</time></trkpt><trkpt lat="43.5292365" lon="11.2849981"><ele>326.0</ele><time>2026-04-26T11:08:13.979Z</time></trkpt><trkpt lat="43.5293174" lon="11.2850916"><ele>326.0</ele><time>2026-04-26T11:08:14.982Z</time></trkpt><trkpt lat="43.5293871" lon="11.2851687"><ele>326.0</ele><time>2026-04-26T11:08:15.979Z</time></trkpt><trkpt lat="43.5294509" lon="11.2852335"><ele>326.0</ele><time>2026-04-26T11:08:16.98Z</time></trkpt><trkpt lat="43.529547" lon="11.2853106"><ele>326.0</ele><time>2026-04-26T11:08:18.981Z</time></trkpt><trkpt lat="43.529639" lon="11.2853062"><ele>326.0</ele><time>2026-04-26T11:08:20.981Z</time></trkpt><trkpt lat="43.5297146" lon="11.2851945"><ele>327.8571428571429</ele><time>2026-04-26T11:08:22.978Z</time></trkpt><trkpt lat="43.5297439" lon="11.2851174"><ele>329.71428571428567</ele><time>2026-04-26T11:08:23.978Z</time></trkpt><trkpt lat="43.5297738" lon="11.2850318"><ele>331.57142857142856</ele><time>2026-04-26T11:08:24.979Z</time></trkpt><trkpt lat="43.5298017" lon="11.2849452"><ele>333.42857142857144</ele><time>2026-04-26T11:08:25.978Z</time></trkpt><trkpt lat="43.5298335" lon="11.2848556"><ele>335.28571428571433</ele><time>2026-04-26T11:08:26.981Z</time></trkpt><trkpt lat="43.529865" lon="11.2847761"><ele>337.1428571428571</ele><time>2026-04-26T11:08:27.979Z</time></trkpt><trkpt lat="43.5299339" lon="11.2846645"><ele>339.0</ele><time>2026-04-26T11:08:29.985Z</time></trkpt><trkpt lat="43.5299896" lon="11.2845803"><ele>339.2</ele><time>2026-04-26T11:08:31.981Z</time></trkpt><trkpt lat="43.5300419" lon="11.2844804"><ele>339.4</ele><time>2026-04-26T11:08:33.98Z</time></trkpt><trkpt lat="43.5300672" lon="11.284298"><ele>339.6</ele><time>2026-04-26T11:08:35.981Z</time></trkpt><trkpt lat="43.530063" lon="11.2841936"><ele>339.8</ele><time>2026-04-26T11:08:36.982Z</time></trkpt><trkpt lat="43.5300497" lon="11.2840765"><ele>340.0</ele><time>2026-04-26T11:08:37.979Z</time></trkpt><trkpt lat="43.5300416" lon="11.283969"><ele>339.66666666666663</ele><time>2026-04-26T11:08:38.979Z</time></trkpt><trkpt lat="43.5300338" lon="11.283862"><ele>339.3333333333333</ele><time>2026-04-26T11:08:39.982Z</time></trkpt><trkpt lat="43.5300232" lon="11.2837617"><ele>339.0</ele><time>2026-04-26T11:08:40.983Z</time></trkpt><trkpt lat="43.5300099" lon="11.2836578"><ele>338.6666666666667</ele><time>2026-04-26T11:08:41.977Z</time></trkpt><trkpt lat="43.5299877" lon="11.28355"><ele>338.33333333333337</ele><time>2026-04-26T11:08:42.979Z</time></trkpt><trkpt lat="43.5299578" lon="11.2834451"><ele>338.0</ele><time>2026-04-26T11:08:43.979Z</time></trkpt><trkpt lat="43.5299125" lon="11.2833504"><ele>338.0</ele><time>2026-04-26T11:08:44.98Z</time></trkpt><trkpt lat="43.5298573" lon="11.2832575"><ele>338.0</ele><time>2026-04-26T11:08:45.979Z</time></trkpt><trkpt lat="43.5297881" lon="11.2831719"><ele>338.0</ele><time>2026-04-26T11:08:46.978Z</time></trkpt><trkpt lat="43.5297151" lon="11.2830961"><ele>338.0</ele><time>2026-04-26T11:08:47.979Z</time></trkpt><trkpt lat="43.5296223" lon="11.2830448"><ele>338.0</ele><time>2026-04-26T11:08:48.978Z</time></trkpt><trkpt lat="43.5295375" lon="11.2829743"><ele>338.2</ele><time>2026-04-26T11:08:49.979Z</time></trkpt><trkpt lat="43.5294598" lon="11.2828865"><ele>338.4</ele><time>2026-04-26T11:08:50.981Z</time></trkpt><trkpt lat="43.5293973" lon="11.282777"><ele>338.59999999999997</ele><time>2026-04-26T11:08:51.979Z</time></trkpt><trkpt lat="43.5293377" lon="11.2826566"><ele>338.79999999999995</ele><time>2026-04-26T11:08:52.981Z</time></trkpt><trkpt lat="43.5292824" lon="11.2825336"><ele>339.0</ele><time>2026-04-26T11:08:53.979Z</time></trkpt><trkpt lat="43.5292232" lon="11.2824013"><ele>339.6</ele><time>2026-04-26T11:08:54.98Z</time></trkpt><trkpt lat="43.5291685" lon="11.282263"><ele>340.2</ele><time>2026-04-26T11:08:55.982Z</time></trkpt><trkpt lat="43.5291164" lon="11.2821303"><ele>340.8</ele><time>2026-04-26T11:08:56.979Z</time></trkpt><trkpt lat="43.5290688" lon="11.2819969"><ele>341.40000000000003</ele><time>2026-04-26T11:08:57.978Z</time></trkpt><trkpt lat="43.5290353" lon="11.2818639"><ele>342.0</ele><time>2026-04-26T11:08:58.979Z</time></trkpt><trkpt lat="43.5290176" lon="11.2817374"><ele>342.0</ele><time>2026-04-26T11:08:59.977Z</time></trkpt><trkpt lat="43.5290175" lon="11.2816198"><ele>342.0</ele><time>2026-04-26T11:09:00.978Z</time></trkpt><trkpt lat="43.5290474" lon="11.2815013"><ele>342.0</ele><time>2026-04-26T11:09:01.983Z</time></trkpt><trkpt lat="43.5291015" lon="11.2814027"><ele>342.0</ele><time>2026-04-26T11:09:02.978Z</time></trkpt><trkpt lat="43.5291792" lon="11.2813096"><ele>342.0</ele><time>2026-04-26T11:09:03.979Z</time></trkpt><trkpt lat="43.529272" lon="11.281243"><ele>343.40000000000003</ele><time>2026-04-26T11:09:04.979Z</time></trkpt><trkpt lat="43.5293723" lon="11.2812024"><ele>344.8</ele><time>2026-04-26T11:09:05.979Z</time></trkpt><trkpt lat="43.529481" lon="11.2811764"><ele>346.2</ele><time>2026-04-26T11:09:06.984Z</time></trkpt><trkpt lat="43.5295878" lon="11.2811502"><ele>347.6</ele><time>2026-04-26T11:09:07.978Z</time></trkpt><trkpt lat="43.5296962" lon="11.2811263"><ele>349.0</ele><time>2026-04-26T11:09:08.98Z</time></trkpt><trkpt lat="43.5298051" lon="11.2810979"><ele>349.0</ele><time>2026-04-26T11:09:09.978Z</time></trkpt><trkpt lat="43.5299123" lon="11.2810693"><ele>349.0</ele><time>2026-04-26T11:09:10.978Z</time></trkpt><trkpt lat="43.5300154" lon="11.2810453"><ele>349.0</ele><time>2026-04-26T11:09:11.978Z</time></trkpt><trkpt lat="43.5302178" lon="11.2809893"><ele>349.0</ele><time>2026-04-26T11:09:13.979Z</time></trkpt><trkpt lat="43.5303152" lon="11.2809479"><ele>349.79999999999995</ele><time>2026-04-26T11:09:14.98Z</time></trkpt><trkpt lat="43.5304191" lon="11.2808933"><ele>350.59999999999997</ele><time>2026-04-26T11:09:15.983Z</time></trkpt><trkpt lat="43.5305201" lon="11.2808309"><ele>351.4</ele><time>2026-04-26T11:09:16.977Z</time></trkpt><trkpt lat="43.5306096" lon="11.2807583"><ele>352.2</ele><time>2026-04-26T11:09:17.981Z</time></trkpt><trkpt lat="43.5306984" lon="11.2806982"><ele>353.0</ele><time>2026-04-26T11:09:18.979Z</time></trkpt><trkpt lat="43.5307949" lon="11.280671"><ele>353.0</ele><time>2026-04-26T11:09:19.979Z</time></trkpt><trkpt lat="43.5308931" lon="11.280671"><ele>353.0</ele><time>2026-04-26T11:09:20.978Z</time></trkpt><trkpt lat="43.5309804" lon="11.2806946"><ele>353.0</ele><time>2026-04-26T11:09:21.987Z</time></trkpt><trkpt lat="43.5310571" lon="11.2807316"><ele>353.0</ele><time>2026-04-26T11:09:22.98Z</time></trkpt><trkpt lat="43.531134" lon="11.2807785"><ele>353.0</ele><time>2026-04-26T11:09:23.979Z</time></trkpt><trkpt lat="43.5312155" lon="11.2808234"><ele>353.0</ele><time>2026-04-26T11:09:24.978Z</time></trkpt><trkpt lat="43.5312982" lon="11.2808721"><ele>354.33333333333337</ele><time>2026-04-26T11:09:25.978Z</time></trkpt><trkpt lat="43.5313854" lon="11.2809109"><ele>355.6666666666667</ele><time>2026-04-26T11:09:26.978Z</time></trkpt><trkpt lat="43.5314763" lon="11.2809285"><ele>357.0</ele><time>2026-04-26T11:09:27.977Z</time></trkpt><trkpt lat="43.5315662" lon="11.2809247"><ele>358.3333333333333</ele><time>2026-04-26T11:09:28.977Z</time></trkpt><trkpt lat="43.5316524" lon="11.280915"><ele>359.66666666666663</ele><time>2026-04-26T11:09:29.977Z</time></trkpt><trkpt lat="43.5317342" lon="11.2808932"><ele>361.0</ele><time>2026-04-26T11:09:30.978Z</time></trkpt><trkpt lat="43.5318128" lon="11.2808681"><ele>361.0</ele><time>2026-04-26T11:09:31.979Z</time></trkpt><trkpt lat="43.5318811" lon="11.2808403"><ele>361.0</ele><time>2026-04-26T11:09:32.979Z</time></trkpt><trkpt lat="43.5319508" lon="11.2808175"><ele>361.0</ele><time>2026-04-26T11:09:33.981Z</time></trkpt><trkpt lat="43.5320215" lon="11.2807858"><ele>361.0</ele><time>2026-04-26T11:09:34.979Z</time></trkpt><trkpt lat="43.5320895" lon="11.2807612"><ele>361.0</ele><time>2026-04-26T11:09:35.989Z</time></trkpt><trkpt lat="43.5321579" lon="11.2807161"><ele>361.0</ele><time>2026-04-26T11:09:36.979Z</time></trkpt><trkpt lat="43.5322124" lon="11.2806486"><ele>361.0</ele><time>2026-04-26T11:09:37.982Z</time></trkpt><trkpt lat="43.5322544" lon="11.28056"><ele>361.8</ele><time>2026-04-26T11:09:38.98Z</time></trkpt><trkpt lat="43.5322844" lon="11.2804413"><ele>362.6</ele><time>2026-04-26T11:09:39.979Z</time></trkpt><trkpt lat="43.5323156" lon="11.2803182"><ele>363.4</ele><time>2026-04-26T11:09:40.979Z</time></trkpt><trkpt lat="43.5323481" lon="11.2801907"><ele>364.2</ele><time>2026-04-26T11:09:41.978Z</time></trkpt><trkpt lat="43.5323892" lon="11.2800601"><ele>365.0</ele><time>2026-04-26T11:09:42.979Z</time></trkpt><trkpt lat="43.5324438" lon="11.2799454"><ele>365.0</ele><time>2026-04-26T11:09:43.979Z</time></trkpt><trkpt lat="43.532513" lon="11.2798539"><ele>365.0</ele><time>2026-04-26T11:09:44.981Z</time></trkpt><trkpt lat="43.5325995" lon="11.279789"><ele>365.0</ele><time>2026-04-26T11:09:45.983Z</time></trkpt><trkpt lat="43.5326947" lon="11.2797514"><ele>365.0</ele><time>2026-04-26T11:09:46.981Z</time></trkpt><trkpt lat="43.5327889" lon="11.2797378"><ele>365.0</ele><time>2026-04-26T11:09:47.98Z</time></trkpt><trkpt lat="43.5328832" lon="11.2797297"><ele>364.0</ele><time>2026-04-26T11:09:48.983Z</time></trkpt><trkpt lat="43.5329691" lon="11.2797027"><ele>363.0</ele><time>2026-04-26T11:09:49.981Z</time></trkpt><trkpt lat="43.5330392" lon="11.2796549"><ele>362.0</ele><time>2026-04-26T11:09:50.978Z</time></trkpt><trkpt lat="43.5330968" lon="11.2795731"><ele>361.0</ele><time>2026-04-26T11:09:51.979Z</time></trkpt><trkpt lat="43.5331372" lon="11.2794726"><ele>360.0</ele><time>2026-04-26T11:09:52.979Z</time></trkpt><trkpt lat="43.5331542" lon="11.2793655"><ele>359.0</ele><time>2026-04-26T11:09:53.981Z</time></trkpt><trkpt lat="43.533157" lon="11.2792501"><ele>359.0</ele><time>2026-04-26T11:09:54.978Z</time></trkpt><trkpt lat="43.5331389" lon="11.2791368"><ele>359.0</ele><time>2026-04-26T11:09:55.978Z</time></trkpt><trkpt lat="43.5331107" lon="11.2790212"><ele>359.0</ele><time>2026-04-26T11:09:56.978Z</time></trkpt><trkpt lat="43.5330756" lon="11.2789031"><ele>359.0</ele><time>2026-04-26T11:09:57.978Z</time></trkpt><trkpt lat="43.5330426" lon="11.27879"><ele>359.0</ele><time>2026-04-26T11:09:58.993Z</time></trkpt><trkpt lat="43.5330135" lon="11.2786797"><ele>359.0</ele><time>2026-04-26T11:09:59.981Z</time></trkpt><trkpt lat="43.5329915" lon="11.2785623"><ele>360.2</ele><time>2026-04-26T11:10:00.979Z</time></trkpt><trkpt lat="43.5329885" lon="11.2784353"><ele>361.4</ele><time>2026-04-26T11:10:01.977Z</time></trkpt><trkpt lat="43.5330053" lon="11.2783119"><ele>362.6</ele><time>2026-04-26T11:10:02.981Z</time></trkpt><trkpt lat="43.5330465" lon="11.2781948"><ele>363.8</ele><time>2026-04-26T11:10:03.977Z</time></trkpt><trkpt lat="43.5331062" lon="11.2781013"><ele>365.0</ele><time>2026-04-26T11:10:04.994Z</time></trkpt><trkpt lat="43.5331847" lon="11.2780289"><ele>366.8</ele><time>2026-04-26T11:10:05.98Z</time></trkpt><trkpt lat="43.533271" lon="11.2779844"><ele>368.6</ele><time>2026-04-26T11:10:06.979Z</time></trkpt><trkpt lat="43.5333626" lon="11.2779503"><ele>370.4</ele><time>2026-04-26T11:10:07.977Z</time></trkpt><trkpt lat="43.5334532" lon="11.2779168"><ele>372.2</ele><time>2026-04-26T11:10:08.984Z</time></trkpt><trkpt lat="43.5335378" lon="11.2778716"><ele>374.0</ele><time>2026-04-26T11:10:09.979Z</time></trkpt><trkpt lat="43.5336123" lon="11.2778054"><ele>374.0</ele><time>2026-04-26T11:10:10.979Z</time></trkpt><trkpt lat="43.5336743" lon="11.277714"><ele>374.0</ele><time>2026-04-26T11:10:11.978Z</time></trkpt><trkpt lat="43.5337284" lon="11.2776003"><ele>374.0</ele><time>2026-04-26T11:10:12.98Z</time></trkpt><trkpt lat="43.5337675" lon="11.2774672"><ele>374.0</ele><time>2026-04-26T11:10:13.979Z</time></trkpt><trkpt lat="43.5338036" lon="11.2773338"><ele>374.0</ele><time>2026-04-26T11:10:14.981Z</time></trkpt><trkpt lat="43.533835" lon="11.277194"><ele>373.2</ele><time>2026-04-26T11:10:15.98Z</time></trkpt><trkpt lat="43.5338673" lon="11.2770545"><ele>372.4</ele><time>2026-04-26T11:10:16.984Z</time></trkpt><trkpt lat="43.5339113" lon="11.2769302"><ele>371.6</ele><time>2026-04-26T11:10:17.981Z</time></trkpt><trkpt lat="43.5339704" lon="11.2768233"><ele>370.8</ele><time>2026-04-26T11:10:18.978Z</time></trkpt><trkpt lat="43.53404" lon="11.2767215"><ele>370.0</ele><time>2026-04-26T11:10:19.98Z</time></trkpt><trkpt lat="43.5341089" lon="11.2766224"><ele>370.0</ele><time>2026-04-26T11:10:20.984Z</time></trkpt><trkpt lat="43.5341843" lon="11.2765249"><ele>370.0</ele><time>2026-04-26T11:10:21.979Z</time></trkpt><trkpt lat="43.534261" lon="11.2764267"><ele>370.0</ele><time>2026-04-26T11:10:22.977Z</time></trkpt><trkpt lat="43.5343343" lon="11.2763282"><ele>370.0</ele><time>2026-04-26T11:10:23.981Z</time></trkpt><trkpt lat="43.5344083" lon="11.276222"><ele>370.0</ele><time>2026-04-26T11:10:24.98Z</time></trkpt><trkpt lat="43.53448" lon="11.2761095"><ele>369.25</ele><time>2026-04-26T11:10:25.979Z</time></trkpt><trkpt lat="43.5345541" lon="11.2759873"><ele>368.5</ele><time>2026-04-26T11:10:26.979Z</time></trkpt><trkpt lat="43.5346304" lon="11.2758574"><ele>367.75</ele><time>2026-04-26T11:10:27.978Z</time></trkpt><trkpt lat="43.5347089" lon="11.2757255"><ele>367.0</ele><time>2026-04-26T11:10:28.979Z</time></trkpt><trkpt lat="43.5347787" lon="11.2755979"><ele>368.8</ele><time>2026-04-26T11:10:29.979Z</time></trkpt><trkpt lat="43.5348395" lon="11.2754758"><ele>370.6</ele><time>2026-04-26T11:10:30.978Z</time></trkpt><trkpt lat="43.5348954" lon="11.2753496"><ele>372.40000000000003</ele><time>2026-04-26T11:10:31.984Z</time></trkpt><trkpt lat="43.5349377" lon="11.2752198"><ele>374.20000000000005</ele><time>2026-04-26T11:10:32.98Z</time></trkpt><trkpt lat="43.5349761" lon="11.2750819"><ele>376.0</ele><time>2026-04-26T11:10:33.982Z</time></trkpt><trkpt lat="43.5350095" lon="11.2749398"><ele>376.0</ele><time>2026-04-26T11:10:34.982Z</time></trkpt><trkpt lat="43.5350261" lon="11.2747982"><ele>376.0</ele><time>2026-04-26T11:10:35.979Z</time></trkpt><trkpt lat="43.5350332" lon="11.2746523"><ele>376.0</ele><time>2026-04-26T11:10:36.98Z</time></trkpt><trkpt lat="43.5350266" lon="11.2745101"><ele>376.0</ele><time>2026-04-26T11:10:37.98Z</time></trkpt><trkpt lat="43.5350139" lon="11.2743715"><ele>376.0</ele><time>2026-04-26T11:10:38.98Z</time></trkpt><trkpt lat="43.5350032" lon="11.2742323"><ele>376.6</ele><time>2026-04-26T11:10:39.981Z</time></trkpt><trkpt lat="43.5350121" lon="11.2740957"><ele>377.20000000000005</ele><time>2026-04-26T11:10:40.982Z</time></trkpt><trkpt lat="43.5350357" lon="11.2739605"><ele>377.79999999999995</ele><time>2026-04-26T11:10:41.983Z</time></trkpt><trkpt lat="43.5350806" lon="11.2738339"><ele>378.4</ele><time>2026-04-26T11:10:42.98Z</time></trkpt><trkpt lat="43.5351335" lon="11.2737085"><ele>379.0</ele><time>2026-04-26T11:10:43.979Z</time></trkpt><trkpt lat="43.5351749" lon="11.2735762"><ele>380.6</ele><time>2026-04-26T11:10:44.978Z</time></trkpt><trkpt lat="43.535197" lon="11.2734443"><ele>382.2</ele><time>2026-04-26T11:10:45.981Z</time></trkpt><trkpt lat="43.5352031" lon="11.2733078"><ele>383.8</ele><time>2026-04-26T11:10:46.977Z</time></trkpt><trkpt lat="43.5351957" lon="11.2731735"><ele>385.40000000000003</ele><time>2026-04-26T11:10:47.982Z</time></trkpt><trkpt lat="43.5351814" lon="11.2730412"><ele>387.0</ele><time>2026-04-26T11:10:48.978Z</time></trkpt><trkpt lat="43.5351619" lon="11.272916"><ele>386.8333333333333</ele><time>2026-04-26T11:10:49.979Z</time></trkpt><trkpt lat="43.5351419" lon="11.2727906"><ele>386.66666666666663</ele><time>2026-04-26T11:10:50.978Z</time></trkpt><trkpt lat="43.5351249" lon="11.2726723"><ele>386.5</ele><time>2026-04-26T11:10:51.978Z</time></trkpt><trkpt lat="43.5351131" lon="11.2725511"><ele>386.3333333333333</ele><time>2026-04-26T11:10:52.979Z</time></trkpt><trkpt lat="43.5351137" lon="11.2724318"><ele>386.16666666666663</ele><time>2026-04-26T11:10:53.981Z</time></trkpt><trkpt lat="43.5351256" lon="11.2723244"><ele>386.0</ele><time>2026-04-26T11:10:54.979Z</time></trkpt><trkpt lat="43.5351448" lon="11.2722255"><ele>385.99999999999994</ele><time>2026-04-26T11:10:55.981Z</time></trkpt><trkpt lat="43.5351576" lon="11.2721345"><ele>386.0</ele><time>2026-04-26T11:10:56.981Z</time></trkpt><trkpt lat="43.5351552" lon="11.2720044"><ele>386.0</ele><time>2026-04-26T11:10:58.982Z</time></trkpt><trkpt lat="43.5350998" lon="11.2719207"><ele>386.0</ele><time>2026-04-26T11:11:01.977Z</time></trkpt><trkpt lat="43.5350324" lon="11.2719198"><ele>385.99999999999994</ele><time>2026-04-26T11:11:03.978Z</time></trkpt><trkpt lat="43.5349504" lon="11.2719173"><ele>386.0</ele><time>2026-04-26T11:11:05.977Z</time></trkpt><trkpt lat="43.5348628" lon="11.2719178"><ele>386.0</ele><time>2026-04-26T11:11:07.977Z</time></trkpt><trkpt lat="43.5347652" lon="11.2719197"><ele>386.0</ele><time>2026-04-26T11:11:09.979Z</time></trkpt><trkpt lat="43.534651" lon="11.27191"><ele>386.0</ele><time>2026-04-26T11:11:11.978Z</time></trkpt><trkpt lat="43.5345459" lon="11.2719139"><ele>386.0</ele><time>2026-04-26T11:11:13.982Z</time></trkpt><trkpt lat="43.5344929" lon="11.2718472"><ele>386.0</ele><time>2026-04-26T11:11:17.978Z</time></trkpt><trkpt lat="43.5344417" lon="11.2718981"><ele>386.00000000000006</ele><time>2026-04-26T11:11:56.978Z</time></trkpt><trkpt lat="43.534519" lon="11.2718913"><ele>386.0</ele><time>2026-04-26T11:14:09.976Z</time></trkpt><trkpt lat="43.534584" lon="11.2719173"><ele>386.0</ele><time>2026-04-26T11:14:16.979Z</time></trkpt><trkpt lat="43.5346482" lon="11.2719258"><ele>386.0</ele><time>2026-04-26T11:14:22.923Z</time></trkpt><trkpt lat="43.5347141" lon="11.2719304"><ele>386.0</ele><time>2026-04-26T11:14:29.915Z</time></trkpt><trkpt lat="43.5347794" lon="11.2719349"><ele>386.00000000000006</ele><time>2026-04-26T11:14:36.981Z</time></trkpt><trkpt lat="43.5348481" lon="11.2719336"><ele>386.0</ele><time>2026-04-26T11:14:45.986Z</time></trkpt><trkpt lat="43.53492" lon="11.2719321"><ele>386.00000000000006</ele><time>2026-04-26T11:14:54.977Z</time></trkpt><trkpt lat="43.5349919" lon="11.2719427"><ele>386.0</ele><time>2026-04-26T11:15:01.977Z</time></trkpt><trkpt lat="43.5350593" lon="11.2719594"><ele>386.0</ele><time>2026-04-26T11:15:07.98Z</time></trkpt><trkpt lat="43.5351014" lon="11.2720292"><ele>386.0</ele><time>2026-04-26T11:15:17.014Z</time></trkpt><trkpt lat="43.5350177" lon="11.2720229"><ele>386.0</ele><time>2026-04-26T11:16:37.978Z</time></trkpt><trkpt lat="43.5349372" lon="11.2720109"><ele>386.00000000000006</ele><time>2026-04-26T12:51:53.969Z</time></trkpt><trkpt lat="43.5349984" lon="11.2719562"><ele>386.0</ele><time>2026-04-26T13:46:51.97Z</time></trkpt><trkpt lat="43.5349354" lon="11.2719488"><ele>386.00000000000006</ele><time>2026-04-26T13:53:00.961Z</time></trkpt><trkpt lat="43.5348272" lon="11.2719599"><ele>386.0</ele><time>2026-04-26T13:53:30.959Z</time></trkpt><trkpt lat="43.5347601" lon="11.271938"><ele>386.0</ele><time>2026-04-26T13:53:37.963Z</time></trkpt><trkpt lat="43.5346972" lon="11.2719457"><ele>386.0</ele><time>2026-04-26T13:53:45.963Z</time></trkpt><trkpt lat="43.5346349" lon="11.2719149"><ele>386.0</ele><time>2026-04-26T13:53:51.963Z</time></trkpt><trkpt lat="43.5345653" lon="11.2719099"><ele>386.00000000000006</ele><time>2026-04-26T13:54:16.968Z</time></trkpt><trkpt lat="43.5344975" lon="11.2718838"><ele>386.0</ele><time>2026-04-26T13:54:23.975Z</time></trkpt><trkpt lat="43.5344384" lon="11.2719173"><ele>396.0</ele><time>2026-04-26T13:57:06.965Z</time></trkpt></trkseg></trk></gpx>